<?xml version='1.0' encoding='UTF-8'?><gpx version="1.1" creator="JPX - https://github.com/jenetics/jpx" xmlns="http://www.topografix.com/GPX/1/1"><trk><trkseg><trkpt lat="43.9831811" lon="3.5890259"><ele>350.0</ele><time>2026-04-12T13:20:03.181Z</time></trkpt><trkpt lat="43.9832633" lon="3.5890131"><ele>350.0</ele><time>2026-04-12T13:20:05.182Z</time></trkpt><trkpt lat="43.9833414" lon="3.5889823"><ele>350.0</ele><time>2026-04-12T13:20:38.181Z</time></trkpt><trkpt lat="43.9834243" lon="3.5888715"><ele>350.0</ele><time>2026-04-12T13:20:40.181Z</time></trkpt><trkpt lat="43.9834888" lon="3.5887683"><ele>350.0</ele><time>2026-04-12T13:20:42.181Z</time></trkpt><trkpt lat="43.983492" lon="3.5886673"><ele>348.4</ele><time>2026-04-12T13:20:44.181Z</time></trkpt><trkpt lat="43.9833873" lon="3.5886223"><ele>346.8</ele><time>2026-04-12T13:20:46.182Z</time></trkpt><trkpt lat="43.9833054" lon="3.5885998"><ele>345.20000000000005</ele><time>2026-04-12T13:20:47.182Z</time></trkpt><trkpt lat="43.9832006" lon="3.5885512"><ele>343.6</ele><time>2026-04-12T13:20:48.181Z</time></trkpt><trkpt lat="43.983099" lon="3.5884883"><ele>342.0</ele><time>2026-04-12T13:20:49.181Z</time></trkpt><trkpt lat="43.9830058" lon="3.5884057"><ele>342.0</ele><time>2026-04-12T13:20:50.181Z</time></trkpt><trkpt lat="43.9829213" lon="3.5883428"><ele>342.0</ele><time>2026-04-12T13:20:51.181Z</time></trkpt><trkpt lat="43.982845" lon="3.5882819"><ele>342.0</ele><time>2026-04-12T13:20:52.182Z</time></trkpt><trkpt lat="43.9827599" lon="3.588243"><ele>342.0</ele><time>2026-04-12T13:20:53.181Z</time></trkpt><trkpt lat="43.9826613" lon="3.5882273"><ele>342.0</ele><time>2026-04-12T13:20:54.182Z</time></trkpt><trkpt lat="43.9825696" lon="3.5882348"><ele>340.6</ele><time>2026-04-12T13:20:55.182Z</time></trkpt><trkpt lat="43.982481" lon="3.5882725"><ele>339.20000000000005</ele><time>2026-04-12T13:20:56.181Z</time></trkpt><trkpt lat="43.9824017" lon="3.5883577"><ele>337.8</ele><time>2026-04-12T13:20:57.181Z</time></trkpt><trkpt lat="43.9823498" lon="3.5884524"><ele>336.4</ele><time>2026-04-12T13:20:58.182Z</time></trkpt><trkpt lat="43.982295" lon="3.5885732"><ele>335.0</ele><time>2026-04-12T13:20:59.182Z</time></trkpt><trkpt lat="43.9822448" lon="3.588689"><ele>335.0</ele><time>2026-04-12T13:21:00.181Z</time></trkpt><trkpt lat="43.982197" lon="3.5888129"><ele>335.0</ele><time>2026-04-12T13:21:01.182Z</time></trkpt><trkpt lat="43.9821593" lon="3.5889542"><ele>335.0</ele><time>2026-04-12T13:21:02.182Z</time></trkpt><trkpt lat="43.9821491" lon="3.5891151"><ele>335.0</ele><time>2026-04-12T13:21:03.182Z</time></trkpt><trkpt lat="43.9821773" lon="3.5892785"><ele>335.0</ele><time>2026-04-12T13:21:04.182Z</time></trkpt><trkpt lat="43.9822321" lon="3.5894539"><ele>336.5</ele><time>2026-04-12T13:21:05.181Z</time></trkpt><trkpt lat="43.9823131" lon="3.589596"><ele>338.0</ele><time>2026-04-12T13:21:06.182Z</time></trkpt><trkpt lat="43.9824323" lon="3.589708"><ele>339.5</ele><time>2026-04-12T13:21:07.181Z</time></trkpt><trkpt lat="43.98258" lon="3.5897956"><ele>341.0</ele><time>2026-04-12T13:21:08.181Z</time></trkpt><trkpt lat="43.9827313" lon="3.5898868"><ele>341.0</ele><time>2026-04-12T13:21:09.181Z</time></trkpt><trkpt lat="43.9828708" lon="3.5899778"><ele>341.0</ele><time>2026-04-12T13:21:10.181Z</time></trkpt><trkpt lat="43.982991" lon="3.5901091"><ele>341.0</ele><time>2026-04-12T13:21:11.181Z</time></trkpt><trkpt lat="43.9830751" lon="3.5902528"><ele>341.0</ele><time>2026-04-12T13:21:12.181Z</time></trkpt><trkpt lat="43.9831389" lon="3.5904358"><ele>337.0</ele><time>2026-04-12T13:21:13.181Z</time></trkpt><trkpt lat="43.9831725" lon="3.5906286"><ele>333.0</ele><time>2026-04-12T13:21:14.182Z</time></trkpt><trkpt lat="43.9831829" lon="3.5908232"><ele>329.0</ele><time>2026-04-12T13:21:15.181Z</time></trkpt><trkpt lat="43.983206" lon="3.591004"><ele>325.0</ele><time>2026-04-12T13:21:16.182Z</time></trkpt><trkpt lat="43.9832648" lon="3.5911641"><ele>323.25</ele><time>2026-04-12T13:21:17.181Z</time></trkpt><trkpt lat="43.9833519" lon="3.5913012"><ele>321.5</ele><time>2026-04-12T13:21:18.181Z</time></trkpt><trkpt lat="43.9834782" lon="3.5913991"><ele>319.75</ele><time>2026-04-12T13:21:19.182Z</time></trkpt><trkpt lat="43.9836284" lon="3.5914632"><ele>318.0</ele><time>2026-04-12T13:21:20.182Z</time></trkpt><trkpt lat="43.9838072" lon="3.5915224"><ele>318.0</ele><time>2026-04-12T13:21:21.182Z</time></trkpt><trkpt lat="43.9840024" lon="3.5915966"><ele>318.0</ele><time>2026-04-12T13:21:22.181Z</time></trkpt><trkpt lat="43.9841983" lon="3.59168"><ele>318.0</ele><time>2026-04-12T13:21:23.181Z</time></trkpt><trkpt lat="43.9843758" lon="3.5917675"><ele>320.6666666666667</ele><time>2026-04-12T13:21:24.181Z</time></trkpt><trkpt lat="43.9845408" lon="3.591873"><ele>323.33333333333337</ele><time>2026-04-12T13:21:25.182Z</time></trkpt><trkpt lat="43.9846903" lon="3.5919941"><ele>326.0</ele><time>2026-04-12T13:21:26.182Z</time></trkpt><trkpt lat="43.98482" lon="3.592141"><ele>323.25</ele><time>2026-04-12T13:21:27.181Z</time></trkpt><trkpt lat="43.984933" lon="3.5922882"><ele>320.5</ele><time>2026-04-12T13:21:28.181Z</time></trkpt><trkpt lat="43.9850505" lon="3.5924077"><ele>317.75</ele><time>2026-04-12T13:21:29.181Z</time></trkpt><trkpt lat="43.9851916" lon="3.5924736"><ele>315.0</ele><time>2026-04-12T13:21:30.182Z</time></trkpt><trkpt lat="43.9853529" lon="3.592529"><ele>315.0</ele><time>2026-04-12T13:21:31.182Z</time></trkpt><trkpt lat="43.985522" lon="3.5925755"><ele>315.0</ele><time>2026-04-12T13:21:32.181Z</time></trkpt><trkpt lat="43.9856776" lon="3.5926661"><ele>315.0</ele><time>2026-04-12T13:21:33.181Z</time></trkpt><trkpt lat="43.985819" lon="3.5927782"><ele>316.3333333333333</ele><time>2026-04-12T13:21:34.182Z</time></trkpt><trkpt lat="43.9859494" lon="3.5929191"><ele>317.66666666666663</ele><time>2026-04-12T13:21:35.181Z</time></trkpt><trkpt lat="43.986079" lon="3.5930916"><ele>319.0</ele><time>2026-04-12T13:21:36.181Z</time></trkpt><trkpt lat="43.9861988" lon="3.5932849"><ele>319.0</ele><time>2026-04-12T13:21:37.182Z</time></trkpt><trkpt lat="43.9862979" lon="3.5934846"><ele>319.0</ele><time>2026-04-12T13:21:38.182Z</time></trkpt><trkpt lat="43.9863735" lon="3.5936777"><ele>319.0</ele><time>2026-04-12T13:21:39.181Z</time></trkpt><trkpt lat="43.986426" lon="3.5938768"><ele>315.5</ele><time>2026-04-12T13:21:40.181Z</time></trkpt><trkpt lat="43.9864469" lon="3.5940657"><ele>312.0</ele><time>2026-04-12T13:21:41.181Z</time></trkpt><trkpt lat="43.9864527" lon="3.5942717"><ele>308.5</ele><time>2026-04-12T13:21:42.181Z</time></trkpt><trkpt lat="43.9864861" lon="3.5944784"><ele>305.0</ele><time>2026-04-12T13:21:43.181Z</time></trkpt><trkpt lat="43.9865695" lon="3.5946623"><ele>302.33333333333337</ele><time>2026-04-12T13:21:44.181Z</time></trkpt><trkpt lat="43.9866798" lon="3.5948425"><ele>299.6666666666667</ele><time>2026-04-12T13:21:45.181Z</time></trkpt><trkpt lat="43.9867928" lon="3.5950201"><ele>297.0</ele><time>2026-04-12T13:21:46.182Z</time></trkpt><trkpt lat="43.9868878" lon="3.5951999"><ele>292.0</ele><time>2026-04-12T13:21:47.181Z</time></trkpt><trkpt lat="43.9869864" lon="3.5953453"><ele>287.0</ele><time>2026-04-12T13:21:48.182Z</time></trkpt><trkpt lat="43.9870913" lon="3.5954469"><ele>282.0</ele><time>2026-04-12T13:21:49.182Z</time></trkpt><trkpt lat="43.9872009" lon="3.5954881"><ele>277.0</ele><time>2026-04-12T13:21:50.181Z</time></trkpt><trkpt lat="43.9873358" lon="3.595477"><ele>277.0</ele><time>2026-04-12T13:21:51.182Z</time></trkpt><trkpt lat="43.9874794" lon="3.5954082"><ele>277.0</ele><time>2026-04-12T13:21:52.181Z</time></trkpt><trkpt lat="43.9876147" lon="3.5953079"><ele>277.0</ele><time>2026-04-12T13:21:53.181Z</time></trkpt><trkpt lat="43.9877279" lon="3.5952313"><ele>277.0</ele><time>2026-04-12T13:21:54.181Z</time></trkpt><trkpt lat="43.9878312" lon="3.5951791"><ele>278.6</ele><time>2026-04-12T13:21:55.181Z</time></trkpt><trkpt lat="43.9879399" lon="3.5951776"><ele>280.2</ele><time>2026-04-12T13:21:56.181Z</time></trkpt><trkpt lat="43.9880368" lon="3.5952242"><ele>281.8</ele><time>2026-04-12T13:21:57.182Z</time></trkpt><trkpt lat="43.9881166" lon="3.5953169"><ele>283.4</ele><time>2026-04-12T13:21:58.182Z</time></trkpt><trkpt lat="43.9881954" lon="3.595422"><ele>285.0</ele><time>2026-04-12T13:21:59.182Z</time></trkpt><trkpt lat="43.9882521" lon="3.5955619"><ele>285.0</ele><time>2026-04-12T13:22:00.181Z</time></trkpt><trkpt lat="43.9883057" lon="3.5957262"><ele>285.0</ele><time>2026-04-12T13:22:01.181Z</time></trkpt><trkpt lat="43.9883484" lon="3.5959172"><ele>285.0</ele><time>2026-04-12T13:22:02.181Z</time></trkpt><trkpt lat="43.98839" lon="3.5961046"><ele>285.0</ele><time>2026-04-12T13:22:03.182Z</time></trkpt><trkpt lat="43.9884262" lon="3.5962743"><ele>284.0</ele><time>2026-04-12T13:22:04.182Z</time></trkpt><trkpt lat="43.9884655" lon="3.5964337"><ele>283.0</ele><time>2026-04-12T13:22:05.181Z</time></trkpt><trkpt lat="43.9885148" lon="3.5965913"><ele>282.0</ele><time>2026-04-12T13:22:06.181Z</time></trkpt><trkpt lat="43.988582" lon="3.5967238"><ele>281.0</ele><time>2026-04-12T13:22:07.182Z</time></trkpt><trkpt lat="43.9886635" lon="3.5968264"><ele>281.0</ele><time>2026-04-12T13:22:08.181Z</time></trkpt><trkpt lat="43.9887633" lon="3.5969083"><ele>281.0</ele><time>2026-04-12T13:22:09.182Z</time></trkpt><trkpt lat="43.9888625" lon="3.5969818"><ele>281.0</ele><time>2026-04-12T13:22:10.181Z</time></trkpt><trkpt lat="43.9889449" lon="3.597071"><ele>281.0</ele><time>2026-04-12T13:22:11.181Z</time></trkpt><trkpt lat="43.9890219" lon="3.5971825"><ele>281.0</ele><time>2026-04-12T13:22:12.181Z</time></trkpt><trkpt lat="43.9890847" lon="3.5973125"><ele>279.6</ele><time>2026-04-12T13:22:13.181Z</time></trkpt><trkpt lat="43.9891144" lon="3.5974596"><ele>278.20000000000005</ele><time>2026-04-12T13:22:14.182Z</time></trkpt><trkpt lat="43.9891224" lon="3.5976226"><ele>276.79999999999995</ele><time>2026-04-12T13:22:15.181Z</time></trkpt><trkpt lat="43.9891103" lon="3.5977775"><ele>275.4</ele><time>2026-04-12T13:22:16.181Z</time></trkpt><trkpt lat="43.9890958" lon="3.5979247"><ele>274.0</ele><time>2026-04-12T13:22:17.181Z</time></trkpt><trkpt lat="43.9890756" lon="3.5980728"><ele>274.0</ele><time>2026-04-12T13:22:18.181Z</time></trkpt><trkpt lat="43.9890564" lon="3.5982168"><ele>274.0</ele><time>2026-04-12T13:22:19.181Z</time></trkpt><trkpt lat="43.989032" lon="3.5983864"><ele>274.0</ele><time>2026-04-12T13:22:20.181Z</time></trkpt><trkpt lat="43.9890087" lon="3.598555"><ele>274.0</ele><time>2026-04-12T13:22:21.181Z</time></trkpt><trkpt lat="43.9889958" lon="3.5987214"><ele>271.75</ele><time>2026-04-12T13:22:22.181Z</time></trkpt><trkpt lat="43.9889988" lon="3.598893"><ele>269.5</ele><time>2026-04-12T13:22:23.182Z</time></trkpt><trkpt lat="43.9890218" lon="3.5990658"><ele>267.25</ele><time>2026-04-12T13:22:24.181Z</time></trkpt><trkpt lat="43.9890657" lon="3.5992342"><ele>265.0</ele><time>2026-04-12T13:22:25.181Z</time></trkpt><trkpt lat="43.9891299" lon="3.5993921"><ele>262.75</ele><time>2026-04-12T13:22:26.181Z</time></trkpt><trkpt lat="43.9892122" lon="3.5995288"><ele>260.5</ele><time>2026-04-12T13:22:27.181Z</time></trkpt><trkpt lat="43.9893161" lon="3.5996484"><ele>258.25</ele><time>2026-04-12T13:22:28.181Z</time></trkpt><trkpt lat="43.9894422" lon="3.5997662"><ele>256.0</ele><time>2026-04-12T13:22:29.182Z</time></trkpt><trkpt lat="43.9895689" lon="3.5998699"><ele>256.0</ele><time>2026-04-12T13:22:30.182Z</time></trkpt><trkpt lat="43.989703" lon="3.5999784"><ele>256.0</ele><time>2026-04-12T13:22:31.181Z</time></trkpt><trkpt lat="43.9898427" lon="3.6000768"><ele>256.0</ele><time>2026-04-12T13:22:32.181Z</time></trkpt><trkpt lat="43.9899831" lon="3.6001709"><ele>256.0</ele><time>2026-04-12T13:22:33.181Z</time></trkpt><trkpt lat="43.9901061" lon="3.6002617"><ele>256.0</ele><time>2026-04-12T13:22:34.181Z</time></trkpt><trkpt lat="43.9902247" lon="3.600351"><ele>256.0</ele><time>2026-04-12T13:22:35.182Z</time></trkpt><trkpt lat="43.9903182" lon="3.6004489"><ele>256.0</ele><time>2026-04-12T13:22:36.181Z</time></trkpt><trkpt lat="43.9903791" lon="3.6005844"><ele>255.20000000000002</ele><time>2026-04-12T13:22:37.181Z</time></trkpt><trkpt lat="43.9904177" lon="3.6007208"><ele>254.40000000000003</ele><time>2026-04-12T13:22:38.181Z</time></trkpt><trkpt lat="43.9904382" lon="3.6008609"><ele>253.6</ele><time>2026-04-12T13:22:39.181Z</time></trkpt><trkpt lat="43.9904445" lon="3.6009633"><ele>252.8</ele><time>2026-04-12T13:22:40.181Z</time></trkpt><trkpt lat="43.9904145" lon="3.6011377"><ele>252.0</ele><time>2026-04-12T13:22:42.181Z</time></trkpt><trkpt lat="43.990377" lon="3.6012161"><ele>251.8</ele><time>2026-04-12T13:22:43.181Z</time></trkpt><trkpt lat="43.9903269" lon="3.6013078"><ele>251.6</ele><time>2026-04-12T13:22:44.182Z</time></trkpt><trkpt lat="43.9902763" lon="3.6014271"><ele>251.40000000000003</ele><time>2026-04-12T13:22:45.181Z</time></trkpt><trkpt lat="43.9902272" lon="3.6015621"><ele>251.20000000000002</ele><time>2026-04-12T13:22:46.182Z</time></trkpt><trkpt lat="43.990178" lon="3.6017092"><ele>251.0</ele><time>2026-04-12T13:22:47.181Z</time></trkpt><trkpt lat="43.9901203" lon="3.6018562"><ele>250.25</ele><time>2026-04-12T13:22:48.181Z</time></trkpt><trkpt lat="43.9900576" lon="3.6020019"><ele>249.5</ele><time>2026-04-12T13:22:49.181Z</time></trkpt><trkpt lat="43.9899996" lon="3.602138"><ele>248.75</ele><time>2026-04-12T13:22:50.182Z</time></trkpt><trkpt lat="43.9899388" lon="3.6022766"><ele>248.0</ele><time>2026-04-12T13:22:51.181Z</time></trkpt><trkpt lat="43.9898712" lon="3.6024251"><ele>247.33333333333334</ele><time>2026-04-12T13:22:52.182Z</time></trkpt><trkpt lat="43.989812" lon="3.6025619"><ele>246.66666666666669</ele><time>2026-04-12T13:22:53.181Z</time></trkpt><trkpt lat="43.9897534" lon="3.6026629"><ele>246.0</ele><time>2026-04-12T13:22:54.182Z</time></trkpt><trkpt lat="43.9897073" lon="3.60275"><ele>245.33333333333331</ele><time>2026-04-12T13:22:55.182Z</time></trkpt><trkpt lat="43.9896712" lon="3.6028231"><ele>244.66666666666666</ele><time>2026-04-12T13:22:56.182Z</time></trkpt><trkpt lat="43.9896808" lon="3.6029133"><ele>244.0</ele><time>2026-04-12T13:22:57.181Z</time></trkpt><trkpt lat="43.9897269" lon="3.602989"><ele>243.39999999999998</ele><time>2026-04-12T13:22:58.181Z</time></trkpt><trkpt lat="43.9897975" lon="3.6030488"><ele>242.79999999999998</ele><time>2026-04-12T13:22:59.181Z</time></trkpt><trkpt lat="43.9898909" lon="3.6031145"><ele>242.20000000000002</ele><time>2026-04-12T13:23:00.181Z</time></trkpt><trkpt lat="43.9899984" lon="3.6031548"><ele>241.60000000000002</ele><time>2026-04-12T13:23:01.181Z</time></trkpt><trkpt lat="43.990116" lon="3.6032144"><ele>241.0</ele><time>2026-04-12T13:23:02.181Z</time></trkpt><trkpt lat="43.9902413" lon="3.603276"><ele>241.0</ele><time>2026-04-12T13:23:03.181Z</time></trkpt><trkpt lat="43.9903668" lon="3.6033471"><ele>241.0</ele><time>2026-04-12T13:23:04.182Z</time></trkpt><trkpt lat="43.9904979" lon="3.6034123"><ele>241.0</ele><time>2026-04-12T13:23:05.181Z</time></trkpt><trkpt lat="43.9906184" lon="3.6034802"><ele>241.0</ele><time>2026-04-12T13:23:06.181Z</time></trkpt><trkpt lat="43.9907277" lon="3.6035469"><ele>240.99999999999997</ele><time>2026-04-12T13:23:07.181Z</time></trkpt><trkpt lat="43.9908291" lon="3.6036002"><ele>241.0</ele><time>2026-04-12T13:23:08.181Z</time></trkpt><trkpt lat="43.9908997" lon="3.6036326"><ele>241.0</ele><time>2026-04-12T13:23:09.182Z</time></trkpt><trkpt lat="43.9909545" lon="3.6037196"><ele>241.0</ele><time>2026-04-12T13:23:13.181Z</time></trkpt><trkpt lat="43.9910311" lon="3.6037635"><ele>240.99999999999997</ele><time>2026-04-12T13:23:15.182Z</time></trkpt><trkpt lat="43.9911035" lon="3.6037661"><ele>241.0</ele><time>2026-04-12T13:23:16.182Z</time></trkpt><trkpt lat="43.9911986" lon="3.603792"><ele>240.8</ele><time>2026-04-12T13:23:17.182Z</time></trkpt><trkpt lat="43.9912929" lon="3.6038408"><ele>240.60000000000002</ele><time>2026-04-12T13:23:18.181Z</time></trkpt><trkpt lat="43.9913734" lon="3.6038885"><ele>240.4</ele><time>2026-04-12T13:23:19.181Z</time></trkpt><trkpt lat="43.9914692" lon="3.6039558"><ele>240.2</ele><time>2026-04-12T13:23:20.181Z</time></trkpt><trkpt lat="43.9915827" lon="3.6040234"><ele>240.0</ele><time>2026-04-12T13:23:21.182Z</time></trkpt><trkpt lat="43.9916861" lon="3.6040914"><ele>241.25</ele><time>2026-04-12T13:23:22.182Z</time></trkpt><trkpt lat="43.9917995" lon="3.6041663"><ele>242.5</ele><time>2026-04-12T13:23:23.181Z</time></trkpt><trkpt lat="43.9919194" lon="3.6042272"><ele>243.75</ele><time>2026-04-12T13:23:24.181Z</time></trkpt><trkpt lat="43.9920545" lon="3.6043044"><ele>245.0</ele><time>2026-04-12T13:23:25.181Z</time></trkpt><trkpt lat="43.9921934" lon="3.6043832"><ele>245.0</ele><time>2026-04-12T13:23:26.181Z</time></trkpt><trkpt lat="43.9923069" lon="3.6044578"><ele>245.0</ele><time>2026-04-12T13:23:27.181Z</time></trkpt><trkpt lat="43.9923912" lon="3.6045252"><ele>245.0</ele><time>2026-04-12T13:23:28.181Z</time></trkpt><trkpt lat="43.9924501" lon="3.6045986"><ele>245.0</ele><time>2026-04-12T13:23:29.182Z</time></trkpt><trkpt lat="43.9924801" lon="3.6047048"><ele>245.0</ele><time>2026-04-12T13:23:30.181Z</time></trkpt><trkpt lat="43.9924778" lon="3.6048208"><ele>244.5</ele><time>2026-04-12T13:23:31.181Z</time></trkpt><trkpt lat="43.9924736" lon="3.6049768"><ele>244.0</ele><time>2026-04-12T13:23:32.181Z</time></trkpt><trkpt lat="43.992487" lon="3.6051395"><ele>243.5</ele><time>2026-04-12T13:23:33.182Z</time></trkpt><trkpt lat="43.9924998" lon="3.6053092"><ele>243.0</ele><time>2026-04-12T13:23:34.181Z</time></trkpt><trkpt lat="43.9925123" lon="3.6054832"><ele>243.0</ele><time>2026-04-12T13:23:35.181Z</time></trkpt><trkpt lat="43.9925202" lon="3.6056772"><ele>243.0</ele><time>2026-04-12T13:23:36.182Z</time></trkpt><trkpt lat="43.9925261" lon="3.6058683"><ele>243.0</ele><time>2026-04-12T13:23:37.181Z</time></trkpt><trkpt lat="43.9925381" lon="3.6060585"><ele>243.0</ele><time>2026-04-12T13:23:38.182Z</time></trkpt><trkpt lat="43.9925369" lon="3.6062177"><ele>242.4</ele><time>2026-04-12T13:23:39.181Z</time></trkpt><trkpt lat="43.9925425" lon="3.6063734"><ele>241.8</ele><time>2026-04-12T13:23:40.182Z</time></trkpt><trkpt lat="43.9925548" lon="3.6065151"><ele>241.2</ele><time>2026-04-12T13:23:41.181Z</time></trkpt><trkpt lat="43.9925602" lon="3.6066553"><ele>240.6</ele><time>2026-04-12T13:23:42.182Z</time></trkpt><trkpt lat="43.9925606" lon="3.6067759"><ele>240.0</ele><time>2026-04-12T13:23:43.182Z</time></trkpt><trkpt lat="43.9925569" lon="3.6068879"><ele>240.0</ele><time>2026-04-12T13:23:44.181Z</time></trkpt><trkpt lat="43.9925255" lon="3.6069686"><ele>240.0</ele><time>2026-04-12T13:23:45.181Z</time></trkpt><trkpt lat="43.9924141" lon="3.60706"><ele>240.0</ele><time>2026-04-12T13:23:47.181Z</time></trkpt><trkpt lat="43.9923442" lon="3.6070494"><ele>240.0</ele><time>2026-04-12T13:23:48.181Z</time></trkpt><trkpt lat="43.992254" lon="3.607047"><ele>240.0</ele><time>2026-04-12T13:23:49.182Z</time></trkpt><trkpt lat="43.9921611" lon="3.6070372"><ele>240.0</ele><time>2026-04-12T13:23:50.181Z</time></trkpt><trkpt lat="43.9920616" lon="3.6070204"><ele>238.16666666666666</ele><time>2026-04-12T13:23:51.181Z</time></trkpt><trkpt lat="43.9919657" lon="3.6070214"><ele>236.33333333333331</ele><time>2026-04-12T13:23:52.182Z</time></trkpt><trkpt lat="43.9918816" lon="3.6070136"><ele>234.5</ele><time>2026-04-12T13:23:53.181Z</time></trkpt><trkpt lat="43.9917948" lon="3.6070117"><ele>232.66666666666666</ele><time>2026-04-12T13:23:54.182Z</time></trkpt><trkpt lat="43.9917219" lon="3.6070083"><ele>230.83333333333331</ele><time>2026-04-12T13:23:55.181Z</time></trkpt><trkpt lat="43.9916355" lon="3.6070631"><ele>229.0</ele><time>2026-04-12T13:23:57.181Z</time></trkpt><trkpt lat="43.9916438" lon="3.607156"><ele>229.0</ele><time>2026-04-12T13:23:59.18Z</time></trkpt><trkpt lat="43.9916947" lon="3.6072387"><ele>228.99999999999997</ele><time>2026-04-12T13:24:00.181Z</time></trkpt><trkpt lat="43.9917461" lon="3.6073323"><ele>228.99999999999997</ele><time>2026-04-12T13:24:01.181Z</time></trkpt><trkpt lat="43.9917897" lon="3.6074418"><ele>229.0</ele><time>2026-04-12T13:24:02.18Z</time></trkpt><trkpt lat="43.9918356" lon="3.6075688"><ele>229.0</ele><time>2026-04-12T13:24:03.18Z</time></trkpt><trkpt lat="43.9918874" lon="3.6076895"><ele>229.0</ele><time>2026-04-12T13:24:04.18Z</time></trkpt><trkpt lat="43.991927" lon="3.6078211"><ele>229.0</ele><time>2026-04-12T13:24:05.18Z</time></trkpt><trkpt lat="43.9919551" lon="3.6079724"><ele>229.0</ele><time>2026-04-12T13:24:06.18Z</time></trkpt><trkpt lat="43.9920009" lon="3.6081332"><ele>229.0</ele><time>2026-04-12T13:24:07.18Z</time></trkpt><trkpt lat="43.9920563" lon="3.6083095"><ele>228.5</ele><time>2026-04-12T13:24:08.181Z</time></trkpt><trkpt lat="43.9921129" lon="3.6084856"><ele>228.0</ele><time>2026-04-12T13:24:09.181Z</time></trkpt><trkpt lat="43.9921668" lon="3.6086343"><ele>227.5</ele><time>2026-04-12T13:24:10.18Z</time></trkpt><trkpt lat="43.9922074" lon="3.6087614"><ele>227.0</ele><time>2026-04-12T13:24:11.181Z</time></trkpt><trkpt lat="43.9922407" lon="3.6088878"><ele>227.0</ele><time>2026-04-12T13:24:12.18Z</time></trkpt><trkpt lat="43.9922748" lon="3.6089989"><ele>227.0</ele><time>2026-04-12T13:24:13.181Z</time></trkpt><trkpt lat="43.9922983" lon="3.6091213"><ele>227.0</ele><time>2026-04-12T13:24:14.18Z</time></trkpt><trkpt lat="43.9923235" lon="3.6092609"><ele>227.0</ele><time>2026-04-12T13:24:15.181Z</time></trkpt><trkpt lat="43.9923444" lon="3.6094284"><ele>227.0</ele><time>2026-04-12T13:24:16.181Z</time></trkpt><trkpt lat="43.9923527" lon="3.6096054"><ele>227.0</ele><time>2026-04-12T13:24:17.18Z</time></trkpt><trkpt lat="43.9923705" lon="3.6097697"><ele>227.0</ele><time>2026-04-12T13:24:18.18Z</time></trkpt><trkpt lat="43.9923931" lon="3.6099296"><ele>227.0</ele><time>2026-04-12T13:24:19.18Z</time></trkpt><trkpt lat="43.9924074" lon="3.6101082"><ele>227.0</ele><time>2026-04-12T13:24:20.18Z</time></trkpt><trkpt lat="43.9924118" lon="3.6102772"><ele>227.6</ele><time>2026-04-12T13:24:21.181Z</time></trkpt><trkpt lat="43.9924123" lon="3.6104451"><ele>228.2</ele><time>2026-04-12T13:24:22.18Z</time></trkpt><trkpt lat="43.9924111" lon="3.610587"><ele>228.8</ele><time>2026-04-12T13:24:23.18Z</time></trkpt><trkpt lat="43.9924156" lon="3.6107242"><ele>229.4</ele><time>2026-04-12T13:24:24.18Z</time></trkpt><trkpt lat="43.9924177" lon="3.6108564"><ele>230.0</ele><time>2026-04-12T13:24:25.18Z</time></trkpt><trkpt lat="43.9924114" lon="3.6109772"><ele>229.99999999999997</ele><time>2026-04-12T13:24:26.18Z</time></trkpt><trkpt lat="43.9924095" lon="3.6110775"><ele>230.0</ele><time>2026-04-12T13:24:27.18Z</time></trkpt><trkpt lat="43.9923815" lon="3.6111577"><ele>229.99999999999997</ele><time>2026-04-12T13:24:28.18Z</time></trkpt><trkpt lat="43.9923141" lon="3.6111748"><ele>229.99999999999997</ele><time>2026-04-12T13:24:29.181Z</time></trkpt><trkpt lat="43.9922416" lon="3.6111805"><ele>230.0</ele><time>2026-04-12T13:24:30.181Z</time></trkpt><trkpt lat="43.9921725" lon="3.6111834"><ele>229.99999999999997</ele><time>2026-04-12T13:24:31.181Z</time></trkpt><trkpt lat="43.9921106" lon="3.6112141"><ele>229.99999999999997</ele><time>2026-04-12T13:24:32.181Z</time></trkpt><trkpt lat="43.9920586" lon="3.6112888"><ele>230.00000000000003</ele><time>2026-04-12T13:24:33.18Z</time></trkpt><trkpt lat="43.9920227" lon="3.6113752"><ele>230.0</ele><time>2026-04-12T13:24:34.18Z</time></trkpt><trkpt lat="43.9920121" lon="3.6114635"><ele>230.0</ele><time>2026-04-12T13:24:35.18Z</time></trkpt><trkpt lat="43.9920543" lon="3.6115683"><ele>230.0</ele><time>2026-04-12T13:24:37.18Z</time></trkpt><trkpt lat="43.9921068" lon="3.6117077"><ele>230.00000000000003</ele><time>2026-04-12T13:24:39.18Z</time></trkpt><trkpt lat="43.9921545" lon="3.6118233"><ele>230.0</ele><time>2026-04-12T13:24:40.18Z</time></trkpt><trkpt lat="43.9921815" lon="3.6119545"><ele>229.5</ele><time>2026-04-12T13:24:41.18Z</time></trkpt><trkpt lat="43.9921964" lon="3.6121159"><ele>229.0</ele><time>2026-04-12T13:24:42.181Z</time></trkpt><trkpt lat="43.9922043" lon="3.6123144"><ele>228.5</ele><time>2026-04-12T13:24:43.181Z</time></trkpt><trkpt lat="43.9922019" lon="3.6125273"><ele>228.0</ele><time>2026-04-12T13:24:44.18Z</time></trkpt><trkpt lat="43.9922048" lon="3.6127563"><ele>227.66666666666669</ele><time>2026-04-12T13:24:45.181Z</time></trkpt><trkpt lat="43.9922126" lon="3.6130003"><ele>227.33333333333334</ele><time>2026-04-12T13:24:46.18Z</time></trkpt><trkpt lat="43.992223" lon="3.6132765"><ele>227.0</ele><time>2026-04-12T13:24:47.18Z</time></trkpt><trkpt lat="43.9922341" lon="3.613585"><ele>226.0</ele><time>2026-04-12T13:24:48.181Z</time></trkpt><trkpt lat="43.992245" lon="3.6139004"><ele>225.0</ele><time>2026-04-12T13:24:49.18Z</time></trkpt><trkpt lat="43.9922561" lon="3.6142304"><ele>224.5</ele><time>2026-04-12T13:24:50.18Z</time></trkpt><trkpt lat="43.9922723" lon="3.614555"><ele>224.0</ele><time>2026-04-12T13:24:51.181Z</time></trkpt><trkpt lat="43.9922877" lon="3.6148812"><ele>224.0</ele><time>2026-04-12T13:24:52.18Z</time></trkpt><trkpt lat="43.9923035" lon="3.6152086"><ele>224.0</ele><time>2026-04-12T13:24:53.18Z</time></trkpt><trkpt lat="43.9923144" lon="3.6155447"><ele>223.0</ele><time>2026-04-12T13:24:54.18Z</time></trkpt><trkpt lat="43.9923221" lon="3.6159163"><ele>222.0</ele><time>2026-04-12T13:24:55.181Z</time></trkpt><trkpt lat="43.9923394" lon="3.6162986"><ele>221.0</ele><time>2026-04-12T13:24:56.181Z</time></trkpt><trkpt lat="43.9923556" lon="3.6166362"><ele>220.0</ele><time>2026-04-12T13:24:57.18Z</time></trkpt><trkpt lat="43.992361" lon="3.6169846"><ele>223.0</ele><time>2026-04-12T13:24:58.181Z</time></trkpt><trkpt lat="43.9923595" lon="3.6173086"><ele>226.0</ele><time>2026-04-12T13:24:59.181Z</time></trkpt><trkpt lat="43.9923355" lon="3.6176397"><ele>229.0</ele><time>2026-04-12T13:25:00.18Z</time></trkpt><trkpt lat="43.9922878" lon="3.6179689"><ele>232.0</ele><time>2026-04-12T13:25:01.18Z</time></trkpt><trkpt lat="43.9922165" lon="3.6183114"><ele>235.0</ele><time>2026-04-12T13:25:02.18Z</time></trkpt><trkpt lat="43.992138" lon="3.6186661"><ele>238.0</ele><time>2026-04-12T13:25:03.181Z</time></trkpt><trkpt lat="43.9920595" lon="3.6190118"><ele>238.0</ele><time>2026-04-12T13:25:04.181Z</time></trkpt><trkpt lat="43.9919918" lon="3.6193817"><ele>238.0</ele><time>2026-04-12T13:25:05.181Z</time></trkpt><trkpt lat="43.9919347" lon="3.6197463"><ele>239.5</ele><time>2026-04-12T13:25:06.18Z</time></trkpt><trkpt lat="43.9919034" lon="3.6201141"><ele>241.0</ele><time>2026-04-12T13:25:07.181Z</time></trkpt><trkpt lat="43.9918834" lon="3.6204886"><ele>241.0</ele><time>2026-04-12T13:25:08.18Z</time></trkpt><trkpt lat="43.9918755" lon="3.62086"><ele>241.0</ele><time>2026-04-12T13:25:09.18Z</time></trkpt><trkpt lat="43.9918771" lon="3.6212593"><ele>238.5</ele><time>2026-04-12T13:25:10.18Z</time></trkpt><trkpt lat="43.9918799" lon="3.6216553"><ele>236.0</ele><time>2026-04-12T13:25:11.18Z</time></trkpt><trkpt lat="43.9918794" lon="3.6220509"><ele>232.0</ele><time>2026-04-12T13:25:12.18Z</time></trkpt><trkpt lat="43.9918837" lon="3.6224408"><ele>228.0</ele><time>2026-04-12T13:25:13.18Z</time></trkpt><trkpt lat="43.99188" lon="3.622833"><ele>228.0</ele><time>2026-04-12T13:25:14.18Z</time></trkpt><trkpt lat="43.9918832" lon="3.6232177"><ele>228.0</ele><time>2026-04-12T13:25:15.181Z</time></trkpt><trkpt lat="43.9918787" lon="3.6235907"><ele>231.5</ele><time>2026-04-12T13:25:16.18Z</time></trkpt><trkpt lat="43.9918743" lon="3.6239585"><ele>235.0</ele><time>2026-04-12T13:25:17.181Z</time></trkpt><trkpt lat="43.9918746" lon="3.6243043"><ele>236.66666666666666</ele><time>2026-04-12T13:25:18.18Z</time></trkpt><trkpt lat="43.9918819" lon="3.6246196"><ele>238.33333333333331</ele><time>2026-04-12T13:25:19.18Z</time></trkpt><trkpt lat="43.9918816" lon="3.6249242"><ele>240.0</ele><time>2026-04-12T13:25:20.18Z</time></trkpt><trkpt lat="43.9918842" lon="3.6252114"><ele>241.33333333333331</ele><time>2026-04-12T13:25:21.18Z</time></trkpt><trkpt lat="43.9918891" lon="3.6254914"><ele>242.66666666666666</ele><time>2026-04-12T13:25:22.18Z</time></trkpt><trkpt lat="43.9918948" lon="3.625752"><ele>244.0</ele><time>2026-04-12T13:25:23.18Z</time></trkpt><trkpt lat="43.9918993" lon="3.6259868"><ele>244.5</ele><time>2026-04-12T13:25:24.18Z</time></trkpt><trkpt lat="43.9919133" lon="3.6262189"><ele>245.0</ele><time>2026-04-12T13:25:25.18Z</time></trkpt><trkpt lat="43.991926" lon="3.626416"><ele>245.5</ele><time>2026-04-12T13:25:26.181Z</time></trkpt><trkpt lat="43.9919204" lon="3.6265757"><ele>246.0</ele><time>2026-04-12T13:25:27.18Z</time></trkpt><trkpt lat="43.9918991" lon="3.6267172"><ele>246.0</ele><time>2026-04-12T13:25:28.181Z</time></trkpt><trkpt lat="43.9918546" lon="3.6268351"><ele>246.0</ele><time>2026-04-12T13:25:29.181Z</time></trkpt><trkpt lat="43.9918027" lon="3.62691"><ele>246.0</ele><time>2026-04-12T13:25:30.18Z</time></trkpt><trkpt lat="43.9917516" lon="3.6269913"><ele>246.0</ele><time>2026-04-12T13:25:31.181Z</time></trkpt><trkpt lat="43.9917209" lon="3.6271137"><ele>246.0</ele><time>2026-04-12T13:25:32.18Z</time></trkpt><trkpt lat="43.9917297" lon="3.6272217"><ele>246.0</ele><time>2026-04-12T13:25:33.181Z</time></trkpt><trkpt lat="43.9917907" lon="3.6273322"><ele>245.0</ele><time>2026-04-12T13:25:34.18Z</time></trkpt><trkpt lat="43.991878" lon="3.6274064"><ele>244.0</ele><time>2026-04-12T13:25:35.181Z</time></trkpt><trkpt lat="43.991971" lon="3.6274878"><ele>243.0</ele><time>2026-04-12T13:25:36.18Z</time></trkpt><trkpt lat="43.9920455" lon="3.6276303"><ele>242.0</ele><time>2026-04-12T13:25:37.181Z</time></trkpt><trkpt lat="43.9921175" lon="3.6277964"><ele>238.66666666666669</ele><time>2026-04-12T13:25:38.18Z</time></trkpt><trkpt lat="43.9921953" lon="3.6280116"><ele>235.33333333333331</ele><time>2026-04-12T13:25:39.181Z</time></trkpt><trkpt lat="43.9922623" lon="3.6282567"><ele>232.0</ele><time>2026-04-12T13:25:40.181Z</time></trkpt><trkpt lat="43.9923484" lon="3.6285292"><ele>228.0</ele><time>2026-04-12T13:25:41.181Z</time></trkpt><trkpt lat="43.9924592" lon="3.6288411"><ele>224.0</ele><time>2026-04-12T13:25:42.181Z</time></trkpt><trkpt lat="43.9925926" lon="3.6292163"><ele>232.0</ele><time>2026-04-12T13:25:43.181Z</time></trkpt><trkpt lat="43.992723" lon="3.6296034"><ele>240.0</ele><time>2026-04-12T13:25:44.18Z</time></trkpt><trkpt lat="43.9928496" lon="3.6299944"><ele>235.5</ele><time>2026-04-12T13:25:45.181Z</time></trkpt><trkpt lat="43.9929703" lon="3.6303919"><ele>231.0</ele><time>2026-04-12T13:25:46.18Z</time></trkpt><trkpt lat="43.993087" lon="3.6308213"><ele>229.0</ele><time>2026-04-12T13:25:47.181Z</time></trkpt><trkpt lat="43.9932072" lon="3.6312183"><ele>227.0</ele><time>2026-04-12T13:25:48.18Z</time></trkpt><trkpt lat="43.9933119" lon="3.6315954"><ele>240.5</ele><time>2026-04-12T13:25:49.18Z</time></trkpt><trkpt lat="43.9934193" lon="3.6319546"><ele>254.0</ele><time>2026-04-12T13:25:50.18Z</time></trkpt><trkpt lat="43.9935131" lon="3.6322881"><ele>254.0</ele><time>2026-04-12T13:25:51.18Z</time></trkpt><trkpt lat="43.9936046" lon="3.6326113"><ele>254.0</ele><time>2026-04-12T13:25:52.18Z</time></trkpt><trkpt lat="43.9936972" lon="3.6329167"><ele>249.0</ele><time>2026-04-12T13:25:53.181Z</time></trkpt><trkpt lat="43.9937887" lon="3.633201"><ele>244.0</ele><time>2026-04-12T13:25:54.181Z</time></trkpt><trkpt lat="43.9938521" lon="3.6335165"><ele>243.0</ele><time>2026-04-12T13:25:55.18Z</time></trkpt><trkpt lat="43.9938846" lon="3.6338309"><ele>242.0</ele><time>2026-04-12T13:25:56.181Z</time></trkpt><trkpt lat="43.9938793" lon="3.634158"><ele>242.0</ele><time>2026-04-12T13:25:57.181Z</time></trkpt><trkpt lat="43.9938437" lon="3.6344687"><ele>242.0</ele><time>2026-04-12T13:25:58.181Z</time></trkpt><trkpt lat="43.9937912" lon="3.6347873"><ele>243.0</ele><time>2026-04-12T13:25:59.18Z</time></trkpt><trkpt lat="43.9937449" lon="3.6351038"><ele>244.0</ele><time>2026-04-12T13:26:00.18Z</time></trkpt><trkpt lat="43.9936818" lon="3.6354519"><ele>242.0</ele><time>2026-04-12T13:26:01.181Z</time></trkpt><trkpt lat="43.9936261" lon="3.6358096"><ele>240.0</ele><time>2026-04-12T13:26:02.181Z</time></trkpt><trkpt lat="43.9935709" lon="3.6361474"><ele>233.0</ele><time>2026-04-12T13:26:03.18Z</time></trkpt><trkpt lat="43.9935214" lon="3.6364846"><ele>226.0</ele><time>2026-04-12T13:26:04.18Z</time></trkpt><trkpt lat="43.993478" lon="3.636816"><ele>229.0</ele><time>2026-04-12T13:26:05.18Z</time></trkpt><trkpt lat="43.993451" lon="3.6371468"><ele>232.0</ele><time>2026-04-12T13:26:06.181Z</time></trkpt><trkpt lat="43.9934473" lon="3.6374786"><ele>234.0</ele><time>2026-04-12T13:26:07.18Z</time></trkpt><trkpt lat="43.993502" lon="3.6378301"><ele>236.0</ele><time>2026-04-12T13:26:08.181Z</time></trkpt><trkpt lat="43.993574" lon="3.6381561"><ele>236.0</ele><time>2026-04-12T13:26:09.18Z</time></trkpt><trkpt lat="43.9936689" lon="3.6384537"><ele>236.0</ele><time>2026-04-12T13:26:10.18Z</time></trkpt><trkpt lat="43.9937868" lon="3.6387671"><ele>231.5</ele><time>2026-04-12T13:26:11.181Z</time></trkpt><trkpt lat="43.9938944" lon="3.6390603"><ele>227.0</ele><time>2026-04-12T13:26:12.181Z</time></trkpt><trkpt lat="43.9939998" lon="3.6393328"><ele>224.0</ele><time>2026-04-12T13:26:13.18Z</time></trkpt><trkpt lat="43.994086" lon="3.6395736"><ele>221.0</ele><time>2026-04-12T13:26:14.18Z</time></trkpt><trkpt lat="43.9941555" lon="3.6397784"><ele>218.0</ele><time>2026-04-12T13:26:15.181Z</time></trkpt><trkpt lat="43.9942481" lon="3.6399302"><ele>218.0</ele><time>2026-04-12T13:26:16.18Z</time></trkpt><trkpt lat="43.9943634" lon="3.6400399"><ele>218.0</ele><time>2026-04-12T13:26:17.18Z</time></trkpt><trkpt lat="43.9945033" lon="3.6401166"><ele>218.0</ele><time>2026-04-12T13:26:18.181Z</time></trkpt><trkpt lat="43.9946577" lon="3.6401122"><ele>218.0</ele><time>2026-04-12T13:26:19.18Z</time></trkpt><trkpt lat="43.9948453" lon="3.6400448"><ele>221.0</ele><time>2026-04-12T13:26:20.18Z</time></trkpt><trkpt lat="43.9950488" lon="3.6399412"><ele>224.0</ele><time>2026-04-12T13:26:21.18Z</time></trkpt><trkpt lat="43.9952604" lon="3.6399067"><ele>227.0</ele><time>2026-04-12T13:26:22.181Z</time></trkpt><trkpt lat="43.9954781" lon="3.6399573"><ele>227.0</ele><time>2026-04-12T13:26:23.181Z</time></trkpt><trkpt lat="43.9956892" lon="3.6400839"><ele>227.0</ele><time>2026-04-12T13:26:24.18Z</time></trkpt><trkpt lat="43.9958932" lon="3.6402209"><ele>229.5</ele><time>2026-04-12T13:26:25.18Z</time></trkpt><trkpt lat="43.9960965" lon="3.6404357"><ele>232.0</ele><time>2026-04-12T13:26:26.18Z</time></trkpt><trkpt lat="43.9962943" lon="3.640713"><ele>232.0</ele><time>2026-04-12T13:26:27.18Z</time></trkpt><trkpt lat="43.9964982" lon="3.6410195"><ele>232.0</ele><time>2026-04-12T13:26:28.181Z</time></trkpt><trkpt lat="43.996695" lon="3.6413117"><ele>233.5</ele><time>2026-04-12T13:26:29.18Z</time></trkpt><trkpt lat="43.9968979" lon="3.6415921"><ele>235.0</ele><time>2026-04-12T13:26:30.181Z</time></trkpt><trkpt lat="43.997084" lon="3.6418903"><ele>226.5</ele><time>2026-04-12T13:26:31.18Z</time></trkpt><trkpt lat="43.9972424" lon="3.6421814"><ele>218.0</ele><time>2026-04-12T13:26:32.181Z</time></trkpt><trkpt lat="43.9973724" lon="3.6424644"><ele>218.0</ele><time>2026-04-12T13:26:33.181Z</time></trkpt><trkpt lat="43.9974482" lon="3.6427548"><ele>218.0</ele><time>2026-04-12T13:26:34.181Z</time></trkpt><trkpt lat="43.9974936" lon="3.6430608"><ele>218.0</ele><time>2026-04-12T13:26:35.181Z</time></trkpt><trkpt lat="43.997485" lon="3.6433639"><ele>219.5</ele><time>2026-04-12T13:26:36.181Z</time></trkpt><trkpt lat="43.9974371" lon="3.6436877"><ele>221.0</ele><time>2026-04-12T13:26:37.18Z</time></trkpt><trkpt lat="43.9973509" lon="3.6440281"><ele>221.0</ele><time>2026-04-12T13:26:38.18Z</time></trkpt><trkpt lat="43.9972516" lon="3.6443942"><ele>221.0</ele><time>2026-04-12T13:26:39.18Z</time></trkpt><trkpt lat="43.997161" lon="3.644746"><ele>221.5</ele><time>2026-04-12T13:26:40.18Z</time></trkpt><trkpt lat="43.9970816" lon="3.6450909"><ele>222.0</ele><time>2026-04-12T13:26:41.18Z</time></trkpt><trkpt lat="43.997018" lon="3.6454153"><ele>222.0</ele><time>2026-04-12T13:26:42.18Z</time></trkpt><trkpt lat="43.9969831" lon="3.6457414"><ele>222.0</ele><time>2026-04-12T13:26:43.18Z</time></trkpt><trkpt lat="43.9969724" lon="3.6460505"><ele>218.66666666666669</ele><time>2026-04-12T13:26:44.181Z</time></trkpt><trkpt lat="43.9970065" lon="3.6463442"><ele>215.33333333333334</ele><time>2026-04-12T13:26:45.181Z</time></trkpt><trkpt lat="43.9970658" lon="3.6466103"><ele>212.0</ele><time>2026-04-12T13:26:46.181Z</time></trkpt><trkpt lat="43.9971852" lon="3.6468412"><ele>211.0</ele><time>2026-04-12T13:26:47.18Z</time></trkpt><trkpt lat="43.9973401" lon="3.6470242"><ele>210.0</ele><time>2026-04-12T13:26:48.18Z</time></trkpt><trkpt lat="43.9975313" lon="3.6471582"><ele>209.0</ele><time>2026-04-12T13:26:49.181Z</time></trkpt><trkpt lat="43.9977581" lon="3.6472822"><ele>209.0</ele><time>2026-04-12T13:26:50.18Z</time></trkpt><trkpt lat="43.9979799" lon="3.647423"><ele>209.0</ele><time>2026-04-12T13:26:51.181Z</time></trkpt><trkpt lat="43.9982043" lon="3.6475762"><ele>207.0</ele><time>2026-04-12T13:26:52.18Z</time></trkpt><trkpt lat="43.9984213" lon="3.647739"><ele>205.0</ele><time>2026-04-12T13:26:53.18Z</time></trkpt><trkpt lat="43.9986267" lon="3.6479226"><ele>205.0</ele><time>2026-04-12T13:26:54.18Z</time></trkpt><trkpt lat="43.998831" lon="3.6481193"><ele>205.0</ele><time>2026-04-12T13:26:55.181Z</time></trkpt><trkpt lat="43.9990394" lon="3.6483073"><ele>205.5</ele><time>2026-04-12T13:26:56.18Z</time></trkpt><trkpt lat="43.999252" lon="3.648495"><ele>206.0</ele><time>2026-04-12T13:26:57.18Z</time></trkpt><trkpt lat="43.9994534" lon="3.6486967"><ele>206.0</ele><time>2026-04-12T13:26:58.18Z</time></trkpt><trkpt lat="43.9996466" lon="3.6489171"><ele>206.0</ele><time>2026-04-12T13:26:59.18Z</time></trkpt><trkpt lat="43.9998237" lon="3.6491804"><ele>206.0</ele><time>2026-04-12T13:27:00.18Z</time></trkpt><trkpt lat="43.9999883" lon="3.6494573"><ele>206.0</ele><time>2026-04-12T13:27:01.181Z</time></trkpt><trkpt lat="44.0001329" lon="3.6497442"><ele>205.0</ele><time>2026-04-12T13:27:02.181Z</time></trkpt><trkpt lat="44.0002412" lon="3.6500486"><ele>204.0</ele><time>2026-04-12T13:27:03.18Z</time></trkpt><trkpt lat="44.0003086" lon="3.6503804"><ele>204.0</ele><time>2026-04-12T13:27:04.181Z</time></trkpt><trkpt lat="44.0003634" lon="3.6507066"><ele>204.0</ele><time>2026-04-12T13:27:05.18Z</time></trkpt><trkpt lat="44.0004152" lon="3.6510485"><ele>206.5</ele><time>2026-04-12T13:27:06.18Z</time></trkpt><trkpt lat="44.0004761" lon="3.6513908"><ele>209.0</ele><time>2026-04-12T13:27:07.18Z</time></trkpt><trkpt lat="44.0005609" lon="3.6517267"><ele>214.0</ele><time>2026-04-12T13:27:08.18Z</time></trkpt><trkpt lat="44.0006749" lon="3.6520501"><ele>219.0</ele><time>2026-04-12T13:27:09.181Z</time></trkpt><trkpt lat="44.0008056" lon="3.6523561"><ele>208.0</ele><time>2026-04-12T13:27:10.18Z</time></trkpt><trkpt lat="44.0009347" lon="3.6526561"><ele>197.0</ele><time>2026-04-12T13:27:11.18Z</time></trkpt><trkpt lat="44.0010445" lon="3.6529611"><ele>197.0</ele><time>2026-04-12T13:27:12.18Z</time></trkpt><trkpt lat="44.001102" lon="3.6532999"><ele>197.0</ele><time>2026-04-12T13:27:13.181Z</time></trkpt><trkpt lat="44.0011553" lon="3.6536661"><ele>198.0</ele><time>2026-04-12T13:27:14.181Z</time></trkpt><trkpt lat="44.0011902" lon="3.6540439"><ele>199.0</ele><time>2026-04-12T13:27:15.181Z</time></trkpt><trkpt lat="44.0012293" lon="3.6544388"><ele>198.0</ele><time>2026-04-12T13:27:16.18Z</time></trkpt><trkpt lat="44.0012754" lon="3.6548052"><ele>197.0</ele><time>2026-04-12T13:27:17.18Z</time></trkpt><trkpt lat="44.0013321" lon="3.6551745"><ele>197.5</ele><time>2026-04-12T13:27:18.18Z</time></trkpt><trkpt lat="44.0013865" lon="3.6555366"><ele>198.0</ele><time>2026-04-12T13:27:19.18Z</time></trkpt><trkpt lat="44.0014282" lon="3.655902"><ele>196.5</ele><time>2026-04-12T13:27:20.181Z</time></trkpt><trkpt lat="44.0014284" lon="3.656255"><ele>195.0</ele><time>2026-04-12T13:27:21.18Z</time></trkpt><trkpt lat="44.001387" lon="3.6566012"><ele>195.0</ele><time>2026-04-12T13:27:22.18Z</time></trkpt><trkpt lat="44.0013084" lon="3.6569302"><ele>195.0</ele><time>2026-04-12T13:27:23.18Z</time></trkpt><trkpt lat="44.0012102" lon="3.6572385"><ele>195.0</ele><time>2026-04-12T13:27:24.181Z</time></trkpt><trkpt lat="44.0011053" lon="3.657495"><ele>195.0</ele><time>2026-04-12T13:27:25.18Z</time></trkpt><trkpt lat="44.0009655" lon="3.6576808"><ele>195.0</ele><time>2026-04-12T13:27:26.18Z</time></trkpt><trkpt lat="44.0008271" lon="3.6578115"><ele>195.0</ele><time>2026-04-12T13:27:27.18Z</time></trkpt><trkpt lat="44.000696" lon="3.6579138"><ele>195.0</ele><time>2026-04-12T13:27:28.181Z</time></trkpt><trkpt lat="44.0005801" lon="3.6580355"><ele>195.0</ele><time>2026-04-12T13:27:29.18Z</time></trkpt><trkpt lat="44.0004925" lon="3.6582019"><ele>195.0</ele><time>2026-04-12T13:27:30.18Z</time></trkpt><trkpt lat="44.0004651" lon="3.6584124"><ele>195.33333333333331</ele><time>2026-04-12T13:27:31.18Z</time></trkpt><trkpt lat="44.0004702" lon="3.658631"><ele>195.66666666666666</ele><time>2026-04-12T13:27:32.181Z</time></trkpt><trkpt lat="44.0005081" lon="3.6588699"><ele>196.0</ele><time>2026-04-12T13:27:33.18Z</time></trkpt><trkpt lat="44.0005588" lon="3.659091"><ele>196.0</ele><time>2026-04-12T13:27:34.181Z</time></trkpt><trkpt lat="44.0006308" lon="3.6593139"><ele>196.0</ele><time>2026-04-12T13:27:35.18Z</time></trkpt><trkpt lat="44.0007204" lon="3.6595067"><ele>196.0</ele><time>2026-04-12T13:27:36.18Z</time></trkpt><trkpt lat="44.000809" lon="3.6596849"><ele>196.33333333333331</ele><time>2026-04-12T13:27:37.18Z</time></trkpt><trkpt lat="44.0008697" lon="3.659882"><ele>196.66666666666669</ele><time>2026-04-12T13:27:38.18Z</time></trkpt><trkpt lat="44.000903" lon="3.6600906"><ele>197.0</ele><time>2026-04-12T13:27:39.18Z</time></trkpt><trkpt lat="44.0009379" lon="3.6602907"><ele>197.0</ele><time>2026-04-12T13:27:40.18Z</time></trkpt><trkpt lat="44.0009868" lon="3.6604512"><ele>197.0</ele><time>2026-04-12T13:27:41.181Z</time></trkpt><trkpt lat="44.0010541" lon="3.6605771"><ele>197.0</ele><time>2026-04-12T13:27:42.18Z</time></trkpt><trkpt lat="44.0010914" lon="3.6606919"><ele>197.0</ele><time>2026-04-12T13:27:43.181Z</time></trkpt><trkpt lat="44.0010688" lon="3.66081"><ele>197.0</ele><time>2026-04-12T13:27:44.18Z</time></trkpt><trkpt lat="44.0009861" lon="3.6609349"><ele>197.0</ele><time>2026-04-12T13:27:45.181Z</time></trkpt><trkpt lat="44.0008827" lon="3.6610845"><ele>197.0</ele><time>2026-04-12T13:27:46.181Z</time></trkpt><trkpt lat="44.0007531" lon="3.6612634"><ele>197.0</ele><time>2026-04-12T13:27:47.181Z</time></trkpt><trkpt lat="44.0006378" lon="3.6614789"><ele>196.66666666666669</ele><time>2026-04-12T13:27:48.181Z</time></trkpt><trkpt lat="44.0005337" lon="3.6617182"><ele>196.33333333333331</ele><time>2026-04-12T13:27:49.181Z</time></trkpt><trkpt lat="44.0004327" lon="3.661976"><ele>196.0</ele><time>2026-04-12T13:27:50.18Z</time></trkpt><trkpt lat="44.0003222" lon="3.6622485"><ele>196.66666666666666</ele><time>2026-04-12T13:27:51.181Z</time></trkpt><trkpt lat="44.00022" lon="3.6625148"><ele>197.33333333333331</ele><time>2026-04-12T13:27:52.18Z</time></trkpt><trkpt lat="44.0000958" lon="3.6627813"><ele>198.0</ele><time>2026-04-12T13:27:53.181Z</time></trkpt><trkpt lat="43.9999711" lon="3.6630084"><ele>201.66666666666669</ele><time>2026-04-12T13:27:54.18Z</time></trkpt><trkpt lat="43.999854" lon="3.6632253"><ele>205.33333333333334</ele><time>2026-04-12T13:27:55.18Z</time></trkpt><trkpt lat="43.9997456" lon="3.6634356"><ele>209.0</ele><time>2026-04-12T13:27:56.18Z</time></trkpt><trkpt lat="43.9996619" lon="3.6636696"><ele>213.66666666666669</ele><time>2026-04-12T13:27:57.18Z</time></trkpt><trkpt lat="43.9996199" lon="3.6639393"><ele>218.33333333333331</ele><time>2026-04-12T13:27:58.18Z</time></trkpt><trkpt lat="43.9995688" lon="3.6642076"><ele>223.0</ele><time>2026-04-12T13:27:59.18Z</time></trkpt><trkpt lat="43.9995259" lon="3.6644836"><ele>226.33333333333331</ele><time>2026-04-12T13:28:00.181Z</time></trkpt><trkpt lat="43.9994731" lon="3.6647495"><ele>229.66666666666669</ele><time>2026-04-12T13:28:01.18Z</time></trkpt><trkpt lat="43.99942" lon="3.6650117"><ele>233.0</ele><time>2026-04-12T13:28:02.181Z</time></trkpt><trkpt lat="43.9993585" lon="3.665274"><ele>236.33333333333334</ele><time>2026-04-12T13:28:03.18Z</time></trkpt><trkpt lat="43.9993195" lon="3.6655439"><ele>239.66666666666669</ele><time>2026-04-12T13:28:04.18Z</time></trkpt><trkpt lat="43.9992815" lon="3.6658272"><ele>243.0</ele><time>2026-04-12T13:28:05.181Z</time></trkpt><trkpt lat="43.9992271" lon="3.6661088"><ele>231.66666666666669</ele><time>2026-04-12T13:28:06.181Z</time></trkpt><trkpt lat="43.999165" lon="3.6663942"><ele>220.33333333333334</ele><time>2026-04-12T13:28:07.18Z</time></trkpt><trkpt lat="43.9991001" lon="3.6666905"><ele>209.0</ele><time>2026-04-12T13:28:08.18Z</time></trkpt><trkpt lat="43.9990465" lon="3.6669963"><ele>209.0</ele><time>2026-04-12T13:28:09.181Z</time></trkpt><trkpt lat="43.9990105" lon="3.6673068"><ele>209.0</ele><time>2026-04-12T13:28:10.181Z</time></trkpt><trkpt lat="43.998982" lon="3.6676232"><ele>210.5</ele><time>2026-04-12T13:28:11.18Z</time></trkpt><trkpt lat="43.9989617" lon="3.6679417"><ele>212.0</ele><time>2026-04-12T13:28:12.18Z</time></trkpt><trkpt lat="43.9989428" lon="3.6682747"><ele>212.0</ele><time>2026-04-12T13:28:13.18Z</time></trkpt><trkpt lat="43.9989237" lon="3.6686019"><ele>212.0</ele><time>2026-04-12T13:28:14.181Z</time></trkpt><trkpt lat="43.9989019" lon="3.6689264"><ele>215.5</ele><time>2026-04-12T13:28:15.18Z</time></trkpt><trkpt lat="43.9988753" lon="3.6692514"><ele>219.0</ele><time>2026-04-12T13:28:16.18Z</time></trkpt><trkpt lat="43.9988402" lon="3.6695846"><ele>220.0</ele><time>2026-04-12T13:28:17.18Z</time></trkpt><trkpt lat="43.9988091" lon="3.6699506"><ele>221.0</ele><time>2026-04-12T13:28:18.18Z</time></trkpt><trkpt lat="43.9987803" lon="3.6703237"><ele>221.0</ele><time>2026-04-12T13:28:19.18Z</time></trkpt><trkpt lat="43.998744" lon="3.6706945"><ele>221.0</ele><time>2026-04-12T13:28:20.18Z</time></trkpt><trkpt lat="43.9987138" lon="3.6710561"><ele>222.0</ele><time>2026-04-12T13:28:21.18Z</time></trkpt><trkpt lat="43.9986918" lon="3.6714105"><ele>223.0</ele><time>2026-04-12T13:28:22.18Z</time></trkpt><trkpt lat="43.9986611" lon="3.6717623"><ele>224.0</ele><time>2026-04-12T13:28:23.181Z</time></trkpt><trkpt lat="43.9986312" lon="3.672101"><ele>225.0</ele><time>2026-04-12T13:28:24.181Z</time></trkpt><trkpt lat="43.9985848" lon="3.6724386"><ele>225.0</ele><time>2026-04-12T13:28:25.18Z</time></trkpt><trkpt lat="43.9985189" lon="3.6727659"><ele>225.0</ele><time>2026-04-12T13:28:26.181Z</time></trkpt><trkpt lat="43.9984242" lon="3.6730879"><ele>212.0</ele><time>2026-04-12T13:28:27.18Z</time></trkpt><trkpt lat="43.9983091" lon="3.673401"><ele>199.0</ele><time>2026-04-12T13:28:28.18Z</time></trkpt><trkpt lat="43.9981868" lon="3.6737303"><ele>199.0</ele><time>2026-04-12T13:28:29.181Z</time></trkpt><trkpt lat="43.9980628" lon="3.6740487"><ele>199.0</ele><time>2026-04-12T13:28:30.18Z</time></trkpt><trkpt lat="43.9979476" lon="3.6743771"><ele>201.5</ele><time>2026-04-12T13:28:31.18Z</time></trkpt><trkpt lat="43.997851" lon="3.6746773"><ele>204.0</ele><time>2026-04-12T13:28:32.181Z</time></trkpt><trkpt lat="43.9977514" lon="3.6749522"><ele>204.0</ele><time>2026-04-12T13:28:33.18Z</time></trkpt><trkpt lat="43.9976533" lon="3.675213"><ele>204.0</ele><time>2026-04-12T13:28:34.18Z</time></trkpt><trkpt lat="43.9975605" lon="3.6754602"><ele>204.0</ele><time>2026-04-12T13:28:35.18Z</time></trkpt><trkpt lat="43.9974742" lon="3.6756845"><ele>200.66666666666669</ele><time>2026-04-12T13:28:36.18Z</time></trkpt><trkpt lat="43.9973929" lon="3.6758887"><ele>197.33333333333334</ele><time>2026-04-12T13:28:37.181Z</time></trkpt><trkpt lat="43.9973154" lon="3.6760828"><ele>194.0</ele><time>2026-04-12T13:28:38.181Z</time></trkpt><trkpt lat="43.9972416" lon="3.676266"><ele>194.0</ele><time>2026-04-12T13:28:39.18Z</time></trkpt><trkpt lat="43.9971728" lon="3.6764433"><ele>194.0</ele><time>2026-04-12T13:28:40.18Z</time></trkpt><trkpt lat="43.9971178" lon="3.6765976"><ele>194.0</ele><time>2026-04-12T13:28:41.18Z</time></trkpt><trkpt lat="43.9970517" lon="3.6767378"><ele>194.0</ele><time>2026-04-12T13:28:42.18Z</time></trkpt><trkpt lat="43.9969649" lon="3.6768613"><ele>192.66666666666669</ele><time>2026-04-12T13:28:43.18Z</time></trkpt><trkpt lat="43.996845" lon="3.6769738"><ele>191.33333333333334</ele><time>2026-04-12T13:28:44.181Z</time></trkpt><trkpt lat="43.9967057" lon="3.6770954"><ele>190.0</ele><time>2026-04-12T13:28:45.18Z</time></trkpt><trkpt lat="43.9965707" lon="3.6772267"><ele>189.25</ele><time>2026-04-12T13:28:46.18Z</time></trkpt><trkpt lat="43.9964357" lon="3.6773554"><ele>188.5</ele><time>2026-04-12T13:28:47.18Z</time></trkpt><trkpt lat="43.9963161" lon="3.677468"><ele>187.75</ele><time>2026-04-12T13:28:48.18Z</time></trkpt><trkpt lat="43.9962026" lon="3.6775661"><ele>187.0</ele><time>2026-04-12T13:28:49.18Z</time></trkpt><trkpt lat="43.9960971" lon="3.6776459"><ele>187.0</ele><time>2026-04-12T13:28:50.18Z</time></trkpt><trkpt lat="43.9960145" lon="3.6777227"><ele>187.0</ele><time>2026-04-12T13:28:51.18Z</time></trkpt><trkpt lat="43.9959499" lon="3.6777803"><ele>187.0</ele><time>2026-04-12T13:28:52.181Z</time></trkpt><trkpt lat="43.9958902" lon="3.6778328"><ele>187.0</ele><time>2026-04-12T13:28:53.181Z</time></trkpt><trkpt lat="43.9957961" lon="3.6778821"><ele>187.0</ele><time>2026-04-12T13:28:55.181Z</time></trkpt><trkpt lat="43.9956662" lon="3.6778188"><ele>187.5</ele><time>2026-04-12T13:28:57.18Z</time></trkpt><trkpt lat="43.9956002" lon="3.6777269"><ele>188.0</ele><time>2026-04-12T13:28:58.18Z</time></trkpt><trkpt lat="43.9955476" lon="3.677601"><ele>188.5</ele><time>2026-04-12T13:28:59.18Z</time></trkpt><trkpt lat="43.9954541" lon="3.6774231"><ele>189.0</ele><time>2026-04-12T13:29:00.18Z</time></trkpt><trkpt lat="43.9953208" lon="3.6772459"><ele>189.0</ele><time>2026-04-12T13:29:01.18Z</time></trkpt><trkpt lat="43.9952004" lon="3.6770781"><ele>189.0</ele><time>2026-04-12T13:29:02.181Z</time></trkpt><trkpt lat="43.9950593" lon="3.6769408"><ele>189.0</ele><time>2026-04-12T13:29:03.18Z</time></trkpt><trkpt lat="43.9948915" lon="3.6768571"><ele>188.66666666666666</ele><time>2026-04-12T13:29:04.181Z</time></trkpt><trkpt lat="43.9947046" lon="3.6768341"><ele>188.33333333333331</ele><time>2026-04-12T13:29:05.18Z</time></trkpt><trkpt lat="43.9944848" lon="3.6768719"><ele>188.0</ele><time>2026-04-12T13:29:06.18Z</time></trkpt><trkpt lat="43.9942955" lon="3.6769253"><ele>194.0</ele><time>2026-04-12T13:29:07.181Z</time></trkpt><trkpt lat="43.994121" lon="3.676977"><ele>200.0</ele><time>2026-04-12T13:29:08.181Z</time></trkpt><trkpt lat="43.993937" lon="3.6770251"><ele>206.0</ele><time>2026-04-12T13:29:09.181Z</time></trkpt><trkpt lat="43.9937699" lon="3.6771107"><ele>206.0</ele><time>2026-04-12T13:29:10.181Z</time></trkpt><trkpt lat="43.9936039" lon="3.6772512"><ele>206.0</ele><time>2026-04-12T13:29:11.18Z</time></trkpt><trkpt lat="43.993431" lon="3.6774232"><ele>206.0</ele><time>2026-04-12T13:29:12.181Z</time></trkpt><trkpt lat="43.9932579" lon="3.6776059"><ele>208.33333333333334</ele><time>2026-04-12T13:29:13.181Z</time></trkpt><trkpt lat="43.9930846" lon="3.6777953"><ele>210.66666666666669</ele><time>2026-04-12T13:29:14.181Z</time></trkpt><trkpt lat="43.992914" lon="3.6779809"><ele>213.0</ele><time>2026-04-12T13:29:15.18Z</time></trkpt><trkpt lat="43.9927593" lon="3.6781556"><ele>213.0</ele><time>2026-04-12T13:29:16.18Z</time></trkpt><trkpt lat="43.9926205" lon="3.6783165"><ele>213.0</ele><time>2026-04-12T13:29:17.18Z</time></trkpt><trkpt lat="43.9924984" lon="3.6784885"><ele>213.0</ele><time>2026-04-12T13:29:18.18Z</time></trkpt><trkpt lat="43.9924002" lon="3.6786812"><ele>208.66666666666669</ele><time>2026-04-12T13:29:19.181Z</time></trkpt><trkpt lat="43.9923191" lon="3.678887"><ele>204.33333333333334</ele><time>2026-04-12T13:29:20.181Z</time></trkpt><trkpt lat="43.9922598" lon="3.6791211"><ele>200.0</ele><time>2026-04-12T13:29:21.18Z</time></trkpt><trkpt lat="43.9921949" lon="3.6793891"><ele>202.5</ele><time>2026-04-12T13:29:22.18Z</time></trkpt><trkpt lat="43.9921375" lon="3.6796859"><ele>205.0</ele><time>2026-04-12T13:29:23.181Z</time></trkpt><trkpt lat="43.9920769" lon="3.6800157"><ele>205.5</ele><time>2026-04-12T13:29:24.18Z</time></trkpt><trkpt lat="43.9920028" lon="3.6803772"><ele>206.0</ele><time>2026-04-12T13:29:25.18Z</time></trkpt><trkpt lat="43.9919342" lon="3.6807316"><ele>206.0</ele><time>2026-04-12T13:29:26.18Z</time></trkpt><trkpt lat="43.9919059" lon="3.6810616"><ele>206.0</ele><time>2026-04-12T13:29:27.18Z</time></trkpt><trkpt lat="43.9919129" lon="3.681393"><ele>203.0</ele><time>2026-04-12T13:29:28.181Z</time></trkpt><trkpt lat="43.9919492" lon="3.6817363"><ele>200.0</ele><time>2026-04-12T13:29:29.18Z</time></trkpt><trkpt lat="43.9920335" lon="3.6820763"><ele>195.0</ele><time>2026-04-12T13:29:30.181Z</time></trkpt><trkpt lat="43.992156" lon="3.6824263"><ele>190.0</ele><time>2026-04-12T13:29:31.181Z</time></trkpt><trkpt lat="43.9922862" lon="3.6827853"><ele>188.0</ele><time>2026-04-12T13:29:32.18Z</time></trkpt><trkpt lat="43.9924382" lon="3.6831521"><ele>186.0</ele><time>2026-04-12T13:29:33.18Z</time></trkpt><trkpt lat="43.9925784" lon="3.6835278"><ele>190.0</ele><time>2026-04-12T13:29:34.18Z</time></trkpt><trkpt lat="43.9927216" lon="3.6839003"><ele>194.0</ele><time>2026-04-12T13:29:35.181Z</time></trkpt><trkpt lat="43.9928654" lon="3.6842874"><ele>192.0</ele><time>2026-04-12T13:29:36.18Z</time></trkpt><trkpt lat="43.9930088" lon="3.6846652"><ele>190.0</ele><time>2026-04-12T13:29:37.181Z</time></trkpt><trkpt lat="43.9931407" lon="3.6850195"><ele>187.0</ele><time>2026-04-12T13:29:38.18Z</time></trkpt><trkpt lat="43.9932584" lon="3.6853607"><ele>184.0</ele><time>2026-04-12T13:29:39.18Z</time></trkpt><trkpt lat="43.9933764" lon="3.6856909"><ele>200.5</ele><time>2026-04-12T13:29:40.181Z</time></trkpt><trkpt lat="43.9934758" lon="3.6860086"><ele>217.0</ele><time>2026-04-12T13:29:41.18Z</time></trkpt><trkpt lat="43.9935411" lon="3.6863391"><ele>217.5</ele><time>2026-04-12T13:29:42.181Z</time></trkpt><trkpt lat="43.993546" lon="3.6866721"><ele>218.0</ele><time>2026-04-12T13:29:43.181Z</time></trkpt><trkpt lat="43.9935034" lon="3.6869919"><ele>224.5</ele><time>2026-04-12T13:29:44.181Z</time></trkpt><trkpt lat="43.9934058" lon="3.6872774"><ele>231.0</ele><time>2026-04-12T13:29:45.18Z</time></trkpt><trkpt lat="43.993265" lon="3.6875582"><ele>224.5</ele><time>2026-04-12T13:29:46.181Z</time></trkpt><trkpt lat="43.9931016" lon="3.687831"><ele>218.0</ele><time>2026-04-12T13:29:47.18Z</time></trkpt><trkpt lat="43.9929115" lon="3.6880833"><ele>218.0</ele><time>2026-04-12T13:29:48.181Z</time></trkpt><trkpt lat="43.9926943" lon="3.6882882"><ele>218.0</ele><time>2026-04-12T13:29:49.18Z</time></trkpt><trkpt lat="43.9924641" lon="3.6884469"><ele>221.5</ele><time>2026-04-12T13:29:50.18Z</time></trkpt><trkpt lat="43.9922262" lon="3.6885796"><ele>225.0</ele><time>2026-04-12T13:29:51.181Z</time></trkpt><trkpt lat="43.9920053" lon="3.6886977"><ele>225.0</ele><time>2026-04-12T13:29:52.18Z</time></trkpt><trkpt lat="43.9917963" lon="3.6887815"><ele>225.0</ele><time>2026-04-12T13:29:53.18Z</time></trkpt><trkpt lat="43.9915832" lon="3.6888004"><ele>225.0</ele><time>2026-04-12T13:29:54.18Z</time></trkpt><trkpt lat="43.9913842" lon="3.6887623"><ele>217.5</ele><time>2026-04-12T13:29:55.181Z</time></trkpt><trkpt lat="43.991153" lon="3.6886873"><ele>210.0</ele><time>2026-04-12T13:29:56.18Z</time></trkpt><trkpt lat="43.9909017" lon="3.6885852"><ele>194.5</ele><time>2026-04-12T13:29:57.181Z</time></trkpt><trkpt lat="43.990635" lon="3.6884946"><ele>179.0</ele><time>2026-04-12T13:29:58.18Z</time></trkpt><trkpt lat="43.9903522" lon="3.6884189"><ele>179.0</ele><time>2026-04-12T13:29:59.181Z</time></trkpt><trkpt lat="43.9900557" lon="3.6883667"><ele>179.0</ele><time>2026-04-12T13:30:00.18Z</time></trkpt><trkpt lat="43.9897456" lon="3.6883218"><ele>182.5</ele><time>2026-04-12T13:30:01.181Z</time></trkpt><trkpt lat="43.9894319" lon="3.6882864"><ele>186.0</ele><time>2026-04-12T13:30:02.181Z</time></trkpt><trkpt lat="43.9891308" lon="3.6882424"><ele>186.0</ele><time>2026-04-12T13:30:03.18Z</time></trkpt><trkpt lat="43.9888323" lon="3.6881853"><ele>186.0</ele><time>2026-04-12T13:30:04.18Z</time></trkpt><trkpt lat="43.9885503" lon="3.6881043"><ele>185.5</ele><time>2026-04-12T13:30:05.18Z</time></trkpt><trkpt lat="43.9882892" lon="3.6879918"><ele>185.0</ele><time>2026-04-12T13:30:06.18Z</time></trkpt><trkpt lat="43.9880146" lon="3.6878273"><ele>184.5</ele><time>2026-04-12T13:30:07.181Z</time></trkpt><trkpt lat="43.9877354" lon="3.6876296"><ele>184.0</ele><time>2026-04-12T13:30:08.18Z</time></trkpt><trkpt lat="43.9874497" lon="3.6873965"><ele>184.0</ele><time>2026-04-12T13:30:09.18Z</time></trkpt><trkpt lat="43.9871466" lon="3.6871546"><ele>184.0</ele><time>2026-04-12T13:30:10.18Z</time></trkpt><trkpt lat="43.9868333" lon="3.6869073"><ele>183.5</ele><time>2026-04-12T13:30:11.18Z</time></trkpt><trkpt lat="43.9865221" lon="3.6866509"><ele>183.0</ele><time>2026-04-12T13:30:12.181Z</time></trkpt><trkpt lat="43.9862136" lon="3.6864027"><ele>183.0</ele><time>2026-04-12T13:30:13.18Z</time></trkpt><trkpt lat="43.98591" lon="3.6861628"><ele>183.0</ele><time>2026-04-12T13:30:14.18Z</time></trkpt><trkpt lat="43.9856172" lon="3.6859347"><ele>182.0</ele><time>2026-04-12T13:30:15.181Z</time></trkpt><trkpt lat="43.985336" lon="3.6857097"><ele>181.0</ele><time>2026-04-12T13:30:16.181Z</time></trkpt><trkpt lat="43.985066" lon="3.6854789"><ele>180.5</ele><time>2026-04-12T13:30:17.18Z</time></trkpt><trkpt lat="43.9848024" lon="3.6852637"><ele>180.0</ele><time>2026-04-12T13:30:18.181Z</time></trkpt><trkpt lat="43.9845366" lon="3.6850784"><ele>180.0</ele><time>2026-04-12T13:30:19.18Z</time></trkpt><trkpt lat="43.9842672" lon="3.6849335"><ele>180.0</ele><time>2026-04-12T13:30:20.18Z</time></trkpt><trkpt lat="43.9840052" lon="3.6848353"><ele>184.5</ele><time>2026-04-12T13:30:21.18Z</time></trkpt><trkpt lat="43.9837483" lon="3.6847915"><ele>189.0</ele><time>2026-04-12T13:30:22.18Z</time></trkpt><trkpt lat="43.9834886" lon="3.6848129"><ele>189.5</ele><time>2026-04-12T13:30:23.181Z</time></trkpt><trkpt lat="43.983238" lon="3.6848993"><ele>190.0</ele><time>2026-04-12T13:30:24.18Z</time></trkpt><trkpt lat="43.9830019" lon="3.6850244"><ele>190.0</ele><time>2026-04-12T13:30:25.18Z</time></trkpt><trkpt lat="43.9827786" lon="3.6851941"><ele>190.0</ele><time>2026-04-12T13:30:26.18Z</time></trkpt><trkpt lat="43.9825773" lon="3.6854098"><ele>192.5</ele><time>2026-04-12T13:30:27.18Z</time></trkpt><trkpt lat="43.982399" lon="3.6856579"><ele>195.0</ele><time>2026-04-12T13:30:28.18Z</time></trkpt><trkpt lat="43.9822501" lon="3.685945"><ele>196.5</ele><time>2026-04-12T13:30:29.179Z</time></trkpt><trkpt lat="43.9821344" lon="3.6862637"><ele>198.0</ele><time>2026-04-12T13:30:30.18Z</time></trkpt><trkpt lat="43.9820673" lon="3.6866194"><ele>197.5</ele><time>2026-04-12T13:30:31.179Z</time></trkpt><trkpt lat="43.9820276" lon="3.6869912"><ele>197.0</ele><time>2026-04-12T13:30:32.179Z</time></trkpt><trkpt lat="43.982025" lon="3.6873647"><ele>197.0</ele><time>2026-04-12T13:30:33.179Z</time></trkpt><trkpt lat="43.9820619" lon="3.6877375"><ele>197.0</ele><time>2026-04-12T13:30:34.179Z</time></trkpt><trkpt lat="43.9821177" lon="3.6881142"><ele>194.5</ele><time>2026-04-12T13:30:35.179Z</time></trkpt><trkpt lat="43.9821861" lon="3.6884901"><ele>192.0</ele><time>2026-04-12T13:30:36.179Z</time></trkpt><trkpt lat="43.9822611" lon="3.6888717"><ele>191.0</ele><time>2026-04-12T13:30:37.179Z</time></trkpt><trkpt lat="43.9823323" lon="3.689253"><ele>190.0</ele><time>2026-04-12T13:30:38.18Z</time></trkpt><trkpt lat="43.9823978" lon="3.689609"><ele>186.5</ele><time>2026-04-12T13:30:39.179Z</time></trkpt><trkpt lat="43.9824577" lon="3.6899353"><ele>183.0</ele><time>2026-04-12T13:30:40.179Z</time></trkpt><trkpt lat="43.9825043" lon="3.69024"><ele>182.33333333333334</ele><time>2026-04-12T13:30:41.179Z</time></trkpt><trkpt lat="43.9825309" lon="3.6905376"><ele>181.66666666666669</ele><time>2026-04-12T13:30:42.179Z</time></trkpt><trkpt lat="43.9825313" lon="3.6908279"><ele>181.0</ele><time>2026-04-12T13:30:43.18Z</time></trkpt><trkpt lat="43.9825069" lon="3.6910893"><ele>183.66666666666669</ele><time>2026-04-12T13:30:44.179Z</time></trkpt><trkpt lat="43.9824434" lon="3.6913477"><ele>186.33333333333334</ele><time>2026-04-12T13:30:45.179Z</time></trkpt><trkpt lat="43.9823483" lon="3.6915904"><ele>189.0</ele><time>2026-04-12T13:30:46.179Z</time></trkpt><trkpt lat="43.9822273" lon="3.6918046"><ele>197.0</ele><time>2026-04-12T13:30:47.18Z</time></trkpt><trkpt lat="43.9820784" lon="3.6919949"><ele>205.0</ele><time>2026-04-12T13:30:48.18Z</time></trkpt><trkpt lat="43.9819" lon="3.6921384"><ele>213.0</ele><time>2026-04-12T13:30:49.18Z</time></trkpt><trkpt lat="43.9817105" lon="3.692217"><ele>207.33333333333331</ele><time>2026-04-12T13:30:50.179Z</time></trkpt><trkpt lat="43.9815053" lon="3.6922423"><ele>201.66666666666666</ele><time>2026-04-12T13:30:51.18Z</time></trkpt><trkpt lat="43.9812945" lon="3.6922247"><ele>196.0</ele><time>2026-04-12T13:30:52.179Z</time></trkpt><trkpt lat="43.9810857" lon="3.6921512"><ele>196.0</ele><time>2026-04-12T13:30:53.18Z</time></trkpt><trkpt lat="43.9808575" lon="3.6920775"><ele>196.0</ele><time>2026-04-12T13:30:54.179Z</time></trkpt><trkpt lat="43.9806095" lon="3.6919787"><ele>187.0</ele><time>2026-04-12T13:30:55.18Z</time></trkpt><trkpt lat="43.9803664" lon="3.6918628"><ele>178.0</ele><time>2026-04-12T13:30:56.179Z</time></trkpt><trkpt lat="43.9801045" lon="3.6916993"><ele>183.5</ele><time>2026-04-12T13:30:57.18Z</time></trkpt><trkpt lat="43.9798557" lon="3.6914877"><ele>189.0</ele><time>2026-04-12T13:30:58.179Z</time></trkpt><trkpt lat="43.979597" lon="3.6912648"><ele>188.5</ele><time>2026-04-12T13:30:59.18Z</time></trkpt><trkpt lat="43.9793616" lon="3.6910319"><ele>188.0</ele><time>2026-04-12T13:31:00.179Z</time></trkpt><trkpt lat="43.9791434" lon="3.6907733"><ele>188.0</ele><time>2026-04-12T13:31:01.179Z</time></trkpt><trkpt lat="43.978936" lon="3.6904618"><ele>188.0</ele><time>2026-04-12T13:31:02.179Z</time></trkpt><trkpt lat="43.9787399" lon="3.6901431"><ele>180.5</ele><time>2026-04-12T13:31:03.18Z</time></trkpt><trkpt lat="43.9785642" lon="3.6898127"><ele>173.0</ele><time>2026-04-12T13:31:04.179Z</time></trkpt><trkpt lat="43.9784086" lon="3.6894748"><ele>179.0</ele><time>2026-04-12T13:31:05.179Z</time></trkpt><trkpt lat="43.9782719" lon="3.6891182"><ele>185.0</ele><time>2026-04-12T13:31:06.18Z</time></trkpt><trkpt lat="43.9781449" lon="3.688753"><ele>180.5</ele><time>2026-04-12T13:31:07.179Z</time></trkpt><trkpt lat="43.9780165" lon="3.6883853"><ele>176.0</ele><time>2026-04-12T13:31:08.179Z</time></trkpt><trkpt lat="43.9779002" lon="3.6880247"><ele>173.5</ele><time>2026-04-12T13:31:09.18Z</time></trkpt><trkpt lat="43.9777854" lon="3.6876835"><ele>171.0</ele><time>2026-04-12T13:31:10.18Z</time></trkpt><trkpt lat="43.9776774" lon="3.6873634"><ele>171.0</ele><time>2026-04-12T13:31:11.18Z</time></trkpt><trkpt lat="43.9775704" lon="3.6870729"><ele>171.0</ele><time>2026-04-12T13:31:12.18Z</time></trkpt><trkpt lat="43.9774389" lon="3.6868235"><ele>173.66666666666666</ele><time>2026-04-12T13:31:13.179Z</time></trkpt><trkpt lat="43.9772747" lon="3.6866184"><ele>176.33333333333331</ele><time>2026-04-12T13:31:14.179Z</time></trkpt><trkpt lat="43.9770908" lon="3.686459"><ele>179.0</ele><time>2026-04-12T13:31:15.18Z</time></trkpt><trkpt lat="43.9768756" lon="3.6863356"><ele>185.0</ele><time>2026-04-12T13:31:16.179Z</time></trkpt><trkpt lat="43.9766583" lon="3.6862663"><ele>191.0</ele><time>2026-04-12T13:31:17.179Z</time></trkpt><trkpt lat="43.9764303" lon="3.6862186"><ele>191.0</ele><time>2026-04-12T13:31:18.18Z</time></trkpt><trkpt lat="43.9761927" lon="3.6862262"><ele>191.0</ele><time>2026-04-12T13:31:19.179Z</time></trkpt><trkpt lat="43.9759683" lon="3.6862869"><ele>190.0</ele><time>2026-04-12T13:31:20.179Z</time></trkpt><trkpt lat="43.9757381" lon="3.6863818"><ele>189.0</ele><time>2026-04-12T13:31:21.18Z</time></trkpt><trkpt lat="43.9754998" lon="3.6864793"><ele>189.0</ele><time>2026-04-12T13:31:22.18Z</time></trkpt><trkpt lat="43.9752685" lon="3.6865702"><ele>189.0</ele><time>2026-04-12T13:31:23.179Z</time></trkpt><trkpt lat="43.9750516" lon="3.6866443"><ele>186.33333333333334</ele><time>2026-04-12T13:31:24.18Z</time></trkpt><trkpt lat="43.9748385" lon="3.6867081"><ele>183.66666666666669</ele><time>2026-04-12T13:31:25.18Z</time></trkpt><trkpt lat="43.9746379" lon="3.686776"><ele>181.0</ele><time>2026-04-12T13:31:26.179Z</time></trkpt><trkpt lat="43.9744459" lon="3.6868393"><ele>181.0</ele><time>2026-04-12T13:31:27.18Z</time></trkpt><trkpt lat="43.9742675" lon="3.6869036"><ele>181.0</ele><time>2026-04-12T13:31:28.179Z</time></trkpt><trkpt lat="43.9740905" lon="3.6869637"><ele>181.0</ele><time>2026-04-12T13:31:29.18Z</time></trkpt><trkpt lat="43.9739235" lon="3.6870244"><ele>181.33333333333334</ele><time>2026-04-12T13:31:30.179Z</time></trkpt><trkpt lat="43.9737541" lon="3.6871059"><ele>181.66666666666666</ele><time>2026-04-12T13:31:31.18Z</time></trkpt><trkpt lat="43.9735952" lon="3.6872208"><ele>182.0</ele><time>2026-04-12T13:31:32.18Z</time></trkpt><trkpt lat="43.9734586" lon="3.6873941"><ele>180.66666666666666</ele><time>2026-04-12T13:31:33.179Z</time></trkpt><trkpt lat="43.9733348" lon="3.687583"><ele>179.33333333333334</ele><time>2026-04-12T13:31:34.179Z</time></trkpt><trkpt lat="43.9732107" lon="3.6877774"><ele>178.0</ele><time>2026-04-12T13:31:35.179Z</time></trkpt><trkpt lat="43.9730803" lon="3.6879391"><ele>182.0</ele><time>2026-04-12T13:31:36.18Z</time></trkpt><trkpt lat="43.9729362" lon="3.6880997"><ele>186.0</ele><time>2026-04-12T13:31:37.179Z</time></trkpt><trkpt lat="43.9727846" lon="3.6882824"><ele>190.0</ele><time>2026-04-12T13:31:38.18Z</time></trkpt><trkpt lat="43.9726267" lon="3.6884754"><ele>189.66666666666669</ele><time>2026-04-12T13:31:39.18Z</time></trkpt><trkpt lat="43.9724747" lon="3.6886695"><ele>189.33333333333334</ele><time>2026-04-12T13:31:40.18Z</time></trkpt><trkpt lat="43.9723354" lon="3.6888607"><ele>189.0</ele><time>2026-04-12T13:31:41.179Z</time></trkpt><trkpt lat="43.9721954" lon="3.6890539"><ele>189.0</ele><time>2026-04-12T13:31:42.18Z</time></trkpt><trkpt lat="43.9720489" lon="3.6892717"><ele>189.0</ele><time>2026-04-12T13:31:43.179Z</time></trkpt><trkpt lat="43.9718851" lon="3.6894923"><ele>189.0</ele><time>2026-04-12T13:31:44.179Z</time></trkpt><trkpt lat="43.9716992" lon="3.6897338"><ele>188.5</ele><time>2026-04-12T13:31:45.179Z</time></trkpt><trkpt lat="43.9715088" lon="3.6899829"><ele>188.0</ele><time>2026-04-12T13:31:46.179Z</time></trkpt><trkpt lat="43.9713219" lon="3.6902501"><ele>195.0</ele><time>2026-04-12T13:31:47.179Z</time></trkpt><trkpt lat="43.97114" lon="3.6905253"><ele>202.0</ele><time>2026-04-12T13:31:48.179Z</time></trkpt><trkpt lat="43.9709706" lon="3.6907876"><ele>196.66666666666666</ele><time>2026-04-12T13:31:49.18Z</time></trkpt><trkpt lat="43.9708168" lon="3.6910362"><ele>191.33333333333331</ele><time>2026-04-12T13:31:50.179Z</time></trkpt><trkpt lat="43.9706911" lon="3.6912535"><ele>186.0</ele><time>2026-04-12T13:31:51.18Z</time></trkpt><trkpt lat="43.9705655" lon="3.691442"><ele>186.0</ele><time>2026-04-12T13:31:52.18Z</time></trkpt><trkpt lat="43.9704467" lon="3.6916456"><ele>186.0</ele><time>2026-04-12T13:31:53.179Z</time></trkpt><trkpt lat="43.9703134" lon="3.6918507"><ele>186.0</ele><time>2026-04-12T13:31:54.179Z</time></trkpt><trkpt lat="43.9701829" lon="3.6920581"><ele>183.33333333333334</ele><time>2026-04-12T13:31:55.18Z</time></trkpt><trkpt lat="43.9700452" lon="3.6922594"><ele>180.66666666666669</ele><time>2026-04-12T13:31:56.179Z</time></trkpt><trkpt lat="43.9699024" lon="3.6924454"><ele>178.0</ele><time>2026-04-12T13:31:57.18Z</time></trkpt><trkpt lat="43.9697361" lon="3.6926031"><ele>178.0</ele><time>2026-04-12T13:31:58.179Z</time></trkpt><trkpt lat="43.9695461" lon="3.6926909"><ele>178.0</ele><time>2026-04-12T13:31:59.179Z</time></trkpt><trkpt lat="43.9693409" lon="3.6927335"><ele>178.0</ele><time>2026-04-12T13:32:00.179Z</time></trkpt><trkpt lat="43.9691369" lon="3.6927377"><ele>175.33333333333334</ele><time>2026-04-12T13:32:01.18Z</time></trkpt><trkpt lat="43.9689266" lon="3.6926919"><ele>172.66666666666666</ele><time>2026-04-12T13:32:02.179Z</time></trkpt><trkpt lat="43.9687285" lon="3.6926221"><ele>170.0</ele><time>2026-04-12T13:32:03.179Z</time></trkpt><trkpt lat="43.9685275" lon="3.6925435"><ele>172.5</ele><time>2026-04-12T13:32:04.18Z</time></trkpt><trkpt lat="43.9683106" lon="3.6924573"><ele>175.0</ele><time>2026-04-12T13:32:05.18Z</time></trkpt><trkpt lat="43.968086" lon="3.6923629"><ele>175.0</ele><time>2026-04-12T13:32:06.179Z</time></trkpt><trkpt lat="43.9678412" lon="3.6922392"><ele>175.0</ele><time>2026-04-12T13:32:07.179Z</time></trkpt><trkpt lat="43.9676008" lon="3.6921099"><ele>170.5</ele><time>2026-04-12T13:32:08.179Z</time></trkpt><trkpt lat="43.9673631" lon="3.6919776"><ele>166.0</ele><time>2026-04-12T13:32:09.18Z</time></trkpt><trkpt lat="43.9671329" lon="3.6918303"><ele>166.0</ele><time>2026-04-12T13:32:10.18Z</time></trkpt><trkpt lat="43.9669171" lon="3.6916438"><ele>166.0</ele><time>2026-04-12T13:32:11.179Z</time></trkpt><trkpt lat="43.9667284" lon="3.6914222"><ele>164.5</ele><time>2026-04-12T13:32:12.179Z</time></trkpt><trkpt lat="43.9665541" lon="3.6911773"><ele>163.0</ele><time>2026-04-12T13:32:13.179Z</time></trkpt><trkpt lat="43.9664008" lon="3.6909109"><ele>163.0</ele><time>2026-04-12T13:32:14.179Z</time></trkpt><trkpt lat="43.9662795" lon="3.6906122"><ele>163.0</ele><time>2026-04-12T13:32:15.18Z</time></trkpt><trkpt lat="43.9661838" lon="3.690306"><ele>162.5</ele><time>2026-04-12T13:32:16.179Z</time></trkpt><trkpt lat="43.9661054" lon="3.6899859"><ele>162.0</ele><time>2026-04-12T13:32:17.179Z</time></trkpt><trkpt lat="43.9660391" lon="3.6896559"><ele>161.0</ele><time>2026-04-12T13:32:18.179Z</time></trkpt><trkpt lat="43.9659846" lon="3.689336"><ele>160.0</ele><time>2026-04-12T13:32:19.18Z</time></trkpt><trkpt lat="43.9659391" lon="3.6890408"><ele>160.0</ele><time>2026-04-12T13:32:20.179Z</time></trkpt><trkpt lat="43.9658965" lon="3.6887855"><ele>160.0</ele><time>2026-04-12T13:32:21.179Z</time></trkpt><trkpt lat="43.9658543" lon="3.6885413"><ele>160.0</ele><time>2026-04-12T13:32:22.18Z</time></trkpt><trkpt lat="43.9657737" lon="3.6883373"><ele>161.33333333333334</ele><time>2026-04-12T13:32:23.179Z</time></trkpt><trkpt lat="43.9656812" lon="3.688148"><ele>162.66666666666666</ele><time>2026-04-12T13:32:24.18Z</time></trkpt><trkpt lat="43.965544" lon="3.6880174"><ele>164.0</ele><time>2026-04-12T13:32:25.179Z</time></trkpt><trkpt lat="43.9653792" lon="3.6879248"><ele>164.0</ele><time>2026-04-12T13:32:26.179Z</time></trkpt><trkpt lat="43.9651958" lon="3.687902"><ele>164.0</ele><time>2026-04-12T13:32:27.18Z</time></trkpt><trkpt lat="43.9650087" lon="3.6879064"><ele>164.0</ele><time>2026-04-12T13:32:28.179Z</time></trkpt><trkpt lat="43.9648137" lon="3.6879345"><ele>171.5</ele><time>2026-04-12T13:32:29.179Z</time></trkpt><trkpt lat="43.9645909" lon="3.6879539"><ele>179.0</ele><time>2026-04-12T13:32:30.18Z</time></trkpt><trkpt lat="43.9643622" lon="3.6880117"><ele>179.0</ele><time>2026-04-12T13:32:31.18Z</time></trkpt><trkpt lat="43.9641415" lon="3.6880941"><ele>179.0</ele><time>2026-04-12T13:32:32.18Z</time></trkpt><trkpt lat="43.9639138" lon="3.6882093"><ele>179.0</ele><time>2026-04-12T13:32:33.179Z</time></trkpt><trkpt lat="43.9636687" lon="3.6883406"><ele>179.0</ele><time>2026-04-12T13:32:34.179Z</time></trkpt><trkpt lat="43.9634037" lon="3.6884702"><ele>182.0</ele><time>2026-04-12T13:32:35.179Z</time></trkpt><trkpt lat="43.9631163" lon="3.6885694"><ele>185.0</ele><time>2026-04-12T13:32:36.179Z</time></trkpt><trkpt lat="43.962817" lon="3.6886728"><ele>183.5</ele><time>2026-04-12T13:32:37.18Z</time></trkpt><trkpt lat="43.9624965" lon="3.688744"><ele>182.0</ele><time>2026-04-12T13:32:38.179Z</time></trkpt><trkpt lat="43.9621981" lon="3.6888172"><ele>182.0</ele><time>2026-04-12T13:32:39.18Z</time></trkpt><trkpt lat="43.9619031" lon="3.6888764"><ele>182.0</ele><time>2026-04-12T13:32:40.179Z</time></trkpt><trkpt lat="43.9616292" lon="3.6889063"><ele>181.0</ele><time>2026-04-12T13:32:41.179Z</time></trkpt><trkpt lat="43.9613599" lon="3.6889079"><ele>180.0</ele><time>2026-04-12T13:32:42.179Z</time></trkpt><trkpt lat="43.9610883" lon="3.6888509"><ele>184.0</ele><time>2026-04-12T13:32:43.18Z</time></trkpt><trkpt lat="43.9608327" lon="3.6887445"><ele>188.0</ele><time>2026-04-12T13:32:44.179Z</time></trkpt><trkpt lat="43.9605791" lon="3.6885817"><ele>176.5</ele><time>2026-04-12T13:32:45.179Z</time></trkpt><trkpt lat="43.9603203" lon="3.6883672"><ele>165.0</ele><time>2026-04-12T13:32:46.179Z</time></trkpt><trkpt lat="43.9600561" lon="3.688133"><ele>164.0</ele><time>2026-04-12T13:32:47.179Z</time></trkpt><trkpt lat="43.9597837" lon="3.6878835"><ele>163.0</ele><time>2026-04-12T13:32:48.18Z</time></trkpt><trkpt lat="43.9595112" lon="3.6876329"><ele>163.0</ele><time>2026-04-12T13:32:49.179Z</time></trkpt><trkpt lat="43.9592719" lon="3.687387"><ele>163.0</ele><time>2026-04-12T13:32:50.179Z</time></trkpt><trkpt lat="43.9590515" lon="3.6871547"><ele>164.5</ele><time>2026-04-12T13:32:51.179Z</time></trkpt><trkpt lat="43.9588344" lon="3.6869555"><ele>166.0</ele><time>2026-04-12T13:32:52.18Z</time></trkpt><trkpt lat="43.9586188" lon="3.6868265"><ele>166.0</ele><time>2026-04-12T13:32:53.18Z</time></trkpt><trkpt lat="43.9583961" lon="3.6867078"><ele>166.0</ele><time>2026-04-12T13:32:54.18Z</time></trkpt><trkpt lat="43.9581837" lon="3.6866669"><ele>171.0</ele><time>2026-04-12T13:32:55.18Z</time></trkpt><trkpt lat="43.9579438" lon="3.6867286"><ele>176.0</ele><time>2026-04-12T13:32:56.179Z</time></trkpt><trkpt lat="43.9576915" lon="3.686795"><ele>175.5</ele><time>2026-04-12T13:32:57.179Z</time></trkpt><trkpt lat="43.9574446" lon="3.6868353"><ele>175.0</ele><time>2026-04-12T13:32:58.179Z</time></trkpt><trkpt lat="43.957185" lon="3.6868576"><ele>175.0</ele><time>2026-04-12T13:32:59.18Z</time></trkpt><trkpt lat="43.9569181" lon="3.6868795"><ele>175.0</ele><time>2026-04-12T13:33:00.179Z</time></trkpt><trkpt lat="43.9566422" lon="3.6869055"><ele>174.5</ele><time>2026-04-12T13:33:01.179Z</time></trkpt><trkpt lat="43.9563381" lon="3.6869248"><ele>174.0</ele><time>2026-04-12T13:33:02.179Z</time></trkpt><trkpt lat="43.9560438" lon="3.6869555"><ele>179.0</ele><time>2026-04-12T13:33:03.18Z</time></trkpt><trkpt lat="43.9557474" lon="3.6870052"><ele>184.0</ele><time>2026-04-12T13:33:04.179Z</time></trkpt><trkpt lat="43.9554665" lon="3.6870446"><ele>184.0</ele><time>2026-04-12T13:33:05.179Z</time></trkpt><trkpt lat="43.9551828" lon="3.687032"><ele>184.0</ele><time>2026-04-12T13:33:06.18Z</time></trkpt><trkpt lat="43.9548968" lon="3.6869788"><ele>177.0</ele><time>2026-04-12T13:33:07.179Z</time></trkpt><trkpt lat="43.9546077" lon="3.6869023"><ele>170.0</ele><time>2026-04-12T13:33:08.18Z</time></trkpt><trkpt lat="43.9543256" lon="3.6867763"><ele>171.5</ele><time>2026-04-12T13:33:09.179Z</time></trkpt><trkpt lat="43.9540538" lon="3.6866239"><ele>173.0</ele><time>2026-04-12T13:33:10.179Z</time></trkpt><trkpt lat="43.953782" lon="3.6864213"><ele>173.0</ele><time>2026-04-12T13:33:11.179Z</time></trkpt><trkpt lat="43.9535079" lon="3.686211"><ele>173.0</ele><time>2026-04-12T13:33:12.179Z</time></trkpt><trkpt lat="43.9532319" lon="3.686012"><ele>169.5</ele><time>2026-04-12T13:33:13.179Z</time></trkpt><trkpt lat="43.9529436" lon="3.6858325"><ele>166.0</ele><time>2026-04-12T13:33:14.18Z</time></trkpt><trkpt lat="43.9526475" lon="3.6856828"><ele>168.5</ele><time>2026-04-12T13:33:15.179Z</time></trkpt><trkpt lat="43.9523464" lon="3.6855586"><ele>171.0</ele><time>2026-04-12T13:33:16.179Z</time></trkpt><trkpt lat="43.9520423" lon="3.6854483"><ele>171.0</ele><time>2026-04-12T13:33:17.18Z</time></trkpt><trkpt lat="43.9517362" lon="3.6853751"><ele>171.0</ele><time>2026-04-12T13:33:18.18Z</time></trkpt><trkpt lat="43.9514266" lon="3.6853097"><ele>174.0</ele><time>2026-04-12T13:33:19.18Z</time></trkpt><trkpt lat="43.951129" lon="3.685268"><ele>177.0</ele><time>2026-04-12T13:33:20.179Z</time></trkpt><trkpt lat="43.9508322" lon="3.6852276"><ele>169.5</ele><time>2026-04-12T13:33:21.18Z</time></trkpt><trkpt lat="43.9505356" lon="3.6851617"><ele>162.0</ele><time>2026-04-12T13:33:22.179Z</time></trkpt><trkpt lat="43.9502411" lon="3.6850621"><ele>162.5</ele><time>2026-04-12T13:33:23.179Z</time></trkpt><trkpt lat="43.9499408" lon="3.6849279"><ele>163.0</ele><time>2026-04-12T13:33:24.179Z</time></trkpt><trkpt lat="43.9496478" lon="3.6847764"><ele>163.0</ele><time>2026-04-12T13:33:25.18Z</time></trkpt><trkpt lat="43.9493721" lon="3.6846383"><ele>163.0</ele><time>2026-04-12T13:33:26.179Z</time></trkpt><trkpt lat="43.9491104" lon="3.6845089"><ele>160.0</ele><time>2026-04-12T13:33:27.18Z</time></trkpt><trkpt lat="43.9488624" lon="3.6843717"><ele>157.0</ele><time>2026-04-12T13:33:28.179Z</time></trkpt><trkpt lat="43.9486244" lon="3.6842525"><ele>157.0</ele><time>2026-04-12T13:33:29.18Z</time></trkpt><trkpt lat="43.9484029" lon="3.6841392"><ele>157.0</ele><time>2026-04-12T13:33:30.179Z</time></trkpt><trkpt lat="43.948193" lon="3.6840316"><ele>159.33333333333334</ele><time>2026-04-12T13:33:31.179Z</time></trkpt><trkpt lat="43.9479913" lon="3.6839331"><ele>161.66666666666666</ele><time>2026-04-12T13:33:32.18Z</time></trkpt><trkpt lat="43.9477989" lon="3.6838497"><ele>164.0</ele><time>2026-04-12T13:33:33.179Z</time></trkpt><trkpt lat="43.9476132" lon="3.6837673"><ele>166.66666666666666</ele><time>2026-04-12T13:33:34.179Z</time></trkpt><trkpt lat="43.9474303" lon="3.6837136"><ele>169.33333333333334</ele><time>2026-04-12T13:33:35.179Z</time></trkpt><trkpt lat="43.9472457" lon="3.683686"><ele>172.0</ele><time>2026-04-12T13:33:36.179Z</time></trkpt><trkpt lat="43.947058" lon="3.6837406"><ele>172.0</ele><time>2026-04-12T13:33:37.179Z</time></trkpt><trkpt lat="43.9468868" lon="3.6838466"><ele>172.0</ele><time>2026-04-12T13:33:38.179Z</time></trkpt><trkpt lat="43.9467373" lon="3.6840093"><ele>172.0</ele><time>2026-04-12T13:33:39.179Z</time></trkpt><trkpt lat="43.9465985" lon="3.6842449"><ele>180.0</ele><time>2026-04-12T13:33:40.179Z</time></trkpt><trkpt lat="43.9464645" lon="3.6845089"><ele>188.0</ele><time>2026-04-12T13:33:41.179Z</time></trkpt><trkpt lat="43.9463266" lon="3.6847824"><ele>188.0</ele><time>2026-04-12T13:33:42.179Z</time></trkpt><trkpt lat="43.9462109" lon="3.6850543"><ele>188.0</ele><time>2026-04-12T13:33:43.18Z</time></trkpt><trkpt lat="43.9461102" lon="3.6853478"><ele>195.33333333333331</ele><time>2026-04-12T13:33:44.18Z</time></trkpt><trkpt lat="43.9460393" lon="3.6856418"><ele>202.66666666666666</ele><time>2026-04-12T13:33:45.179Z</time></trkpt><trkpt lat="43.9459799" lon="3.68594"><ele>210.0</ele><time>2026-04-12T13:33:46.179Z</time></trkpt><trkpt lat="43.9459382" lon="3.6862468"><ele>215.0</ele><time>2026-04-12T13:33:47.179Z</time></trkpt><trkpt lat="43.9459096" lon="3.6865559"><ele>220.0</ele><time>2026-04-12T13:33:48.179Z</time></trkpt><trkpt lat="43.9458839" lon="3.6868683"><ele>198.0</ele><time>2026-04-12T13:33:49.179Z</time></trkpt><trkpt lat="43.9458583" lon="3.6871803"><ele>176.0</ele><time>2026-04-12T13:33:50.179Z</time></trkpt><trkpt lat="43.945832" lon="3.6874911"><ele>179.66666666666666</ele><time>2026-04-12T13:33:51.18Z</time></trkpt><trkpt lat="43.9457957" lon="3.6877905"><ele>183.33333333333334</ele><time>2026-04-12T13:33:52.179Z</time></trkpt><trkpt lat="43.9457415" lon="3.6880784"><ele>187.0</ele><time>2026-04-12T13:33:53.179Z</time></trkpt><trkpt lat="43.9456598" lon="3.6883547"><ele>195.33333333333334</ele><time>2026-04-12T13:33:54.179Z</time></trkpt><trkpt lat="43.9455568" lon="3.6886069"><ele>203.66666666666669</ele><time>2026-04-12T13:33:55.18Z</time></trkpt><trkpt lat="43.9454335" lon="3.6888318"><ele>212.0</ele><time>2026-04-12T13:33:56.18Z</time></trkpt><trkpt lat="43.9452834" lon="3.6890198"><ele>212.0</ele><time>2026-04-12T13:33:57.179Z</time></trkpt><trkpt lat="43.9451201" lon="3.689157"><ele>212.0</ele><time>2026-04-12T13:33:58.18Z</time></trkpt><trkpt lat="43.9449351" lon="3.6892744"><ele>212.0</ele><time>2026-04-12T13:33:59.179Z</time></trkpt><trkpt lat="43.9447356" lon="3.6893364"><ele>198.5</ele><time>2026-04-12T13:34:00.18Z</time></trkpt><trkpt lat="43.9445262" lon="3.6893763"><ele>185.0</ele><time>2026-04-12T13:34:01.179Z</time></trkpt><trkpt lat="43.9442772" lon="3.6893798"><ele>177.5</ele><time>2026-04-12T13:34:02.18Z</time></trkpt><trkpt lat="43.944022" lon="3.6893564"><ele>170.0</ele><time>2026-04-12T13:34:03.18Z</time></trkpt><trkpt lat="43.9437495" lon="3.6893286"><ele>170.0</ele><time>2026-04-12T13:34:04.18Z</time></trkpt><trkpt lat="43.9434841" lon="3.6892992"><ele>170.0</ele><time>2026-04-12T13:34:05.179Z</time></trkpt><trkpt lat="43.9432214" lon="3.6892962"><ele>169.0</ele><time>2026-04-12T13:34:06.179Z</time></trkpt><trkpt lat="43.9429604" lon="3.6893195"><ele>168.0</ele><time>2026-04-12T13:34:07.18Z</time></trkpt><trkpt lat="43.9427002" lon="3.6893736"><ele>183.5</ele><time>2026-04-12T13:34:08.179Z</time></trkpt><trkpt lat="43.9424207" lon="3.689492"><ele>199.0</ele><time>2026-04-12T13:34:09.18Z</time></trkpt><trkpt lat="43.9421482" lon="3.6896225"><ele>199.0</ele><time>2026-04-12T13:34:10.179Z</time></trkpt><trkpt lat="43.9418686" lon="3.6897666"><ele>199.0</ele><time>2026-04-12T13:34:11.179Z</time></trkpt><trkpt lat="43.9415832" lon="3.6899136"><ele>187.0</ele><time>2026-04-12T13:34:12.18Z</time></trkpt><trkpt lat="43.9413093" lon="3.6900517"><ele>175.0</ele><time>2026-04-12T13:34:13.18Z</time></trkpt><trkpt lat="43.9410333" lon="3.6901843"><ele>183.5</ele><time>2026-04-12T13:34:14.179Z</time></trkpt><trkpt lat="43.9407607" lon="3.6903023"><ele>192.0</ele><time>2026-04-12T13:34:15.18Z</time></trkpt><trkpt lat="43.9405044" lon="3.690388"><ele>192.0</ele><time>2026-04-12T13:34:16.179Z</time></trkpt><trkpt lat="43.9402571" lon="3.6904316"><ele>192.0</ele><time>2026-04-12T13:34:17.179Z</time></trkpt><trkpt lat="43.9400059" lon="3.6904393"><ele>190.5</ele><time>2026-04-12T13:34:18.179Z</time></trkpt><trkpt lat="43.9397683" lon="3.6904408"><ele>189.0</ele><time>2026-04-12T13:34:19.18Z</time></trkpt><trkpt lat="43.9395481" lon="3.6904255"><ele>189.0</ele><time>2026-04-12T13:34:20.18Z</time></trkpt><trkpt lat="43.939342" lon="3.690417"><ele>189.0</ele><time>2026-04-12T13:34:21.18Z</time></trkpt><trkpt lat="43.9391401" lon="3.6904439"><ele>189.0</ele><time>2026-04-12T13:34:22.179Z</time></trkpt><trkpt lat="43.9389443" lon="3.6904904"><ele>185.66666666666666</ele><time>2026-04-12T13:34:23.179Z</time></trkpt><trkpt lat="43.9387499" lon="3.6905969"><ele>182.33333333333331</ele><time>2026-04-12T13:34:24.18Z</time></trkpt><trkpt lat="43.9385789" lon="3.6907637"><ele>179.0</ele><time>2026-04-12T13:34:25.18Z</time></trkpt><trkpt lat="43.9384339" lon="3.6909591"><ele>173.33333333333331</ele><time>2026-04-12T13:34:26.179Z</time></trkpt><trkpt lat="43.9383441" lon="3.6911949"><ele>167.66666666666666</ele><time>2026-04-12T13:34:27.179Z</time></trkpt><trkpt lat="43.9382774" lon="3.6914751"><ele>162.0</ele><time>2026-04-12T13:34:28.179Z</time></trkpt><trkpt lat="43.9382516" lon="3.6918052"><ele>160.5</ele><time>2026-04-12T13:34:29.179Z</time></trkpt><trkpt lat="43.9382402" lon="3.6921307"><ele>159.0</ele><time>2026-04-12T13:34:30.179Z</time></trkpt><trkpt lat="43.9382375" lon="3.6924583"><ele>162.33333333333334</ele><time>2026-04-12T13:34:31.18Z</time></trkpt><trkpt lat="43.9382232" lon="3.6927692"><ele>165.66666666666669</ele><time>2026-04-12T13:34:32.179Z</time></trkpt><trkpt lat="43.9381821" lon="3.6930742"><ele>169.0</ele><time>2026-04-12T13:34:33.18Z</time></trkpt><trkpt lat="43.9381242" lon="3.6933716"><ele>178.0</ele><time>2026-04-12T13:34:34.18Z</time></trkpt><trkpt lat="43.938045" lon="3.6936611"><ele>187.0</ele><time>2026-04-12T13:34:35.179Z</time></trkpt><trkpt lat="43.937949" lon="3.6939519"><ele>187.0</ele><time>2026-04-12T13:34:36.18Z</time></trkpt><trkpt lat="43.9378317" lon="3.6942317"><ele>187.0</ele><time>2026-04-12T13:34:37.179Z</time></trkpt><trkpt lat="43.9376955" lon="3.6945054"><ele>178.5</ele><time>2026-04-12T13:34:38.18Z</time></trkpt><trkpt lat="43.9375608" lon="3.6947757"><ele>170.0</ele><time>2026-04-12T13:34:39.179Z</time></trkpt><trkpt lat="43.9374262" lon="3.6950453"><ele>178.0</ele><time>2026-04-12T13:34:40.179Z</time></trkpt><trkpt lat="43.9372896" lon="3.6953071"><ele>186.0</ele><time>2026-04-12T13:34:41.179Z</time></trkpt><trkpt lat="43.9371392" lon="3.6955666"><ele>186.0</ele><time>2026-04-12T13:34:42.179Z</time></trkpt><trkpt lat="43.9369909" lon="3.6958159"><ele>186.0</ele><time>2026-04-12T13:34:43.18Z</time></trkpt><trkpt lat="43.9368399" lon="3.6960478"><ele>179.66666666666666</ele><time>2026-04-12T13:34:44.18Z</time></trkpt><trkpt lat="43.9366903" lon="3.696261"><ele>173.33333333333331</ele><time>2026-04-12T13:34:45.179Z</time></trkpt><trkpt lat="43.9365476" lon="3.6964747"><ele>167.0</ele><time>2026-04-12T13:34:46.179Z</time></trkpt><trkpt lat="43.9364193" lon="3.69669"><ele>167.0</ele><time>2026-04-12T13:34:47.18Z</time></trkpt><trkpt lat="43.9363056" lon="3.6968922"><ele>167.0</ele><time>2026-04-12T13:34:48.179Z</time></trkpt><trkpt lat="43.9361862" lon="3.6970843"><ele>167.0</ele><time>2026-04-12T13:34:49.179Z</time></trkpt><trkpt lat="43.9360724" lon="3.6972798"><ele>167.66666666666666</ele><time>2026-04-12T13:34:50.179Z</time></trkpt><trkpt lat="43.9359444" lon="3.6974702"><ele>168.33333333333334</ele><time>2026-04-12T13:34:51.179Z</time></trkpt><trkpt lat="43.9358125" lon="3.6976664"><ele>169.0</ele><time>2026-04-12T13:34:52.179Z</time></trkpt><trkpt lat="43.9356801" lon="3.6978727"><ele>169.0</ele><time>2026-04-12T13:34:53.179Z</time></trkpt><trkpt lat="43.9355412" lon="3.6980818"><ele>169.0</ele><time>2026-04-12T13:34:54.18Z</time></trkpt><trkpt lat="43.9354001" lon="3.6982986"><ele>169.0</ele><time>2026-04-12T13:34:55.18Z</time></trkpt><trkpt lat="43.9352582" lon="3.6985108"><ele>166.66666666666669</ele><time>2026-04-12T13:34:56.18Z</time></trkpt><trkpt lat="43.935123" lon="3.6987054"><ele>164.33333333333334</ele><time>2026-04-12T13:34:57.179Z</time></trkpt><trkpt lat="43.9349912" lon="3.6988837"><ele>162.0</ele><time>2026-04-12T13:34:58.179Z</time></trkpt><trkpt lat="43.9348614" lon="3.6990562"><ele>162.0</ele><time>2026-04-12T13:34:59.179Z</time></trkpt><trkpt lat="43.9347405" lon="3.6992339"><ele>162.0</ele><time>2026-04-12T13:35:00.179Z</time></trkpt><trkpt lat="43.9346189" lon="3.6994047"><ele>162.0</ele><time>2026-04-12T13:35:01.18Z</time></trkpt><trkpt lat="43.9345145" lon="3.6995768"><ele>165.0</ele><time>2026-04-12T13:35:02.179Z</time></trkpt><trkpt lat="43.9344213" lon="3.6997605"><ele>168.0</ele><time>2026-04-12T13:35:03.179Z</time></trkpt><trkpt lat="43.9343263" lon="3.699961"><ele>171.0</ele><time>2026-04-12T13:35:04.18Z</time></trkpt><trkpt lat="43.9342244" lon="3.7001822"><ele>167.66666666666666</ele><time>2026-04-12T13:35:05.18Z</time></trkpt><trkpt lat="43.9341276" lon="3.700402"><ele>164.33333333333331</ele><time>2026-04-12T13:35:06.179Z</time></trkpt><trkpt lat="43.9340236" lon="3.7006368"><ele>161.0</ele><time>2026-04-12T13:35:07.18Z</time></trkpt><trkpt lat="43.9339277" lon="3.7008708"><ele>164.33333333333331</ele><time>2026-04-12T13:35:08.179Z</time></trkpt><trkpt lat="43.933832" lon="3.7011132"><ele>167.66666666666666</ele><time>2026-04-12T13:35:09.179Z</time></trkpt><trkpt lat="43.9337429" lon="3.7013488"><ele>171.0</ele><time>2026-04-12T13:35:10.179Z</time></trkpt><trkpt lat="43.9336643" lon="3.7015727"><ele>171.0</ele><time>2026-04-12T13:35:11.179Z</time></trkpt><trkpt lat="43.9335878" lon="3.701767"><ele>171.0</ele><time>2026-04-12T13:35:12.179Z</time></trkpt><trkpt lat="43.9335151" lon="3.701951"><ele>171.0</ele><time>2026-04-12T13:35:13.179Z</time></trkpt><trkpt lat="43.9334447" lon="3.7021277"><ele>167.75</ele><time>2026-04-12T13:35:14.179Z</time></trkpt><trkpt lat="43.9333628" lon="3.7022987"><ele>164.5</ele><time>2026-04-12T13:35:15.179Z</time></trkpt><trkpt lat="43.9332859" lon="3.7024568"><ele>161.25</ele><time>2026-04-12T13:35:16.18Z</time></trkpt><trkpt lat="43.933214" lon="3.7026103"><ele>158.0</ele><time>2026-04-12T13:35:17.18Z</time></trkpt><trkpt lat="43.9331368" lon="3.7027733"><ele>158.0</ele><time>2026-04-12T13:35:18.179Z</time></trkpt><trkpt lat="43.9330545" lon="3.7029464"><ele>158.0</ele><time>2026-04-12T13:35:19.18Z</time></trkpt><trkpt lat="43.932956" lon="3.7031213"><ele>158.0</ele><time>2026-04-12T13:35:20.179Z</time></trkpt><trkpt lat="43.9328413" lon="3.7032826"><ele>158.0</ele><time>2026-04-12T13:35:21.179Z</time></trkpt><trkpt lat="43.9327176" lon="3.7034191"><ele>158.0</ele><time>2026-04-12T13:35:22.179Z</time></trkpt><trkpt lat="43.9325971" lon="3.7035208"><ele>158.0</ele><time>2026-04-12T13:35:23.179Z</time></trkpt><trkpt lat="43.9324778" lon="3.7036161"><ele>158.0</ele><time>2026-04-12T13:35:24.179Z</time></trkpt><trkpt lat="43.9323705" lon="3.7036898"><ele>157.4</ele><time>2026-04-12T13:35:25.179Z</time></trkpt><trkpt lat="43.9322576" lon="3.7037597"><ele>156.8</ele><time>2026-04-12T13:35:26.179Z</time></trkpt><trkpt lat="43.9321563" lon="3.7038356"><ele>156.2</ele><time>2026-04-12T13:35:27.179Z</time></trkpt><trkpt lat="43.9320603" lon="3.7039053"><ele>155.6</ele><time>2026-04-12T13:35:28.179Z</time></trkpt><trkpt lat="43.9319818" lon="3.7039791"><ele>155.0</ele><time>2026-04-12T13:35:29.179Z</time></trkpt><trkpt lat="43.9319076" lon="3.7040409"><ele>155.0</ele><time>2026-04-12T13:35:30.18Z</time></trkpt><trkpt lat="43.9318397" lon="3.7040941"><ele>155.0</ele><time>2026-04-12T13:35:31.18Z</time></trkpt><trkpt lat="43.931773" lon="3.7041441"><ele>155.0</ele><time>2026-04-12T13:35:32.179Z</time></trkpt><trkpt lat="43.9317145" lon="3.7041861"><ele>155.0</ele><time>2026-04-12T13:35:33.179Z</time></trkpt><trkpt lat="43.9316245" lon="3.7042468"><ele>155.0</ele><time>2026-04-12T13:35:35.18Z</time></trkpt><trkpt lat="43.9315576" lon="3.7043034"><ele>155.0</ele><time>2026-04-12T13:35:37.18Z</time></trkpt><trkpt lat="43.9314823" lon="3.7044021"><ele>155.0</ele><time>2026-04-12T13:35:39.179Z</time></trkpt><trkpt lat="43.9314306" lon="3.7044541"><ele>155.0</ele><time>2026-04-12T13:35:40.179Z</time></trkpt><trkpt lat="43.9313661" lon="3.7045162"><ele>155.0</ele><time>2026-04-12T13:35:41.179Z</time></trkpt><trkpt lat="43.9312923" lon="3.7045859"><ele>155.0</ele><time>2026-04-12T13:35:42.179Z</time></trkpt><trkpt lat="43.9312119" lon="3.7046621"><ele>155.0</ele><time>2026-04-12T13:35:43.179Z</time></trkpt><trkpt lat="43.9311297" lon="3.7047366"><ele>155.0</ele><time>2026-04-12T13:35:44.18Z</time></trkpt><trkpt lat="43.931041" lon="3.7048205"><ele>155.0</ele><time>2026-04-12T13:35:45.179Z</time></trkpt><trkpt lat="43.9309497" lon="3.7049048"><ele>155.0</ele><time>2026-04-12T13:35:46.179Z</time></trkpt><trkpt lat="43.9308724" lon="3.7049908"><ele>155.0</ele><time>2026-04-12T13:35:47.18Z</time></trkpt><trkpt lat="43.9308004" lon="3.7050794"><ele>155.0</ele><time>2026-04-12T13:35:48.18Z</time></trkpt><trkpt lat="43.9307354" lon="3.7051569"><ele>155.0</ele><time>2026-04-12T13:35:49.179Z</time></trkpt><trkpt lat="43.930669" lon="3.7052071"><ele>154.66666666666666</ele><time>2026-04-12T13:35:50.18Z</time></trkpt><trkpt lat="43.9305893" lon="3.7052237"><ele>154.33333333333331</ele><time>2026-04-12T13:35:51.179Z</time></trkpt><trkpt lat="43.9305207" lon="3.7052276"><ele>154.0</ele><time>2026-04-12T13:35:52.18Z</time></trkpt><trkpt lat="43.9304571" lon="3.7052184"><ele>153.66666666666666</ele><time>2026-04-12T13:35:53.179Z</time></trkpt><trkpt lat="43.9303371" lon="3.705276"><ele>153.33333333333334</ele><time>2026-04-12T13:35:55.18Z</time></trkpt><trkpt lat="43.930284" lon="3.7053514"><ele>153.0</ele><time>2026-04-12T13:35:56.18Z</time></trkpt><trkpt lat="43.9302582" lon="3.7054439"><ele>153.0</ele><time>2026-04-12T13:35:57.179Z</time></trkpt><trkpt lat="43.930249" lon="3.705545"><ele>153.0</ele><time>2026-04-12T13:35:58.179Z</time></trkpt><trkpt lat="43.9302734" lon="3.7056472"><ele>153.0</ele><time>2026-04-12T13:35:59.18Z</time></trkpt><trkpt lat="43.9303187" lon="3.7057369"><ele>153.0</ele><time>2026-04-12T13:36:00.179Z</time></trkpt><trkpt lat="43.930369" lon="3.7058453"><ele>153.0</ele><time>2026-04-12T13:36:01.179Z</time></trkpt><trkpt lat="43.9304009" lon="3.7059628"><ele>153.0</ele><time>2026-04-12T13:36:02.179Z</time></trkpt><trkpt lat="43.9304104" lon="3.7060937"><ele>152.5</ele><time>2026-04-12T13:36:03.18Z</time></trkpt><trkpt lat="43.9303929" lon="3.7062401"><ele>152.0</ele><time>2026-04-12T13:36:04.18Z</time></trkpt><trkpt lat="43.9303669" lon="3.7064037"><ele>151.5</ele><time>2026-04-12T13:36:05.18Z</time></trkpt><trkpt lat="43.9303575" lon="3.7065875"><ele>151.0</ele><time>2026-04-12T13:36:06.179Z</time></trkpt><trkpt lat="43.9303644" lon="3.7067787"><ele>151.0</ele><time>2026-04-12T13:36:07.179Z</time></trkpt><trkpt lat="43.9303692" lon="3.706969"><ele>151.0</ele><time>2026-04-12T13:36:08.179Z</time></trkpt><trkpt lat="43.9303904" lon="3.7071609"><ele>151.0</ele><time>2026-04-12T13:36:09.18Z</time></trkpt><trkpt lat="43.9304236" lon="3.7073539"><ele>151.0</ele><time>2026-04-12T13:36:10.18Z</time></trkpt><trkpt lat="43.9304705" lon="3.7075624"><ele>150.0</ele><time>2026-04-12T13:36:11.18Z</time></trkpt><trkpt lat="43.9305435" lon="3.7077726"><ele>149.0</ele><time>2026-04-12T13:36:12.18Z</time></trkpt><trkpt lat="43.9306398" lon="3.707959"><ele>148.0</ele><time>2026-04-12T13:36:13.179Z</time></trkpt><trkpt lat="43.9307652" lon="3.7081588"><ele>148.0</ele><time>2026-04-12T13:36:14.179Z</time></trkpt><trkpt lat="43.9308864" lon="3.7083527"><ele>148.0</ele><time>2026-04-12T13:36:15.179Z</time></trkpt><trkpt lat="43.9309976" lon="3.7085353"><ele>148.0</ele><time>2026-04-12T13:36:16.179Z</time></trkpt><trkpt lat="43.9310999" lon="3.7087"><ele>148.5</ele><time>2026-04-12T13:36:17.179Z</time></trkpt><trkpt lat="43.9312019" lon="3.708858"><ele>149.0</ele><time>2026-04-12T13:36:18.179Z</time></trkpt><trkpt lat="43.931299" lon="3.7090168"><ele>149.5</ele><time>2026-04-12T13:36:19.179Z</time></trkpt><trkpt lat="43.9313876" lon="3.7091618"><ele>150.0</ele><time>2026-04-12T13:36:20.179Z</time></trkpt><trkpt lat="43.9314684" lon="3.7093079"><ele>150.0</ele><time>2026-04-12T13:36:21.179Z</time></trkpt><trkpt lat="43.9315464" lon="3.7094366"><ele>150.0</ele><time>2026-04-12T13:36:22.179Z</time></trkpt><trkpt lat="43.9316241" lon="3.7095665"><ele>150.0</ele><time>2026-04-12T13:36:23.18Z</time></trkpt><trkpt lat="43.9316979" lon="3.709694"><ele>150.0</ele><time>2026-04-12T13:36:24.18Z</time></trkpt><trkpt lat="43.9317707" lon="3.7098304"><ele>150.0</ele><time>2026-04-12T13:36:25.18Z</time></trkpt><trkpt lat="43.9318415" lon="3.7099613"><ele>150.0</ele><time>2026-04-12T13:36:26.18Z</time></trkpt><trkpt lat="43.9319067" lon="3.710083"><ele>150.0</ele><time>2026-04-12T13:36:27.179Z</time></trkpt><trkpt lat="43.9319612" lon="3.7101923"><ele>150.0</ele><time>2026-04-12T13:36:28.18Z</time></trkpt><trkpt lat="43.93202" lon="3.7102966"><ele>150.0</ele><time>2026-04-12T13:36:29.18Z</time></trkpt><trkpt lat="43.9320668" lon="3.7103893"><ele>150.16666666666666</ele><time>2026-04-12T13:36:30.18Z</time></trkpt><trkpt lat="43.9321087" lon="3.710483"><ele>150.33333333333334</ele><time>2026-04-12T13:36:31.18Z</time></trkpt><trkpt lat="43.9321396" lon="3.710579"><ele>150.5</ele><time>2026-04-12T13:36:32.179Z</time></trkpt><trkpt lat="43.9321576" lon="3.7106755"><ele>150.66666666666669</ele><time>2026-04-12T13:36:33.18Z</time></trkpt><trkpt lat="43.9321633" lon="3.710786"><ele>150.83333333333334</ele><time>2026-04-12T13:36:34.179Z</time></trkpt><trkpt lat="43.9321486" lon="3.7109108"><ele>151.0</ele><time>2026-04-12T13:36:35.179Z</time></trkpt><trkpt lat="43.9321241" lon="3.711044"><ele>150.4</ele><time>2026-04-12T13:36:36.18Z</time></trkpt><trkpt lat="43.932073" lon="3.711156"><ele>149.8</ele><time>2026-04-12T13:36:37.179Z</time></trkpt><trkpt lat="43.93201" lon="3.7112378"><ele>149.20000000000002</ele><time>2026-04-12T13:36:38.18Z</time></trkpt><trkpt lat="43.93193" lon="3.7113004"><ele>148.6</ele><time>2026-04-12T13:36:39.18Z</time></trkpt><trkpt lat="43.9318335" lon="3.7113799"><ele>148.0</ele><time>2026-04-12T13:36:40.179Z</time></trkpt><trkpt lat="43.9317248" lon="3.7114591"><ele>147.33333333333334</ele><time>2026-04-12T13:36:41.179Z</time></trkpt><trkpt lat="43.9315977" lon="3.7115457"><ele>146.66666666666666</ele><time>2026-04-12T13:36:42.179Z</time></trkpt><trkpt lat="43.9314636" lon="3.7116446"><ele>146.0</ele><time>2026-04-12T13:36:43.179Z</time></trkpt><trkpt lat="43.9313255" lon="3.7117586"><ele>146.0</ele><time>2026-04-12T13:36:44.18Z</time></trkpt><trkpt lat="43.9311814" lon="3.7118647"><ele>146.0</ele><time>2026-04-12T13:36:45.179Z</time></trkpt><trkpt lat="43.9310301" lon="3.7119826"><ele>146.0</ele><time>2026-04-12T13:36:46.179Z</time></trkpt><trkpt lat="43.9308788" lon="3.7121084"><ele>149.0</ele><time>2026-04-12T13:36:47.179Z</time></trkpt><trkpt lat="43.930717" lon="3.7122376"><ele>152.0</ele><time>2026-04-12T13:36:48.179Z</time></trkpt><trkpt lat="43.9305383" lon="3.712376"><ele>155.0</ele><time>2026-04-12T13:36:49.179Z</time></trkpt><trkpt lat="43.9303601" lon="3.712519"><ele>155.0</ele><time>2026-04-12T13:36:50.179Z</time></trkpt><trkpt lat="43.9301919" lon="3.7126613"><ele>155.0</ele><time>2026-04-12T13:36:51.18Z</time></trkpt><trkpt lat="43.930028" lon="3.7127948"><ele>155.0</ele><time>2026-04-12T13:36:52.179Z</time></trkpt><trkpt lat="43.929866" lon="3.7129386"><ele>155.0</ele><time>2026-04-12T13:36:53.179Z</time></trkpt><trkpt lat="43.9296933" lon="3.7130808"><ele>155.0</ele><time>2026-04-12T13:36:54.18Z</time></trkpt><trkpt lat="43.9295269" lon="3.7132149"><ele>155.0</ele><time>2026-04-12T13:36:55.18Z</time></trkpt><trkpt lat="43.929354" lon="3.7133471"><ele>154.33333333333331</ele><time>2026-04-12T13:36:56.179Z</time></trkpt><trkpt lat="43.9291921" lon="3.7134678"><ele>153.66666666666666</ele><time>2026-04-12T13:36:57.18Z</time></trkpt><trkpt lat="43.9290345" lon="3.7135885"><ele>153.0</ele><time>2026-04-12T13:36:58.179Z</time></trkpt><trkpt lat="43.9288668" lon="3.7137261"><ele>152.33333333333334</ele><time>2026-04-12T13:36:59.18Z</time></trkpt><trkpt lat="43.9287033" lon="3.7138647"><ele>151.66666666666669</ele><time>2026-04-12T13:37:00.18Z</time></trkpt><trkpt lat="43.9285369" lon="3.7140074"><ele>151.0</ele><time>2026-04-12T13:37:01.18Z</time></trkpt><trkpt lat="43.9283594" lon="3.7141433"><ele>151.0</ele><time>2026-04-12T13:37:02.179Z</time></trkpt><trkpt lat="43.9281729" lon="3.714293"><ele>151.0</ele><time>2026-04-12T13:37:03.179Z</time></trkpt><trkpt lat="43.9279625" lon="3.7144482"><ele>149.5</ele><time>2026-04-12T13:37:04.18Z</time></trkpt><trkpt lat="43.9277626" lon="3.7146052"><ele>148.0</ele><time>2026-04-12T13:37:05.179Z</time></trkpt><trkpt lat="43.9275736" lon="3.7147651"><ele>148.0</ele><time>2026-04-12T13:37:06.179Z</time></trkpt><trkpt lat="43.9273925" lon="3.7149127"><ele>148.0</ele><time>2026-04-12T13:37:07.18Z</time></trkpt><trkpt lat="43.9272212" lon="3.7150599"><ele>148.0</ele><time>2026-04-12T13:37:08.18Z</time></trkpt><trkpt lat="43.9270585" lon="3.7151923"><ele>147.75</ele><time>2026-04-12T13:37:09.179Z</time></trkpt><trkpt lat="43.9269167" lon="3.7153043"><ele>147.5</ele><time>2026-04-12T13:37:10.179Z</time></trkpt><trkpt lat="43.9267915" lon="3.7153868"><ele>147.25</ele><time>2026-04-12T13:37:11.179Z</time></trkpt><trkpt lat="43.9266937" lon="3.7154495"><ele>147.0</ele><time>2026-04-12T13:37:12.18Z</time></trkpt><trkpt lat="43.9266059" lon="3.7154978"><ele>147.0</ele><time>2026-04-12T13:37:13.179Z</time></trkpt><trkpt lat="43.9265297" lon="3.7155438"><ele>147.0</ele><time>2026-04-12T13:37:14.179Z</time></trkpt><trkpt lat="43.926466" lon="3.7156092"><ele>147.0</ele><time>2026-04-12T13:37:15.18Z</time></trkpt><trkpt lat="43.9263917" lon="3.7157313"><ele>147.0</ele><time>2026-04-12T13:37:16.18Z</time></trkpt><trkpt lat="43.926314" lon="3.715887"><ele>147.0</ele><time>2026-04-12T13:37:17.179Z</time></trkpt><trkpt lat="43.9262371" lon="3.7160324"><ele>146.75</ele><time>2026-04-12T13:37:18.179Z</time></trkpt><trkpt lat="43.9261665" lon="3.7161575"><ele>146.5</ele><time>2026-04-12T13:37:19.179Z</time></trkpt><trkpt lat="43.9260928" lon="3.7162935"><ele>146.25</ele><time>2026-04-12T13:37:20.18Z</time></trkpt><trkpt lat="43.9260126" lon="3.7164483"><ele>146.0</ele><time>2026-04-12T13:37:21.179Z</time></trkpt><trkpt lat="43.9259321" lon="3.7166001"><ele>146.66666666666666</ele><time>2026-04-12T13:37:22.179Z</time></trkpt><trkpt lat="43.9258429" lon="3.716766"><ele>147.33333333333334</ele><time>2026-04-12T13:37:23.179Z</time></trkpt><trkpt lat="43.9257677" lon="3.7169654"><ele>148.0</ele><time>2026-04-12T13:37:24.179Z</time></trkpt><trkpt lat="43.9256952" lon="3.7171734"><ele>148.0</ele><time>2026-04-12T13:37:25.179Z</time></trkpt><trkpt lat="43.9256387" lon="3.7173811"><ele>148.0</ele><time>2026-04-12T13:37:26.179Z</time></trkpt><trkpt lat="43.925585" lon="3.7176037"><ele>148.0</ele><time>2026-04-12T13:37:27.18Z</time></trkpt><trkpt lat="43.925516" lon="3.7178601"><ele>147.66666666666669</ele><time>2026-04-12T13:37:28.179Z</time></trkpt><trkpt lat="43.9254407" lon="3.7181398"><ele>147.33333333333334</ele><time>2026-04-12T13:37:29.18Z</time></trkpt><trkpt lat="43.9253549" lon="3.7184312"><ele>147.0</ele><time>2026-04-12T13:37:30.18Z</time></trkpt><trkpt lat="43.9252611" lon="3.7187285"><ele>146.66666666666666</ele><time>2026-04-12T13:37:31.18Z</time></trkpt><trkpt lat="43.925178" lon="3.7190034"><ele>146.33333333333331</ele><time>2026-04-12T13:37:32.18Z</time></trkpt><trkpt lat="43.9251086" lon="3.7192664"><ele>146.0</ele><time>2026-04-12T13:37:33.179Z</time></trkpt><trkpt lat="43.9250357" lon="3.7194983"><ele>145.5</ele><time>2026-04-12T13:37:34.179Z</time></trkpt><trkpt lat="43.9249706" lon="3.719694"><ele>145.0</ele><time>2026-04-12T13:37:35.179Z</time></trkpt><trkpt lat="43.9249116" lon="3.7198652"><ele>144.5</ele><time>2026-04-12T13:37:36.179Z</time></trkpt><trkpt lat="43.9248508" lon="3.7200204"><ele>144.0</ele><time>2026-04-12T13:37:37.179Z</time></trkpt><trkpt lat="43.924793" lon="3.7201601"><ele>143.83333333333334</ele><time>2026-04-12T13:37:38.179Z</time></trkpt><trkpt lat="43.9247418" lon="3.7202773"><ele>143.66666666666666</ele><time>2026-04-12T13:37:39.179Z</time></trkpt><trkpt lat="43.9246886" lon="3.7203829"><ele>143.5</ele><time>2026-04-12T13:37:40.179Z</time></trkpt><trkpt lat="43.9246428" lon="3.7204815"><ele>143.33333333333331</ele><time>2026-04-12T13:37:41.179Z</time></trkpt><trkpt lat="43.9246051" lon="3.7205536"><ele>143.16666666666666</ele><time>2026-04-12T13:37:42.179Z</time></trkpt><trkpt lat="43.9245536" lon="3.7206435"><ele>143.0</ele><time>2026-04-12T13:37:44.179Z</time></trkpt><trkpt lat="43.92447" lon="3.7207926"><ele>143.0</ele><time>2026-04-12T13:37:52.18Z</time></trkpt><trkpt lat="43.9243911" lon="3.7208991"><ele>143.0</ele><time>2026-04-12T13:37:53.179Z</time></trkpt><trkpt lat="43.9243159" lon="3.7210018"><ele>143.0</ele><time>2026-04-12T13:37:54.18Z</time></trkpt><trkpt lat="43.9242333" lon="3.7211057"><ele>143.0</ele><time>2026-04-12T13:37:55.18Z</time></trkpt><trkpt lat="43.9241422" lon="3.7212533"><ele>142.33333333333331</ele><time>2026-04-12T13:37:56.179Z</time></trkpt><trkpt lat="43.9240527" lon="3.7214251"><ele>141.66666666666666</ele><time>2026-04-12T13:37:57.179Z</time></trkpt><trkpt lat="43.9239697" lon="3.7216136"><ele>141.0</ele><time>2026-04-12T13:37:58.18Z</time></trkpt><trkpt lat="43.9238754" lon="3.7218223"><ele>140.66666666666666</ele><time>2026-04-12T13:37:59.18Z</time></trkpt><trkpt lat="43.9237744" lon="3.7220348"><ele>140.33333333333331</ele><time>2026-04-12T13:38:00.179Z</time></trkpt><trkpt lat="43.923664" lon="3.7222165"><ele>140.0</ele><time>2026-04-12T13:38:01.18Z</time></trkpt><trkpt lat="43.9235475" lon="3.7223698"><ele>140.0</ele><time>2026-04-12T13:38:02.179Z</time></trkpt><trkpt lat="43.9234323" lon="3.7224982"><ele>140.0</ele><time>2026-04-12T13:38:03.18Z</time></trkpt><trkpt lat="43.9233159" lon="3.7225961"><ele>140.0</ele><time>2026-04-12T13:38:04.179Z</time></trkpt><trkpt lat="43.9231904" lon="3.7226896"><ele>140.0</ele><time>2026-04-12T13:38:05.179Z</time></trkpt><trkpt lat="43.9230616" lon="3.7227571"><ele>141.25</ele><time>2026-04-12T13:38:06.179Z</time></trkpt><trkpt lat="43.9229334" lon="3.7227982"><ele>142.5</ele><time>2026-04-12T13:38:07.179Z</time></trkpt><trkpt lat="43.9228034" lon="3.7228207"><ele>143.75</ele><time>2026-04-12T13:38:08.179Z</time></trkpt><trkpt lat="43.9226851" lon="3.7228454"><ele>145.0</ele><time>2026-04-12T13:38:09.18Z</time></trkpt><trkpt lat="43.9225641" lon="3.7228772"><ele>145.4</ele><time>2026-04-12T13:38:10.179Z</time></trkpt><trkpt lat="43.9224529" lon="3.7229039"><ele>145.8</ele><time>2026-04-12T13:38:11.179Z</time></trkpt><trkpt lat="43.9223663" lon="3.7229608"><ele>146.2</ele><time>2026-04-12T13:38:12.179Z</time></trkpt><trkpt lat="43.9223059" lon="3.7230383"><ele>146.6</ele><time>2026-04-12T13:38:13.179Z</time></trkpt><trkpt lat="43.9222453" lon="3.7231374"><ele>147.0</ele><time>2026-04-12T13:38:14.179Z</time></trkpt><trkpt lat="43.9221876" lon="3.7232384"><ele>147.0</ele><time>2026-04-12T13:38:15.18Z</time></trkpt><trkpt lat="43.9221217" lon="3.7233712"><ele>147.0</ele><time>2026-04-12T13:38:16.18Z</time></trkpt><trkpt lat="43.92207" lon="3.7235347"><ele>147.0</ele><time>2026-04-12T13:38:17.179Z</time></trkpt><trkpt lat="43.9220313" lon="3.7237159"><ele>147.0</ele><time>2026-04-12T13:38:18.179Z</time></trkpt><trkpt lat="43.9220119" lon="3.7238837"><ele>148.16666666666666</ele><time>2026-04-12T13:38:19.179Z</time></trkpt><trkpt lat="43.9219986" lon="3.7240467"><ele>149.33333333333334</ele><time>2026-04-12T13:38:20.179Z</time></trkpt><trkpt lat="43.9219935" lon="3.7241717"><ele>150.5</ele><time>2026-04-12T13:38:21.179Z</time></trkpt><trkpt lat="43.9219869" lon="3.7242869"><ele>151.66666666666669</ele><time>2026-04-12T13:38:22.18Z</time></trkpt><trkpt lat="43.9219861" lon="3.7243917"><ele>152.83333333333334</ele><time>2026-04-12T13:38:23.179Z</time></trkpt><trkpt lat="43.9219682" lon="3.7244904"><ele>154.0</ele><time>2026-04-12T13:38:24.178Z</time></trkpt><trkpt lat="43.9219539" lon="3.7246044"><ele>154.0</ele><time>2026-04-12T13:38:25.179Z</time></trkpt><trkpt lat="43.921932" lon="3.724708"><ele>154.0</ele><time>2026-04-12T13:38:26.178Z</time></trkpt><trkpt lat="43.9219038" lon="3.7248065"><ele>154.0</ele><time>2026-04-12T13:38:27.178Z</time></trkpt><trkpt lat="43.9218632" lon="3.7249086"><ele>154.0</ele><time>2026-04-12T13:38:28.179Z</time></trkpt><trkpt lat="43.9218158" lon="3.7250168"><ele>154.0</ele><time>2026-04-12T13:38:29.178Z</time></trkpt><trkpt lat="43.9217662" lon="3.7251148"><ele>154.0</ele><time>2026-04-12T13:38:30.178Z</time></trkpt><trkpt lat="43.9217023" lon="3.7252206"><ele>154.5</ele><time>2026-04-12T13:38:31.178Z</time></trkpt><trkpt lat="43.9216174" lon="3.7253535"><ele>155.0</ele><time>2026-04-12T13:38:32.178Z</time></trkpt><trkpt lat="43.9215014" lon="3.7254732"><ele>155.5</ele><time>2026-04-12T13:38:33.178Z</time></trkpt><trkpt lat="43.92137" lon="3.7255715"><ele>156.0</ele><time>2026-04-12T13:38:34.178Z</time></trkpt><trkpt lat="43.9212235" lon="3.7256567"><ele>156.0</ele><time>2026-04-12T13:38:35.179Z</time></trkpt><trkpt lat="43.9210757" lon="3.7256982"><ele>156.0</ele><time>2026-04-12T13:38:36.179Z</time></trkpt><trkpt lat="43.9209225" lon="3.7256731"><ele>156.0</ele><time>2026-04-12T13:38:37.178Z</time></trkpt><trkpt lat="43.9207761" lon="3.7256092"><ele>155.33333333333334</ele><time>2026-04-12T13:38:38.178Z</time></trkpt><trkpt lat="43.9206322" lon="3.7255402"><ele>154.66666666666669</ele><time>2026-04-12T13:38:39.179Z</time></trkpt><trkpt lat="43.9204869" lon="3.7255185"><ele>154.0</ele><time>2026-04-12T13:38:40.179Z</time></trkpt><trkpt lat="43.9203205" lon="3.7255859"><ele>154.0</ele><time>2026-04-12T13:38:41.178Z</time></trkpt><trkpt lat="43.9201343" lon="3.7257139"><ele>154.0</ele><time>2026-04-12T13:38:42.179Z</time></trkpt><trkpt lat="43.9199376" lon="3.7258661"><ele>154.0</ele><time>2026-04-12T13:38:43.178Z</time></trkpt><trkpt lat="43.9196993" lon="3.7260141"><ele>161.5</ele><time>2026-04-12T13:38:44.178Z</time></trkpt><trkpt lat="43.9194628" lon="3.7261392"><ele>169.0</ele><time>2026-04-12T13:38:45.178Z</time></trkpt><trkpt lat="43.9192519" lon="3.7262785"><ele>158.5</ele><time>2026-04-12T13:38:46.178Z</time></trkpt><trkpt lat="43.9190331" lon="3.7264285"><ele>148.0</ele><time>2026-04-12T13:38:47.179Z</time></trkpt><trkpt lat="43.9188537" lon="3.7266211"><ele>148.0</ele><time>2026-04-12T13:38:48.179Z</time></trkpt><trkpt lat="43.9187044" lon="3.7268616"><ele>148.0</ele><time>2026-04-12T13:38:49.178Z</time></trkpt><trkpt lat="43.9185848" lon="3.7270868"><ele>148.0</ele><time>2026-04-12T13:38:50.178Z</time></trkpt><trkpt lat="43.9184795" lon="3.7272992"><ele>147.33333333333334</ele><time>2026-04-12T13:38:51.179Z</time></trkpt><trkpt lat="43.9183519" lon="3.7274722"><ele>146.66666666666666</ele><time>2026-04-12T13:38:52.178Z</time></trkpt><trkpt lat="43.9181985" lon="3.7276472"><ele>146.0</ele><time>2026-04-12T13:38:53.179Z</time></trkpt><trkpt lat="43.9180302" lon="3.7277825"><ele>153.0</ele><time>2026-04-12T13:38:54.179Z</time></trkpt><trkpt lat="43.9178458" lon="3.7278861"><ele>160.0</ele><time>2026-04-12T13:38:55.178Z</time></trkpt><trkpt lat="43.9176544" lon="3.7279466"><ele>167.0</ele><time>2026-04-12T13:38:56.179Z</time></trkpt><trkpt lat="43.9174405" lon="3.7279442"><ele>167.0</ele><time>2026-04-12T13:38:57.179Z</time></trkpt><trkpt lat="43.9172006" lon="3.7279097"><ele>167.0</ele><time>2026-04-12T13:38:58.179Z</time></trkpt><trkpt lat="43.9169573" lon="3.7278547"><ele>164.5</ele><time>2026-04-12T13:38:59.179Z</time></trkpt><trkpt lat="43.9167214" lon="3.7277829"><ele>162.0</ele><time>2026-04-12T13:39:00.179Z</time></trkpt><trkpt lat="43.9165089" lon="3.7277426"><ele>156.66666666666666</ele><time>2026-04-12T13:39:01.178Z</time></trkpt><trkpt lat="43.9163077" lon="3.7276925"><ele>151.33333333333331</ele><time>2026-04-12T13:39:02.179Z</time></trkpt><trkpt lat="43.9161436" lon="3.7276823"><ele>146.0</ele><time>2026-04-12T13:39:03.178Z</time></trkpt><trkpt lat="43.9159987" lon="3.7277042"><ele>145.5</ele><time>2026-04-12T13:39:04.178Z</time></trkpt><trkpt lat="43.9158846" lon="3.727744"><ele>145.0</ele><time>2026-04-12T13:39:05.179Z</time></trkpt><trkpt lat="43.915784" lon="3.7278462"><ele>144.5</ele><time>2026-04-12T13:39:06.179Z</time></trkpt><trkpt lat="43.9157384" lon="3.7280078"><ele>144.0</ele><time>2026-04-12T13:39:07.179Z</time></trkpt><trkpt lat="43.9157207" lon="3.728185"><ele>144.0</ele><time>2026-04-12T13:39:08.179Z</time></trkpt><trkpt lat="43.9157343" lon="3.728372"><ele>144.0</ele><time>2026-04-12T13:39:09.178Z</time></trkpt><trkpt lat="43.9158309" lon="3.7285905"><ele>144.0</ele><time>2026-04-12T13:39:10.179Z</time></trkpt><trkpt lat="43.9159374" lon="3.7288097"><ele>151.5</ele><time>2026-04-12T13:39:11.179Z</time></trkpt><trkpt lat="43.9160531" lon="3.7290823"><ele>159.0</ele><time>2026-04-12T13:39:12.178Z</time></trkpt><trkpt lat="43.9161671" lon="3.7293997"><ele>159.0</ele><time>2026-04-12T13:39:13.179Z</time></trkpt><trkpt lat="43.9162972" lon="3.7297954"><ele>159.0</ele><time>2026-04-12T13:39:14.178Z</time></trkpt><trkpt lat="43.916428" lon="3.7302274"><ele>154.0</ele><time>2026-04-12T13:39:15.179Z</time></trkpt><trkpt lat="43.9165366" lon="3.7306414"><ele>149.0</ele><time>2026-04-12T13:39:16.178Z</time></trkpt><trkpt lat="43.9166346" lon="3.7310152"><ele>148.5</ele><time>2026-04-12T13:39:17.178Z</time></trkpt><trkpt lat="43.9167178" lon="3.7313883"><ele>148.0</ele><time>2026-04-12T13:39:18.179Z</time></trkpt><trkpt lat="43.9167861" lon="3.7317412"><ele>173.5</ele><time>2026-04-12T13:39:19.178Z</time></trkpt><trkpt lat="43.916833" lon="3.7320742"><ele>199.0</ele><time>2026-04-12T13:39:20.179Z</time></trkpt><trkpt lat="43.9168456" lon="3.7323942"><ele>199.0</ele><time>2026-04-12T13:39:21.178Z</time></trkpt><trkpt lat="43.9168275" lon="3.7327203"><ele>199.0</ele><time>2026-04-12T13:39:22.178Z</time></trkpt><trkpt lat="43.9167929" lon="3.7330348"><ele>203.33333333333331</ele><time>2026-04-12T13:39:23.179Z</time></trkpt><trkpt lat="43.916758" lon="3.733345"><ele>207.66666666666669</ele><time>2026-04-12T13:39:24.178Z</time></trkpt><trkpt lat="43.9167088" lon="3.7336343"><ele>212.0</ele><time>2026-04-12T13:39:25.178Z</time></trkpt><trkpt lat="43.9166464" lon="3.7339161"><ele>191.0</ele><time>2026-04-12T13:39:26.178Z</time></trkpt><trkpt lat="43.9165637" lon="3.7342017"><ele>170.0</ele><time>2026-04-12T13:39:27.178Z</time></trkpt><trkpt lat="43.9164443" lon="3.7345077"><ele>170.0</ele><time>2026-04-12T13:39:28.179Z</time></trkpt><trkpt lat="43.916316" lon="3.7348285"><ele>170.0</ele><time>2026-04-12T13:39:29.178Z</time></trkpt><trkpt lat="43.9161912" lon="3.7351412"><ele>188.5</ele><time>2026-04-12T13:39:30.178Z</time></trkpt><trkpt lat="43.9160611" lon="3.7354478"><ele>207.0</ele><time>2026-04-12T13:39:31.179Z</time></trkpt><trkpt lat="43.9159362" lon="3.7357474"><ele>191.5</ele><time>2026-04-12T13:39:32.178Z</time></trkpt><trkpt lat="43.9158043" lon="3.7360272"><ele>176.0</ele><time>2026-04-12T13:39:33.179Z</time></trkpt><trkpt lat="43.9156688" lon="3.7362993"><ele>176.0</ele><time>2026-04-12T13:39:34.178Z</time></trkpt><trkpt lat="43.915534" lon="3.7365523"><ele>176.0</ele><time>2026-04-12T13:39:35.179Z</time></trkpt><trkpt lat="43.9154017" lon="3.7367798"><ele>176.0</ele><time>2026-04-12T13:39:36.178Z</time></trkpt><trkpt lat="43.9152818" lon="3.7369778"><ele>169.33333333333331</ele><time>2026-04-12T13:39:37.178Z</time></trkpt><trkpt lat="43.9151635" lon="3.7371661"><ele>162.66666666666666</ele><time>2026-04-12T13:39:38.179Z</time></trkpt><trkpt lat="43.9150507" lon="3.7373227"><ele>156.0</ele><time>2026-04-12T13:39:39.179Z</time></trkpt><trkpt lat="43.9149171" lon="3.7374582"><ele>156.0</ele><time>2026-04-12T13:39:40.178Z</time></trkpt><trkpt lat="43.9147579" lon="3.7375894"><ele>156.0</ele><time>2026-04-12T13:39:41.178Z</time></trkpt><trkpt lat="43.9145685" lon="3.7377045"><ele>156.0</ele><time>2026-04-12T13:39:42.179Z</time></trkpt><trkpt lat="43.9143694" lon="3.7378236"><ele>166.33333333333334</ele><time>2026-04-12T13:39:43.178Z</time></trkpt><trkpt lat="43.9141631" lon="3.7379375"><ele>176.66666666666669</ele><time>2026-04-12T13:39:44.178Z</time></trkpt><trkpt lat="43.9139721" lon="3.7380325"><ele>187.0</ele><time>2026-04-12T13:39:45.178Z</time></trkpt><trkpt lat="43.9137791" lon="3.7381001"><ele>187.0</ele><time>2026-04-12T13:39:46.178Z</time></trkpt><trkpt lat="43.9135701" lon="3.7381304"><ele>187.0</ele><time>2026-04-12T13:39:47.178Z</time></trkpt><trkpt lat="43.9133677" lon="3.7381032"><ele>187.0</ele><time>2026-04-12T13:39:48.178Z</time></trkpt><trkpt lat="43.913169" lon="3.7380256"><ele>169.0</ele><time>2026-04-12T13:39:49.179Z</time></trkpt><trkpt lat="43.9129882" lon="3.7378898"><ele>151.0</ele><time>2026-04-12T13:39:50.179Z</time></trkpt><trkpt lat="43.9127867" lon="3.7377086"><ele>133.0</ele><time>2026-04-12T13:39:51.178Z</time></trkpt><trkpt lat="43.912585" lon="3.7374984"><ele>135.5</ele><time>2026-04-12T13:39:52.179Z</time></trkpt><trkpt lat="43.9123679" lon="3.7372731"><ele>138.0</ele><time>2026-04-12T13:39:53.178Z</time></trkpt><trkpt lat="43.9121489" lon="3.7370644"><ele>138.0</ele><time>2026-04-12T13:39:54.178Z</time></trkpt><trkpt lat="43.9119154" lon="3.7368952"><ele>138.0</ele><time>2026-04-12T13:39:55.178Z</time></trkpt><trkpt lat="43.9116839" lon="3.7367527"><ele>137.5</ele><time>2026-04-12T13:39:56.178Z</time></trkpt><trkpt lat="43.9114435" lon="3.7366327"><ele>137.0</ele><time>2026-04-12T13:39:57.178Z</time></trkpt><trkpt lat="43.9111844" lon="3.7365601"><ele>137.0</ele><time>2026-04-12T13:39:58.179Z</time></trkpt><trkpt lat="43.9109179" lon="3.7365177"><ele>137.0</ele><time>2026-04-12T13:39:59.178Z</time></trkpt><trkpt lat="43.9106678" lon="3.7365169"><ele>140.0</ele><time>2026-04-12T13:40:00.178Z</time></trkpt><trkpt lat="43.9104296" lon="3.7365499"><ele>143.0</ele><time>2026-04-12T13:40:01.179Z</time></trkpt><trkpt lat="43.9101979" lon="3.7366148"><ele>140.0</ele><time>2026-04-12T13:40:02.179Z</time></trkpt><trkpt lat="43.9099777" lon="3.7367179"><ele>137.0</ele><time>2026-04-12T13:40:03.178Z</time></trkpt><trkpt lat="43.9097539" lon="3.7368635"><ele>158.5</ele><time>2026-04-12T13:40:04.179Z</time></trkpt><trkpt lat="43.9095268" lon="3.7370312"><ele>180.0</ele><time>2026-04-12T13:40:05.179Z</time></trkpt><trkpt lat="43.9092985" lon="3.737205"><ele>161.5</ele><time>2026-04-12T13:40:06.179Z</time></trkpt><trkpt lat="43.9090662" lon="3.7373819"><ele>143.0</ele><time>2026-04-12T13:40:07.178Z</time></trkpt><trkpt lat="43.9088456" lon="3.7375457"><ele>143.0</ele><time>2026-04-12T13:40:08.179Z</time></trkpt><trkpt lat="43.9086325" lon="3.7376915"><ele>143.0</ele><time>2026-04-12T13:40:09.178Z</time></trkpt><trkpt lat="43.9084149" lon="3.7377883"><ele>157.5</ele><time>2026-04-12T13:40:10.178Z</time></trkpt><trkpt lat="43.9081943" lon="3.7377908"><ele>172.0</ele><time>2026-04-12T13:40:11.178Z</time></trkpt><trkpt lat="43.9079551" lon="3.7377591"><ele>154.0</ele><time>2026-04-12T13:40:12.179Z</time></trkpt><trkpt lat="43.9077048" lon="3.7377174"><ele>136.0</ele><time>2026-04-12T13:40:13.179Z</time></trkpt><trkpt lat="43.9074423" lon="3.7376625"><ele>136.0</ele><time>2026-04-12T13:40:14.178Z</time></trkpt><trkpt lat="43.9071864" lon="3.7376061"><ele>136.0</ele><time>2026-04-12T13:40:15.178Z</time></trkpt><trkpt lat="43.9069447" lon="3.7375605"><ele>138.33333333333334</ele><time>2026-04-12T13:40:16.179Z</time></trkpt><trkpt lat="43.9067254" lon="3.7375273"><ele>140.66666666666666</ele><time>2026-04-12T13:40:17.179Z</time></trkpt><trkpt lat="43.9065146" lon="3.7375022"><ele>143.0</ele><time>2026-04-12T13:40:18.178Z</time></trkpt><trkpt lat="43.9063135" lon="3.7374997"><ele>143.0</ele><time>2026-04-12T13:40:19.178Z</time></trkpt><trkpt lat="43.906127" lon="3.7375139"><ele>143.0</ele><time>2026-04-12T13:40:20.178Z</time></trkpt><trkpt lat="43.9059504" lon="3.7375502"><ele>143.0</ele><time>2026-04-12T13:40:21.179Z</time></trkpt><trkpt lat="43.9057941" lon="3.7375886"><ele>142.25</ele><time>2026-04-12T13:40:22.179Z</time></trkpt><trkpt lat="43.9056585" lon="3.7376362"><ele>141.5</ele><time>2026-04-12T13:40:23.178Z</time></trkpt><trkpt lat="43.9055232" lon="3.7376827"><ele>140.75</ele><time>2026-04-12T13:40:24.178Z</time></trkpt><trkpt lat="43.9053856" lon="3.7377217"><ele>140.0</ele><time>2026-04-12T13:40:25.179Z</time></trkpt><trkpt lat="43.9052392" lon="3.7377557"><ele>144.33333333333331</ele><time>2026-04-12T13:40:26.178Z</time></trkpt><trkpt lat="43.9050748" lon="3.7377839"><ele>148.66666666666666</ele><time>2026-04-12T13:40:27.179Z</time></trkpt><trkpt lat="43.9049104" lon="3.737807"><ele>153.0</ele><time>2026-04-12T13:40:28.178Z</time></trkpt><trkpt lat="43.9047363" lon="3.7378484"><ele>153.0</ele><time>2026-04-12T13:40:29.178Z</time></trkpt><trkpt lat="43.9045628" lon="3.7378976"><ele>153.0</ele><time>2026-04-12T13:40:30.178Z</time></trkpt><trkpt lat="43.9043867" lon="3.7379526"><ele>153.0</ele><time>2026-04-12T13:40:31.178Z</time></trkpt><trkpt lat="43.9042146" lon="3.7379968"><ele>150.33333333333334</ele><time>2026-04-12T13:40:32.178Z</time></trkpt><trkpt lat="43.9040463" lon="3.7380251"><ele>147.66666666666669</ele><time>2026-04-12T13:40:33.178Z</time></trkpt><trkpt lat="43.9038795" lon="3.738023"><ele>145.0</ele><time>2026-04-12T13:40:34.178Z</time></trkpt><trkpt lat="43.9037167" lon="3.7380019"><ele>145.0</ele><time>2026-04-12T13:40:35.178Z</time></trkpt><trkpt lat="43.9035586" lon="3.737961"><ele>145.0</ele><time>2026-04-12T13:40:36.178Z</time></trkpt><trkpt lat="43.9033969" lon="3.7379091"><ele>145.0</ele><time>2026-04-12T13:40:37.179Z</time></trkpt><trkpt lat="43.903236" lon="3.7378626"><ele>144.0</ele><time>2026-04-12T13:40:38.179Z</time></trkpt><trkpt lat="43.9030608" lon="3.7378178"><ele>143.0</ele><time>2026-04-12T13:40:39.178Z</time></trkpt><trkpt lat="43.9028626" lon="3.7377888"><ele>142.0</ele><time>2026-04-12T13:40:40.178Z</time></trkpt><trkpt lat="43.9026472" lon="3.7377398"><ele>139.5</ele><time>2026-04-12T13:40:41.178Z</time></trkpt><trkpt lat="43.9024225" lon="3.7376786"><ele>137.0</ele><time>2026-04-12T13:40:42.178Z</time></trkpt><trkpt lat="43.9021965" lon="3.7376135"><ele>137.0</ele><time>2026-04-12T13:40:43.178Z</time></trkpt><trkpt lat="43.9019891" lon="3.7375593"><ele>137.0</ele><time>2026-04-12T13:40:44.178Z</time></trkpt><trkpt lat="43.9017985" lon="3.7375014"><ele>137.0</ele><time>2026-04-12T13:40:45.178Z</time></trkpt><trkpt lat="43.9016165" lon="3.7374466"><ele>138.0</ele><time>2026-04-12T13:40:46.179Z</time></trkpt><trkpt lat="43.9014396" lon="3.7373918"><ele>139.0</ele><time>2026-04-12T13:40:47.178Z</time></trkpt><trkpt lat="43.9012535" lon="3.7373401"><ele>140.0</ele><time>2026-04-12T13:40:48.179Z</time></trkpt><trkpt lat="43.9010625" lon="3.7372972"><ele>139.0</ele><time>2026-04-12T13:40:49.178Z</time></trkpt><trkpt lat="43.9008868" lon="3.7372444"><ele>138.0</ele><time>2026-04-12T13:40:50.179Z</time></trkpt><trkpt lat="43.9007222" lon="3.7372103"><ele>137.0</ele><time>2026-04-12T13:40:51.178Z</time></trkpt><trkpt lat="43.9005638" lon="3.7371747"><ele>137.0</ele><time>2026-04-12T13:40:52.179Z</time></trkpt><trkpt lat="43.9004133" lon="3.7371278"><ele>137.0</ele><time>2026-04-12T13:40:53.178Z</time></trkpt><trkpt lat="43.9002684" lon="3.737079"><ele>137.0</ele><time>2026-04-12T13:40:54.178Z</time></trkpt><trkpt lat="43.9001242" lon="3.7370315"><ele>137.33333333333331</ele><time>2026-04-12T13:40:55.178Z</time></trkpt><trkpt lat="43.8999736" lon="3.7369913"><ele>137.66666666666666</ele><time>2026-04-12T13:40:56.179Z</time></trkpt><trkpt lat="43.8998203" lon="3.7369533"><ele>138.0</ele><time>2026-04-12T13:40:57.178Z</time></trkpt><trkpt lat="43.8996766" lon="3.7369091"><ele>137.5</ele><time>2026-04-12T13:40:58.178Z</time></trkpt><trkpt lat="43.8995405" lon="3.7368692"><ele>137.0</ele><time>2026-04-12T13:40:59.178Z</time></trkpt><trkpt lat="43.8994142" lon="3.7368403"><ele>136.5</ele><time>2026-04-12T13:41:00.179Z</time></trkpt><trkpt lat="43.8992949" lon="3.736814"><ele>136.0</ele><time>2026-04-12T13:41:01.179Z</time></trkpt><trkpt lat="43.8991904" lon="3.7367885"><ele>136.0</ele><time>2026-04-12T13:41:02.179Z</time></trkpt><trkpt lat="43.8990937" lon="3.7367644"><ele>136.0</ele><time>2026-04-12T13:41:03.178Z</time></trkpt><trkpt lat="43.899004" lon="3.7367518"><ele>136.0</ele><time>2026-04-12T13:41:04.178Z</time></trkpt><trkpt lat="43.898918" lon="3.7367312"><ele>136.0</ele><time>2026-04-12T13:41:05.178Z</time></trkpt><trkpt lat="43.898838" lon="3.7367209"><ele>136.0</ele><time>2026-04-12T13:41:06.178Z</time></trkpt><trkpt lat="43.8987587" lon="3.7367174"><ele>136.0</ele><time>2026-04-12T13:41:07.179Z</time></trkpt><trkpt lat="43.8986829" lon="3.736717"><ele>136.0</ele><time>2026-04-12T13:41:08.178Z</time></trkpt><trkpt lat="43.898616" lon="3.73673"><ele>136.0</ele><time>2026-04-12T13:41:09.178Z</time></trkpt><trkpt lat="43.8985451" lon="3.7367494"><ele>136.0</ele><time>2026-04-12T13:41:10.178Z</time></trkpt><trkpt lat="43.8984664" lon="3.7367729"><ele>136.0</ele><time>2026-04-12T13:41:11.178Z</time></trkpt><trkpt lat="43.8983839" lon="3.7368027"><ele>136.0</ele><time>2026-04-12T13:41:12.178Z</time></trkpt><trkpt lat="43.8983097" lon="3.7368316"><ele>136.0</ele><time>2026-04-12T13:41:13.178Z</time></trkpt><trkpt lat="43.8982317" lon="3.7368627"><ele>136.0</ele><time>2026-04-12T13:41:14.178Z</time></trkpt><trkpt lat="43.8981608" lon="3.7368791"><ele>136.0</ele><time>2026-04-12T13:41:15.178Z</time></trkpt><trkpt lat="43.8980974" lon="3.7368955"><ele>136.0</ele><time>2026-04-12T13:41:16.179Z</time></trkpt><trkpt lat="43.8980341" lon="3.7369186"><ele>136.0</ele><time>2026-04-12T13:41:17.178Z</time></trkpt><trkpt lat="43.8979666" lon="3.736932"><ele>136.0</ele><time>2026-04-12T13:41:18.179Z</time></trkpt><trkpt lat="43.8978477" lon="3.7369602"><ele>136.0</ele><time>2026-04-12T13:41:20.179Z</time></trkpt><trkpt lat="43.8977326" lon="3.7369979"><ele>136.0</ele><time>2026-04-12T13:41:22.179Z</time></trkpt><trkpt lat="43.8976643" lon="3.7370166"><ele>136.0</ele><time>2026-04-12T13:41:23.179Z</time></trkpt><trkpt lat="43.8975819" lon="3.7370461"><ele>136.0</ele><time>2026-04-12T13:41:24.179Z</time></trkpt><trkpt lat="43.8974835" lon="3.737084"><ele>136.0</ele><time>2026-04-12T13:41:25.178Z</time></trkpt><trkpt lat="43.8973708" lon="3.7371234"><ele>136.0</ele><time>2026-04-12T13:41:26.179Z</time></trkpt><trkpt lat="43.8972493" lon="3.7371797"><ele>136.25</ele><time>2026-04-12T13:41:27.179Z</time></trkpt><trkpt lat="43.8971268" lon="3.737234"><ele>136.5</ele><time>2026-04-12T13:41:28.178Z</time></trkpt><trkpt lat="43.8970082" lon="3.7372828"><ele>136.75</ele><time>2026-04-12T13:41:29.178Z</time></trkpt><trkpt lat="43.896901" lon="3.737318"><ele>137.0</ele><time>2026-04-12T13:41:30.179Z</time></trkpt><trkpt lat="43.8967916" lon="3.7373501"><ele>136.79999999999998</ele><time>2026-04-12T13:41:31.178Z</time></trkpt><trkpt lat="43.8966843" lon="3.7373784"><ele>136.6</ele><time>2026-04-12T13:41:32.179Z</time></trkpt><trkpt lat="43.8965896" lon="3.7374046"><ele>136.39999999999998</ele><time>2026-04-12T13:41:33.179Z</time></trkpt><trkpt lat="43.8965005" lon="3.7374288"><ele>136.2</ele><time>2026-04-12T13:41:34.178Z</time></trkpt><trkpt lat="43.8964228" lon="3.737452"><ele>136.0</ele><time>2026-04-12T13:41:35.179Z</time></trkpt><trkpt lat="43.8963367" lon="3.7374801"><ele>136.0</ele><time>2026-04-12T13:41:36.179Z</time></trkpt><trkpt lat="43.8962412" lon="3.7375154"><ele>136.0</ele><time>2026-04-12T13:41:37.179Z</time></trkpt><trkpt lat="43.8961324" lon="3.737558"><ele>136.0</ele><time>2026-04-12T13:41:38.178Z</time></trkpt><trkpt lat="43.8959908" lon="3.7376077"><ele>136.0</ele><time>2026-04-12T13:41:39.178Z</time></trkpt><trkpt lat="43.8958369" lon="3.7376598"><ele>136.0</ele><time>2026-04-12T13:41:40.178Z</time></trkpt><trkpt lat="43.8957064" lon="3.7376911"><ele>136.0</ele><time>2026-04-12T13:41:41.178Z</time></trkpt><trkpt lat="43.8955732" lon="3.7377225"><ele>136.0</ele><time>2026-04-12T13:41:42.178Z</time></trkpt><trkpt lat="43.8954403" lon="3.7377588"><ele>136.0</ele><time>2026-04-12T13:41:43.179Z</time></trkpt><trkpt lat="43.8953147" lon="3.7377961"><ele>136.75</ele><time>2026-04-12T13:41:44.179Z</time></trkpt><trkpt lat="43.8951974" lon="3.7378322"><ele>137.5</ele><time>2026-04-12T13:41:45.178Z</time></trkpt><trkpt lat="43.8950868" lon="3.7378629"><ele>138.25</ele><time>2026-04-12T13:41:46.179Z</time></trkpt><trkpt lat="43.894972" lon="3.7378924"><ele>139.0</ele><time>2026-04-12T13:41:47.179Z</time></trkpt><trkpt lat="43.8948531" lon="3.737931"><ele>139.0</ele><time>2026-04-12T13:41:48.179Z</time></trkpt><trkpt lat="43.8947152" lon="3.7379764"><ele>139.0</ele><time>2026-04-12T13:41:49.178Z</time></trkpt><trkpt lat="43.8945642" lon="3.738031"><ele>139.0</ele><time>2026-04-12T13:41:50.179Z</time></trkpt><trkpt lat="43.8944146" lon="3.7380883"><ele>138.33333333333334</ele><time>2026-04-12T13:41:51.179Z</time></trkpt><trkpt lat="43.8942546" lon="3.7381527"><ele>137.66666666666666</ele><time>2026-04-12T13:41:52.178Z</time></trkpt><trkpt lat="43.894084" lon="3.7382109"><ele>137.0</ele><time>2026-04-12T13:41:53.178Z</time></trkpt><trkpt lat="43.8939109" lon="3.7382603"><ele>137.0</ele><time>2026-04-12T13:41:54.179Z</time></trkpt><trkpt lat="43.8937378" lon="3.7383174"><ele>137.0</ele><time>2026-04-12T13:41:55.179Z</time></trkpt><trkpt lat="43.8935576" lon="3.7383685"><ele>137.0</ele><time>2026-04-12T13:41:56.179Z</time></trkpt><trkpt lat="43.8933902" lon="3.7384192"><ele>136.33333333333331</ele><time>2026-04-12T13:41:57.179Z</time></trkpt><trkpt lat="43.8932303" lon="3.7384561"><ele>135.66666666666666</ele><time>2026-04-12T13:41:58.179Z</time></trkpt><trkpt lat="43.8930803" lon="3.7384973"><ele>135.0</ele><time>2026-04-12T13:41:59.179Z</time></trkpt><trkpt lat="43.8929353" lon="3.738534"><ele>134.75</ele><time>2026-04-12T13:42:00.179Z</time></trkpt><trkpt lat="43.8927907" lon="3.7385819"><ele>134.5</ele><time>2026-04-12T13:42:01.178Z</time></trkpt><trkpt lat="43.892648" lon="3.7386255"><ele>134.25</ele><time>2026-04-12T13:42:02.178Z</time></trkpt><trkpt lat="43.8925115" lon="3.738669"><ele>134.0</ele><time>2026-04-12T13:42:03.178Z</time></trkpt><trkpt lat="43.8923824" lon="3.7387179"><ele>134.0</ele><time>2026-04-12T13:42:04.179Z</time></trkpt><trkpt lat="43.8922561" lon="3.7387635"><ele>134.0</ele><time>2026-04-12T13:42:05.178Z</time></trkpt><trkpt lat="43.8921248" lon="3.7388083"><ele>134.0</ele><time>2026-04-12T13:42:06.179Z</time></trkpt><trkpt lat="43.8919775" lon="3.7388574"><ele>134.0</ele><time>2026-04-12T13:42:07.178Z</time></trkpt><trkpt lat="43.8918261" lon="3.7389054"><ele>134.0</ele><time>2026-04-12T13:42:08.178Z</time></trkpt><trkpt lat="43.8916767" lon="3.7389449"><ele>134.0</ele><time>2026-04-12T13:42:09.178Z</time></trkpt><trkpt lat="43.8915332" lon="3.7389803"><ele>134.0</ele><time>2026-04-12T13:42:10.178Z</time></trkpt><trkpt lat="43.8913975" lon="3.7390169"><ele>134.0</ele><time>2026-04-12T13:42:11.179Z</time></trkpt><trkpt lat="43.8912666" lon="3.7390568"><ele>134.0</ele><time>2026-04-12T13:42:12.178Z</time></trkpt><trkpt lat="43.8911352" lon="3.7391035"><ele>134.0</ele><time>2026-04-12T13:42:13.178Z</time></trkpt><trkpt lat="43.8910076" lon="3.7391441"><ele>134.0</ele><time>2026-04-12T13:42:14.178Z</time></trkpt><trkpt lat="43.8908813" lon="3.7391854"><ele>134.0</ele><time>2026-04-12T13:42:15.178Z</time></trkpt><trkpt lat="43.8907485" lon="3.7392313"><ele>133.75</ele><time>2026-04-12T13:42:16.178Z</time></trkpt><trkpt lat="43.8906214" lon="3.73927"><ele>133.5</ele><time>2026-04-12T13:42:17.178Z</time></trkpt><trkpt lat="43.8905041" lon="3.739313"><ele>133.25</ele><time>2026-04-12T13:42:18.179Z</time></trkpt><trkpt lat="43.8903926" lon="3.7393506"><ele>133.0</ele><time>2026-04-12T13:42:19.178Z</time></trkpt><trkpt lat="43.8902799" lon="3.7393895"><ele>133.0</ele><time>2026-04-12T13:42:20.179Z</time></trkpt><trkpt lat="43.89017" lon="3.7394142"><ele>133.0</ele><time>2026-04-12T13:42:21.178Z</time></trkpt><trkpt lat="43.89007" lon="3.7394382"><ele>133.0</ele><time>2026-04-12T13:42:22.179Z</time></trkpt><trkpt lat="43.8899702" lon="3.7394756"><ele>133.0</ele><time>2026-04-12T13:42:23.178Z</time></trkpt><trkpt lat="43.8898735" lon="3.739504"><ele>133.0</ele><time>2026-04-12T13:42:24.178Z</time></trkpt><trkpt lat="43.8897825" lon="3.7395267"><ele>133.0</ele><time>2026-04-12T13:42:25.179Z</time></trkpt><trkpt lat="43.8896992" lon="3.7395598"><ele>133.0</ele><time>2026-04-12T13:42:26.178Z</time></trkpt><trkpt lat="43.8896293" lon="3.7395682"><ele>133.0</ele><time>2026-04-12T13:42:27.179Z</time></trkpt><trkpt lat="43.8895559" lon="3.7395554"><ele>133.0</ele><time>2026-04-12T13:42:28.178Z</time></trkpt><trkpt lat="43.8894917" lon="3.7395144"><ele>133.0</ele><time>2026-04-12T13:42:29.178Z</time></trkpt><trkpt lat="43.8893764" lon="3.7394427"><ele>133.0</ele><time>2026-04-12T13:42:31.178Z</time></trkpt><trkpt lat="43.8892628" lon="3.7395397"><ele>132.6</ele><time>2026-04-12T13:42:33.178Z</time></trkpt><trkpt lat="43.889206" lon="3.7396431"><ele>132.20000000000002</ele><time>2026-04-12T13:42:34.178Z</time></trkpt><trkpt lat="43.8891284" lon="3.7397395"><ele>131.8</ele><time>2026-04-12T13:42:35.179Z</time></trkpt><trkpt lat="43.8890396" lon="3.7398264"><ele>131.4</ele><time>2026-04-12T13:42:36.179Z</time></trkpt><trkpt lat="43.8889305" lon="3.739891"><ele>131.0</ele><time>2026-04-12T13:42:37.179Z</time></trkpt><trkpt lat="43.8888194" lon="3.7399532"><ele>131.0</ele><time>2026-04-12T13:42:38.178Z</time></trkpt><trkpt lat="43.8887102" lon="3.7400076"><ele>131.0</ele><time>2026-04-12T13:42:39.178Z</time></trkpt><trkpt lat="43.8885956" lon="3.7400747"><ele>131.0</ele><time>2026-04-12T13:42:40.178Z</time></trkpt><trkpt lat="43.8884731" lon="3.7401349"><ele>131.0</ele><time>2026-04-12T13:42:41.178Z</time></trkpt><trkpt lat="43.8883526" lon="3.7401993"><ele>131.25</ele><time>2026-04-12T13:42:42.179Z</time></trkpt><trkpt lat="43.8882396" lon="3.740261"><ele>131.5</ele><time>2026-04-12T13:42:43.179Z</time></trkpt><trkpt lat="43.8881275" lon="3.7403213"><ele>131.75</ele><time>2026-04-12T13:42:44.179Z</time></trkpt><trkpt lat="43.8880032" lon="3.7403808"><ele>132.0</ele><time>2026-04-12T13:42:45.178Z</time></trkpt><trkpt lat="43.8878653" lon="3.7404409"><ele>132.0</ele><time>2026-04-12T13:42:46.179Z</time></trkpt><trkpt lat="43.8877122" lon="3.7404887"><ele>132.0</ele><time>2026-04-12T13:42:47.178Z</time></trkpt><trkpt lat="43.8875543" lon="3.7405297"><ele>132.0</ele><time>2026-04-12T13:42:48.178Z</time></trkpt><trkpt lat="43.8873814" lon="3.7405585"><ele>133.0</ele><time>2026-04-12T13:42:49.178Z</time></trkpt><trkpt lat="43.8871885" lon="3.7405775"><ele>134.0</ele><time>2026-04-12T13:42:50.178Z</time></trkpt><trkpt lat="43.8869758" lon="3.7405789"><ele>135.0</ele><time>2026-04-12T13:42:51.179Z</time></trkpt><trkpt lat="43.886746" lon="3.7405482"><ele>138.0</ele><time>2026-04-12T13:42:52.179Z</time></trkpt><trkpt lat="43.8865083" lon="3.7405069"><ele>141.0</ele><time>2026-04-12T13:42:53.179Z</time></trkpt><trkpt lat="43.8862618" lon="3.7404576"><ele>141.0</ele><time>2026-04-12T13:42:54.178Z</time></trkpt><trkpt lat="43.8860068" lon="3.7404284"><ele>141.0</ele><time>2026-04-12T13:42:55.178Z</time></trkpt><trkpt lat="43.885745" lon="3.7404028"><ele>145.0</ele><time>2026-04-12T13:42:56.178Z</time></trkpt><trkpt lat="43.8854824" lon="3.7403898"><ele>149.0</ele><time>2026-04-12T13:42:57.179Z</time></trkpt><trkpt lat="43.8852217" lon="3.7404007"><ele>149.5</ele><time>2026-04-12T13:42:58.179Z</time></trkpt><trkpt lat="43.8849566" lon="3.7404305"><ele>150.0</ele><time>2026-04-12T13:42:59.179Z</time></trkpt><trkpt lat="43.8846911" lon="3.7404933"><ele>150.0</ele><time>2026-04-12T13:43:00.178Z</time></trkpt><trkpt lat="43.8844349" lon="3.7405917"><ele>150.0</ele><time>2026-04-12T13:43:01.179Z</time></trkpt><trkpt lat="43.884186" lon="3.7407309"><ele>149.0</ele><time>2026-04-12T13:43:02.178Z</time></trkpt><trkpt lat="43.8839549" lon="3.7409048"><ele>148.0</ele><time>2026-04-12T13:43:03.178Z</time></trkpt><trkpt lat="43.8837457" lon="3.7411123"><ele>152.5</ele><time>2026-04-12T13:43:04.179Z</time></trkpt><trkpt lat="43.8835341" lon="3.7413355"><ele>157.0</ele><time>2026-04-12T13:43:05.178Z</time></trkpt><trkpt lat="43.883349" lon="3.7415766"><ele>157.0</ele><time>2026-04-12T13:43:06.178Z</time></trkpt><trkpt lat="43.8831763" lon="3.7418361"><ele>157.0</ele><time>2026-04-12T13:43:07.178Z</time></trkpt><trkpt lat="43.8830127" lon="3.7421053"><ele>158.0</ele><time>2026-04-12T13:43:08.178Z</time></trkpt><trkpt lat="43.8828619" lon="3.7423826"><ele>159.0</ele><time>2026-04-12T13:43:09.179Z</time></trkpt><trkpt lat="43.8827035" lon="3.7426627"><ele>161.5</ele><time>2026-04-12T13:43:10.178Z</time></trkpt><trkpt lat="43.8825402" lon="3.742942"><ele>164.0</ele><time>2026-04-12T13:43:11.179Z</time></trkpt><trkpt lat="43.8823674" lon="3.7432142"><ele>164.0</ele><time>2026-04-12T13:43:12.178Z</time></trkpt><trkpt lat="43.8821807" lon="3.7434567"><ele>164.0</ele><time>2026-04-12T13:43:13.179Z</time></trkpt><trkpt lat="43.881985" lon="3.7436895"><ele>166.0</ele><time>2026-04-12T13:43:14.178Z</time></trkpt><trkpt lat="43.881776" lon="3.7438947"><ele>168.0</ele><time>2026-04-12T13:43:15.179Z</time></trkpt><trkpt lat="43.8815639" lon="3.7440885"><ele>168.0</ele><time>2026-04-12T13:43:16.178Z</time></trkpt><trkpt lat="43.8813436" lon="3.7442569"><ele>168.0</ele><time>2026-04-12T13:43:17.178Z</time></trkpt><trkpt lat="43.8811177" lon="3.7444062"><ele>168.0</ele><time>2026-04-12T13:43:18.179Z</time></trkpt><trkpt lat="43.8808599" lon="3.7445613"><ele>168.0</ele><time>2026-04-12T13:43:19.179Z</time></trkpt><trkpt lat="43.8805802" lon="3.7446748"><ele>168.0</ele><time>2026-04-12T13:43:20.179Z</time></trkpt><trkpt lat="43.8803035" lon="3.7447776"><ele>168.0</ele><time>2026-04-12T13:43:21.178Z</time></trkpt><trkpt lat="43.8800166" lon="3.7448661"><ele>168.0</ele><time>2026-04-12T13:43:22.178Z</time></trkpt><trkpt lat="43.8797433" lon="3.7449216"><ele>168.0</ele><time>2026-04-12T13:43:23.178Z</time></trkpt><trkpt lat="43.8794788" lon="3.7449517"><ele>170.5</ele><time>2026-04-12T13:43:24.178Z</time></trkpt><trkpt lat="43.8792237" lon="3.7449447"><ele>173.0</ele><time>2026-04-12T13:43:25.178Z</time></trkpt><trkpt lat="43.87898" lon="3.7448872"><ele>173.0</ele><time>2026-04-12T13:43:26.178Z</time></trkpt><trkpt lat="43.878756" lon="3.744783"><ele>173.0</ele><time>2026-04-12T13:43:27.178Z</time></trkpt><trkpt lat="43.8785324" lon="3.7446428"><ele>172.5</ele><time>2026-04-12T13:43:28.178Z</time></trkpt><trkpt lat="43.878331" lon="3.744463"><ele>172.0</ele><time>2026-04-12T13:43:29.179Z</time></trkpt><trkpt lat="43.8781396" lon="3.7442414"><ele>178.0</ele><time>2026-04-12T13:43:30.179Z</time></trkpt><trkpt lat="43.8779764" lon="3.743991"><ele>184.0</ele><time>2026-04-12T13:43:31.179Z</time></trkpt><trkpt lat="43.8778255" lon="3.7437025"><ele>182.0</ele><time>2026-04-12T13:43:32.178Z</time></trkpt><trkpt lat="43.8776809" lon="3.7434083"><ele>180.0</ele><time>2026-04-12T13:43:33.178Z</time></trkpt><trkpt lat="43.8775305" lon="3.7431106"><ele>180.0</ele><time>2026-04-12T13:43:34.179Z</time></trkpt><trkpt lat="43.8773537" lon="3.7428237"><ele>180.0</ele><time>2026-04-12T13:43:35.178Z</time></trkpt><trkpt lat="43.8771587" lon="3.7425631"><ele>179.0</ele><time>2026-04-12T13:43:36.178Z</time></trkpt><trkpt lat="43.8769345" lon="3.7423205"><ele>178.0</ele><time>2026-04-12T13:43:37.178Z</time></trkpt><trkpt lat="43.8767026" lon="3.7421575"><ele>181.5</ele><time>2026-04-12T13:43:38.178Z</time></trkpt><trkpt lat="43.876469" lon="3.7420379"><ele>185.0</ele><time>2026-04-12T13:43:39.178Z</time></trkpt><trkpt lat="43.8762312" lon="3.7419573"><ele>185.0</ele><time>2026-04-12T13:43:40.178Z</time></trkpt><trkpt lat="43.8759883" lon="3.7419097"><ele>185.0</ele><time>2026-04-12T13:43:41.178Z</time></trkpt><trkpt lat="43.8757441" lon="3.7418853"><ele>185.0</ele><time>2026-04-12T13:43:42.178Z</time></trkpt><trkpt lat="43.8754944" lon="3.7418775"><ele>185.0</ele><time>2026-04-12T13:43:43.179Z</time></trkpt><trkpt lat="43.8752413" lon="3.7419236"><ele>183.5</ele><time>2026-04-12T13:43:44.178Z</time></trkpt><trkpt lat="43.8749992" lon="3.7419826"><ele>182.0</ele><time>2026-04-12T13:43:45.179Z</time></trkpt><trkpt lat="43.8747376" lon="3.7420658"><ele>182.0</ele><time>2026-04-12T13:43:46.179Z</time></trkpt><trkpt lat="43.8744674" lon="3.7421508"><ele>182.0</ele><time>2026-04-12T13:43:47.178Z</time></trkpt><trkpt lat="43.874182" lon="3.742225"><ele>183.0</ele><time>2026-04-12T13:43:48.178Z</time></trkpt><trkpt lat="43.8738847" lon="3.7423012"><ele>184.0</ele><time>2026-04-12T13:43:49.178Z</time></trkpt><trkpt lat="43.8735787" lon="3.7423614"><ele>185.0</ele><time>2026-04-12T13:43:50.179Z</time></trkpt><trkpt lat="43.8732714" lon="3.7424096"><ele>186.0</ele><time>2026-04-12T13:43:51.178Z</time></trkpt><trkpt lat="43.8729631" lon="3.7424364"><ele>186.0</ele><time>2026-04-12T13:43:52.178Z</time></trkpt><trkpt lat="43.8726508" lon="3.7424405"><ele>186.0</ele><time>2026-04-12T13:43:53.178Z</time></trkpt><trkpt lat="43.8723393" lon="3.7424242"><ele>186.0</ele><time>2026-04-12T13:43:54.178Z</time></trkpt><trkpt lat="43.8720338" lon="3.7424014"><ele>186.0</ele><time>2026-04-12T13:43:55.179Z</time></trkpt><trkpt lat="43.8717323" lon="3.7423576"><ele>188.5</ele><time>2026-04-12T13:43:56.179Z</time></trkpt><trkpt lat="43.8714371" lon="3.7423175"><ele>191.0</ele><time>2026-04-12T13:43:57.179Z</time></trkpt><trkpt lat="43.8711385" lon="3.7422671"><ele>195.5</ele><time>2026-04-12T13:43:58.178Z</time></trkpt><trkpt lat="43.8708385" lon="3.7422074"><ele>200.0</ele><time>2026-04-12T13:43:59.178Z</time></trkpt><trkpt lat="43.870546" lon="3.7421167"><ele>200.0</ele><time>2026-04-12T13:44:00.178Z</time></trkpt><trkpt lat="43.870263" lon="3.7420055"><ele>200.0</ele><time>2026-04-12T13:44:01.179Z</time></trkpt><trkpt lat="43.8699734" lon="3.7418884"><ele>197.5</ele><time>2026-04-12T13:44:02.179Z</time></trkpt><trkpt lat="43.8696829" lon="3.7417602"><ele>195.0</ele><time>2026-04-12T13:44:03.178Z</time></trkpt><trkpt lat="43.8694028" lon="3.7416116"><ele>198.5</ele><time>2026-04-12T13:44:04.179Z</time></trkpt><trkpt lat="43.8691154" lon="3.7414597"><ele>202.0</ele><time>2026-04-12T13:44:05.179Z</time></trkpt><trkpt lat="43.8688387" lon="3.7412924"><ele>202.0</ele><time>2026-04-12T13:44:06.178Z</time></trkpt><trkpt lat="43.8685675" lon="3.7411151"><ele>202.0</ele><time>2026-04-12T13:44:07.179Z</time></trkpt><trkpt lat="43.8683015" lon="3.7409292"><ele>202.5</ele><time>2026-04-12T13:44:08.179Z</time></trkpt><trkpt lat="43.8680351" lon="3.7407365"><ele>203.0</ele><time>2026-04-12T13:44:09.178Z</time></trkpt><trkpt lat="43.8677747" lon="3.7405698"><ele>208.5</ele><time>2026-04-12T13:44:10.178Z</time></trkpt><trkpt lat="43.8675051" lon="3.7404351"><ele>214.0</ele><time>2026-04-12T13:44:11.179Z</time></trkpt><trkpt lat="43.8672383" lon="3.7403341"><ele>214.0</ele><time>2026-04-12T13:44:12.178Z</time></trkpt><trkpt lat="43.8669898" lon="3.7402962"><ele>214.0</ele><time>2026-04-12T13:44:13.178Z</time></trkpt><trkpt lat="43.8667344" lon="3.740295"><ele>215.0</ele><time>2026-04-12T13:44:14.178Z</time></trkpt><trkpt lat="43.8664771" lon="3.7403251"><ele>216.0</ele><time>2026-04-12T13:44:15.179Z</time></trkpt><trkpt lat="43.8662219" lon="3.740382"><ele>216.0</ele><time>2026-04-12T13:44:16.178Z</time></trkpt><trkpt lat="43.8659575" lon="3.7404806"><ele>216.0</ele><time>2026-04-12T13:44:17.178Z</time></trkpt><trkpt lat="43.8657076" lon="3.7405988"><ele>215.0</ele><time>2026-04-12T13:44:18.178Z</time></trkpt><trkpt lat="43.8654549" lon="3.7407482"><ele>214.0</ele><time>2026-04-12T13:44:19.179Z</time></trkpt><trkpt lat="43.8651884" lon="3.7408972"><ele>214.0</ele><time>2026-04-12T13:44:20.178Z</time></trkpt><trkpt lat="43.8649339" lon="3.7410754"><ele>214.0</ele><time>2026-04-12T13:44:21.179Z</time></trkpt><trkpt lat="43.8646708" lon="3.7412545"><ele>214.0</ele><time>2026-04-12T13:44:22.178Z</time></trkpt><trkpt lat="43.8643969" lon="3.7414506"><ele>214.0</ele><time>2026-04-12T13:44:23.178Z</time></trkpt><trkpt lat="43.8641156" lon="3.741655"><ele>213.0</ele><time>2026-04-12T13:44:24.178Z</time></trkpt><trkpt lat="43.8638319" lon="3.7418739"><ele>212.0</ele><time>2026-04-12T13:44:25.178Z</time></trkpt><trkpt lat="43.86354" lon="3.7421173"><ele>215.0</ele><time>2026-04-12T13:44:26.179Z</time></trkpt><trkpt lat="43.8632377" lon="3.7423603"><ele>218.0</ele><time>2026-04-12T13:44:27.178Z</time></trkpt><trkpt lat="43.8629339" lon="3.7425873"><ele>219.5</ele><time>2026-04-12T13:44:28.178Z</time></trkpt><trkpt lat="43.8626321" lon="3.7427781"><ele>221.0</ele><time>2026-04-12T13:44:29.179Z</time></trkpt><trkpt lat="43.8623294" lon="3.7429317"><ele>221.5</ele><time>2026-04-12T13:44:30.178Z</time></trkpt><trkpt lat="43.8620254" lon="3.7430332"><ele>222.0</ele><time>2026-04-12T13:44:31.178Z</time></trkpt><trkpt lat="43.8617265" lon="3.7430762"><ele>225.0</ele><time>2026-04-12T13:44:32.178Z</time></trkpt><trkpt lat="43.8614385" lon="3.7430928"><ele>228.0</ele><time>2026-04-12T13:44:33.178Z</time></trkpt><trkpt lat="43.8611465" lon="3.7430386"><ele>232.5</ele><time>2026-04-12T13:44:34.179Z</time></trkpt><trkpt lat="43.8608621" lon="3.7429705"><ele>237.0</ele><time>2026-04-12T13:44:35.178Z</time></trkpt><trkpt lat="43.86057" lon="3.7428587"><ele>232.5</ele><time>2026-04-12T13:44:36.179Z</time></trkpt><trkpt lat="43.8602735" lon="3.7426908"><ele>228.0</ele><time>2026-04-12T13:44:37.178Z</time></trkpt><trkpt lat="43.859981" lon="3.7424987"><ele>237.0</ele><time>2026-04-12T13:44:38.178Z</time></trkpt><trkpt lat="43.8596859" lon="3.7422912"><ele>246.0</ele><time>2026-04-12T13:44:39.178Z</time></trkpt><trkpt lat="43.8593824" lon="3.7421164"><ele>248.0</ele><time>2026-04-12T13:44:40.179Z</time></trkpt><trkpt lat="43.8590775" lon="3.7419801"><ele>250.0</ele><time>2026-04-12T13:44:41.178Z</time></trkpt><trkpt lat="43.858771" lon="3.7418763"><ele>250.0</ele><time>2026-04-12T13:44:42.179Z</time></trkpt><trkpt lat="43.8584697" lon="3.7418024"><ele>250.0</ele><time>2026-04-12T13:44:43.178Z</time></trkpt><trkpt lat="43.8581493" lon="3.7417828"><ele>257.0</ele><time>2026-04-12T13:44:44.179Z</time></trkpt><trkpt lat="43.8578193" lon="3.7417863"><ele>264.0</ele><time>2026-04-12T13:44:45.179Z</time></trkpt><trkpt lat="43.8574809" lon="3.7418324"><ele>272.0</ele><time>2026-04-12T13:44:46.178Z</time></trkpt><trkpt lat="43.8571379" lon="3.7418769"><ele>280.0</ele><time>2026-04-12T13:44:47.179Z</time></trkpt><trkpt lat="43.8567831" lon="3.7419335"><ele>280.0</ele><time>2026-04-12T13:44:48.178Z</time></trkpt><trkpt lat="43.8564261" lon="3.7420007"><ele>280.0</ele><time>2026-04-12T13:44:49.178Z</time></trkpt><trkpt lat="43.8560734" lon="3.7420607"><ele>275.0</ele><time>2026-04-12T13:44:50.178Z</time></trkpt><trkpt lat="43.8557188" lon="3.7421034"><ele>270.0</ele><time>2026-04-12T13:44:51.179Z</time></trkpt><trkpt lat="43.8553699" lon="3.7421254"><ele>273.5</ele><time>2026-04-12T13:44:52.179Z</time></trkpt><trkpt lat="43.8550181" lon="3.7421344"><ele>277.0</ele><time>2026-04-12T13:44:53.178Z</time></trkpt><trkpt lat="43.8546567" lon="3.7421152"><ele>277.0</ele><time>2026-04-12T13:44:54.178Z</time></trkpt><trkpt lat="43.8542945" lon="3.7420728"><ele>277.0</ele><time>2026-04-12T13:44:55.179Z</time></trkpt><trkpt lat="43.853934" lon="3.7419972"><ele>282.0</ele><time>2026-04-12T13:44:56.178Z</time></trkpt><trkpt lat="43.8535629" lon="3.7418877"><ele>287.0</ele><time>2026-04-12T13:44:57.179Z</time></trkpt><trkpt lat="43.853187" lon="3.7417573"><ele>298.5</ele><time>2026-04-12T13:44:58.178Z</time></trkpt><trkpt lat="43.8528203" lon="3.7415976"><ele>310.0</ele><time>2026-04-12T13:44:59.178Z</time></trkpt><trkpt lat="43.8524713" lon="3.7414323"><ele>312.0</ele><time>2026-04-12T13:45:00.178Z</time></trkpt><trkpt lat="43.8521359" lon="3.7412604"><ele>314.0</ele><time>2026-04-12T13:45:01.179Z</time></trkpt><trkpt lat="43.8518044" lon="3.741089"><ele>321.5</ele><time>2026-04-12T13:45:02.179Z</time></trkpt><trkpt lat="43.8514889" lon="3.7409235"><ele>329.0</ele><time>2026-04-12T13:45:03.179Z</time></trkpt><trkpt lat="43.8512007" lon="3.7407714"><ele>327.5</ele><time>2026-04-12T13:45:04.178Z</time></trkpt><trkpt lat="43.850925" lon="3.7406131"><ele>326.0</ele><time>2026-04-12T13:45:05.178Z</time></trkpt><trkpt lat="43.8506548" lon="3.7404654"><ele>326.0</ele><time>2026-04-12T13:45:06.179Z</time></trkpt><trkpt lat="43.8503843" lon="3.7403231"><ele>326.0</ele><time>2026-04-12T13:45:07.178Z</time></trkpt><trkpt lat="43.8501104" lon="3.7401878"><ele>326.5</ele><time>2026-04-12T13:45:08.179Z</time></trkpt><trkpt lat="43.8498357" lon="3.7400771"><ele>327.0</ele><time>2026-04-12T13:45:09.179Z</time></trkpt><trkpt lat="43.8495555" lon="3.7399891"><ele>323.5</ele><time>2026-04-12T13:45:10.178Z</time></trkpt><trkpt lat="43.8492803" lon="3.7399224"><ele>320.0</ele><time>2026-04-12T13:45:11.179Z</time></trkpt><trkpt lat="43.8490051" lon="3.7398835"><ele>320.0</ele><time>2026-04-12T13:45:12.179Z</time></trkpt><trkpt lat="43.8487251" lon="3.7398743"><ele>320.0</ele><time>2026-04-12T13:45:13.178Z</time></trkpt><trkpt lat="43.8484412" lon="3.7399145"><ele>315.0</ele><time>2026-04-12T13:45:14.178Z</time></trkpt><trkpt lat="43.8481592" lon="3.7399807"><ele>310.0</ele><time>2026-04-12T13:45:15.179Z</time></trkpt><trkpt lat="43.8478765" lon="3.740076"><ele>310.5</ele><time>2026-04-12T13:45:16.179Z</time></trkpt><trkpt lat="43.847592" lon="3.7401922"><ele>311.0</ele><time>2026-04-12T13:45:17.178Z</time></trkpt><trkpt lat="43.8473126" lon="3.7403132"><ele>312.5</ele><time>2026-04-12T13:45:18.178Z</time></trkpt><trkpt lat="43.8470245" lon="3.7404578"><ele>314.0</ele><time>2026-04-12T13:45:19.179Z</time></trkpt><trkpt lat="43.8467191" lon="3.7406111"><ele>314.0</ele><time>2026-04-12T13:45:20.179Z</time></trkpt><trkpt lat="43.8464092" lon="3.7407755"><ele>314.0</ele><time>2026-04-12T13:45:21.178Z</time></trkpt><trkpt lat="43.8460848" lon="3.740944"><ele>313.0</ele><time>2026-04-12T13:45:22.179Z</time></trkpt><trkpt lat="43.8457596" lon="3.7411157"><ele>312.0</ele><time>2026-04-12T13:45:23.179Z</time></trkpt><trkpt lat="43.8454453" lon="3.7412859"><ele>312.0</ele><time>2026-04-12T13:45:24.178Z</time></trkpt><trkpt lat="43.8451343" lon="3.741447"><ele>312.0</ele><time>2026-04-12T13:45:25.178Z</time></trkpt><trkpt lat="43.8448237" lon="3.7416125"><ele>307.5</ele><time>2026-04-12T13:45:26.179Z</time></trkpt><trkpt lat="43.8445141" lon="3.7417733"><ele>303.0</ele><time>2026-04-12T13:45:27.178Z</time></trkpt><trkpt lat="43.8442053" lon="3.7419387"><ele>295.0</ele><time>2026-04-12T13:45:28.178Z</time></trkpt><trkpt lat="43.8438985" lon="3.7421077"><ele>287.0</ele><time>2026-04-12T13:45:29.179Z</time></trkpt><trkpt lat="43.843593" lon="3.7422706"><ele>279.5</ele><time>2026-04-12T13:45:30.178Z</time></trkpt><trkpt lat="43.843295" lon="3.7424286"><ele>272.0</ele><time>2026-04-12T13:45:31.178Z</time></trkpt><trkpt lat="43.8429911" lon="3.7425903"><ele>271.0</ele><time>2026-04-12T13:45:32.178Z</time></trkpt><trkpt lat="43.842688" lon="3.7427461"><ele>270.0</ele><time>2026-04-12T13:45:33.178Z</time></trkpt><trkpt lat="43.8423787" lon="3.7429113"><ele>270.0</ele><time>2026-04-12T13:45:34.178Z</time></trkpt><trkpt lat="43.8420705" lon="3.7430783"><ele>270.0</ele><time>2026-04-12T13:45:35.179Z</time></trkpt><trkpt lat="43.8417689" lon="3.7432492"><ele>269.5</ele><time>2026-04-12T13:45:36.178Z</time></trkpt><trkpt lat="43.8414767" lon="3.7434229"><ele>269.0</ele><time>2026-04-12T13:45:37.179Z</time></trkpt><trkpt lat="43.8411936" lon="3.7435822"><ele>264.0</ele><time>2026-04-12T13:45:38.178Z</time></trkpt><trkpt lat="43.8409173" lon="3.7437341"><ele>259.0</ele><time>2026-04-12T13:45:39.179Z</time></trkpt><trkpt lat="43.8406498" lon="3.7438628"><ele>259.0</ele><time>2026-04-12T13:45:40.178Z</time></trkpt><trkpt lat="43.8403817" lon="3.7439831"><ele>259.0</ele><time>2026-04-12T13:45:41.178Z</time></trkpt><trkpt lat="43.8401113" lon="3.7440894"><ele>255.5</ele><time>2026-04-12T13:45:42.178Z</time></trkpt><trkpt lat="43.8398441" lon="3.7441684"><ele>252.0</ele><time>2026-04-12T13:45:43.178Z</time></trkpt><trkpt lat="43.8395685" lon="3.7442185"><ele>252.0</ele><time>2026-04-12T13:45:44.178Z</time></trkpt><trkpt lat="43.8393015" lon="3.7442401"><ele>252.0</ele><time>2026-04-12T13:45:45.178Z</time></trkpt><trkpt lat="43.8390304" lon="3.7442459"><ele>250.5</ele><time>2026-04-12T13:45:46.178Z</time></trkpt><trkpt lat="43.8387633" lon="3.7442289"><ele>249.0</ele><time>2026-04-12T13:45:47.179Z</time></trkpt><trkpt lat="43.8385079" lon="3.7441904"><ele>249.0</ele><time>2026-04-12T13:45:48.178Z</time></trkpt><trkpt lat="43.8382671" lon="3.7441316"><ele>249.0</ele><time>2026-04-12T13:45:49.179Z</time></trkpt><trkpt lat="43.8380285" lon="3.7440563"><ele>249.0</ele><time>2026-04-12T13:45:50.178Z</time></trkpt><trkpt lat="43.8377929" lon="3.743968"><ele>249.0</ele><time>2026-04-12T13:45:51.178Z</time></trkpt><trkpt lat="43.8375587" lon="3.7438497"><ele>247.5</ele><time>2026-04-12T13:45:52.178Z</time></trkpt><trkpt lat="43.8373255" lon="3.7437185"><ele>246.0</ele><time>2026-04-12T13:45:53.179Z</time></trkpt><trkpt lat="43.8370946" lon="3.7435761"><ele>244.0</ele><time>2026-04-12T13:45:54.178Z</time></trkpt><trkpt lat="43.8368641" lon="3.74343"><ele>242.0</ele><time>2026-04-12T13:45:55.178Z</time></trkpt><trkpt lat="43.8366394" lon="3.7432805"><ele>242.0</ele><time>2026-04-12T13:45:56.179Z</time></trkpt><trkpt lat="43.8364123" lon="3.7431347"><ele>242.0</ele><time>2026-04-12T13:45:57.179Z</time></trkpt><trkpt lat="43.8361841" lon="3.7429871"><ele>239.0</ele><time>2026-04-12T13:45:58.178Z</time></trkpt><trkpt lat="43.8359566" lon="3.7428571"><ele>236.0</ele><time>2026-04-12T13:45:59.179Z</time></trkpt><trkpt lat="43.8357222" lon="3.7427374"><ele>238.5</ele><time>2026-04-12T13:46:00.178Z</time></trkpt><trkpt lat="43.8354869" lon="3.7426325"><ele>241.0</ele><time>2026-04-12T13:46:01.178Z</time></trkpt><trkpt lat="43.8352541" lon="3.7425317"><ele>238.5</ele><time>2026-04-12T13:46:02.179Z</time></trkpt><trkpt lat="43.8350314" lon="3.7424473"><ele>236.0</ele><time>2026-04-12T13:46:03.178Z</time></trkpt><trkpt lat="43.8348095" lon="3.742379"><ele>236.0</ele><time>2026-04-12T13:46:04.179Z</time></trkpt><trkpt lat="43.8345877" lon="3.7423347"><ele>236.0</ele><time>2026-04-12T13:46:05.178Z</time></trkpt><trkpt lat="43.8343654" lon="3.742332"><ele>236.0</ele><time>2026-04-12T13:46:06.179Z</time></trkpt><trkpt lat="43.8341332" lon="3.7423456"><ele>233.0</ele><time>2026-04-12T13:46:07.178Z</time></trkpt><trkpt lat="43.8339088" lon="3.7423968"><ele>230.0</ele><time>2026-04-12T13:46:08.178Z</time></trkpt><trkpt lat="43.8336835" lon="3.7424651"><ele>229.5</ele><time>2026-04-12T13:46:09.178Z</time></trkpt><trkpt lat="43.8334564" lon="3.7425758"><ele>229.0</ele><time>2026-04-12T13:46:10.178Z</time></trkpt><trkpt lat="43.8332271" lon="3.7427537"><ele>227.0</ele><time>2026-04-12T13:46:11.179Z</time></trkpt><trkpt lat="43.8329913" lon="3.7429664"><ele>225.0</ele><time>2026-04-12T13:46:12.178Z</time></trkpt><trkpt lat="43.8327423" lon="3.7432181"><ele>223.5</ele><time>2026-04-12T13:46:13.179Z</time></trkpt><trkpt lat="43.8324777" lon="3.7434846"><ele>222.0</ele><time>2026-04-12T13:46:14.178Z</time></trkpt><trkpt lat="43.8321934" lon="3.7437537"><ele>221.0</ele><time>2026-04-12T13:46:15.178Z</time></trkpt><trkpt lat="43.8319232" lon="3.7440123"><ele>220.0</ele><time>2026-04-12T13:46:16.178Z</time></trkpt><trkpt lat="43.8316639" lon="3.7442562"><ele>220.0</ele><time>2026-04-12T13:46:17.178Z</time></trkpt><trkpt lat="43.8314197" lon="3.7444815"><ele>220.0</ele><time>2026-04-12T13:46:18.179Z</time></trkpt><trkpt lat="43.8311892" lon="3.7446972"><ele>219.5</ele><time>2026-04-12T13:46:19.179Z</time></trkpt><trkpt lat="43.830948" lon="3.7448733"><ele>219.0</ele><time>2026-04-12T13:46:20.179Z</time></trkpt><trkpt lat="43.8306953" lon="3.7450077"><ele>219.0</ele><time>2026-04-12T13:46:21.179Z</time></trkpt><trkpt lat="43.8304416" lon="3.745082"><ele>219.0</ele><time>2026-04-12T13:46:22.178Z</time></trkpt><trkpt lat="43.8301729" lon="3.7451092"><ele>218.0</ele><time>2026-04-12T13:46:23.179Z</time></trkpt><trkpt lat="43.829891" lon="3.7451023"><ele>217.0</ele><time>2026-04-12T13:46:24.178Z</time></trkpt><trkpt lat="43.8295933" lon="3.7450731"><ele>215.0</ele><time>2026-04-12T13:46:25.179Z</time></trkpt><trkpt lat="43.8292836" lon="3.7450483"><ele>213.0</ele><time>2026-04-12T13:46:26.179Z</time></trkpt><trkpt lat="43.8289692" lon="3.7450192"><ele>213.0</ele><time>2026-04-12T13:46:27.179Z</time></trkpt><trkpt lat="43.8286637" lon="3.7449918"><ele>213.0</ele><time>2026-04-12T13:46:28.178Z</time></trkpt><trkpt lat="43.8283543" lon="3.7449647"><ele>212.0</ele><time>2026-04-12T13:46:29.178Z</time></trkpt><trkpt lat="43.8280524" lon="3.7449415"><ele>211.0</ele><time>2026-04-12T13:46:30.178Z</time></trkpt><trkpt lat="43.8277438" lon="3.7449153"><ele>212.0</ele><time>2026-04-12T13:46:31.178Z</time></trkpt><trkpt lat="43.8274367" lon="3.7448873"><ele>213.0</ele><time>2026-04-12T13:46:32.178Z</time></trkpt><trkpt lat="43.8271351" lon="3.7448682"><ele>213.0</ele><time>2026-04-12T13:46:33.177Z</time></trkpt><trkpt lat="43.8268376" lon="3.7448457"><ele>213.0</ele><time>2026-04-12T13:46:34.177Z</time></trkpt><trkpt lat="43.826543" lon="3.7448224"><ele>211.5</ele><time>2026-04-12T13:46:35.177Z</time></trkpt><trkpt lat="43.8262522" lon="3.7447955"><ele>210.0</ele><time>2026-04-12T13:46:36.177Z</time></trkpt><trkpt lat="43.8259572" lon="3.7447692"><ele>210.0</ele><time>2026-04-12T13:46:37.177Z</time></trkpt><trkpt lat="43.8256586" lon="3.7447457"><ele>210.0</ele><time>2026-04-12T13:46:38.177Z</time></trkpt><trkpt lat="43.8253661" lon="3.7447151"><ele>211.0</ele><time>2026-04-12T13:46:39.177Z</time></trkpt><trkpt lat="43.8250726" lon="3.7446855"><ele>212.0</ele><time>2026-04-12T13:46:40.177Z</time></trkpt><trkpt lat="43.8247845" lon="3.7446631"><ele>212.0</ele><time>2026-04-12T13:46:41.177Z</time></trkpt><trkpt lat="43.8244889" lon="3.7446471"><ele>212.0</ele><time>2026-04-12T13:46:42.177Z</time></trkpt><trkpt lat="43.8241848" lon="3.7446284"><ele>212.0</ele><time>2026-04-12T13:46:43.178Z</time></trkpt><trkpt lat="43.8238604" lon="3.7446065"><ele>212.0</ele><time>2026-04-12T13:46:44.177Z</time></trkpt><trkpt lat="43.8235156" lon="3.744592"><ele>214.0</ele><time>2026-04-12T13:46:45.177Z</time></trkpt><trkpt lat="43.8231945" lon="3.7445682"><ele>216.0</ele><time>2026-04-12T13:46:46.178Z</time></trkpt><trkpt lat="43.8228808" lon="3.7445486"><ele>216.5</ele><time>2026-04-12T13:46:47.177Z</time></trkpt><trkpt lat="43.8225737" lon="3.7445475"><ele>217.0</ele><time>2026-04-12T13:46:48.178Z</time></trkpt><trkpt lat="43.8222745" lon="3.7445524"><ele>217.0</ele><time>2026-04-12T13:46:49.177Z</time></trkpt><trkpt lat="43.8219795" lon="3.7445629"><ele>217.0</ele><time>2026-04-12T13:46:50.177Z</time></trkpt><trkpt lat="43.8216824" lon="3.7445848"><ele>216.0</ele><time>2026-04-12T13:46:51.177Z</time></trkpt><trkpt lat="43.8213778" lon="3.7446017"><ele>215.0</ele><time>2026-04-12T13:46:52.177Z</time></trkpt><trkpt lat="43.8210602" lon="3.7446261"><ele>213.5</ele><time>2026-04-12T13:46:53.178Z</time></trkpt><trkpt lat="43.820747" lon="3.7446328"><ele>212.0</ele><time>2026-04-12T13:46:54.177Z</time></trkpt><trkpt lat="43.8204361" lon="3.7446228"><ele>211.0</ele><time>2026-04-12T13:46:55.177Z</time></trkpt><trkpt lat="43.8201249" lon="3.7445809"><ele>210.0</ele><time>2026-04-12T13:46:56.177Z</time></trkpt><trkpt lat="43.819835" lon="3.7445087"><ele>210.0</ele><time>2026-04-12T13:46:57.177Z</time></trkpt><trkpt lat="43.8195396" lon="3.7444445"><ele>210.0</ele><time>2026-04-12T13:46:58.177Z</time></trkpt><trkpt lat="43.8192505" lon="3.7444106"><ele>207.0</ele><time>2026-04-12T13:46:59.178Z</time></trkpt><trkpt lat="43.8189734" lon="3.7444417"><ele>204.0</ele><time>2026-04-12T13:47:00.177Z</time></trkpt><trkpt lat="43.8187144" lon="3.744507"><ele>202.5</ele><time>2026-04-12T13:47:01.177Z</time></trkpt><trkpt lat="43.8184614" lon="3.7445526"><ele>201.0</ele><time>2026-04-12T13:47:02.18Z</time></trkpt><trkpt lat="43.8181988" lon="3.7445622"><ele>201.0</ele><time>2026-04-12T13:47:03.181Z</time></trkpt><trkpt lat="43.8179359" lon="3.7445038"><ele>201.0</ele><time>2026-04-12T13:47:04.18Z</time></trkpt><trkpt lat="43.8176808" lon="3.7444079"><ele>195.0</ele><time>2026-04-12T13:47:05.181Z</time></trkpt><trkpt lat="43.8174332" lon="3.744281"><ele>189.0</ele><time>2026-04-12T13:47:06.181Z</time></trkpt><trkpt lat="43.817182" lon="3.7441493"><ele>189.0</ele><time>2026-04-12T13:47:07.18Z</time></trkpt><trkpt lat="43.8169267" lon="3.7440156"><ele>189.0</ele><time>2026-04-12T13:47:08.18Z</time></trkpt><trkpt lat="43.8166733" lon="3.7438752"><ele>191.5</ele><time>2026-04-12T13:47:09.18Z</time></trkpt><trkpt lat="43.8164071" lon="3.7437311"><ele>194.0</ele><time>2026-04-12T13:47:10.18Z</time></trkpt><trkpt lat="43.816155" lon="3.743588"><ele>187.0</ele><time>2026-04-12T13:47:11.181Z</time></trkpt><trkpt lat="43.8159095" lon="3.74347"><ele>180.0</ele><time>2026-04-12T13:47:12.18Z</time></trkpt><trkpt lat="43.8156624" lon="3.7434004"><ele>180.0</ele><time>2026-04-12T13:47:13.18Z</time></trkpt><trkpt lat="43.8154159" lon="3.7433844"><ele>180.0</ele><time>2026-04-12T13:47:14.18Z</time></trkpt><trkpt lat="43.8151648" lon="3.7434175"><ele>178.5</ele><time>2026-04-12T13:47:15.18Z</time></trkpt><trkpt lat="43.8149158" lon="3.7434807"><ele>177.0</ele><time>2026-04-12T13:47:16.18Z</time></trkpt><trkpt lat="43.8146699" lon="3.7435547"><ele>178.5</ele><time>2026-04-12T13:47:17.181Z</time></trkpt><trkpt lat="43.8144171" lon="3.7436275"><ele>180.0</ele><time>2026-04-12T13:47:18.18Z</time></trkpt><trkpt lat="43.8141683" lon="3.7436912"><ele>180.0</ele><time>2026-04-12T13:47:19.181Z</time></trkpt><trkpt lat="43.8139359" lon="3.7437565"><ele>180.0</ele><time>2026-04-12T13:47:20.18Z</time></trkpt><trkpt lat="43.8137157" lon="3.7438106"><ele>180.0</ele><time>2026-04-12T13:47:21.18Z</time></trkpt><trkpt lat="43.8135059" lon="3.7438517"><ele>180.0</ele><time>2026-04-12T13:47:22.18Z</time></trkpt><trkpt lat="43.8132983" lon="3.743863"><ele>180.0</ele><time>2026-04-12T13:47:23.18Z</time></trkpt><trkpt lat="43.8130993" lon="3.7438199"><ele>178.0</ele><time>2026-04-12T13:47:24.18Z</time></trkpt><trkpt lat="43.8129199" lon="3.7437318"><ele>176.0</ele><time>2026-04-12T13:47:25.181Z</time></trkpt><trkpt lat="43.8127462" lon="3.7435823"><ele>174.0</ele><time>2026-04-12T13:47:26.181Z</time></trkpt><trkpt lat="43.8125788" lon="3.7433912"><ele>173.0</ele><time>2026-04-12T13:47:27.18Z</time></trkpt><trkpt lat="43.8124282" lon="3.7431641"><ele>172.0</ele><time>2026-04-12T13:47:28.18Z</time></trkpt><trkpt lat="43.8122936" lon="3.7429108"><ele>170.0</ele><time>2026-04-12T13:47:29.181Z</time></trkpt><trkpt lat="43.8121649" lon="3.7426554"><ele>168.0</ele><time>2026-04-12T13:47:30.18Z</time></trkpt><trkpt lat="43.8120354" lon="3.7423941"><ele>168.0</ele><time>2026-04-12T13:47:31.18Z</time></trkpt><trkpt lat="43.8119229" lon="3.7421536"><ele>168.0</ele><time>2026-04-12T13:47:32.181Z</time></trkpt><trkpt lat="43.8118098" lon="3.7419397"><ele>168.0</ele><time>2026-04-12T13:47:33.18Z</time></trkpt><trkpt lat="43.811676" lon="3.7417583"><ele>171.0</ele><time>2026-04-12T13:47:34.181Z</time></trkpt><trkpt lat="43.8115201" lon="3.7416085"><ele>174.0</ele><time>2026-04-12T13:47:35.18Z</time></trkpt><trkpt lat="43.8113538" lon="3.7414786"><ele>177.0</ele><time>2026-04-12T13:47:36.18Z</time></trkpt><trkpt lat="43.8111766" lon="3.7413861"><ele>177.0</ele><time>2026-04-12T13:47:37.181Z</time></trkpt><trkpt lat="43.8109922" lon="3.7413227"><ele>177.0</ele><time>2026-04-12T13:47:38.18Z</time></trkpt><trkpt lat="43.8108065" lon="3.7412828"><ele>177.0</ele><time>2026-04-12T13:47:39.18Z</time></trkpt><trkpt lat="43.8106215" lon="3.7412717"><ele>176.66666666666666</ele><time>2026-04-12T13:47:40.18Z</time></trkpt><trkpt lat="43.8104293" lon="3.7412875"><ele>176.33333333333331</ele><time>2026-04-12T13:47:41.18Z</time></trkpt><trkpt lat="43.8102422" lon="3.7413239"><ele>176.0</ele><time>2026-04-12T13:47:42.18Z</time></trkpt><trkpt lat="43.8100534" lon="3.7413821"><ele>175.0</ele><time>2026-04-12T13:47:43.18Z</time></trkpt><trkpt lat="43.8098611" lon="3.7414521"><ele>174.0</ele><time>2026-04-12T13:47:44.181Z</time></trkpt><trkpt lat="43.8096654" lon="3.7415214"><ele>173.0</ele><time>2026-04-12T13:47:45.18Z</time></trkpt><trkpt lat="43.8094622" lon="3.7415741"><ele>173.66666666666666</ele><time>2026-04-12T13:47:46.181Z</time></trkpt><trkpt lat="43.8092583" lon="3.7416104"><ele>174.33333333333334</ele><time>2026-04-12T13:47:47.181Z</time></trkpt><trkpt lat="43.8090489" lon="3.7416184"><ele>175.0</ele><time>2026-04-12T13:47:48.18Z</time></trkpt><trkpt lat="43.8088382" lon="3.7415825"><ele>175.0</ele><time>2026-04-12T13:47:49.18Z</time></trkpt><trkpt lat="43.8086319" lon="3.7415156"><ele>175.0</ele><time>2026-04-12T13:47:50.181Z</time></trkpt><trkpt lat="43.8084293" lon="3.7414204"><ele>175.0</ele><time>2026-04-12T13:47:51.18Z</time></trkpt><trkpt lat="43.8082385" lon="3.741305"><ele>175.66666666666669</ele><time>2026-04-12T13:47:52.181Z</time></trkpt><trkpt lat="43.8080608" lon="3.741171"><ele>176.33333333333334</ele><time>2026-04-12T13:47:53.181Z</time></trkpt><trkpt lat="43.8078862" lon="3.7410213"><ele>177.0</ele><time>2026-04-12T13:47:54.181Z</time></trkpt><trkpt lat="43.8077161" lon="3.7408648"><ele>177.66666666666666</ele><time>2026-04-12T13:47:55.18Z</time></trkpt><trkpt lat="43.8075506" lon="3.7407029"><ele>178.33333333333331</ele><time>2026-04-12T13:47:56.18Z</time></trkpt><trkpt lat="43.8073843" lon="3.7405445"><ele>179.0</ele><time>2026-04-12T13:47:57.181Z</time></trkpt><trkpt lat="43.8072178" lon="3.7403881"><ele>179.0</ele><time>2026-04-12T13:47:58.18Z</time></trkpt><trkpt lat="43.8070516" lon="3.7402305"><ele>179.0</ele><time>2026-04-12T13:47:59.18Z</time></trkpt><trkpt lat="43.8068836" lon="3.7400755"><ele>179.0</ele><time>2026-04-12T13:48:00.18Z</time></trkpt><trkpt lat="43.8067075" lon="3.7399201"><ele>181.0</ele><time>2026-04-12T13:48:01.18Z</time></trkpt><trkpt lat="43.8065215" lon="3.7397681"><ele>183.0</ele><time>2026-04-12T13:48:02.18Z</time></trkpt><trkpt lat="43.8063271" lon="3.7396044"><ele>185.0</ele><time>2026-04-12T13:48:03.181Z</time></trkpt><trkpt lat="43.8061209" lon="3.7394286"><ele>187.5</ele><time>2026-04-12T13:48:04.181Z</time></trkpt><trkpt lat="43.8059061" lon="3.7392385"><ele>190.0</ele><time>2026-04-12T13:48:05.181Z</time></trkpt><trkpt lat="43.8056912" lon="3.739045"><ele>190.0</ele><time>2026-04-12T13:48:06.181Z</time></trkpt><trkpt lat="43.8054781" lon="3.7388433"><ele>190.0</ele><time>2026-04-12T13:48:07.18Z</time></trkpt><trkpt lat="43.8052564" lon="3.7386587"><ele>192.5</ele><time>2026-04-12T13:48:08.179Z</time></trkpt><trkpt lat="43.8050274" lon="3.7385044"><ele>195.0</ele><time>2026-04-12T13:48:09.18Z</time></trkpt><trkpt lat="43.8047857" lon="3.7383833"><ele>195.0</ele><time>2026-04-12T13:48:10.181Z</time></trkpt><trkpt lat="43.8045351" lon="3.7382949"><ele>195.0</ele><time>2026-04-12T13:48:11.181Z</time></trkpt><trkpt lat="43.8042819" lon="3.7382346"><ele>193.0</ele><time>2026-04-12T13:48:12.18Z</time></trkpt><trkpt lat="43.8040301" lon="3.73819"><ele>191.0</ele><time>2026-04-12T13:48:13.18Z</time></trkpt><trkpt lat="43.8037774" lon="3.7381482"><ele>191.0</ele><time>2026-04-12T13:48:14.18Z</time></trkpt><trkpt lat="43.803514" lon="3.7381054"><ele>191.0</ele><time>2026-04-12T13:48:15.181Z</time></trkpt><trkpt lat="43.8032251" lon="3.7380494"><ele>191.5</ele><time>2026-04-12T13:48:16.18Z</time></trkpt><trkpt lat="43.8029136" lon="3.7379924"><ele>192.0</ele><time>2026-04-12T13:48:17.181Z</time></trkpt><trkpt lat="43.8026003" lon="3.7379339"><ele>193.5</ele><time>2026-04-12T13:48:18.18Z</time></trkpt><trkpt lat="43.8022878" lon="3.7378873"><ele>195.0</ele><time>2026-04-12T13:48:19.18Z</time></trkpt><trkpt lat="43.8019753" lon="3.7378848"><ele>197.5</ele><time>2026-04-12T13:48:20.181Z</time></trkpt><trkpt lat="43.8016731" lon="3.7378984"><ele>200.0</ele><time>2026-04-12T13:48:21.18Z</time></trkpt><trkpt lat="43.8013801" lon="3.7379593"><ele>200.0</ele><time>2026-04-12T13:48:22.181Z</time></trkpt><trkpt lat="43.801091" lon="3.738031"><ele>200.0</ele><time>2026-04-12T13:48:23.18Z</time></trkpt><trkpt lat="43.8008069" lon="3.7381106"><ele>201.0</ele><time>2026-04-12T13:48:24.18Z</time></trkpt><trkpt lat="43.8005356" lon="3.7382027"><ele>202.0</ele><time>2026-04-12T13:48:25.18Z</time></trkpt><trkpt lat="43.800272" lon="3.7383079"><ele>202.0</ele><time>2026-04-12T13:48:26.181Z</time></trkpt><trkpt lat="43.8000164" lon="3.7384407"><ele>202.0</ele><time>2026-04-12T13:48:27.181Z</time></trkpt><trkpt lat="43.7997653" lon="3.7385833"><ele>202.0</ele><time>2026-04-12T13:48:28.18Z</time></trkpt><trkpt lat="43.7995143" lon="3.7387384"><ele>202.0</ele><time>2026-04-12T13:48:29.18Z</time></trkpt><trkpt lat="43.7992676" lon="3.7388964"><ele>199.5</ele><time>2026-04-12T13:48:30.181Z</time></trkpt><trkpt lat="43.7990183" lon="3.7390554"><ele>197.0</ele><time>2026-04-12T13:48:31.181Z</time></trkpt><trkpt lat="43.7987689" lon="3.7392139"><ele>197.0</ele><time>2026-04-12T13:48:32.181Z</time></trkpt><trkpt lat="43.7985132" lon="3.739374"><ele>197.0</ele><time>2026-04-12T13:48:33.18Z</time></trkpt><trkpt lat="43.7982469" lon="3.7395212"><ele>194.0</ele><time>2026-04-12T13:48:34.18Z</time></trkpt><trkpt lat="43.7979728" lon="3.7396566"><ele>191.0</ele><time>2026-04-12T13:48:35.18Z</time></trkpt><trkpt lat="43.7976957" lon="3.7397656"><ele>188.0</ele><time>2026-04-12T13:48:36.18Z</time></trkpt><trkpt lat="43.7974073" lon="3.7398532"><ele>185.0</ele><time>2026-04-12T13:48:37.181Z</time></trkpt><trkpt lat="43.7971087" lon="3.7399033"><ele>183.0</ele><time>2026-04-12T13:48:38.181Z</time></trkpt><trkpt lat="43.7967957" lon="3.7399166"><ele>181.0</ele><time>2026-04-12T13:48:39.18Z</time></trkpt><trkpt lat="43.7964862" lon="3.7398948"><ele>181.0</ele><time>2026-04-12T13:48:40.18Z</time></trkpt><trkpt lat="43.7961839" lon="3.7398495"><ele>181.0</ele><time>2026-04-12T13:48:41.18Z</time></trkpt><trkpt lat="43.7958841" lon="3.7397773"><ele>181.0</ele><time>2026-04-12T13:48:42.181Z</time></trkpt><trkpt lat="43.7955892" lon="3.7396719"><ele>181.0</ele><time>2026-04-12T13:48:43.181Z</time></trkpt><trkpt lat="43.7953077" lon="3.7395328"><ele>181.5</ele><time>2026-04-12T13:48:44.18Z</time></trkpt><trkpt lat="43.7950372" lon="3.7393638"><ele>182.0</ele><time>2026-04-12T13:48:45.18Z</time></trkpt><trkpt lat="43.7947841" lon="3.7391692"><ele>182.0</ele><time>2026-04-12T13:48:46.18Z</time></trkpt><trkpt lat="43.79454" lon="3.7389388"><ele>182.0</ele><time>2026-04-12T13:48:47.18Z</time></trkpt><trkpt lat="43.7942954" lon="3.7387021"><ele>182.5</ele><time>2026-04-12T13:48:48.181Z</time></trkpt><trkpt lat="43.7940516" lon="3.738449"><ele>183.0</ele><time>2026-04-12T13:48:49.18Z</time></trkpt><trkpt lat="43.7938061" lon="3.7382003"><ele>183.0</ele><time>2026-04-12T13:48:50.18Z</time></trkpt><trkpt lat="43.7935603" lon="3.7379519"><ele>183.0</ele><time>2026-04-12T13:48:51.181Z</time></trkpt><trkpt lat="43.7933167" lon="3.7377125"><ele>183.5</ele><time>2026-04-12T13:48:52.181Z</time></trkpt><trkpt lat="43.7930645" lon="3.7374962"><ele>184.0</ele><time>2026-04-12T13:48:53.181Z</time></trkpt><trkpt lat="43.792807" lon="3.7373005"><ele>187.5</ele><time>2026-04-12T13:48:54.18Z</time></trkpt><trkpt lat="43.792545" lon="3.7371371"><ele>191.0</ele><time>2026-04-12T13:48:55.18Z</time></trkpt><trkpt lat="43.7922746" lon="3.7369936"><ele>191.0</ele><time>2026-04-12T13:48:56.179Z</time></trkpt><trkpt lat="43.7919993" lon="3.736886"><ele>191.0</ele><time>2026-04-12T13:48:57.179Z</time></trkpt><trkpt lat="43.7917233" lon="3.7368109"><ele>191.0</ele><time>2026-04-12T13:48:58.179Z</time></trkpt><trkpt lat="43.7914464" lon="3.7367536"><ele>191.0</ele><time>2026-04-12T13:48:59.179Z</time></trkpt><trkpt lat="43.7911712" lon="3.736716"><ele>190.0</ele><time>2026-04-12T13:49:00.179Z</time></trkpt><trkpt lat="43.7909106" lon="3.736695"><ele>189.0</ele><time>2026-04-12T13:49:01.18Z</time></trkpt><trkpt lat="43.7906757" lon="3.736688"><ele>189.0</ele><time>2026-04-12T13:49:02.179Z</time></trkpt><trkpt lat="43.7904621" lon="3.7366907"><ele>189.0</ele><time>2026-04-12T13:49:03.179Z</time></trkpt><trkpt lat="43.7902641" lon="3.7366907"><ele>189.0</ele><time>2026-04-12T13:49:04.179Z</time></trkpt><trkpt lat="43.7900901" lon="3.7366863"><ele>188.75</ele><time>2026-04-12T13:49:05.18Z</time></trkpt><trkpt lat="43.7899384" lon="3.7366868"><ele>188.5</ele><time>2026-04-12T13:49:06.179Z</time></trkpt><trkpt lat="43.7898117" lon="3.7366567"><ele>188.25</ele><time>2026-04-12T13:49:07.179Z</time></trkpt><trkpt lat="43.7897058" lon="3.7366002"><ele>188.0</ele><time>2026-04-12T13:49:08.18Z</time></trkpt><trkpt lat="43.7896045" lon="3.7365189"><ele>188.0</ele><time>2026-04-12T13:49:09.179Z</time></trkpt><trkpt lat="43.7895188" lon="3.7364648"><ele>188.0</ele><time>2026-04-12T13:49:10.179Z</time></trkpt><trkpt lat="43.7894185" lon="3.7364498"><ele>188.0</ele><time>2026-04-12T13:49:11.179Z</time></trkpt><trkpt lat="43.7893156" lon="3.7364796"><ele>188.0</ele><time>2026-04-12T13:49:12.18Z</time></trkpt><trkpt lat="43.7891999" lon="3.7365273"><ele>188.0</ele><time>2026-04-12T13:49:13.18Z</time></trkpt><trkpt lat="43.7890529" lon="3.7365608"><ele>188.33333333333331</ele><time>2026-04-12T13:49:14.179Z</time></trkpt><trkpt lat="43.788886" lon="3.7365835"><ele>188.66666666666666</ele><time>2026-04-12T13:49:15.179Z</time></trkpt><trkpt lat="43.7886811" lon="3.7365531"><ele>189.0</ele><time>2026-04-12T13:49:16.18Z</time></trkpt><trkpt lat="43.7884421" lon="3.7365166"><ele>190.5</ele><time>2026-04-12T13:49:17.179Z</time></trkpt><trkpt lat="43.7881574" lon="3.7364472"><ele>192.0</ele><time>2026-04-12T13:49:18.179Z</time></trkpt><trkpt lat="43.7878458" lon="3.7363426"><ele>194.5</ele><time>2026-04-12T13:49:19.179Z</time></trkpt><trkpt lat="43.7875334" lon="3.73625"><ele>197.0</ele><time>2026-04-12T13:49:20.179Z</time></trkpt><trkpt lat="43.7872319" lon="3.7361926"><ele>197.0</ele><time>2026-04-12T13:49:21.18Z</time></trkpt><trkpt lat="43.7869047" lon="3.7361611"><ele>197.0</ele><time>2026-04-12T13:49:22.18Z</time></trkpt><trkpt lat="43.7865659" lon="3.7361615"><ele>197.0</ele><time>2026-04-12T13:49:23.18Z</time></trkpt><trkpt lat="43.7862392" lon="3.7361981"><ele>197.0</ele><time>2026-04-12T13:49:24.179Z</time></trkpt><trkpt lat="43.7859176" lon="3.7362587"><ele>195.0</ele><time>2026-04-12T13:49:25.179Z</time></trkpt><trkpt lat="43.7856497" lon="3.7363499"><ele>193.0</ele><time>2026-04-12T13:49:26.18Z</time></trkpt><trkpt lat="43.7853909" lon="3.7364484"><ele>194.0</ele><time>2026-04-12T13:49:27.18Z</time></trkpt><trkpt lat="43.7851529" lon="3.7365498"><ele>195.0</ele><time>2026-04-12T13:49:28.18Z</time></trkpt><trkpt lat="43.7849395" lon="3.7366503"><ele>195.0</ele><time>2026-04-12T13:49:29.179Z</time></trkpt><trkpt lat="43.7847278" lon="3.7367262"><ele>195.0</ele><time>2026-04-12T13:49:30.179Z</time></trkpt><trkpt lat="43.7845261" lon="3.736786"><ele>195.0</ele><time>2026-04-12T13:49:31.18Z</time></trkpt><trkpt lat="43.7843382" lon="3.7368085"><ele>196.0</ele><time>2026-04-12T13:49:32.179Z</time></trkpt><trkpt lat="43.7841638" lon="3.7367866"><ele>197.0</ele><time>2026-04-12T13:49:33.179Z</time></trkpt><trkpt lat="43.7840076" lon="3.7367301"><ele>198.0</ele><time>2026-04-12T13:49:34.179Z</time></trkpt><trkpt lat="43.7838646" lon="3.7366476"><ele>198.0</ele><time>2026-04-12T13:49:35.179Z</time></trkpt><trkpt lat="43.7837475" lon="3.7365639"><ele>198.0</ele><time>2026-04-12T13:49:36.18Z</time></trkpt><trkpt lat="43.7836447" lon="3.7364734"><ele>198.0</ele><time>2026-04-12T13:49:37.179Z</time></trkpt><trkpt lat="43.7835692" lon="3.7363641"><ele>198.0</ele><time>2026-04-12T13:49:38.179Z</time></trkpt><trkpt lat="43.7835153" lon="3.7362416"><ele>198.4</ele><time>2026-04-12T13:49:39.18Z</time></trkpt><trkpt lat="43.7834949" lon="3.7361059"><ele>198.8</ele><time>2026-04-12T13:49:40.179Z</time></trkpt><trkpt lat="43.7834598" lon="3.7359661"><ele>199.2</ele><time>2026-04-12T13:49:41.179Z</time></trkpt><trkpt lat="43.7833996" lon="3.7358798"><ele>199.6</ele><time>2026-04-12T13:49:42.179Z</time></trkpt><trkpt lat="43.7833236" lon="3.7358178"><ele>200.0</ele><time>2026-04-12T13:49:43.179Z</time></trkpt><trkpt lat="43.7832437" lon="3.7358017"><ele>200.00000000000003</ele><time>2026-04-12T13:49:44.18Z</time></trkpt><trkpt lat="43.7831627" lon="3.7358229"><ele>200.0</ele><time>2026-04-12T13:49:45.18Z</time></trkpt><trkpt lat="43.783091" lon="3.7358952"><ele>200.0</ele><time>2026-04-12T13:49:46.179Z</time></trkpt><trkpt lat="43.7830348" lon="3.7359849"><ele>200.0</ele><time>2026-04-12T13:49:47.179Z</time></trkpt><trkpt lat="43.7830055" lon="3.7361015"><ele>200.00000000000003</ele><time>2026-04-12T13:49:48.18Z</time></trkpt><trkpt lat="43.7829996" lon="3.7362172"><ele>200.0</ele><time>2026-04-12T13:49:49.179Z</time></trkpt><trkpt lat="43.7830233" lon="3.7363322"><ele>200.50000000000003</ele><time>2026-04-12T13:49:50.179Z</time></trkpt><trkpt lat="43.7830442" lon="3.7364611"><ele>201.0</ele><time>2026-04-12T13:49:51.179Z</time></trkpt><trkpt lat="43.7830385" lon="3.736585"><ele>201.5</ele><time>2026-04-12T13:49:52.18Z</time></trkpt><trkpt lat="43.7830057" lon="3.7366912"><ele>202.0</ele><time>2026-04-12T13:49:53.179Z</time></trkpt><trkpt lat="43.7829482" lon="3.736774"><ele>202.50000000000003</ele><time>2026-04-12T13:49:54.179Z</time></trkpt><trkpt lat="43.7828743" lon="3.7368262"><ele>203.0</ele><time>2026-04-12T13:49:55.179Z</time></trkpt><trkpt lat="43.7827951" lon="3.7368613"><ele>202.4</ele><time>2026-04-12T13:49:56.18Z</time></trkpt><trkpt lat="43.7827235" lon="3.7368938"><ele>201.8</ele><time>2026-04-12T13:49:57.179Z</time></trkpt><trkpt lat="43.7826651" lon="3.7369398"><ele>201.2</ele><time>2026-04-12T13:49:58.179Z</time></trkpt><trkpt lat="43.7825899" lon="3.7370653"><ele>200.6</ele><time>2026-04-12T13:50:00.179Z</time></trkpt><trkpt lat="43.7826296" lon="3.7372134"><ele>200.0</ele><time>2026-04-12T13:50:02.179Z</time></trkpt><trkpt lat="43.7827087" lon="3.7373454"><ele>200.0</ele><time>2026-04-12T13:50:04.18Z</time></trkpt><trkpt lat="43.7828315" lon="3.7373969"><ele>200.0</ele><time>2026-04-12T13:50:06.18Z</time></trkpt><trkpt lat="43.7829479" lon="3.7373922"><ele>200.0</ele><time>2026-04-12T13:50:08.18Z</time></trkpt><trkpt lat="43.7830249" lon="3.7373317"><ele>200.0</ele><time>2026-04-12T13:50:10.18Z</time></trkpt><trkpt lat="43.7830477" lon="3.7372361"><ele>200.0</ele><time>2026-04-12T13:50:12.179Z</time></trkpt><trkpt lat="43.7829864" lon="3.7371738"><ele>200.00000000000003</ele><time>2026-04-12T13:50:14.179Z</time></trkpt><trkpt lat="43.7829199" lon="3.7372014"><ele>200.0</ele><time>2026-04-12T13:50:17.179Z</time></trkpt><trkpt lat="43.7828534" lon="3.7372866"><ele>200.0</ele><time>2026-04-12T13:54:21.179Z</time></trkpt><trkpt lat="43.7827993" lon="3.7373657"><ele>200.0</ele><time>2026-04-12T13:54:23.18Z</time></trkpt><trkpt lat="43.7827169" lon="3.737349"><ele>200.00000000000003</ele><time>2026-04-12T13:54:25.179Z</time></trkpt><trkpt lat="43.7826631" lon="3.7372457"><ele>200.0</ele><time>2026-04-12T13:54:27.179Z</time></trkpt><trkpt lat="43.7826459" lon="3.737127"><ele>200.00000000000003</ele><time>2026-04-12T13:54:29.18Z</time></trkpt><trkpt lat="43.7826546" lon="3.7369934"><ele>200.0</ele><time>2026-04-12T13:54:31.179Z</time></trkpt><trkpt lat="43.7827072" lon="3.7369302"><ele>200.0</ele><time>2026-04-12T13:54:32.179Z</time></trkpt><trkpt lat="43.7827743" lon="3.7368769"><ele>200.0</ele><time>2026-04-12T13:54:33.179Z</time></trkpt><trkpt lat="43.7828431" lon="3.7368357"><ele>200.00000000000003</ele><time>2026-04-12T13:54:34.179Z</time></trkpt><trkpt lat="43.7829163" lon="3.7368009"><ele>200.0</ele><time>2026-04-12T13:54:35.18Z</time></trkpt><trkpt lat="43.7829841" lon="3.7367565"><ele>200.50000000000003</ele><time>2026-04-12T13:54:36.179Z</time></trkpt><trkpt lat="43.7830444" lon="3.7367024"><ele>201.0</ele><time>2026-04-12T13:54:37.18Z</time></trkpt><trkpt lat="43.7830871" lon="3.7366332"><ele>201.5</ele><time>2026-04-12T13:54:38.179Z</time></trkpt><trkpt lat="43.7831899" lon="3.736542"><ele>202.0</ele><time>2026-04-12T13:54:40.179Z</time></trkpt><trkpt lat="43.7832629" lon="3.7365137"><ele>202.50000000000003</ele><time>2026-04-12T13:54:41.179Z</time></trkpt><trkpt lat="43.7833387" lon="3.7364823"><ele>203.0</ele><time>2026-04-12T13:54:42.179Z</time></trkpt><trkpt lat="43.7834053" lon="3.7364156"><ele>203.00000000000003</ele><time>2026-04-12T13:54:43.179Z</time></trkpt><trkpt lat="43.78346" lon="3.7363199"><ele>203.0</ele><time>2026-04-12T13:54:44.18Z</time></trkpt><trkpt lat="43.7834878" lon="3.736216"><ele>203.0</ele><time>2026-04-12T13:54:45.179Z</time></trkpt><trkpt lat="43.7834747" lon="3.7361084"><ele>203.0</ele><time>2026-04-12T13:54:46.18Z</time></trkpt><trkpt lat="43.7834446" lon="3.7359986"><ele>203.00000000000003</ele><time>2026-04-12T13:54:47.18Z</time></trkpt><trkpt lat="43.7833967" lon="3.7359028"><ele>203.0</ele><time>2026-04-12T13:54:48.18Z</time></trkpt><trkpt lat="43.7833269" lon="3.7358551"><ele>203.0</ele><time>2026-04-12T13:54:49.179Z</time></trkpt><trkpt lat="43.783248" lon="3.7358324"><ele>203.0</ele><time>2026-04-12T13:54:50.179Z</time></trkpt><trkpt lat="43.7831713" lon="3.7358477"><ele>203.0</ele><time>2026-04-12T13:54:51.179Z</time></trkpt><trkpt lat="43.7830892" lon="3.7359095"><ele>203.0</ele><time>2026-04-12T13:54:52.18Z</time></trkpt><trkpt lat="43.7829891" lon="3.7360117"><ele>203.0</ele><time>2026-04-12T13:54:53.179Z</time></trkpt><trkpt lat="43.7828679" lon="3.7360975"><ele>203.0</ele><time>2026-04-12T13:54:54.179Z</time></trkpt><trkpt lat="43.7827146" lon="3.7361731"><ele>203.0</ele><time>2026-04-12T13:54:55.18Z</time></trkpt><trkpt lat="43.7825452" lon="3.7362329"><ele>203.0</ele><time>2026-04-12T13:54:56.179Z</time></trkpt><trkpt lat="43.7823557" lon="3.7362875"><ele>202.0</ele><time>2026-04-12T13:54:57.18Z</time></trkpt><trkpt lat="43.7821489" lon="3.7363426"><ele>201.0</ele><time>2026-04-12T13:54:58.179Z</time></trkpt><trkpt lat="43.7819112" lon="3.7364338"><ele>202.0</ele><time>2026-04-12T13:54:59.179Z</time></trkpt><trkpt lat="43.7816468" lon="3.7365865"><ele>203.0</ele><time>2026-04-12T13:55:00.18Z</time></trkpt><trkpt lat="43.7813385" lon="3.7367641"><ele>204.0</ele><time>2026-04-12T13:55:01.179Z</time></trkpt><trkpt lat="43.7810013" lon="3.7369682"><ele>205.0</ele><time>2026-04-12T13:55:02.179Z</time></trkpt><trkpt lat="43.7806642" lon="3.737171"><ele>205.0</ele><time>2026-04-12T13:55:03.179Z</time></trkpt><trkpt lat="43.7803478" lon="3.7373703"><ele>205.0</ele><time>2026-04-12T13:55:04.179Z</time></trkpt><trkpt lat="43.7800585" lon="3.737553"><ele>207.0</ele><time>2026-04-12T13:55:05.179Z</time></trkpt><trkpt lat="43.7797959" lon="3.7377337"><ele>209.0</ele><time>2026-04-12T13:55:06.18Z</time></trkpt><trkpt lat="43.7795532" lon="3.7379313"><ele>211.0</ele><time>2026-04-12T13:55:07.179Z</time></trkpt><trkpt lat="43.7793345" lon="3.7381559"><ele>213.0</ele><time>2026-04-12T13:55:08.179Z</time></trkpt><trkpt lat="43.7791432" lon="3.7383939"><ele>214.0</ele><time>2026-04-12T13:55:09.179Z</time></trkpt><trkpt lat="43.7789668" lon="3.7386318"><ele>215.0</ele><time>2026-04-12T13:55:10.179Z</time></trkpt><trkpt lat="43.7788" lon="3.7388829"><ele>215.0</ele><time>2026-04-12T13:55:11.179Z</time></trkpt><trkpt lat="43.7786256" lon="3.7391421"><ele>215.0</ele><time>2026-04-12T13:55:12.179Z</time></trkpt><trkpt lat="43.7784268" lon="3.7394018"><ele>216.5</ele><time>2026-04-12T13:55:13.18Z</time></trkpt><trkpt lat="43.7782021" lon="3.7396658"><ele>218.0</ele><time>2026-04-12T13:55:14.179Z</time></trkpt><trkpt lat="43.7779608" lon="3.739955"><ele>217.0</ele><time>2026-04-12T13:55:15.18Z</time></trkpt><trkpt lat="43.7777262" lon="3.7402716"><ele>216.0</ele><time>2026-04-12T13:55:16.179Z</time></trkpt><trkpt lat="43.7775013" lon="3.7405968"><ele>219.5</ele><time>2026-04-12T13:55:17.179Z</time></trkpt><trkpt lat="43.7772855" lon="3.7408862"><ele>223.0</ele><time>2026-04-12T13:55:18.179Z</time></trkpt><trkpt lat="43.7770596" lon="3.7411239"><ele>228.0</ele><time>2026-04-12T13:55:19.179Z</time></trkpt><trkpt lat="43.7768318" lon="3.7413191"><ele>233.0</ele><time>2026-04-12T13:55:20.179Z</time></trkpt><trkpt lat="43.7765679" lon="3.7414905"><ele>233.0</ele><time>2026-04-12T13:55:21.179Z</time></trkpt><trkpt lat="43.7763018" lon="3.7416606"><ele>233.0</ele><time>2026-04-12T13:55:22.18Z</time></trkpt><trkpt lat="43.7760255" lon="3.7418332"><ele>231.5</ele><time>2026-04-12T13:55:23.18Z</time></trkpt><trkpt lat="43.7757364" lon="3.7420481"><ele>230.0</ele><time>2026-04-12T13:55:24.18Z</time></trkpt><trkpt lat="43.7754305" lon="3.7423309"><ele>233.5</ele><time>2026-04-12T13:55:25.179Z</time></trkpt><trkpt lat="43.7751449" lon="3.7426203"><ele>237.0</ele><time>2026-04-12T13:55:26.179Z</time></trkpt><trkpt lat="43.7749035" lon="3.7429063"><ele>237.0</ele><time>2026-04-12T13:55:27.179Z</time></trkpt><trkpt lat="43.7746959" lon="3.7432037"><ele>237.0</ele><time>2026-04-12T13:55:28.179Z</time></trkpt><trkpt lat="43.7744859" lon="3.7435186"><ele>243.0</ele><time>2026-04-12T13:55:29.179Z</time></trkpt><trkpt lat="43.7742806" lon="3.7438401"><ele>249.0</ele><time>2026-04-12T13:55:30.179Z</time></trkpt><trkpt lat="43.7740633" lon="3.7441366"><ele>246.0</ele><time>2026-04-12T13:55:31.18Z</time></trkpt><trkpt lat="43.7738173" lon="3.7444096"><ele>243.0</ele><time>2026-04-12T13:55:32.179Z</time></trkpt><trkpt lat="43.7735446" lon="3.7446645"><ele>246.0</ele><time>2026-04-12T13:55:33.18Z</time></trkpt><trkpt lat="43.7732471" lon="3.7449156"><ele>249.0</ele><time>2026-04-12T13:55:34.179Z</time></trkpt><trkpt lat="43.7729357" lon="3.7451615"><ele>258.5</ele><time>2026-04-12T13:55:35.18Z</time></trkpt><trkpt lat="43.772635" lon="3.7453964"><ele>268.0</ele><time>2026-04-12T13:55:36.179Z</time></trkpt><trkpt lat="43.7723415" lon="3.7455974"><ele>268.0</ele><time>2026-04-12T13:55:37.18Z</time></trkpt><trkpt lat="43.7720553" lon="3.7457667"><ele>268.0</ele><time>2026-04-12T13:55:38.179Z</time></trkpt><trkpt lat="43.7717805" lon="3.7459078"><ele>270.5</ele><time>2026-04-12T13:55:39.18Z</time></trkpt><trkpt lat="43.7715046" lon="3.746004"><ele>273.0</ele><time>2026-04-12T13:55:40.179Z</time></trkpt><trkpt lat="43.7712321" lon="3.7460767"><ele>272.0</ele><time>2026-04-12T13:55:41.18Z</time></trkpt><trkpt lat="43.7709637" lon="3.7461304"><ele>271.0</ele><time>2026-04-12T13:55:42.18Z</time></trkpt><trkpt lat="43.7706971" lon="3.7461464"><ele>271.0</ele><time>2026-04-12T13:55:43.18Z</time></trkpt><trkpt lat="43.7704415" lon="3.746151"><ele>271.0</ele><time>2026-04-12T13:55:44.179Z</time></trkpt><trkpt lat="43.7701838" lon="3.7461418"><ele>271.0</ele><time>2026-04-12T13:55:45.179Z</time></trkpt><trkpt lat="43.7699262" lon="3.7460981"><ele>271.0</ele><time>2026-04-12T13:55:46.18Z</time></trkpt><trkpt lat="43.7696699" lon="3.7460422"><ele>271.0</ele><time>2026-04-12T13:55:47.179Z</time></trkpt><trkpt lat="43.7694138" lon="3.7459734"><ele>271.0</ele><time>2026-04-12T13:55:48.179Z</time></trkpt><trkpt lat="43.7691596" lon="3.745904"><ele>269.5</ele><time>2026-04-12T13:55:49.179Z</time></trkpt><trkpt lat="43.7689035" lon="3.7458351"><ele>268.0</ele><time>2026-04-12T13:55:50.18Z</time></trkpt><trkpt lat="43.7686418" lon="3.7457677"><ele>268.0</ele><time>2026-04-12T13:55:51.18Z</time></trkpt><trkpt lat="43.768376" lon="3.745706"><ele>268.0</ele><time>2026-04-12T13:55:52.179Z</time></trkpt><trkpt lat="43.7681084" lon="3.745642"><ele>268.0</ele><time>2026-04-12T13:55:53.179Z</time></trkpt><trkpt lat="43.7678405" lon="3.7455742"><ele>268.0</ele><time>2026-04-12T13:55:54.179Z</time></trkpt><trkpt lat="43.7675662" lon="3.7455239"><ele>267.5</ele><time>2026-04-12T13:55:55.179Z</time></trkpt><trkpt lat="43.7672903" lon="3.7455156"><ele>267.0</ele><time>2026-04-12T13:55:56.179Z</time></trkpt><trkpt lat="43.7670152" lon="3.7455167"><ele>266.5</ele><time>2026-04-12T13:55:57.18Z</time></trkpt><trkpt lat="43.7667364" lon="3.7455456"><ele>266.0</ele><time>2026-04-12T13:55:58.18Z</time></trkpt><trkpt lat="43.7664623" lon="3.7455843"><ele>266.0</ele><time>2026-04-12T13:55:59.18Z</time></trkpt><trkpt lat="43.7661913" lon="3.7456197"><ele>266.0</ele><time>2026-04-12T13:56:00.179Z</time></trkpt><trkpt lat="43.7659218" lon="3.7456733"><ele>264.0</ele><time>2026-04-12T13:56:01.179Z</time></trkpt><trkpt lat="43.7656563" lon="3.7457497"><ele>262.0</ele><time>2026-04-12T13:56:02.179Z</time></trkpt><trkpt lat="43.7654065" lon="3.7458325"><ele>259.5</ele><time>2026-04-12T13:56:03.179Z</time></trkpt><trkpt lat="43.7651555" lon="3.7459342"><ele>257.0</ele><time>2026-04-12T13:56:04.179Z</time></trkpt><trkpt lat="43.7649002" lon="3.7460636"><ele>257.0</ele><time>2026-04-12T13:56:05.179Z</time></trkpt><trkpt lat="43.7646501" lon="3.7462013"><ele>257.0</ele><time>2026-04-12T13:56:06.179Z</time></trkpt><trkpt lat="43.764392" lon="3.7463429"><ele>256.0</ele><time>2026-04-12T13:56:07.179Z</time></trkpt><trkpt lat="43.7641302" lon="3.7464852"><ele>255.0</ele><time>2026-04-12T13:56:08.179Z</time></trkpt><trkpt lat="43.7638658" lon="3.7466219"><ele>255.0</ele><time>2026-04-12T13:56:09.18Z</time></trkpt><trkpt lat="43.7635957" lon="3.7467575"><ele>255.0</ele><time>2026-04-12T13:56:10.18Z</time></trkpt><trkpt lat="43.7633255" lon="3.7468914"><ele>254.0</ele><time>2026-04-12T13:56:11.179Z</time></trkpt><trkpt lat="43.7630537" lon="3.7470261"><ele>253.0</ele><time>2026-04-12T13:56:12.18Z</time></trkpt><trkpt lat="43.7627816" lon="3.7471616"><ele>252.0</ele><time>2026-04-12T13:56:13.18Z</time></trkpt><trkpt lat="43.7625108" lon="3.7472993"><ele>251.0</ele><time>2026-04-12T13:56:14.18Z</time></trkpt><trkpt lat="43.7622388" lon="3.7474385"><ele>251.0</ele><time>2026-04-12T13:56:15.179Z</time></trkpt><trkpt lat="43.7619742" lon="3.747571"><ele>251.0</ele><time>2026-04-12T13:56:16.179Z</time></trkpt><trkpt lat="43.7617223" lon="3.7477202"><ele>252.0</ele><time>2026-04-12T13:56:17.179Z</time></trkpt><trkpt lat="43.7614777" lon="3.7478678"><ele>253.0</ele><time>2026-04-12T13:56:18.18Z</time></trkpt><trkpt lat="43.7612325" lon="3.7480361"><ele>251.0</ele><time>2026-04-12T13:56:19.179Z</time></trkpt><trkpt lat="43.7609991" lon="3.7482251"><ele>249.0</ele><time>2026-04-12T13:56:20.18Z</time></trkpt><trkpt lat="43.7607731" lon="3.748433"><ele>251.0</ele><time>2026-04-12T13:56:21.18Z</time></trkpt><trkpt lat="43.7605515" lon="3.748646"><ele>253.0</ele><time>2026-04-12T13:56:22.179Z</time></trkpt><trkpt lat="43.7603321" lon="3.7488675"><ele>249.0</ele><time>2026-04-12T13:56:23.179Z</time></trkpt><trkpt lat="43.7601175" lon="3.7490771"><ele>245.0</ele><time>2026-04-12T13:56:24.179Z</time></trkpt><trkpt lat="43.7599087" lon="3.7492856"><ele>245.5</ele><time>2026-04-12T13:56:25.179Z</time></trkpt><trkpt lat="43.7597063" lon="3.7494742"><ele>246.0</ele><time>2026-04-12T13:56:26.179Z</time></trkpt><trkpt lat="43.7595115" lon="3.7496628"><ele>243.5</ele><time>2026-04-12T13:56:27.179Z</time></trkpt><trkpt lat="43.7593193" lon="3.7498398"><ele>241.0</ele><time>2026-04-12T13:56:28.179Z</time></trkpt><trkpt lat="43.7591359" lon="3.7500086"><ele>241.0</ele><time>2026-04-12T13:56:29.179Z</time></trkpt><trkpt lat="43.7589617" lon="3.7501748"><ele>241.0</ele><time>2026-04-12T13:56:30.179Z</time></trkpt><trkpt lat="43.7587936" lon="3.7503317"><ele>241.0</ele><time>2026-04-12T13:56:31.179Z</time></trkpt><trkpt lat="43.7586354" lon="3.7504646"><ele>240.75</ele><time>2026-04-12T13:56:32.179Z</time></trkpt><trkpt lat="43.7585084" lon="3.7505902"><ele>240.5</ele><time>2026-04-12T13:56:33.179Z</time></trkpt><trkpt lat="43.7583896" lon="3.7506889"><ele>240.25</ele><time>2026-04-12T13:56:34.179Z</time></trkpt><trkpt lat="43.7582714" lon="3.7507688"><ele>240.0</ele><time>2026-04-12T13:56:35.18Z</time></trkpt><trkpt lat="43.7581678" lon="3.750817"><ele>240.0</ele><time>2026-04-12T13:56:36.18Z</time></trkpt><trkpt lat="43.7580666" lon="3.750822"><ele>240.0</ele><time>2026-04-12T13:56:37.179Z</time></trkpt><trkpt lat="43.7579709" lon="3.7508353"><ele>240.0</ele><time>2026-04-12T13:56:38.179Z</time></trkpt><trkpt lat="43.7578765" lon="3.7508735"><ele>240.0</ele><time>2026-04-12T13:56:39.179Z</time></trkpt><trkpt lat="43.7578004" lon="3.750955"><ele>240.0</ele><time>2026-04-12T13:56:40.179Z</time></trkpt><trkpt lat="43.7577442" lon="3.7510764"><ele>239.25</ele><time>2026-04-12T13:56:41.18Z</time></trkpt><trkpt lat="43.7576828" lon="3.7512295"><ele>238.5</ele><time>2026-04-12T13:56:42.179Z</time></trkpt><trkpt lat="43.7575899" lon="3.7513721"><ele>237.75</ele><time>2026-04-12T13:56:43.179Z</time></trkpt><trkpt lat="43.7574717" lon="3.7515112"><ele>237.0</ele><time>2026-04-12T13:56:44.179Z</time></trkpt><trkpt lat="43.7573304" lon="3.7516767"><ele>237.0</ele><time>2026-04-12T13:56:45.179Z</time></trkpt><trkpt lat="43.7571564" lon="3.7518436"><ele>237.0</ele><time>2026-04-12T13:56:46.179Z</time></trkpt><trkpt lat="43.7569716" lon="3.7520311"><ele>237.0</ele><time>2026-04-12T13:56:47.18Z</time></trkpt><trkpt lat="43.7567823" lon="3.7522156"><ele>235.5</ele><time>2026-04-12T13:56:48.179Z</time></trkpt><trkpt lat="43.7565835" lon="3.7524141"><ele>234.0</ele><time>2026-04-12T13:56:49.179Z</time></trkpt><trkpt lat="43.7563823" lon="3.7526179"><ele>234.5</ele><time>2026-04-12T13:56:50.179Z</time></trkpt><trkpt lat="43.7561602" lon="3.7528318"><ele>235.0</ele><time>2026-04-12T13:56:51.178Z</time></trkpt><trkpt lat="43.7559091" lon="3.7530697"><ele>233.5</ele><time>2026-04-12T13:56:52.178Z</time></trkpt><trkpt lat="43.755638" lon="3.753332"><ele>232.0</ele><time>2026-04-12T13:56:53.179Z</time></trkpt><trkpt lat="43.7553661" lon="3.7535999"><ele>230.5</ele><time>2026-04-12T13:56:54.178Z</time></trkpt><trkpt lat="43.7551047" lon="3.7538617"><ele>229.0</ele><time>2026-04-12T13:56:55.178Z</time></trkpt><trkpt lat="43.7548462" lon="3.7541207"><ele>229.0</ele><time>2026-04-12T13:56:56.179Z</time></trkpt><trkpt lat="43.754581" lon="3.7543822"><ele>229.0</ele><time>2026-04-12T13:56:57.178Z</time></trkpt><trkpt lat="43.754316" lon="3.7546524"><ele>229.0</ele><time>2026-04-12T13:56:58.179Z</time></trkpt><trkpt lat="43.7540495" lon="3.7549255"><ele>229.0</ele><time>2026-04-12T13:56:59.179Z</time></trkpt><trkpt lat="43.7537776" lon="3.7552043"><ele>230.0</ele><time>2026-04-12T13:57:00.178Z</time></trkpt><trkpt lat="43.7534891" lon="3.7555012"><ele>231.0</ele><time>2026-04-12T13:57:01.178Z</time></trkpt><trkpt lat="43.753182" lon="3.7557966"><ele>231.0</ele><time>2026-04-12T13:57:02.179Z</time></trkpt><trkpt lat="43.7528598" lon="3.7561166"><ele>231.0</ele><time>2026-04-12T13:57:03.179Z</time></trkpt><trkpt lat="43.7525274" lon="3.7564408"><ele>231.0</ele><time>2026-04-12T13:57:04.178Z</time></trkpt><trkpt lat="43.7521924" lon="3.756767"><ele>231.0</ele><time>2026-04-12T13:57:05.179Z</time></trkpt><trkpt lat="43.7518561" lon="3.7570944"><ele>231.0</ele><time>2026-04-12T13:57:06.179Z</time></trkpt><trkpt lat="43.7515365" lon="3.7574107"><ele>231.0</ele><time>2026-04-12T13:57:07.179Z</time></trkpt><trkpt lat="43.751228" lon="3.7577048"><ele>231.0</ele><time>2026-04-12T13:57:08.178Z</time></trkpt><trkpt lat="43.7509403" lon="3.7579713"><ele>231.0</ele><time>2026-04-12T13:57:09.178Z</time></trkpt><trkpt lat="43.7506711" lon="3.7582271"><ele>231.0</ele><time>2026-04-12T13:57:10.178Z</time></trkpt><trkpt lat="43.7504158" lon="3.7584829"><ele>231.0</ele><time>2026-04-12T13:57:11.178Z</time></trkpt><trkpt lat="43.7501671" lon="3.7587333"><ele>229.5</ele><time>2026-04-12T13:57:12.178Z</time></trkpt><trkpt lat="43.7499142" lon="3.7589791"><ele>228.0</ele><time>2026-04-12T13:57:13.178Z</time></trkpt><trkpt lat="43.749669" lon="3.759228"><ele>228.0</ele><time>2026-04-12T13:57:14.179Z</time></trkpt><trkpt lat="43.7494271" lon="3.7594779"><ele>228.0</ele><time>2026-04-12T13:57:15.178Z</time></trkpt><trkpt lat="43.7491905" lon="3.7597245"><ele>227.0</ele><time>2026-04-12T13:57:16.178Z</time></trkpt><trkpt lat="43.7489556" lon="3.759973"><ele>226.0</ele><time>2026-04-12T13:57:17.178Z</time></trkpt><trkpt lat="43.7487301" lon="3.7602082"><ele>226.0</ele><time>2026-04-12T13:57:18.179Z</time></trkpt><trkpt lat="43.7485092" lon="3.760442"><ele>226.0</ele><time>2026-04-12T13:57:19.178Z</time></trkpt><trkpt lat="43.748301" lon="3.7606641"><ele>226.0</ele><time>2026-04-12T13:57:20.178Z</time></trkpt><trkpt lat="43.7480951" lon="3.7608624"><ele>226.0</ele><time>2026-04-12T13:57:21.178Z</time></trkpt><trkpt lat="43.7478929" lon="3.7610688"><ele>224.5</ele><time>2026-04-12T13:57:22.178Z</time></trkpt><trkpt lat="43.7476895" lon="3.761262"><ele>223.0</ele><time>2026-04-12T13:57:23.179Z</time></trkpt><trkpt lat="43.7474842" lon="3.7614655"><ele>223.0</ele><time>2026-04-12T13:57:24.179Z</time></trkpt><trkpt lat="43.7472726" lon="3.7616774"><ele>223.0</ele><time>2026-04-12T13:57:25.178Z</time></trkpt><trkpt lat="43.7470653" lon="3.7619025"><ele>223.5</ele><time>2026-04-12T13:57:26.178Z</time></trkpt><trkpt lat="43.7468524" lon="3.762131"><ele>224.0</ele><time>2026-04-12T13:57:27.179Z</time></trkpt><trkpt lat="43.7466365" lon="3.7623689"><ele>224.0</ele><time>2026-04-12T13:57:28.178Z</time></trkpt><trkpt lat="43.7464209" lon="3.7626205"><ele>224.0</ele><time>2026-04-12T13:57:29.178Z</time></trkpt><trkpt lat="43.7462168" lon="3.7628701"><ele>224.5</ele><time>2026-04-12T13:57:30.179Z</time></trkpt><trkpt lat="43.7460185" lon="3.7631229"><ele>225.0</ele><time>2026-04-12T13:57:31.178Z</time></trkpt><trkpt lat="43.7458331" lon="3.7633879"><ele>226.0</ele><time>2026-04-12T13:57:32.178Z</time></trkpt><trkpt lat="43.7456588" lon="3.7636485"><ele>227.0</ele><time>2026-04-12T13:57:33.178Z</time></trkpt><trkpt lat="43.7454985" lon="3.763905"><ele>227.0</ele><time>2026-04-12T13:57:34.178Z</time></trkpt><trkpt lat="43.7453288" lon="3.764177"><ele>227.0</ele><time>2026-04-12T13:57:35.178Z</time></trkpt><trkpt lat="43.7451567" lon="3.764459"><ele>226.5</ele><time>2026-04-12T13:57:36.179Z</time></trkpt><trkpt lat="43.7449892" lon="3.7647433"><ele>226.0</ele><time>2026-04-12T13:57:37.178Z</time></trkpt><trkpt lat="43.7448223" lon="3.7650248"><ele>227.0</ele><time>2026-04-12T13:57:38.178Z</time></trkpt><trkpt lat="43.7446702" lon="3.7652954"><ele>228.0</ele><time>2026-04-12T13:57:39.178Z</time></trkpt><trkpt lat="43.7445199" lon="3.765577"><ele>228.0</ele><time>2026-04-12T13:57:40.179Z</time></trkpt><trkpt lat="43.7443749" lon="3.7658778"><ele>228.0</ele><time>2026-04-12T13:57:41.178Z</time></trkpt><trkpt lat="43.7442202" lon="3.7661781"><ele>228.0</ele><time>2026-04-12T13:57:42.178Z</time></trkpt><trkpt lat="43.7440464" lon="3.7664656"><ele>228.0</ele><time>2026-04-12T13:57:43.179Z</time></trkpt><trkpt lat="43.7438725" lon="3.7667554"><ele>227.5</ele><time>2026-04-12T13:57:44.178Z</time></trkpt><trkpt lat="43.7437004" lon="3.7670491"><ele>227.0</ele><time>2026-04-12T13:57:45.178Z</time></trkpt><trkpt lat="43.7435291" lon="3.7673509"><ele>226.5</ele><time>2026-04-12T13:57:46.178Z</time></trkpt><trkpt lat="43.7433578" lon="3.7676549"><ele>226.0</ele><time>2026-04-12T13:57:47.179Z</time></trkpt><trkpt lat="43.7431833" lon="3.767951"><ele>226.0</ele><time>2026-04-12T13:57:48.178Z</time></trkpt><trkpt lat="43.7430073" lon="3.7682559"><ele>226.0</ele><time>2026-04-12T13:57:49.178Z</time></trkpt><trkpt lat="43.7428361" lon="3.7685714"><ele>226.5</ele><time>2026-04-12T13:57:50.178Z</time></trkpt><trkpt lat="43.7426654" lon="3.7688949"><ele>227.0</ele><time>2026-04-12T13:57:51.179Z</time></trkpt><trkpt lat="43.7425126" lon="3.7692304"><ele>228.5</ele><time>2026-04-12T13:57:52.178Z</time></trkpt><trkpt lat="43.7423713" lon="3.7695805"><ele>230.0</ele><time>2026-04-12T13:57:53.178Z</time></trkpt><trkpt lat="43.7422383" lon="3.7699329"><ele>232.0</ele><time>2026-04-12T13:57:54.178Z</time></trkpt><trkpt lat="43.7421114" lon="3.7702906"><ele>234.0</ele><time>2026-04-12T13:57:55.178Z</time></trkpt><trkpt lat="43.7419873" lon="3.7706485"><ele>231.5</ele><time>2026-04-12T13:57:56.178Z</time></trkpt><trkpt lat="43.741866" lon="3.7709944"><ele>229.0</ele><time>2026-04-12T13:57:57.179Z</time></trkpt><trkpt lat="43.7417427" lon="3.7713494"><ele>229.0</ele><time>2026-04-12T13:57:58.179Z</time></trkpt><trkpt lat="43.741614" lon="3.7716957"><ele>229.0</ele><time>2026-04-12T13:57:59.179Z</time></trkpt><trkpt lat="43.7414862" lon="3.7720339"><ele>229.5</ele><time>2026-04-12T13:58:00.178Z</time></trkpt><trkpt lat="43.7413593" lon="3.7723806"><ele>230.0</ele><time>2026-04-12T13:58:01.178Z</time></trkpt><trkpt lat="43.7412341" lon="3.7727361"><ele>230.0</ele><time>2026-04-12T13:58:02.178Z</time></trkpt><trkpt lat="43.741107" lon="3.7730774"><ele>230.0</ele><time>2026-04-12T13:58:03.178Z</time></trkpt><trkpt lat="43.7409836" lon="3.7734217"><ele>230.0</ele><time>2026-04-12T13:58:04.178Z</time></trkpt><trkpt lat="43.7408593" lon="3.773764"><ele>230.0</ele><time>2026-04-12T13:58:05.179Z</time></trkpt><trkpt lat="43.7407353" lon="3.774107"><ele>230.0</ele><time>2026-04-12T13:58:06.178Z</time></trkpt><trkpt lat="43.7406134" lon="3.7744528"><ele>230.0</ele><time>2026-04-12T13:58:07.178Z</time></trkpt><trkpt lat="43.7404894" lon="3.7748032"><ele>230.0</ele><time>2026-04-12T13:58:08.178Z</time></trkpt><trkpt lat="43.7403642" lon="3.7751496"><ele>230.0</ele><time>2026-04-12T13:58:09.179Z</time></trkpt><trkpt lat="43.74024" lon="3.7754812"><ele>231.0</ele><time>2026-04-12T13:58:10.179Z</time></trkpt><trkpt lat="43.7401327" lon="3.7757982"><ele>232.0</ele><time>2026-04-12T13:58:11.178Z</time></trkpt><trkpt lat="43.7400303" lon="3.7761127"><ele>230.0</ele><time>2026-04-12T13:58:12.179Z</time></trkpt><trkpt lat="43.7399482" lon="3.7764337"><ele>228.0</ele><time>2026-04-12T13:58:13.178Z</time></trkpt><trkpt lat="43.7398863" lon="3.7767578"><ele>226.5</ele><time>2026-04-12T13:58:14.178Z</time></trkpt><trkpt lat="43.739851" lon="3.7770887"><ele>225.0</ele><time>2026-04-12T13:58:15.178Z</time></trkpt><trkpt lat="43.739845" lon="3.7774291"><ele>223.5</ele><time>2026-04-12T13:58:16.178Z</time></trkpt><trkpt lat="43.7398542" lon="3.7777824"><ele>222.0</ele><time>2026-04-12T13:58:17.178Z</time></trkpt><trkpt lat="43.739856" lon="3.7781691"><ele>222.0</ele><time>2026-04-12T13:58:18.178Z</time></trkpt><trkpt lat="43.7398776" lon="3.778568"><ele>222.0</ele><time>2026-04-12T13:58:19.178Z</time></trkpt><trkpt lat="43.7398832" lon="3.778957"><ele>222.0</ele><time>2026-04-12T13:58:20.178Z</time></trkpt><trkpt lat="43.7398884" lon="3.7793732"><ele>222.0</ele><time>2026-04-12T13:58:21.178Z</time></trkpt><trkpt lat="43.7398935" lon="3.779782"><ele>222.0</ele><time>2026-04-12T13:58:22.179Z</time></trkpt><trkpt lat="43.7399014" lon="3.780175"><ele>222.0</ele><time>2026-04-12T13:58:23.179Z</time></trkpt><trkpt lat="43.7399169" lon="3.7805424"><ele>220.5</ele><time>2026-04-12T13:58:24.178Z</time></trkpt><trkpt lat="43.7399293" lon="3.7808909"><ele>219.0</ele><time>2026-04-12T13:58:25.179Z</time></trkpt><trkpt lat="43.7399315" lon="3.7812194"><ele>218.0</ele><time>2026-04-12T13:58:26.178Z</time></trkpt><trkpt lat="43.7399427" lon="3.7815301"><ele>217.0</ele><time>2026-04-12T13:58:27.178Z</time></trkpt><trkpt lat="43.7399511" lon="3.781836"><ele>216.0</ele><time>2026-04-12T13:58:28.178Z</time></trkpt><trkpt lat="43.7399548" lon="3.7821433"><ele>215.66666666666669</ele><time>2026-04-12T13:58:29.178Z</time></trkpt><trkpt lat="43.739965" lon="3.782431"><ele>215.33333333333334</ele><time>2026-04-12T13:58:30.178Z</time></trkpt><trkpt lat="43.7399626" lon="3.7827016"><ele>215.0</ele><time>2026-04-12T13:58:31.179Z</time></trkpt><trkpt lat="43.7399675" lon="3.7829773"><ele>213.66666666666669</ele><time>2026-04-12T13:58:32.179Z</time></trkpt><trkpt lat="43.7399631" lon="3.7832612"><ele>212.33333333333331</ele><time>2026-04-12T13:58:33.179Z</time></trkpt><trkpt lat="43.73995" lon="3.7835533"><ele>211.0</ele><time>2026-04-12T13:58:34.179Z</time></trkpt><trkpt lat="43.7399213" lon="3.7838303"><ele>209.66666666666666</ele><time>2026-04-12T13:58:35.179Z</time></trkpt><trkpt lat="43.7398691" lon="3.7840957"><ele>208.33333333333331</ele><time>2026-04-12T13:58:36.178Z</time></trkpt><trkpt lat="43.7397784" lon="3.7843551"><ele>207.0</ele><time>2026-04-12T13:58:37.179Z</time></trkpt><trkpt lat="43.7396759" lon="3.7846083"><ele>205.66666666666669</ele><time>2026-04-12T13:58:38.178Z</time></trkpt><trkpt lat="43.7395477" lon="3.7848358"><ele>204.33333333333334</ele><time>2026-04-12T13:58:39.178Z</time></trkpt><trkpt lat="43.7394107" lon="3.7850601"><ele>203.0</ele><time>2026-04-12T13:58:40.178Z</time></trkpt><trkpt lat="43.7392638" lon="3.7852726"><ele>202.66666666666669</ele><time>2026-04-12T13:58:41.178Z</time></trkpt><trkpt lat="43.7391223" lon="3.7854802"><ele>202.33333333333331</ele><time>2026-04-12T13:58:42.178Z</time></trkpt><trkpt lat="43.7389801" lon="3.7856745"><ele>202.0</ele><time>2026-04-12T13:58:43.179Z</time></trkpt><trkpt lat="43.7388395" lon="3.7858761"><ele>201.66666666666666</ele><time>2026-04-12T13:58:44.178Z</time></trkpt><trkpt lat="43.7386889" lon="3.7860825"><ele>201.33333333333331</ele><time>2026-04-12T13:58:45.178Z</time></trkpt><trkpt lat="43.7385214" lon="3.7863018"><ele>201.0</ele><time>2026-04-12T13:58:46.178Z</time></trkpt><trkpt lat="43.7383304" lon="3.7865339"><ele>201.0</ele><time>2026-04-12T13:58:47.179Z</time></trkpt><trkpt lat="43.7381196" lon="3.7867758"><ele>201.0</ele><time>2026-04-12T13:58:48.179Z</time></trkpt><trkpt lat="43.7379018" lon="3.7870204"><ele>200.0</ele><time>2026-04-12T13:58:49.179Z</time></trkpt><trkpt lat="43.7376839" lon="3.7872542"><ele>199.0</ele><time>2026-04-12T13:58:50.178Z</time></trkpt><trkpt lat="43.7374657" lon="3.7874949"><ele>196.5</ele><time>2026-04-12T13:58:51.179Z</time></trkpt><trkpt lat="43.7372475" lon="3.7877384"><ele>194.0</ele><time>2026-04-12T13:58:52.179Z</time></trkpt><trkpt lat="43.7370309" lon="3.7879939"><ele>196.0</ele><time>2026-04-12T13:58:53.178Z</time></trkpt><trkpt lat="43.7368113" lon="3.7882448"><ele>198.0</ele><time>2026-04-12T13:58:54.178Z</time></trkpt><trkpt lat="43.7365964" lon="3.7884963"><ele>195.5</ele><time>2026-04-12T13:58:55.179Z</time></trkpt><trkpt lat="43.7363778" lon="3.7887504"><ele>193.0</ele><time>2026-04-12T13:58:56.178Z</time></trkpt><trkpt lat="43.7361515" lon="3.7890083"><ele>193.5</ele><time>2026-04-12T13:58:57.178Z</time></trkpt><trkpt lat="43.7359224" lon="3.7892677"><ele>194.0</ele><time>2026-04-12T13:58:58.179Z</time></trkpt><trkpt lat="43.7356983" lon="3.7895159"><ele>194.0</ele><time>2026-04-12T13:58:59.179Z</time></trkpt><trkpt lat="43.7354762" lon="3.7897758"><ele>194.0</ele><time>2026-04-12T13:59:00.178Z</time></trkpt><trkpt lat="43.7352615" lon="3.7900341"><ele>193.5</ele><time>2026-04-12T13:59:01.178Z</time></trkpt><trkpt lat="43.7350487" lon="3.7903083"><ele>193.0</ele><time>2026-04-12T13:59:02.178Z</time></trkpt><trkpt lat="43.7348271" lon="3.7905925"><ele>193.0</ele><time>2026-04-12T13:59:03.178Z</time></trkpt><trkpt lat="43.734618" lon="3.7908569"><ele>193.0</ele><time>2026-04-12T13:59:04.178Z</time></trkpt><trkpt lat="43.7344176" lon="3.7911163"><ele>192.5</ele><time>2026-04-12T13:59:05.179Z</time></trkpt><trkpt lat="43.7342283" lon="3.791356"><ele>192.0</ele><time>2026-04-12T13:59:06.179Z</time></trkpt><trkpt lat="43.7340456" lon="3.7915812"><ele>192.0</ele><time>2026-04-12T13:59:07.178Z</time></trkpt><trkpt lat="43.7338628" lon="3.7918051"><ele>192.0</ele><time>2026-04-12T13:59:08.179Z</time></trkpt><trkpt lat="43.7336767" lon="3.7920423"><ele>190.5</ele><time>2026-04-12T13:59:09.179Z</time></trkpt><trkpt lat="43.7334788" lon="3.7922905"><ele>189.0</ele><time>2026-04-12T13:59:10.179Z</time></trkpt><trkpt lat="43.7332687" lon="3.7925597"><ele>188.0</ele><time>2026-04-12T13:59:11.178Z</time></trkpt><trkpt lat="43.7330496" lon="3.7928024"><ele>187.0</ele><time>2026-04-12T13:59:12.178Z</time></trkpt><trkpt lat="43.7328283" lon="3.7930754"><ele>187.5</ele><time>2026-04-12T13:59:13.178Z</time></trkpt><trkpt lat="43.7326143" lon="3.7933418"><ele>188.0</ele><time>2026-04-12T13:59:14.178Z</time></trkpt><trkpt lat="43.7324119" lon="3.7935956"><ele>188.5</ele><time>2026-04-12T13:59:15.178Z</time></trkpt><trkpt lat="43.7322141" lon="3.7938313"><ele>189.0</ele><time>2026-04-12T13:59:16.178Z</time></trkpt><trkpt lat="43.7320092" lon="3.7940572"><ele>188.5</ele><time>2026-04-12T13:59:17.178Z</time></trkpt><trkpt lat="43.7317932" lon="3.7942538"><ele>188.0</ele><time>2026-04-12T13:59:18.179Z</time></trkpt><trkpt lat="43.7315666" lon="3.7944274"><ele>189.0</ele><time>2026-04-12T13:59:19.179Z</time></trkpt><trkpt lat="43.7313308" lon="3.7946032"><ele>190.0</ele><time>2026-04-12T13:59:20.179Z</time></trkpt><trkpt lat="43.7310905" lon="3.7947813"><ele>190.0</ele><time>2026-04-12T13:59:21.179Z</time></trkpt><trkpt lat="43.7308594" lon="3.794944"><ele>190.0</ele><time>2026-04-12T13:59:22.179Z</time></trkpt><trkpt lat="43.7306349" lon="3.7951032"><ele>189.0</ele><time>2026-04-12T13:59:23.178Z</time></trkpt><trkpt lat="43.7304218" lon="3.7952471"><ele>188.0</ele><time>2026-04-12T13:59:24.178Z</time></trkpt><trkpt lat="43.7302193" lon="3.7953854"><ele>188.0</ele><time>2026-04-12T13:59:25.178Z</time></trkpt><trkpt lat="43.7300262" lon="3.7955045"><ele>188.0</ele><time>2026-04-12T13:59:26.178Z</time></trkpt><trkpt lat="43.7298291" lon="3.7956054"><ele>188.0</ele><time>2026-04-12T13:59:27.179Z</time></trkpt><trkpt lat="43.729623" lon="3.7956807"><ele>188.0</ele><time>2026-04-12T13:59:28.178Z</time></trkpt><trkpt lat="43.7294062" lon="3.795718"><ele>188.0</ele><time>2026-04-12T13:59:29.178Z</time></trkpt><trkpt lat="43.7291772" lon="3.7957127"><ele>188.0</ele><time>2026-04-12T13:59:30.179Z</time></trkpt><trkpt lat="43.7289359" lon="3.7956833"><ele>187.0</ele><time>2026-04-12T13:59:31.178Z</time></trkpt><trkpt lat="43.7286798" lon="3.7956317"><ele>186.0</ele><time>2026-04-12T13:59:32.179Z</time></trkpt><trkpt lat="43.7284269" lon="3.7955775"><ele>186.0</ele><time>2026-04-12T13:59:33.178Z</time></trkpt><trkpt lat="43.7281636" lon="3.7955105"><ele>186.0</ele><time>2026-04-12T13:59:34.179Z</time></trkpt><trkpt lat="43.7279048" lon="3.7954422"><ele>180.5</ele><time>2026-04-12T13:59:35.179Z</time></trkpt><trkpt lat="43.7276509" lon="3.7953445"><ele>175.0</ele><time>2026-04-12T13:59:36.178Z</time></trkpt><trkpt lat="43.7273999" lon="3.7952203"><ele>182.5</ele><time>2026-04-12T13:59:37.178Z</time></trkpt><trkpt lat="43.7271579" lon="3.7950684"><ele>190.0</ele><time>2026-04-12T13:59:38.179Z</time></trkpt><trkpt lat="43.7269164" lon="3.7949127"><ele>185.0</ele><time>2026-04-12T13:59:39.179Z</time></trkpt><trkpt lat="43.7266793" lon="3.794763"><ele>180.0</ele><time>2026-04-12T13:59:40.178Z</time></trkpt><trkpt lat="43.7264385" lon="3.7946563"><ele>180.0</ele><time>2026-04-12T13:59:41.179Z</time></trkpt><trkpt lat="43.7261983" lon="3.7945793"><ele>180.0</ele><time>2026-04-12T13:59:42.179Z</time></trkpt><trkpt lat="43.7259599" lon="3.7945424"><ele>175.0</ele><time>2026-04-12T13:59:43.178Z</time></trkpt><trkpt lat="43.7257101" lon="3.7945577"><ele>170.0</ele><time>2026-04-12T13:59:44.178Z</time></trkpt><trkpt lat="43.7254626" lon="3.794607"><ele>170.5</ele><time>2026-04-12T13:59:45.178Z</time></trkpt><trkpt lat="43.7252074" lon="3.7946655"><ele>171.0</ele><time>2026-04-12T13:59:46.178Z</time></trkpt><trkpt lat="43.7249417" lon="3.79472"><ele>171.0</ele><time>2026-04-12T13:59:47.178Z</time></trkpt><trkpt lat="43.7246692" lon="3.7947888"><ele>171.0</ele><time>2026-04-12T13:59:48.178Z</time></trkpt><trkpt lat="43.7243878" lon="3.7948531"><ele>171.0</ele><time>2026-04-12T13:59:49.178Z</time></trkpt><trkpt lat="43.7241062" lon="3.7949153"><ele>171.0</ele><time>2026-04-12T13:59:50.178Z</time></trkpt><trkpt lat="43.723824" lon="3.7949722"><ele>168.5</ele><time>2026-04-12T13:59:51.179Z</time></trkpt><trkpt lat="43.7235297" lon="3.7950243"><ele>166.0</ele><time>2026-04-12T13:59:52.179Z</time></trkpt><trkpt lat="43.7232271" lon="3.7950584"><ele>166.0</ele><time>2026-04-12T13:59:53.179Z</time></trkpt><trkpt lat="43.7229468" lon="3.7950604"><ele>166.0</ele><time>2026-04-12T13:59:54.179Z</time></trkpt><trkpt lat="43.7226557" lon="3.7950416"><ele>162.0</ele><time>2026-04-12T13:59:55.178Z</time></trkpt><trkpt lat="43.7223559" lon="3.7950067"><ele>158.0</ele><time>2026-04-12T13:59:56.179Z</time></trkpt><trkpt lat="43.7220494" lon="3.7949632"><ele>157.0</ele><time>2026-04-12T13:59:57.179Z</time></trkpt><trkpt lat="43.721741" lon="3.7949161"><ele>156.0</ele><time>2026-04-12T13:59:58.178Z</time></trkpt><trkpt lat="43.7214154" lon="3.7948678"><ele>156.0</ele><time>2026-04-12T13:59:59.178Z</time></trkpt><trkpt lat="43.7210942" lon="3.7948167"><ele>156.0</ele><time>2026-04-12T14:00:00.178Z</time></trkpt><trkpt lat="43.720775" lon="3.7947661"><ele>156.0</ele><time>2026-04-12T14:00:01.178Z</time></trkpt><trkpt lat="43.7204556" lon="3.7947081"><ele>156.0</ele><time>2026-04-12T14:00:02.178Z</time></trkpt><trkpt lat="43.7201155" lon="3.7946711"><ele>157.0</ele><time>2026-04-12T14:00:03.178Z</time></trkpt><trkpt lat="43.7197654" lon="3.7946104"><ele>158.0</ele><time>2026-04-12T14:00:04.178Z</time></trkpt><trkpt lat="43.7194296" lon="3.7945592"><ele>160.5</ele><time>2026-04-12T14:00:05.178Z</time></trkpt><trkpt lat="43.7191051" lon="3.7945136"><ele>163.0</ele><time>2026-04-12T14:00:06.178Z</time></trkpt><trkpt lat="43.7187843" lon="3.7944716"><ele>163.5</ele><time>2026-04-12T14:00:07.179Z</time></trkpt><trkpt lat="43.718452" lon="3.7944257"><ele>164.0</ele><time>2026-04-12T14:00:08.179Z</time></trkpt><trkpt lat="43.7181302" lon="3.7943826"><ele>157.5</ele><time>2026-04-12T14:00:09.178Z</time></trkpt><trkpt lat="43.7178145" lon="3.7943357"><ele>151.0</ele><time>2026-04-12T14:00:10.178Z</time></trkpt><trkpt lat="43.7175056" lon="3.7942892"><ele>151.0</ele><time>2026-04-12T14:00:11.179Z</time></trkpt><trkpt lat="43.7172071" lon="3.7942414"><ele>151.0</ele><time>2026-04-12T14:00:12.178Z</time></trkpt><trkpt lat="43.7168969" lon="3.7941875"><ele>151.0</ele><time>2026-04-12T14:00:13.178Z</time></trkpt><trkpt lat="43.7166075" lon="3.7941532"><ele>151.0</ele><time>2026-04-12T14:00:14.179Z</time></trkpt><trkpt lat="43.7163193" lon="3.7941458"><ele>150.0</ele><time>2026-04-12T14:00:15.179Z</time></trkpt><trkpt lat="43.7160221" lon="3.7941873"><ele>149.0</ele><time>2026-04-12T14:00:16.178Z</time></trkpt><trkpt lat="43.7157462" lon="3.7942426"><ele>149.0</ele><time>2026-04-12T14:00:17.178Z</time></trkpt><trkpt lat="43.7154715" lon="3.7943319"><ele>149.0</ele><time>2026-04-12T14:00:18.178Z</time></trkpt><trkpt lat="43.7152" lon="3.7944373"><ele>149.0</ele><time>2026-04-12T14:00:19.178Z</time></trkpt><trkpt lat="43.714927" lon="3.7945479"><ele>149.0</ele><time>2026-04-12T14:00:20.179Z</time></trkpt><trkpt lat="43.7146528" lon="3.7946604"><ele>145.5</ele><time>2026-04-12T14:00:21.179Z</time></trkpt><trkpt lat="43.7143767" lon="3.7947855"><ele>142.0</ele><time>2026-04-12T14:00:22.178Z</time></trkpt><trkpt lat="43.7141091" lon="3.7949401"><ele>142.0</ele><time>2026-04-12T14:00:23.179Z</time></trkpt><trkpt lat="43.7138523" lon="3.7951266"><ele>142.0</ele><time>2026-04-12T14:00:24.179Z</time></trkpt><trkpt lat="43.7136077" lon="3.7953444"><ele>144.5</ele><time>2026-04-12T14:00:25.178Z</time></trkpt><trkpt lat="43.7133647" lon="3.795589"><ele>147.0</ele><time>2026-04-12T14:00:26.178Z</time></trkpt><trkpt lat="43.7131121" lon="3.7958469"><ele>145.5</ele><time>2026-04-12T14:00:27.179Z</time></trkpt><trkpt lat="43.7128551" lon="3.796108"><ele>144.0</ele><time>2026-04-12T14:00:28.178Z</time></trkpt><trkpt lat="43.712602" lon="3.7963658"><ele>148.5</ele><time>2026-04-12T14:00:29.178Z</time></trkpt><trkpt lat="43.7123528" lon="3.7966282"><ele>153.0</ele><time>2026-04-12T14:00:30.179Z</time></trkpt><trkpt lat="43.7121106" lon="3.7968769"><ele>158.0</ele><time>2026-04-12T14:00:31.178Z</time></trkpt><trkpt lat="43.7118753" lon="3.7971207"><ele>163.0</ele><time>2026-04-12T14:00:32.178Z</time></trkpt><trkpt lat="43.711636" lon="3.7973701"><ele>163.0</ele><time>2026-04-12T14:00:33.178Z</time></trkpt><trkpt lat="43.7113971" lon="3.7976225"><ele>163.0</ele><time>2026-04-12T14:00:34.178Z</time></trkpt><trkpt lat="43.7111636" lon="3.7978775"><ele>164.0</ele><time>2026-04-12T14:00:35.178Z</time></trkpt><trkpt lat="43.710938" lon="3.7981381"><ele>165.0</ele><time>2026-04-12T14:00:36.178Z</time></trkpt><trkpt lat="43.7107224" lon="3.7984011"><ele>166.0</ele><time>2026-04-12T14:00:37.179Z</time></trkpt><trkpt lat="43.7105229" lon="3.7986698"><ele>167.0</ele><time>2026-04-12T14:00:38.179Z</time></trkpt><trkpt lat="43.7103351" lon="3.7989535"><ele>166.5</ele><time>2026-04-12T14:00:39.178Z</time></trkpt><trkpt lat="43.7101579" lon="3.79924"><ele>166.0</ele><time>2026-04-12T14:00:40.178Z</time></trkpt><trkpt lat="43.7099914" lon="3.7995345"><ele>164.0</ele><time>2026-04-12T14:00:41.178Z</time></trkpt><trkpt lat="43.7098349" lon="3.7998288"><ele>162.0</ele><time>2026-04-12T14:00:42.179Z</time></trkpt><trkpt lat="43.709694" lon="3.8001191"><ele>160.5</ele><time>2026-04-12T14:00:43.178Z</time></trkpt><trkpt lat="43.7095666" lon="3.8004142"><ele>159.0</ele><time>2026-04-12T14:00:44.179Z</time></trkpt><trkpt lat="43.7094494" lon="3.8007216"><ele>158.5</ele><time>2026-04-12T14:00:45.178Z</time></trkpt><trkpt lat="43.7093385" lon="3.8010234"><ele>158.0</ele><time>2026-04-12T14:00:46.178Z</time></trkpt><trkpt lat="43.7092398" lon="3.8013344"><ele>158.0</ele><time>2026-04-12T14:00:47.179Z</time></trkpt><trkpt lat="43.7091515" lon="3.8016522"><ele>158.0</ele><time>2026-04-12T14:00:48.178Z</time></trkpt><trkpt lat="43.7090756" lon="3.8019719"><ele>152.5</ele><time>2026-04-12T14:00:49.179Z</time></trkpt><trkpt lat="43.7090082" lon="3.8022975"><ele>147.0</ele><time>2026-04-12T14:00:50.178Z</time></trkpt><trkpt lat="43.7089556" lon="3.8026367"><ele>144.0</ele><time>2026-04-12T14:00:51.178Z</time></trkpt><trkpt lat="43.7089171" lon="3.8029916"><ele>141.0</ele><time>2026-04-12T14:00:52.179Z</time></trkpt><trkpt lat="43.7088861" lon="3.803376"><ele>140.0</ele><time>2026-04-12T14:00:53.178Z</time></trkpt><trkpt lat="43.7088619" lon="3.8037963"><ele>139.0</ele><time>2026-04-12T14:00:54.178Z</time></trkpt><trkpt lat="43.7088341" lon="3.8042525"><ele>139.5</ele><time>2026-04-12T14:00:55.179Z</time></trkpt><trkpt lat="43.7088017" lon="3.8047384"><ele>140.0</ele><time>2026-04-12T14:00:56.179Z</time></trkpt><trkpt lat="43.7087704" lon="3.8052254"><ele>141.0</ele><time>2026-04-12T14:00:57.178Z</time></trkpt><trkpt lat="43.7087341" lon="3.8057222"><ele>142.0</ele><time>2026-04-12T14:00:58.179Z</time></trkpt><trkpt lat="43.7086882" lon="3.8061864"><ele>142.5</ele><time>2026-04-12T14:00:59.178Z</time></trkpt><trkpt lat="43.7086293" lon="3.8066367"><ele>143.0</ele><time>2026-04-12T14:01:00.178Z</time></trkpt><trkpt lat="43.7085562" lon="3.8070722"><ele>142.0</ele><time>2026-04-12T14:01:01.178Z</time></trkpt><trkpt lat="43.7084697" lon="3.8074944"><ele>141.0</ele><time>2026-04-12T14:01:02.178Z</time></trkpt><trkpt lat="43.7083747" lon="3.8079057"><ele>140.5</ele><time>2026-04-12T14:01:03.178Z</time></trkpt><trkpt lat="43.7082752" lon="3.8083082"><ele>140.0</ele><time>2026-04-12T14:01:04.178Z</time></trkpt><trkpt lat="43.7081743" lon="3.8087096"><ele>139.5</ele><time>2026-04-12T14:01:05.178Z</time></trkpt><trkpt lat="43.7080773" lon="3.8091124"><ele>139.0</ele><time>2026-04-12T14:01:06.178Z</time></trkpt><trkpt lat="43.7079765" lon="3.8095088"><ele>138.5</ele><time>2026-04-12T14:01:07.178Z</time></trkpt><trkpt lat="43.7078745" lon="3.8099044"><ele>138.0</ele><time>2026-04-12T14:01:08.179Z</time></trkpt><trkpt lat="43.7077721" lon="3.8103073"><ele>137.0</ele><time>2026-04-12T14:01:09.178Z</time></trkpt><trkpt lat="43.707652" lon="3.8106975"><ele>136.0</ele><time>2026-04-12T14:01:10.178Z</time></trkpt><trkpt lat="43.7075641" lon="3.8110853"><ele>136.0</ele><time>2026-04-12T14:01:11.178Z</time></trkpt><trkpt lat="43.707474" lon="3.8114531"><ele>136.0</ele><time>2026-04-12T14:01:12.178Z</time></trkpt><trkpt lat="43.7073992" lon="3.8117839"><ele>136.5</ele><time>2026-04-12T14:01:13.179Z</time></trkpt><trkpt lat="43.7073291" lon="3.8121173"><ele>137.0</ele><time>2026-04-12T14:01:14.178Z</time></trkpt><trkpt lat="43.7072723" lon="3.8124311"><ele>138.0</ele><time>2026-04-12T14:01:15.178Z</time></trkpt><trkpt lat="43.7072233" lon="3.8127485"><ele>139.0</ele><time>2026-04-12T14:01:16.178Z</time></trkpt><trkpt lat="43.7072014" lon="3.8130646"><ele>139.0</ele><time>2026-04-12T14:01:17.178Z</time></trkpt><trkpt lat="43.7071892" lon="3.8133807"><ele>139.0</ele><time>2026-04-12T14:01:18.179Z</time></trkpt><trkpt lat="43.7072026" lon="3.8136826"><ele>139.0</ele><time>2026-04-12T14:01:19.179Z</time></trkpt><trkpt lat="43.7072404" lon="3.8139822"><ele>140.0</ele><time>2026-04-12T14:01:20.178Z</time></trkpt><trkpt lat="43.7072998" lon="3.8142866"><ele>141.0</ele><time>2026-04-12T14:01:21.178Z</time></trkpt><trkpt lat="43.7073784" lon="3.8145886"><ele>141.0</ele><time>2026-04-12T14:01:22.179Z</time></trkpt><trkpt lat="43.7074725" lon="3.8148812"><ele>141.0</ele><time>2026-04-12T14:01:23.179Z</time></trkpt><trkpt lat="43.7075801" lon="3.8151744"><ele>140.5</ele><time>2026-04-12T14:01:24.179Z</time></trkpt><trkpt lat="43.7077026" lon="3.815452"><ele>140.0</ele><time>2026-04-12T14:01:25.178Z</time></trkpt><trkpt lat="43.7078243" lon="3.8157219"><ele>140.0</ele><time>2026-04-12T14:01:26.179Z</time></trkpt><trkpt lat="43.707936" lon="3.8159767"><ele>140.0</ele><time>2026-04-12T14:01:27.178Z</time></trkpt><trkpt lat="43.7080324" lon="3.8162175"><ele>140.0</ele><time>2026-04-12T14:01:28.178Z</time></trkpt><trkpt lat="43.7081306" lon="3.8164439"><ele>138.33333333333331</ele><time>2026-04-12T14:01:29.178Z</time></trkpt><trkpt lat="43.7082175" lon="3.8166633"><ele>136.66666666666666</ele><time>2026-04-12T14:01:30.178Z</time></trkpt><trkpt lat="43.7082937" lon="3.8168639"><ele>135.0</ele><time>2026-04-12T14:01:31.178Z</time></trkpt><trkpt lat="43.7083509" lon="3.8170566"><ele>133.5</ele><time>2026-04-12T14:01:32.178Z</time></trkpt><trkpt lat="43.7083988" lon="3.8172466"><ele>132.0</ele><time>2026-04-12T14:01:33.179Z</time></trkpt><trkpt lat="43.7084354" lon="3.8174109"><ele>130.5</ele><time>2026-04-12T14:01:34.178Z</time></trkpt><trkpt lat="43.7084487" lon="3.8175666"><ele>129.0</ele><time>2026-04-12T14:01:35.178Z</time></trkpt><trkpt lat="43.7084395" lon="3.8177258"><ele>128.75</ele><time>2026-04-12T14:01:36.178Z</time></trkpt><trkpt lat="43.708396" lon="3.8178593"><ele>128.5</ele><time>2026-04-12T14:01:37.179Z</time></trkpt><trkpt lat="43.7083435" lon="3.8179906"><ele>128.25</ele><time>2026-04-12T14:01:38.179Z</time></trkpt><trkpt lat="43.7082663" lon="3.8181386"><ele>128.0</ele><time>2026-04-12T14:01:39.178Z</time></trkpt><trkpt lat="43.708184" lon="3.8182897"><ele>128.0</ele><time>2026-04-12T14:01:40.179Z</time></trkpt><trkpt lat="43.7080815" lon="3.8184145"><ele>128.0</ele><time>2026-04-12T14:01:41.179Z</time></trkpt><trkpt lat="43.7079583" lon="3.8185275"><ele>128.0</ele><time>2026-04-12T14:01:42.178Z</time></trkpt><trkpt lat="43.7078139" lon="3.8186243"><ele>128.0</ele><time>2026-04-12T14:01:43.179Z</time></trkpt><trkpt lat="43.7076415" lon="3.8186951"><ele>123.0</ele><time>2026-04-12T14:01:44.178Z</time></trkpt><trkpt lat="43.7074601" lon="3.8187494"><ele>118.0</ele><time>2026-04-12T14:01:45.179Z</time></trkpt><trkpt lat="43.7072921" lon="3.8187689"><ele>113.0</ele><time>2026-04-12T14:01:46.178Z</time></trkpt><trkpt lat="43.7071164" lon="3.8187817"><ele>113.0</ele><time>2026-04-12T14:01:47.178Z</time></trkpt><trkpt lat="43.7069359" lon="3.8187879"><ele>113.0</ele><time>2026-04-12T14:01:48.178Z</time></trkpt><trkpt lat="43.7067451" lon="3.81878"><ele>113.0</ele><time>2026-04-12T14:01:49.178Z</time></trkpt><trkpt lat="43.7065503" lon="3.8187769"><ele>113.66666666666666</ele><time>2026-04-12T14:01:50.179Z</time></trkpt><trkpt lat="43.7063574" lon="3.8187855"><ele>114.33333333333334</ele><time>2026-04-12T14:01:51.179Z</time></trkpt><trkpt lat="43.7061441" lon="3.8187927"><ele>115.0</ele><time>2026-04-12T14:01:52.179Z</time></trkpt><trkpt lat="43.7059365" lon="3.818807"><ele>117.66666666666667</ele><time>2026-04-12T14:01:53.179Z</time></trkpt><trkpt lat="43.7057305" lon="3.8188165"><ele>120.33333333333334</ele><time>2026-04-12T14:01:54.178Z</time></trkpt><trkpt lat="43.7055152" lon="3.8188457"><ele>123.0</ele><time>2026-04-12T14:01:55.178Z</time></trkpt><trkpt lat="43.7052962" lon="3.8188861"><ele>123.0</ele><time>2026-04-12T14:01:56.178Z</time></trkpt><trkpt lat="43.7050747" lon="3.8189381"><ele>123.0</ele><time>2026-04-12T14:01:57.178Z</time></trkpt><trkpt lat="43.704844" lon="3.8189798"><ele>123.0</ele><time>2026-04-12T14:01:58.179Z</time></trkpt><trkpt lat="43.7046114" lon="3.8190236"><ele>123.0</ele><time>2026-04-12T14:01:59.178Z</time></trkpt><trkpt lat="43.7043846" lon="3.8190696"><ele>122.33333333333334</ele><time>2026-04-12T14:02:00.178Z</time></trkpt><trkpt lat="43.7041648" lon="3.8191176"><ele>121.66666666666667</ele><time>2026-04-12T14:02:01.178Z</time></trkpt><trkpt lat="43.7039441" lon="3.8191782"><ele>121.0</ele><time>2026-04-12T14:02:02.178Z</time></trkpt><trkpt lat="43.7037155" lon="3.8192505"><ele>115.0</ele><time>2026-04-12T14:02:03.179Z</time></trkpt><trkpt lat="43.703479" lon="3.8193397"><ele>109.0</ele><time>2026-04-12T14:02:04.179Z</time></trkpt><trkpt lat="43.7032366" lon="3.8194315"><ele>109.0</ele><time>2026-04-12T14:02:05.178Z</time></trkpt><trkpt lat="43.7029897" lon="3.8195281"><ele>109.0</ele><time>2026-04-12T14:02:06.178Z</time></trkpt><trkpt lat="43.7027499" lon="3.8196496"><ele>109.0</ele><time>2026-04-12T14:02:07.178Z</time></trkpt><trkpt lat="43.7025116" lon="3.8197891"><ele>109.0</ele><time>2026-04-12T14:02:08.178Z</time></trkpt><trkpt lat="43.7022829" lon="3.8199623"><ele>108.0</ele><time>2026-04-12T14:02:09.179Z</time></trkpt><trkpt lat="43.7020706" lon="3.8201512"><ele>107.0</ele><time>2026-04-12T14:02:10.179Z</time></trkpt><trkpt lat="43.7018583" lon="3.820343"><ele>107.0</ele><time>2026-04-12T14:02:11.178Z</time></trkpt><trkpt lat="43.7016558" lon="3.8205529"><ele>107.0</ele><time>2026-04-12T14:02:12.179Z</time></trkpt><trkpt lat="43.7014543" lon="3.8207509"><ele>107.0</ele><time>2026-04-12T14:02:13.179Z</time></trkpt><trkpt lat="43.7012614" lon="3.8209749"><ele>107.0</ele><time>2026-04-12T14:02:14.178Z</time></trkpt><trkpt lat="43.7010892" lon="3.8212097"><ele>108.0</ele><time>2026-04-12T14:02:15.178Z</time></trkpt><trkpt lat="43.7009125" lon="3.8214578"><ele>109.0</ele><time>2026-04-12T14:02:16.179Z</time></trkpt><trkpt lat="43.7007361" lon="3.8217321"><ele>108.0</ele><time>2026-04-12T14:02:17.179Z</time></trkpt><trkpt lat="43.7005632" lon="3.8220163"><ele>107.0</ele><time>2026-04-12T14:02:18.178Z</time></trkpt><trkpt lat="43.7004008" lon="3.8223022"><ele>109.0</ele><time>2026-04-12T14:02:19.179Z</time></trkpt><trkpt lat="43.7002454" lon="3.8226002"><ele>111.0</ele><time>2026-04-12T14:02:20.178Z</time></trkpt><trkpt lat="43.7000965" lon="3.822914"><ele>111.0</ele><time>2026-04-12T14:02:21.179Z</time></trkpt><trkpt lat="43.6999516" lon="3.8232168"><ele>111.0</ele><time>2026-04-12T14:02:22.178Z</time></trkpt><trkpt lat="43.6998018" lon="3.8235436"><ele>109.5</ele><time>2026-04-12T14:02:23.178Z</time></trkpt><trkpt lat="43.699648" lon="3.8238552"><ele>108.0</ele><time>2026-04-12T14:02:24.179Z</time></trkpt><trkpt lat="43.6994914" lon="3.8241451"><ele>108.5</ele><time>2026-04-12T14:02:25.179Z</time></trkpt><trkpt lat="43.6993212" lon="3.8244224"><ele>109.0</ele><time>2026-04-12T14:02:26.178Z</time></trkpt><trkpt lat="43.6991386" lon="3.8246795"><ele>109.0</ele><time>2026-04-12T14:02:27.179Z</time></trkpt><trkpt lat="43.6989494" lon="3.8249144"><ele>109.0</ele><time>2026-04-12T14:02:28.178Z</time></trkpt><trkpt lat="43.6987545" lon="3.8251426"><ele>111.0</ele><time>2026-04-12T14:02:29.178Z</time></trkpt><trkpt lat="43.6985533" lon="3.8253513"><ele>113.0</ele><time>2026-04-12T14:02:30.179Z</time></trkpt><trkpt lat="43.6983492" lon="3.8255227"><ele>113.0</ele><time>2026-04-12T14:02:31.179Z</time></trkpt><trkpt lat="43.6981375" lon="3.8256757"><ele>113.0</ele><time>2026-04-12T14:02:32.178Z</time></trkpt><trkpt lat="43.6979329" lon="3.8257897"><ele>112.5</ele><time>2026-04-12T14:02:33.179Z</time></trkpt><trkpt lat="43.6977181" lon="3.8259092"><ele>112.0</ele><time>2026-04-12T14:02:34.179Z</time></trkpt><trkpt lat="43.6974985" lon="3.826023"><ele>113.5</ele><time>2026-04-12T14:02:35.178Z</time></trkpt><trkpt lat="43.6972617" lon="3.8261286"><ele>115.0</ele><time>2026-04-12T14:02:36.178Z</time></trkpt><trkpt lat="43.6970123" lon="3.8262113"><ele>113.0</ele><time>2026-04-12T14:02:37.179Z</time></trkpt><trkpt lat="43.696747" lon="3.8262945"><ele>111.0</ele><time>2026-04-12T14:02:38.178Z</time></trkpt><trkpt lat="43.6964805" lon="3.8263632"><ele>111.0</ele><time>2026-04-12T14:02:39.178Z</time></trkpt><trkpt lat="43.6962107" lon="3.8264124"><ele>111.0</ele><time>2026-04-12T14:02:40.178Z</time></trkpt><trkpt lat="43.6959471" lon="3.8264534"><ele>110.5</ele><time>2026-04-12T14:02:41.178Z</time></trkpt><trkpt lat="43.6956831" lon="3.8264929"><ele>110.0</ele><time>2026-04-12T14:02:42.178Z</time></trkpt><trkpt lat="43.6954399" lon="3.8265225"><ele>109.0</ele><time>2026-04-12T14:02:43.179Z</time></trkpt><trkpt lat="43.6951932" lon="3.8265388"><ele>108.0</ele><time>2026-04-12T14:02:44.179Z</time></trkpt><trkpt lat="43.6949661" lon="3.8265462"><ele>108.0</ele><time>2026-04-12T14:02:45.179Z</time></trkpt><trkpt lat="43.6947426" lon="3.8265366"><ele>108.0</ele><time>2026-04-12T14:02:46.178Z</time></trkpt><trkpt lat="43.6945009" lon="3.8265082"><ele>106.5</ele><time>2026-04-12T14:02:47.179Z</time></trkpt><trkpt lat="43.6942437" lon="3.8264767"><ele>105.0</ele><time>2026-04-12T14:02:48.179Z</time></trkpt><trkpt lat="43.6939954" lon="3.8264295"><ele>105.0</ele><time>2026-04-12T14:02:49.178Z</time></trkpt><trkpt lat="43.6937421" lon="3.8263639"><ele>105.0</ele><time>2026-04-12T14:02:50.178Z</time></trkpt><trkpt lat="43.6935034" lon="3.826299"><ele>104.5</ele><time>2026-04-12T14:02:51.179Z</time></trkpt><trkpt lat="43.6932633" lon="3.8262183"><ele>104.0</ele><time>2026-04-12T14:02:52.178Z</time></trkpt><trkpt lat="43.6930383" lon="3.826135"><ele>104.0</ele><time>2026-04-12T14:02:53.178Z</time></trkpt><trkpt lat="43.6928186" lon="3.8260456"><ele>104.0</ele><time>2026-04-12T14:02:54.179Z</time></trkpt><trkpt lat="43.6925954" lon="3.825949"><ele>107.0</ele><time>2026-04-12T14:02:55.178Z</time></trkpt><trkpt lat="43.692376" lon="3.8258464"><ele>110.0</ele><time>2026-04-12T14:02:56.178Z</time></trkpt><trkpt lat="43.6921423" lon="3.8257254"><ele>110.5</ele><time>2026-04-12T14:02:57.179Z</time></trkpt><trkpt lat="43.6918929" lon="3.8255874"><ele>111.0</ele><time>2026-04-12T14:02:58.178Z</time></trkpt><trkpt lat="43.6916439" lon="3.8254377"><ele>111.0</ele><time>2026-04-12T14:02:59.179Z</time></trkpt><trkpt lat="43.6914078" lon="3.8252858"><ele>111.0</ele><time>2026-04-12T14:03:00.178Z</time></trkpt><trkpt lat="43.6911743" lon="3.825147"><ele>110.5</ele><time>2026-04-12T14:03:01.178Z</time></trkpt><trkpt lat="43.6909556" lon="3.8249993"><ele>110.0</ele><time>2026-04-12T14:03:02.179Z</time></trkpt><trkpt lat="43.6907393" lon="3.8248669"><ele>110.0</ele><time>2026-04-12T14:03:03.178Z</time></trkpt><trkpt lat="43.6905339" lon="3.8247303"><ele>110.0</ele><time>2026-04-12T14:03:04.178Z</time></trkpt><trkpt lat="43.6903355" lon="3.8245998"><ele>110.0</ele><time>2026-04-12T14:03:05.178Z</time></trkpt><trkpt lat="43.6901311" lon="3.8244727"><ele>110.5</ele><time>2026-04-12T14:03:06.178Z</time></trkpt><trkpt lat="43.6899241" lon="3.8243426"><ele>111.0</ele><time>2026-04-12T14:03:07.178Z</time></trkpt><trkpt lat="43.689702" lon="3.8242019"><ele>110.0</ele><time>2026-04-12T14:03:08.178Z</time></trkpt><trkpt lat="43.6894726" lon="3.824065"><ele>109.0</ele><time>2026-04-12T14:03:09.178Z</time></trkpt><trkpt lat="43.6892348" lon="3.8239134"><ele>107.0</ele><time>2026-04-12T14:03:10.178Z</time></trkpt><trkpt lat="43.6889859" lon="3.8237454"><ele>105.0</ele><time>2026-04-12T14:03:11.178Z</time></trkpt><trkpt lat="43.6887418" lon="3.8235755"><ele>103.0</ele><time>2026-04-12T14:03:12.179Z</time></trkpt><trkpt lat="43.6884808" lon="3.8234199"><ele>101.0</ele><time>2026-04-12T14:03:13.178Z</time></trkpt><trkpt lat="43.6882174" lon="3.8232763"><ele>101.0</ele><time>2026-04-12T14:03:14.178Z</time></trkpt><trkpt lat="43.6879517" lon="3.8231435"><ele>101.0</ele><time>2026-04-12T14:03:15.179Z</time></trkpt><trkpt lat="43.6876784" lon="3.8230082"><ele>100.0</ele><time>2026-04-12T14:03:16.179Z</time></trkpt><trkpt lat="43.6873912" lon="3.82288"><ele>99.0</ele><time>2026-04-12T14:03:17.178Z</time></trkpt><trkpt lat="43.6870981" lon="3.8227431"><ele>99.0</ele><time>2026-04-12T14:03:18.178Z</time></trkpt><trkpt lat="43.6867915" lon="3.8226122"><ele>99.0</ele><time>2026-04-12T14:03:19.178Z</time></trkpt><trkpt lat="43.6864757" lon="3.822484"><ele>99.0</ele><time>2026-04-12T14:03:20.179Z</time></trkpt><trkpt lat="43.6861668" lon="3.8223675"><ele>99.0</ele><time>2026-04-12T14:03:21.179Z</time></trkpt><trkpt lat="43.6858564" lon="3.8222591"><ele>97.5</ele><time>2026-04-12T14:03:22.179Z</time></trkpt><trkpt lat="43.6855453" lon="3.8221602"><ele>96.0</ele><time>2026-04-12T14:03:23.178Z</time></trkpt><trkpt lat="43.6852351" lon="3.8220705"><ele>95.0</ele><time>2026-04-12T14:03:24.179Z</time></trkpt><trkpt lat="43.6849273" lon="3.8219816"><ele>94.0</ele><time>2026-04-12T14:03:25.178Z</time></trkpt><trkpt lat="43.6846169" lon="3.8219082"><ele>94.0</ele><time>2026-04-12T14:03:26.178Z</time></trkpt><trkpt lat="43.6843065" lon="3.8218473"><ele>94.0</ele><time>2026-04-12T14:03:27.179Z</time></trkpt><trkpt lat="43.6840055" lon="3.821795"><ele>96.5</ele><time>2026-04-12T14:03:28.179Z</time></trkpt><trkpt lat="43.6837136" lon="3.8217361"><ele>99.0</ele><time>2026-04-12T14:03:29.179Z</time></trkpt><trkpt lat="43.6834293" lon="3.8216946"><ele>99.0</ele><time>2026-04-12T14:03:30.179Z</time></trkpt><trkpt lat="43.683151" lon="3.8216562"><ele>99.0</ele><time>2026-04-12T14:03:31.178Z</time></trkpt><trkpt lat="43.6828708" lon="3.8216188"><ele>98.0</ele><time>2026-04-12T14:03:32.179Z</time></trkpt><trkpt lat="43.6826071" lon="3.8215859"><ele>97.0</ele><time>2026-04-12T14:03:33.178Z</time></trkpt><trkpt lat="43.6823581" lon="3.8215606"><ele>97.0</ele><time>2026-04-12T14:03:34.179Z</time></trkpt><trkpt lat="43.6821145" lon="3.8215412"><ele>97.0</ele><time>2026-04-12T14:03:35.178Z</time></trkpt><trkpt lat="43.6818904" lon="3.8215288"><ele>97.66666666666667</ele><time>2026-04-12T14:03:36.178Z</time></trkpt><trkpt lat="43.6816737" lon="3.8215127"><ele>98.33333333333334</ele><time>2026-04-12T14:03:37.178Z</time></trkpt><trkpt lat="43.6814493" lon="3.8214877"><ele>99.0</ele><time>2026-04-12T14:03:38.179Z</time></trkpt><trkpt lat="43.6811993" lon="3.8214623"><ele>98.5</ele><time>2026-04-12T14:03:39.179Z</time></trkpt><trkpt lat="43.6809179" lon="3.8214223"><ele>98.0</ele><time>2026-04-12T14:03:40.178Z</time></trkpt><trkpt lat="43.6806552" lon="3.8213767"><ele>98.0</ele><time>2026-04-12T14:03:41.178Z</time></trkpt><trkpt lat="43.6804064" lon="3.8213377"><ele>98.0</ele><time>2026-04-12T14:03:42.179Z</time></trkpt><trkpt lat="43.6801759" lon="3.8212855"><ele>98.33333333333333</ele><time>2026-04-12T14:03:43.178Z</time></trkpt><trkpt lat="43.6799537" lon="3.8212548"><ele>98.66666666666666</ele><time>2026-04-12T14:03:44.178Z</time></trkpt><trkpt lat="43.679743" lon="3.8212154"><ele>99.0</ele><time>2026-04-12T14:03:45.179Z</time></trkpt><trkpt lat="43.6795474" lon="3.8211944"><ele>103.66666666666666</ele><time>2026-04-12T14:03:46.179Z</time></trkpt><trkpt lat="43.6793859" lon="3.8211711"><ele>108.33333333333333</ele><time>2026-04-12T14:03:47.179Z</time></trkpt><trkpt lat="43.6792121" lon="3.8211529"><ele>113.0</ele><time>2026-04-12T14:03:48.179Z</time></trkpt><trkpt lat="43.6790456" lon="3.821119"><ele>113.0</ele><time>2026-04-12T14:03:49.179Z</time></trkpt><trkpt lat="43.6788829" lon="3.8210831"><ele>113.0</ele><time>2026-04-12T14:03:50.178Z</time></trkpt><trkpt lat="43.6787336" lon="3.8210539"><ele>113.0</ele><time>2026-04-12T14:03:51.179Z</time></trkpt><trkpt lat="43.6785627" lon="3.8210244"><ele>114.0</ele><time>2026-04-12T14:03:52.178Z</time></trkpt><trkpt lat="43.6783941" lon="3.8209952"><ele>115.0</ele><time>2026-04-12T14:03:53.179Z</time></trkpt><trkpt lat="43.6782269" lon="3.8209628"><ele>116.0</ele><time>2026-04-12T14:03:54.178Z</time></trkpt><trkpt lat="43.6780333" lon="3.8209384"><ele>116.0</ele><time>2026-04-12T14:03:55.179Z</time></trkpt><trkpt lat="43.6778318" lon="3.8209037"><ele>116.0</ele><time>2026-04-12T14:03:56.178Z</time></trkpt><trkpt lat="43.6776214" lon="3.8208565"><ele>116.0</ele><time>2026-04-12T14:03:57.179Z</time></trkpt><trkpt lat="43.6773874" lon="3.8208069"><ele>118.0</ele><time>2026-04-12T14:03:58.179Z</time></trkpt><trkpt lat="43.677143" lon="3.8207484"><ele>120.0</ele><time>2026-04-12T14:03:59.179Z</time></trkpt><trkpt lat="43.6769088" lon="3.820673"><ele>120.0</ele><time>2026-04-12T14:04:00.178Z</time></trkpt><trkpt lat="43.6766888" lon="3.8206037"><ele>120.0</ele><time>2026-04-12T14:04:01.178Z</time></trkpt><trkpt lat="43.6764809" lon="3.8205284"><ele>120.0</ele><time>2026-04-12T14:04:02.179Z</time></trkpt><trkpt lat="43.6762919" lon="3.8204585"><ele>120.0</ele><time>2026-04-12T14:04:03.179Z</time></trkpt><trkpt lat="43.6761216" lon="3.8203826"><ele>120.0</ele><time>2026-04-12T14:04:04.179Z</time></trkpt><trkpt lat="43.6759586" lon="3.8203069"><ele>120.0</ele><time>2026-04-12T14:04:05.179Z</time></trkpt><trkpt lat="43.6758149" lon="3.8202302"><ele>119.75</ele><time>2026-04-12T14:04:06.178Z</time></trkpt><trkpt lat="43.6756831" lon="3.8201416"><ele>119.5</ele><time>2026-04-12T14:04:07.178Z</time></trkpt><trkpt lat="43.675553" lon="3.8200613"><ele>119.25</ele><time>2026-04-12T14:04:08.178Z</time></trkpt><trkpt lat="43.6754375" lon="3.8199741"><ele>119.0</ele><time>2026-04-12T14:04:09.179Z</time></trkpt><trkpt lat="43.6753203" lon="3.8198863"><ele>120.0</ele><time>2026-04-12T14:04:10.178Z</time></trkpt><trkpt lat="43.675198" lon="3.8198057"><ele>121.0</ele><time>2026-04-12T14:04:11.178Z</time></trkpt><trkpt lat="43.6750778" lon="3.8197165"><ele>122.0</ele><time>2026-04-12T14:04:12.178Z</time></trkpt><trkpt lat="43.6749626" lon="3.8196294"><ele>123.0</ele><time>2026-04-12T14:04:13.178Z</time></trkpt><trkpt lat="43.6748452" lon="3.8195424"><ele>123.0</ele><time>2026-04-12T14:04:14.179Z</time></trkpt><trkpt lat="43.6747243" lon="3.8194567"><ele>123.0</ele><time>2026-04-12T14:04:15.179Z</time></trkpt><trkpt lat="43.6746031" lon="3.8193784"><ele>123.0</ele><time>2026-04-12T14:04:16.178Z</time></trkpt><trkpt lat="43.6744808" lon="3.819311"><ele>123.0</ele><time>2026-04-12T14:04:17.178Z</time></trkpt><trkpt lat="43.6743586" lon="3.8192439"><ele>122.0</ele><time>2026-04-12T14:04:18.178Z</time></trkpt><trkpt lat="43.6742243" lon="3.8191978"><ele>121.0</ele><time>2026-04-12T14:04:19.178Z</time></trkpt><trkpt lat="43.672976" lon="3.8195691"><ele>124.0</ele><time>2026-04-12T14:04:27.178Z</time></trkpt><trkpt lat="43.6728308" lon="3.8197582"><ele>127.0</ele><time>2026-04-12T14:04:28.176Z</time></trkpt><trkpt lat="43.6727019" lon="3.8199251"><ele>130.0</ele><time>2026-04-12T14:04:29.178Z</time></trkpt><trkpt lat="43.6725685" lon="3.8201336"><ele>129.66666666666669</ele><time>2026-04-12T14:04:30.179Z</time></trkpt><trkpt lat="43.6724254" lon="3.820343"><ele>129.33333333333334</ele><time>2026-04-12T14:04:31.178Z</time></trkpt><trkpt lat="43.6722759" lon="3.8205837"><ele>129.0</ele><time>2026-04-12T14:04:32.179Z</time></trkpt><trkpt lat="43.6721415" lon="3.820794"><ele>129.0</ele><time>2026-04-12T14:04:33.178Z</time></trkpt><trkpt lat="43.6720121" lon="3.8210052"><ele>129.0</ele><time>2026-04-12T14:04:34.179Z</time></trkpt><trkpt lat="43.6718861" lon="3.8212015"><ele>129.0</ele><time>2026-04-12T14:04:35.178Z</time></trkpt><trkpt lat="43.6717701" lon="3.8214009"><ele>128.33333333333334</ele><time>2026-04-12T14:04:36.178Z</time></trkpt><trkpt lat="43.6716519" lon="3.8215945"><ele>127.66666666666667</ele><time>2026-04-12T14:04:37.178Z</time></trkpt><trkpt lat="43.6715418" lon="3.8217943"><ele>127.0</ele><time>2026-04-12T14:04:38.179Z</time></trkpt><trkpt lat="43.6714424" lon="3.8219944"><ele>125.66666666666667</ele><time>2026-04-12T14:04:39.178Z</time></trkpt><trkpt lat="43.6713371" lon="3.8222083"><ele>124.33333333333334</ele><time>2026-04-12T14:04:40.179Z</time></trkpt><trkpt lat="43.6712171" lon="3.8224521"><ele>123.0</ele><time>2026-04-12T14:04:41.178Z</time></trkpt><trkpt lat="43.6710795" lon="3.8227089"><ele>121.5</ele><time>2026-04-12T14:04:42.178Z</time></trkpt><trkpt lat="43.6709295" lon="3.8229994"><ele>120.0</ele><time>2026-04-12T14:04:43.179Z</time></trkpt><trkpt lat="43.6707798" lon="3.8233097"><ele>117.0</ele><time>2026-04-12T14:04:44.178Z</time></trkpt><trkpt lat="43.670625" lon="3.8236161"><ele>114.0</ele><time>2026-04-12T14:04:45.179Z</time></trkpt><trkpt lat="43.6704548" lon="3.8239113"><ele>114.0</ele><time>2026-04-12T14:04:46.178Z</time></trkpt><trkpt lat="43.6702762" lon="3.8241953"><ele>114.0</ele><time>2026-04-12T14:04:47.178Z</time></trkpt><trkpt lat="43.6700847" lon="3.8244713"><ele>112.5</ele><time>2026-04-12T14:04:48.179Z</time></trkpt><trkpt lat="43.6698852" lon="3.824741"><ele>111.0</ele><time>2026-04-12T14:04:49.178Z</time></trkpt><trkpt lat="43.6696736" lon="3.8249968"><ele>110.5</ele><time>2026-04-12T14:04:50.178Z</time></trkpt><trkpt lat="43.6694542" lon="3.8252364"><ele>110.0</ele><time>2026-04-12T14:04:51.178Z</time></trkpt><trkpt lat="43.669222" lon="3.825468"><ele>110.0</ele><time>2026-04-12T14:04:52.179Z</time></trkpt><trkpt lat="43.668986" lon="3.8256912"><ele>110.0</ele><time>2026-04-12T14:04:53.178Z</time></trkpt><trkpt lat="43.6687444" lon="3.8259011"><ele>115.0</ele><time>2026-04-12T14:04:54.178Z</time></trkpt><trkpt lat="43.6684944" lon="3.8261139"><ele>120.0</ele><time>2026-04-12T14:04:55.178Z</time></trkpt><trkpt lat="43.6682472" lon="3.8263246"><ele>120.0</ele><time>2026-04-12T14:04:56.179Z</time></trkpt><trkpt lat="43.6680009" lon="3.8265141"><ele>120.0</ele><time>2026-04-12T14:04:57.179Z</time></trkpt><trkpt lat="43.6677565" lon="3.8267139"><ele>120.0</ele><time>2026-04-12T14:04:58.178Z</time></trkpt><trkpt lat="43.6675038" lon="3.8269036"><ele>120.0</ele><time>2026-04-12T14:04:59.178Z</time></trkpt><trkpt lat="43.667243" lon="3.8270918"><ele>120.0</ele><time>2026-04-12T14:05:00.178Z</time></trkpt><trkpt lat="43.6669815" lon="3.8272743"><ele>120.0</ele><time>2026-04-12T14:05:01.178Z</time></trkpt><trkpt lat="43.6667162" lon="3.8274673"><ele>118.5</ele><time>2026-04-12T14:05:02.178Z</time></trkpt><trkpt lat="43.666443" lon="3.8276683"><ele>117.0</ele><time>2026-04-12T14:05:03.178Z</time></trkpt><trkpt lat="43.6661608" lon="3.8278744"><ele>116.0</ele><time>2026-04-12T14:05:04.178Z</time></trkpt><trkpt lat="43.665865" lon="3.8280883"><ele>115.0</ele><time>2026-04-12T14:05:05.179Z</time></trkpt><trkpt lat="43.6655522" lon="3.8283143"><ele>116.5</ele><time>2026-04-12T14:05:06.179Z</time></trkpt><trkpt lat="43.6652421" lon="3.8285347"><ele>118.0</ele><time>2026-04-12T14:05:07.179Z</time></trkpt><trkpt lat="43.6649396" lon="3.8287587"><ele>118.0</ele><time>2026-04-12T14:05:08.178Z</time></trkpt><trkpt lat="43.6646521" lon="3.8289747"><ele>118.0</ele><time>2026-04-12T14:05:09.179Z</time></trkpt><trkpt lat="43.664377" lon="3.8291845"><ele>120.5</ele><time>2026-04-12T14:05:10.178Z</time></trkpt><trkpt lat="43.6641079" lon="3.8293932"><ele>123.0</ele><time>2026-04-12T14:05:11.178Z</time></trkpt><trkpt lat="43.663838" lon="3.8296002"><ele>122.0</ele><time>2026-04-12T14:05:12.178Z</time></trkpt><trkpt lat="43.6635764" lon="3.8297988"><ele>121.0</ele><time>2026-04-12T14:05:13.178Z</time></trkpt><trkpt lat="43.6633172" lon="3.8299889"><ele>124.0</ele><time>2026-04-12T14:05:14.178Z</time></trkpt><trkpt lat="43.6630566" lon="3.8301657"><ele>127.0</ele><time>2026-04-12T14:05:15.178Z</time></trkpt><trkpt lat="43.6627907" lon="3.8303052"><ele>121.5</ele><time>2026-04-12T14:05:16.179Z</time></trkpt><trkpt lat="43.6625246" lon="3.8304153"><ele>116.0</ele><time>2026-04-12T14:05:17.178Z</time></trkpt><trkpt lat="43.6622434" lon="3.8304935"><ele>116.0</ele><time>2026-04-12T14:05:18.178Z</time></trkpt><trkpt lat="43.6619585" lon="3.8305551"><ele>116.0</ele><time>2026-04-12T14:05:19.178Z</time></trkpt><trkpt lat="43.6616508" lon="3.8306127"><ele>109.0</ele><time>2026-04-12T14:05:20.178Z</time></trkpt><trkpt lat="43.6613275" lon="3.8306681"><ele>102.0</ele><time>2026-04-12T14:05:21.178Z</time></trkpt><trkpt lat="43.6610012" lon="3.8307504"><ele>99.5</ele><time>2026-04-12T14:05:22.179Z</time></trkpt><trkpt lat="43.6606774" lon="3.8308261"><ele>97.0</ele><time>2026-04-12T14:05:23.178Z</time></trkpt><trkpt lat="43.660345" lon="3.830895"><ele>95.0</ele><time>2026-04-12T14:05:24.178Z</time></trkpt><trkpt lat="43.6600084" lon="3.8309581"><ele>93.0</ele><time>2026-04-12T14:05:25.178Z</time></trkpt><trkpt lat="43.6596724" lon="3.8310269"><ele>89.5</ele><time>2026-04-12T14:05:26.179Z</time></trkpt><trkpt lat="43.6593434" lon="3.8310894"><ele>86.0</ele><time>2026-04-12T14:05:27.179Z</time></trkpt><trkpt lat="43.6590194" lon="3.8311624"><ele>86.0</ele><time>2026-04-12T14:05:28.178Z</time></trkpt><trkpt lat="43.6586975" lon="3.8312396"><ele>86.0</ele><time>2026-04-12T14:05:29.178Z</time></trkpt><trkpt lat="43.6583813" lon="3.8313243"><ele>85.5</ele><time>2026-04-12T14:05:30.178Z</time></trkpt><trkpt lat="43.6580741" lon="3.8314259"><ele>85.0</ele><time>2026-04-12T14:05:31.178Z</time></trkpt><trkpt lat="43.6577729" lon="3.8315543"><ele>86.5</ele><time>2026-04-12T14:05:32.177Z</time></trkpt><trkpt lat="43.6574805" lon="3.8317025"><ele>88.0</ele><time>2026-04-12T14:05:33.177Z</time></trkpt><trkpt lat="43.6572064" lon="3.8318846"><ele>89.0</ele><time>2026-04-12T14:05:34.177Z</time></trkpt><trkpt lat="43.656943" lon="3.8320836"><ele>90.0</ele><time>2026-04-12T14:05:35.177Z</time></trkpt><trkpt lat="43.656697" lon="3.8323169"><ele>90.0</ele><time>2026-04-12T14:05:36.177Z</time></trkpt><trkpt lat="43.6564594" lon="3.8325659"><ele>90.0</ele><time>2026-04-12T14:05:37.177Z</time></trkpt><trkpt lat="43.6562364" lon="3.8328355"><ele>90.5</ele><time>2026-04-12T14:05:38.177Z</time></trkpt><trkpt lat="43.6560174" lon="3.8331178"><ele>91.0</ele><time>2026-04-12T14:05:39.177Z</time></trkpt><trkpt lat="43.6557915" lon="3.8334289"><ele>88.5</ele><time>2026-04-12T14:05:40.177Z</time></trkpt><trkpt lat="43.6555525" lon="3.8337502"><ele>86.0</ele><time>2026-04-12T14:05:41.177Z</time></trkpt><trkpt lat="43.6552932" lon="3.8340697"><ele>86.5</ele><time>2026-04-12T14:05:42.177Z</time></trkpt><trkpt lat="43.6550316" lon="3.8343762"><ele>87.0</ele><time>2026-04-12T14:05:43.178Z</time></trkpt><trkpt lat="43.6547587" lon="3.8346548"><ele>87.0</ele><time>2026-04-12T14:05:44.178Z</time></trkpt><trkpt lat="43.6544779" lon="3.8349258"><ele>87.0</ele><time>2026-04-12T14:05:45.177Z</time></trkpt><trkpt lat="43.6541952" lon="3.8351647"><ele>92.5</ele><time>2026-04-12T14:05:46.178Z</time></trkpt><trkpt lat="43.6539101" lon="3.8353814"><ele>98.0</ele><time>2026-04-12T14:05:47.177Z</time></trkpt><trkpt lat="43.6536278" lon="3.8355774"><ele>97.0</ele><time>2026-04-12T14:05:48.177Z</time></trkpt><trkpt lat="43.6533496" lon="3.8357876"><ele>96.0</ele><time>2026-04-12T14:05:49.178Z</time></trkpt><trkpt lat="43.6530778" lon="3.8359909"><ele>96.0</ele><time>2026-04-12T14:05:50.178Z</time></trkpt><trkpt lat="43.6528177" lon="3.8362016"><ele>96.0</ele><time>2026-04-12T14:05:51.177Z</time></trkpt><trkpt lat="43.652553" lon="3.8364174"><ele>96.0</ele><time>2026-04-12T14:05:52.177Z</time></trkpt><trkpt lat="43.6522965" lon="3.8366426"><ele>96.0</ele><time>2026-04-12T14:05:53.177Z</time></trkpt><trkpt lat="43.6520481" lon="3.8368892"><ele>94.5</ele><time>2026-04-12T14:05:54.178Z</time></trkpt><trkpt lat="43.6518075" lon="3.8371435"><ele>93.0</ele><time>2026-04-12T14:05:55.177Z</time></trkpt><trkpt lat="43.6515726" lon="3.8373975"><ele>96.0</ele><time>2026-04-12T14:05:56.177Z</time></trkpt><trkpt lat="43.6513477" lon="3.8376618"><ele>99.0</ele><time>2026-04-12T14:05:57.178Z</time></trkpt><trkpt lat="43.6511243" lon="3.8379328"><ele>97.5</ele><time>2026-04-12T14:05:58.178Z</time></trkpt><trkpt lat="43.6509035" lon="3.8382084"><ele>96.0</ele><time>2026-04-12T14:05:59.178Z</time></trkpt><trkpt lat="43.6506809" lon="3.8384773"><ele>96.0</ele><time>2026-04-12T14:06:00.177Z</time></trkpt><trkpt lat="43.650459" lon="3.8387461"><ele>96.0</ele><time>2026-04-12T14:06:01.177Z</time></trkpt><trkpt lat="43.6502251" lon="3.8389966"><ele>94.0</ele><time>2026-04-12T14:06:02.177Z</time></trkpt><trkpt lat="43.649982" lon="3.8392383"><ele>92.0</ele><time>2026-04-12T14:06:03.178Z</time></trkpt><trkpt lat="43.6497412" lon="3.8394794"><ele>92.0</ele><time>2026-04-12T14:06:04.178Z</time></trkpt><trkpt lat="43.6494895" lon="3.8397023"><ele>92.0</ele><time>2026-04-12T14:06:05.178Z</time></trkpt><trkpt lat="43.6492363" lon="3.8399328"><ele>89.0</ele><time>2026-04-12T14:06:06.178Z</time></trkpt><trkpt lat="43.6489822" lon="3.8401549"><ele>86.0</ele><time>2026-04-12T14:06:07.177Z</time></trkpt><trkpt lat="43.6487249" lon="3.8403795"><ele>86.5</ele><time>2026-04-12T14:06:08.177Z</time></trkpt><trkpt lat="43.6484626" lon="3.8405993"><ele>87.0</ele><time>2026-04-12T14:06:09.177Z</time></trkpt><trkpt lat="43.6481936" lon="3.8408165"><ele>86.0</ele><time>2026-04-12T14:06:10.177Z</time></trkpt><trkpt lat="43.6479228" lon="3.8410269"><ele>85.0</ele><time>2026-04-12T14:06:11.178Z</time></trkpt><trkpt lat="43.6476532" lon="3.8412241"><ele>83.5</ele><time>2026-04-12T14:06:12.177Z</time></trkpt><trkpt lat="43.6473967" lon="3.8414128"><ele>82.0</ele><time>2026-04-12T14:06:13.178Z</time></trkpt><trkpt lat="43.6471449" lon="3.8415897"><ele>81.0</ele><time>2026-04-12T14:06:14.177Z</time></trkpt><trkpt lat="43.6468837" lon="3.8417719"><ele>80.0</ele><time>2026-04-12T14:06:15.177Z</time></trkpt><trkpt lat="43.6466176" lon="3.8419657"><ele>79.0</ele><time>2026-04-12T14:06:16.177Z</time></trkpt><trkpt lat="43.646358" lon="3.8421471"><ele>78.0</ele><time>2026-04-12T14:06:17.178Z</time></trkpt><trkpt lat="43.6461002" lon="3.8423259"><ele>77.0</ele><time>2026-04-12T14:06:18.178Z</time></trkpt><trkpt lat="43.6458546" lon="3.8425043"><ele>76.0</ele><time>2026-04-12T14:06:19.178Z</time></trkpt><trkpt lat="43.6456214" lon="3.8426735"><ele>76.0</ele><time>2026-04-12T14:06:20.178Z</time></trkpt><trkpt lat="43.6454089" lon="3.8428273"><ele>76.0</ele><time>2026-04-12T14:06:21.177Z</time></trkpt><trkpt lat="43.645199" lon="3.8429694"><ele>74.66666666666666</ele><time>2026-04-12T14:06:22.178Z</time></trkpt><trkpt lat="43.6450008" lon="3.8431081"><ele>73.33333333333333</ele><time>2026-04-12T14:06:23.177Z</time></trkpt><trkpt lat="43.6448093" lon="3.843247"><ele>72.0</ele><time>2026-04-12T14:06:24.178Z</time></trkpt><trkpt lat="43.6446329" lon="3.843373"><ele>71.66666666666667</ele><time>2026-04-12T14:06:25.177Z</time></trkpt><trkpt lat="43.6444656" lon="3.8435039"><ele>71.33333333333334</ele><time>2026-04-12T14:06:26.178Z</time></trkpt><trkpt lat="43.6443108" lon="3.8436371"><ele>71.0</ele><time>2026-04-12T14:06:27.177Z</time></trkpt><trkpt lat="43.6441594" lon="3.8437677"><ele>69.33333333333334</ele><time>2026-04-12T14:06:28.177Z</time></trkpt><trkpt lat="43.6440136" lon="3.8439098"><ele>67.66666666666667</ele><time>2026-04-12T14:06:29.178Z</time></trkpt><trkpt lat="43.6438568" lon="3.8440649"><ele>66.0</ele><time>2026-04-12T14:06:30.178Z</time></trkpt><trkpt lat="43.6437036" lon="3.844228"><ele>65.66666666666667</ele><time>2026-04-12T14:06:31.177Z</time></trkpt><trkpt lat="43.6435484" lon="3.8444026"><ele>65.33333333333334</ele><time>2026-04-12T14:06:32.177Z</time></trkpt><trkpt lat="43.6433951" lon="3.8445839"><ele>65.0</ele><time>2026-04-12T14:06:33.178Z</time></trkpt><trkpt lat="43.6432474" lon="3.8447709"><ele>65.0</ele><time>2026-04-12T14:06:34.177Z</time></trkpt><trkpt lat="43.643096" lon="3.8449603"><ele>65.0</ele><time>2026-04-12T14:06:35.177Z</time></trkpt><trkpt lat="43.6429422" lon="3.8451527"><ele>65.0</ele><time>2026-04-12T14:06:36.177Z</time></trkpt><trkpt lat="43.6427918" lon="3.8453253"><ele>65.0</ele><time>2026-04-12T14:06:37.178Z</time></trkpt><trkpt lat="43.6426403" lon="3.8454884"><ele>65.0</ele><time>2026-04-12T14:06:38.177Z</time></trkpt><trkpt lat="43.6424784" lon="3.845656"><ele>65.0</ele><time>2026-04-12T14:06:39.178Z</time></trkpt><trkpt lat="43.6423057" lon="3.8458126"><ele>65.0</ele><time>2026-04-12T14:06:40.178Z</time></trkpt><trkpt lat="43.6421372" lon="3.8459586"><ele>65.0</ele><time>2026-04-12T14:06:41.177Z</time></trkpt><trkpt lat="43.6419768" lon="3.846092"><ele>65.0</ele><time>2026-04-12T14:06:42.177Z</time></trkpt><trkpt lat="43.6418223" lon="3.8462151"><ele>64.33333333333334</ele><time>2026-04-12T14:06:43.177Z</time></trkpt><trkpt lat="43.6416753" lon="3.8463303"><ele>63.66666666666667</ele><time>2026-04-12T14:06:44.178Z</time></trkpt><trkpt lat="43.6415415" lon="3.8464418"><ele>63.0</ele><time>2026-04-12T14:06:45.177Z</time></trkpt><trkpt lat="43.6414149" lon="3.8465561"><ele>63.0</ele><time>2026-04-12T14:06:46.177Z</time></trkpt><trkpt lat="43.6412958" lon="3.8466542"><ele>63.0</ele><time>2026-04-12T14:06:47.178Z</time></trkpt><trkpt lat="43.6411804" lon="3.8467414"><ele>63.0</ele><time>2026-04-12T14:06:48.177Z</time></trkpt><trkpt lat="43.6410694" lon="3.8468248"><ele>63.0</ele><time>2026-04-12T14:06:49.177Z</time></trkpt><trkpt lat="43.6397882" lon="3.8467269"><ele>61.33333333333333</ele><time>2026-04-12T14:06:58.177Z</time></trkpt><trkpt lat="43.6395651" lon="3.8466999"><ele>59.666666666666664</ele><time>2026-04-12T14:06:59.178Z</time></trkpt><trkpt lat="43.6393474" lon="3.8466466"><ele>58.0</ele><time>2026-04-12T14:07:00.177Z</time></trkpt><trkpt lat="43.6391528" lon="3.8465802"><ele>56.666666666666664</ele><time>2026-04-12T14:07:01.177Z</time></trkpt><trkpt lat="43.6389601" lon="3.8465249"><ele>55.33333333333333</ele><time>2026-04-12T14:07:02.177Z</time></trkpt><trkpt lat="43.63878" lon="3.8464439"><ele>54.0</ele><time>2026-04-12T14:07:03.177Z</time></trkpt><trkpt lat="43.6385975" lon="3.8463637"><ele>54.0</ele><time>2026-04-12T14:07:04.177Z</time></trkpt><trkpt lat="43.6384286" lon="3.8462638"><ele>54.0</ele><time>2026-04-12T14:07:05.177Z</time></trkpt><trkpt lat="43.6382615" lon="3.8461579"><ele>54.0</ele><time>2026-04-12T14:07:06.177Z</time></trkpt><trkpt lat="43.6381103" lon="3.8460429"><ele>53.75</ele><time>2026-04-12T14:07:07.177Z</time></trkpt><trkpt lat="43.63797" lon="3.8459291"><ele>53.5</ele><time>2026-04-12T14:07:08.178Z</time></trkpt><trkpt lat="43.6378435" lon="3.8458185"><ele>53.25</ele><time>2026-04-12T14:07:09.177Z</time></trkpt><trkpt lat="43.6377303" lon="3.8457145"><ele>53.0</ele><time>2026-04-12T14:07:10.177Z</time></trkpt><trkpt lat="43.637624" lon="3.8456181"><ele>53.0</ele><time>2026-04-12T14:07:11.177Z</time></trkpt><trkpt lat="43.6375194" lon="3.8455321"><ele>53.0</ele><time>2026-04-12T14:07:12.177Z</time></trkpt><trkpt lat="43.637433" lon="3.8454554"><ele>53.0</ele><time>2026-04-12T14:07:13.178Z</time></trkpt><trkpt lat="43.637345" lon="3.8453816"><ele>53.0</ele><time>2026-04-12T14:07:14.177Z</time></trkpt><trkpt lat="43.6372679" lon="3.8453115"><ele>53.0</ele><time>2026-04-12T14:07:15.177Z</time></trkpt><trkpt lat="43.637183" lon="3.8452459"><ele>53.0</ele><time>2026-04-12T14:07:16.177Z</time></trkpt><trkpt lat="43.6371062" lon="3.8451732"><ele>53.0</ele><time>2026-04-12T14:07:17.178Z</time></trkpt><trkpt lat="43.6370333" lon="3.8451034"><ele>53.0</ele><time>2026-04-12T14:07:18.177Z</time></trkpt><trkpt lat="43.6369463" lon="3.8450301"><ele>53.0</ele><time>2026-04-12T14:07:19.178Z</time></trkpt><trkpt lat="43.6368612" lon="3.844928"><ele>53.0</ele><time>2026-04-12T14:07:20.178Z</time></trkpt><trkpt lat="43.6367618" lon="3.8448233"><ele>53.0</ele><time>2026-04-12T14:07:21.178Z</time></trkpt><trkpt lat="43.6366627" lon="3.8447309"><ele>53.0</ele><time>2026-04-12T14:07:22.177Z</time></trkpt><trkpt lat="43.636563" lon="3.8446446"><ele>53.0</ele><time>2026-04-12T14:07:23.177Z</time></trkpt><trkpt lat="43.6364551" lon="3.8445768"><ele>53.0</ele><time>2026-04-12T14:07:24.177Z</time></trkpt><trkpt lat="43.6363356" lon="3.8445124"><ele>53.0</ele><time>2026-04-12T14:07:25.178Z</time></trkpt><trkpt lat="43.636195" lon="3.8444401"><ele>53.0</ele><time>2026-04-12T14:07:26.178Z</time></trkpt><trkpt lat="43.6360624" lon="3.8443669"><ele>53.0</ele><time>2026-04-12T14:07:27.178Z</time></trkpt><trkpt lat="43.6359329" lon="3.8443106"><ele>53.0</ele><time>2026-04-12T14:07:28.177Z</time></trkpt><trkpt lat="43.635814" lon="3.8442495"><ele>52.8</ele><time>2026-04-12T14:07:29.177Z</time></trkpt><trkpt lat="43.6357097" lon="3.8441957"><ele>52.599999999999994</ele><time>2026-04-12T14:07:30.177Z</time></trkpt><trkpt lat="43.6356102" lon="3.844136"><ele>52.400000000000006</ele><time>2026-04-12T14:07:31.177Z</time></trkpt><trkpt lat="43.6355159" lon="3.8440867"><ele>52.2</ele><time>2026-04-12T14:07:32.177Z</time></trkpt><trkpt lat="43.6354327" lon="3.844032"><ele>52.0</ele><time>2026-04-12T14:07:33.177Z</time></trkpt><trkpt lat="43.6353502" lon="3.843985"><ele>52.400000000000006</ele><time>2026-04-12T14:07:34.177Z</time></trkpt><trkpt lat="43.635267" lon="3.843939"><ele>52.800000000000004</ele><time>2026-04-12T14:07:35.177Z</time></trkpt><trkpt lat="43.6351831" lon="3.8438941"><ele>53.2</ele><time>2026-04-12T14:07:36.178Z</time></trkpt><trkpt lat="43.6350892" lon="3.8438368"><ele>53.6</ele><time>2026-04-12T14:07:37.177Z</time></trkpt><trkpt lat="43.6349941" lon="3.8437757"><ele>54.0</ele><time>2026-04-12T14:07:38.177Z</time></trkpt><trkpt lat="43.634888" lon="3.8437079"><ele>54.0</ele><time>2026-04-12T14:07:39.178Z</time></trkpt><trkpt lat="43.6347724" lon="3.843631"><ele>54.0</ele><time>2026-04-12T14:07:40.177Z</time></trkpt><trkpt lat="43.6346495" lon="3.8435701"><ele>54.0</ele><time>2026-04-12T14:07:41.178Z</time></trkpt><trkpt lat="43.63453" lon="3.84351"><ele>54.0</ele><time>2026-04-12T14:07:42.177Z</time></trkpt><trkpt lat="43.6344111" lon="3.843452"><ele>54.2</ele><time>2026-04-12T14:07:43.178Z</time></trkpt><trkpt lat="43.634297" lon="3.8434033"><ele>54.400000000000006</ele><time>2026-04-12T14:07:44.177Z</time></trkpt><trkpt lat="43.6341928" lon="3.843353"><ele>54.6</ele><time>2026-04-12T14:07:45.178Z</time></trkpt><trkpt lat="43.6341038" lon="3.8433015"><ele>54.8</ele><time>2026-04-12T14:07:46.177Z</time></trkpt><trkpt lat="43.6340116" lon="3.8432462"><ele>55.0</ele><time>2026-04-12T14:07:47.178Z</time></trkpt><trkpt lat="43.6339053" lon="3.8432032"><ele>55.0</ele><time>2026-04-12T14:07:48.177Z</time></trkpt><trkpt lat="43.6338067" lon="3.8431733"><ele>55.0</ele><time>2026-04-12T14:07:49.177Z</time></trkpt><trkpt lat="43.6336981" lon="3.8431348"><ele>55.0</ele><time>2026-04-12T14:07:50.177Z</time></trkpt><trkpt lat="43.6335945" lon="3.8431019"><ele>55.0</ele><time>2026-04-12T14:07:51.177Z</time></trkpt><trkpt lat="43.6334991" lon="3.8430785"><ele>55.0</ele><time>2026-04-12T14:07:52.178Z</time></trkpt><trkpt lat="43.6333952" lon="3.8430671"><ele>54.5</ele><time>2026-04-12T14:07:53.177Z</time></trkpt><trkpt lat="43.6332925" lon="3.8430615"><ele>54.0</ele><time>2026-04-12T14:07:54.177Z</time></trkpt><trkpt lat="43.6331807" lon="3.8430533"><ele>53.5</ele><time>2026-04-12T14:07:55.177Z</time></trkpt><trkpt lat="43.6330587" lon="3.8430255"><ele>53.0</ele><time>2026-04-12T14:07:56.177Z</time></trkpt><trkpt lat="43.6329312" lon="3.8429945"><ele>53.0</ele><time>2026-04-12T14:07:57.177Z</time></trkpt><trkpt lat="43.6328072" lon="3.842948"><ele>53.0</ele><time>2026-04-12T14:07:58.177Z</time></trkpt><trkpt lat="43.6326948" lon="3.8429043"><ele>53.0</ele><time>2026-04-12T14:07:59.177Z</time></trkpt><trkpt lat="43.6325921" lon="3.842862"><ele>53.0</ele><time>2026-04-12T14:08:00.177Z</time></trkpt><trkpt lat="43.6324966" lon="3.8428221"><ele>52.66666666666667</ele><time>2026-04-12T14:08:01.178Z</time></trkpt><trkpt lat="43.6324077" lon="3.8427725"><ele>52.333333333333336</ele><time>2026-04-12T14:08:02.178Z</time></trkpt><trkpt lat="43.6323272" lon="3.8427306"><ele>52.0</ele><time>2026-04-12T14:08:03.177Z</time></trkpt><trkpt lat="43.6322493" lon="3.8426839"><ele>51.66666666666667</ele><time>2026-04-12T14:08:04.178Z</time></trkpt><trkpt lat="43.6321752" lon="3.8426363"><ele>51.333333333333336</ele><time>2026-04-12T14:08:05.177Z</time></trkpt><trkpt lat="43.6321116" lon="3.8425952"><ele>51.0</ele><time>2026-04-12T14:08:06.177Z</time></trkpt><trkpt lat="43.6320062" lon="3.8425196"><ele>51.0</ele><time>2026-04-12T14:08:08.177Z</time></trkpt><trkpt lat="43.6319196" lon="3.8424465"><ele>51.0</ele><time>2026-04-12T14:08:10.177Z</time></trkpt><trkpt lat="43.6318297" lon="3.8423668"><ele>51.0</ele><time>2026-04-12T14:08:12.178Z</time></trkpt><trkpt lat="43.6317353" lon="3.8422553"><ele>51.0</ele><time>2026-04-12T14:08:14.178Z</time></trkpt><trkpt lat="43.6316907" lon="3.8421777"><ele>51.0</ele><time>2026-04-12T14:08:15.177Z</time></trkpt><trkpt lat="43.6316629" lon="3.8420676"><ele>51.0</ele><time>2026-04-12T14:08:16.177Z</time></trkpt><trkpt lat="43.6316353" lon="3.8419405"><ele>51.0</ele><time>2026-04-12T14:08:17.177Z</time></trkpt><trkpt lat="43.6315991" lon="3.8418216"><ele>51.0</ele><time>2026-04-12T14:08:18.177Z</time></trkpt><trkpt lat="43.6315504" lon="3.8417328"><ele>51.0</ele><time>2026-04-12T14:08:19.178Z</time></trkpt><trkpt lat="43.631486" lon="3.841669"><ele>51.0</ele><time>2026-04-12T14:08:20.177Z</time></trkpt><trkpt lat="43.6314108" lon="3.8416105"><ele>51.0</ele><time>2026-04-12T14:08:21.178Z</time></trkpt><trkpt lat="43.6313184" lon="3.8415781"><ele>51.199999999999996</ele><time>2026-04-12T14:08:22.177Z</time></trkpt><trkpt lat="43.6312338" lon="3.8415638"><ele>51.4</ele><time>2026-04-12T14:08:23.178Z</time></trkpt><trkpt lat="43.6311414" lon="3.8415663"><ele>51.6</ele><time>2026-04-12T14:08:24.177Z</time></trkpt><trkpt lat="43.6310505" lon="3.8415896"><ele>51.8</ele><time>2026-04-12T14:08:25.177Z</time></trkpt><trkpt lat="43.6309631" lon="3.8416374"><ele>52.0</ele><time>2026-04-12T14:08:26.177Z</time></trkpt><trkpt lat="43.6308618" lon="3.8417016"><ele>52.0</ele><time>2026-04-12T14:08:27.177Z</time></trkpt><trkpt lat="43.6307464" lon="3.8417506"><ele>52.0</ele><time>2026-04-12T14:08:28.177Z</time></trkpt><trkpt lat="43.6306278" lon="3.8417738"><ele>52.0</ele><time>2026-04-12T14:08:29.178Z</time></trkpt><trkpt lat="43.630503" lon="3.8417846"><ele>52.0</ele><time>2026-04-12T14:08:30.178Z</time></trkpt><trkpt lat="43.6303736" lon="3.8417779"><ele>53.0</ele><time>2026-04-12T14:08:31.178Z</time></trkpt><trkpt lat="43.6302324" lon="3.8417594"><ele>54.0</ele><time>2026-04-12T14:08:32.177Z</time></trkpt><trkpt lat="43.6300743" lon="3.8417306"><ele>55.0</ele><time>2026-04-12T14:08:33.177Z</time></trkpt><trkpt lat="43.6299009" lon="3.841687"><ele>55.0</ele><time>2026-04-12T14:08:34.177Z</time></trkpt><trkpt lat="43.6297263" lon="3.8416482"><ele>55.0</ele><time>2026-04-12T14:08:35.177Z</time></trkpt><trkpt lat="43.62954" lon="3.8415893"><ele>55.0</ele><time>2026-04-12T14:08:36.177Z</time></trkpt><trkpt lat="43.6293567" lon="3.8415084"><ele>56.0</ele><time>2026-04-12T14:08:37.177Z</time></trkpt><trkpt lat="43.629174" lon="3.8414068"><ele>57.0</ele><time>2026-04-12T14:08:38.177Z</time></trkpt><trkpt lat="43.6289751" lon="3.8412873"><ele>58.0</ele><time>2026-04-12T14:08:39.178Z</time></trkpt><trkpt lat="43.6287966" lon="3.8411369"><ele>57.666666666666664</ele><time>2026-04-12T14:08:40.177Z</time></trkpt><trkpt lat="43.6286188" lon="3.8409822"><ele>57.33333333333333</ele><time>2026-04-12T14:08:41.177Z</time></trkpt><trkpt lat="43.6284397" lon="3.8408185"><ele>57.0</ele><time>2026-04-12T14:08:42.177Z</time></trkpt><trkpt lat="43.6282542" lon="3.8406369"><ele>57.0</ele><time>2026-04-12T14:08:43.177Z</time></trkpt><trkpt lat="43.6280752" lon="3.8404529"><ele>57.0</ele><time>2026-04-12T14:08:44.178Z</time></trkpt><trkpt lat="43.6278974" lon="3.8402616"><ele>57.0</ele><time>2026-04-12T14:08:45.177Z</time></trkpt><trkpt lat="43.6277283" lon="3.8400648"><ele>58.0</ele><time>2026-04-12T14:08:46.178Z</time></trkpt><trkpt lat="43.627569" lon="3.8398658"><ele>59.0</ele><time>2026-04-12T14:08:47.178Z</time></trkpt><trkpt lat="43.6274225" lon="3.8396719"><ele>60.0</ele><time>2026-04-12T14:08:48.177Z</time></trkpt><trkpt lat="43.6272875" lon="3.8394812"><ele>60.66666666666667</ele><time>2026-04-12T14:08:49.177Z</time></trkpt><trkpt lat="43.6271579" lon="3.8392901"><ele>61.333333333333336</ele><time>2026-04-12T14:08:50.178Z</time></trkpt><trkpt lat="43.6270332" lon="3.8390971"><ele>62.0</ele><time>2026-04-12T14:08:51.177Z</time></trkpt><trkpt lat="43.6269151" lon="3.8389149"><ele>62.0</ele><time>2026-04-12T14:08:52.177Z</time></trkpt><trkpt lat="43.6268117" lon="3.8387449"><ele>62.0</ele><time>2026-04-12T14:08:53.177Z</time></trkpt><trkpt lat="43.6267077" lon="3.8385742"><ele>62.0</ele><time>2026-04-12T14:08:54.177Z</time></trkpt><trkpt lat="43.6266104" lon="3.8384149"><ele>62.5</ele><time>2026-04-12T14:08:55.178Z</time></trkpt><trkpt lat="43.6265236" lon="3.8382779"><ele>63.0</ele><time>2026-04-12T14:08:56.177Z</time></trkpt><trkpt lat="43.6264447" lon="3.8381411"><ele>63.5</ele><time>2026-04-12T14:08:57.178Z</time></trkpt><trkpt lat="43.6263716" lon="3.8380049"><ele>64.0</ele><time>2026-04-12T14:08:58.177Z</time></trkpt><trkpt lat="43.626295" lon="3.8378689"><ele>64.0</ele><time>2026-04-12T14:08:59.177Z</time></trkpt><trkpt lat="43.6262142" lon="3.8377317"><ele>64.0</ele><time>2026-04-12T14:09:00.177Z</time></trkpt><trkpt lat="43.6261377" lon="3.8376032"><ele>64.0</ele><time>2026-04-12T14:09:01.177Z</time></trkpt><trkpt lat="43.6260585" lon="3.8374737"><ele>64.0</ele><time>2026-04-12T14:09:02.178Z</time></trkpt><trkpt lat="43.625977" lon="3.8373525"><ele>64.8</ele><time>2026-04-12T14:09:03.178Z</time></trkpt><trkpt lat="43.6258916" lon="3.8372405"><ele>65.60000000000001</ele><time>2026-04-12T14:09:04.177Z</time></trkpt><trkpt lat="43.6258007" lon="3.837132"><ele>66.4</ele><time>2026-04-12T14:09:05.177Z</time></trkpt><trkpt lat="43.6257196" lon="3.8370312"><ele>67.2</ele><time>2026-04-12T14:09:06.178Z</time></trkpt><trkpt lat="43.6256466" lon="3.8369446"><ele>68.0</ele><time>2026-04-12T14:09:07.177Z</time></trkpt><trkpt lat="43.6255996" lon="3.8368517"><ele>68.33333333333334</ele><time>2026-04-12T14:09:08.177Z</time></trkpt><trkpt lat="43.6255688" lon="3.8367552"><ele>68.66666666666667</ele><time>2026-04-12T14:09:09.177Z</time></trkpt><trkpt lat="43.6255639" lon="3.8366487"><ele>69.0</ele><time>2026-04-12T14:09:10.178Z</time></trkpt><trkpt lat="43.6255661" lon="3.8365468"><ele>69.33333333333333</ele><time>2026-04-12T14:09:11.177Z</time></trkpt><trkpt lat="43.6255727" lon="3.8364372"><ele>69.66666666666666</ele><time>2026-04-12T14:09:12.177Z</time></trkpt><trkpt lat="43.6255819" lon="3.8363148"><ele>70.0</ele><time>2026-04-12T14:09:13.177Z</time></trkpt><trkpt lat="43.6255689" lon="3.836194"><ele>70.0</ele><time>2026-04-12T14:09:14.177Z</time></trkpt><trkpt lat="43.6255378" lon="3.8360865"><ele>70.0</ele><time>2026-04-12T14:09:15.177Z</time></trkpt><trkpt lat="43.6254906" lon="3.8359898"><ele>70.0</ele><time>2026-04-12T14:09:16.177Z</time></trkpt><trkpt lat="43.6254261" lon="3.8359109"><ele>70.0</ele><time>2026-04-12T14:09:17.178Z</time></trkpt><trkpt lat="43.6253384" lon="3.8358532"><ele>70.0</ele><time>2026-04-12T14:09:18.177Z</time></trkpt><trkpt lat="43.6252672" lon="3.8358229"><ele>70.0</ele><time>2026-04-12T14:09:19.177Z</time></trkpt><trkpt lat="43.6251779" lon="3.8358069"><ele>70.0</ele><time>2026-04-12T14:09:20.178Z</time></trkpt><trkpt lat="43.6250922" lon="3.8358179"><ele>70.0</ele><time>2026-04-12T14:09:21.178Z</time></trkpt><trkpt lat="43.6250147" lon="3.8358479"><ele>70.0</ele><time>2026-04-12T14:09:22.177Z</time></trkpt><trkpt lat="43.6249386" lon="3.8359077"><ele>70.0</ele><time>2026-04-12T14:09:23.178Z</time></trkpt><trkpt lat="43.6248751" lon="3.8360012"><ele>70.0</ele><time>2026-04-12T14:09:24.178Z</time></trkpt><trkpt lat="43.624827" lon="3.8361051"><ele>70.0</ele><time>2026-04-12T14:09:25.177Z</time></trkpt><trkpt lat="43.6247987" lon="3.8362255"><ele>70.0</ele><time>2026-04-12T14:09:26.178Z</time></trkpt><trkpt lat="43.6247788" lon="3.8363506"><ele>70.0</ele><time>2026-04-12T14:09:27.177Z</time></trkpt><trkpt lat="43.6247796" lon="3.8364804"><ele>70.0</ele><time>2026-04-12T14:09:28.178Z</time></trkpt><trkpt lat="43.6248032" lon="3.8366055"><ele>70.0</ele><time>2026-04-12T14:09:29.178Z</time></trkpt><trkpt lat="43.6248402" lon="3.8367397"><ele>70.0</ele><time>2026-04-12T14:09:30.177Z</time></trkpt><trkpt lat="43.6248812" lon="3.8368578"><ele>70.14285714285714</ele><time>2026-04-12T14:09:31.178Z</time></trkpt><trkpt lat="43.6249303" lon="3.8369598"><ele>70.28571428571428</ele><time>2026-04-12T14:09:32.177Z</time></trkpt><trkpt lat="43.6249621" lon="3.8370594"><ele>70.42857142857143</ele><time>2026-04-12T14:09:33.178Z</time></trkpt><trkpt lat="43.6249872" lon="3.837153"><ele>70.57142857142857</ele><time>2026-04-12T14:09:34.177Z</time></trkpt><trkpt lat="43.625026" lon="3.8372376"><ele>70.71428571428571</ele><time>2026-04-12T14:09:35.178Z</time></trkpt><trkpt lat="43.6250681" lon="3.837317"><ele>70.85714285714286</ele><time>2026-04-12T14:09:36.177Z</time></trkpt><trkpt lat="43.6251142" lon="3.8373797"><ele>71.0</ele><time>2026-04-12T14:09:37.177Z</time></trkpt><trkpt lat="43.625169" lon="3.837426"><ele>71.0</ele><time>2026-04-12T14:09:38.177Z</time></trkpt><trkpt lat="43.6252324" lon="3.8374663"><ele>71.0</ele><time>2026-04-12T14:09:39.177Z</time></trkpt><trkpt lat="43.6253042" lon="3.8375103"><ele>71.0</ele><time>2026-04-12T14:09:40.177Z</time></trkpt><trkpt lat="43.6253805" lon="3.8375555"><ele>71.0</ele><time>2026-04-12T14:09:41.177Z</time></trkpt><trkpt lat="43.6254665" lon="3.8376039"><ele>71.0</ele><time>2026-04-12T14:09:42.177Z</time></trkpt><trkpt lat="43.6255468" lon="3.8376547"><ele>71.0</ele><time>2026-04-12T14:09:43.178Z</time></trkpt><trkpt lat="43.6256167" lon="3.8377005"><ele>70.16666666666667</ele><time>2026-04-12T14:09:44.177Z</time></trkpt><trkpt lat="43.6256872" lon="3.8377467"><ele>69.33333333333334</ele><time>2026-04-12T14:09:45.177Z</time></trkpt><trkpt lat="43.6257534" lon="3.8377953"><ele>68.5</ele><time>2026-04-12T14:09:46.177Z</time></trkpt><trkpt lat="43.6258101" lon="3.8378432"><ele>67.66666666666667</ele><time>2026-04-12T14:09:47.178Z</time></trkpt><trkpt lat="43.6258576" lon="3.8379026"><ele>66.83333333333333</ele><time>2026-04-12T14:09:48.177Z</time></trkpt><trkpt lat="43.6259408" lon="3.8380191"><ele>66.0</ele><time>2026-04-12T14:09:50.177Z</time></trkpt><trkpt lat="43.6260151" lon="3.8381512"><ele>66.0</ele><time>2026-04-12T14:09:52.177Z</time></trkpt><trkpt lat="43.6260295" lon="3.8382884"><ele>66.0</ele><time>2026-04-12T14:09:54.177Z</time></trkpt><trkpt lat="43.6259982" lon="3.8383961"><ele>66.0</ele><time>2026-04-12T14:09:56.178Z</time></trkpt><trkpt lat="43.6259548" lon="3.8384883"><ele>66.0</ele><time>2026-04-12T14:09:58.177Z</time></trkpt><trkpt lat="43.6259024" lon="3.838568"><ele>66.0</ele><time>2026-04-12T14:10:00.178Z</time></trkpt><trkpt lat="43.6258651" lon="3.8386595"><ele>66.0</ele><time>2026-04-12T14:10:02.178Z</time></trkpt><trkpt lat="43.6257923" lon="3.8387591"><ele>66.0</ele><time>2026-04-12T14:10:04.177Z</time></trkpt><trkpt lat="43.6257151" lon="3.8387721"><ele>66.0</ele><time>2026-04-12T14:10:06.177Z</time></trkpt><trkpt lat="43.6256543" lon="3.8386987"><ele>66.0</ele><time>2026-04-12T14:10:09.177Z</time></trkpt><trkpt lat="43.6256174" lon="3.8386261"><ele>66.0</ele><time>2026-04-12T14:10:12.178Z</time></trkpt><trkpt lat="43.6255693" lon="3.8385202"><ele>66.0</ele><time>2026-04-12T14:10:15.177Z</time></trkpt><trkpt lat="43.6255272" lon="3.8384389"><ele>66.0</ele><time>2026-04-12T14:10:18.178Z</time></trkpt><trkpt lat="43.6255512" lon="3.8385314"><ele>66.0</ele><time>2026-04-12T14:10:45.177Z</time></trkpt><trkpt lat="43.6255947" lon="3.838617"><ele>66.0</ele><time>2026-04-12T14:10:48.178Z</time></trkpt><trkpt lat="43.6256668" lon="3.8385983"><ele>66.0</ele><time>2026-04-12T14:10:50.178Z</time></trkpt><trkpt lat="43.6257362" lon="3.8385649"><ele>66.0</ele><time>2026-04-12T14:10:53.178Z</time></trkpt><trkpt lat="43.6257963" lon="3.838517"><ele>66.0</ele><time>2026-04-12T14:10:56.177Z</time></trkpt><trkpt lat="43.625848" lon="3.8384535"><ele>66.0</ele><time>2026-04-12T14:10:58.177Z</time></trkpt><trkpt lat="43.62587" lon="3.8383437"><ele>66.0</ele><time>2026-04-12T14:11:01.177Z</time></trkpt><trkpt lat="43.6258496" lon="3.8382505"><ele>66.0</ele><time>2026-04-12T14:11:03.177Z</time></trkpt><trkpt lat="43.6258047" lon="3.8381681"><ele>66.0</ele><time>2026-04-12T14:11:05.177Z</time></trkpt><trkpt lat="43.6257426" lon="3.8380646"><ele>66.0</ele><time>2026-04-12T14:11:07.177Z</time></trkpt><trkpt lat="43.6256926" lon="3.8379787"><ele>66.0</ele><time>2026-04-12T14:11:09.177Z</time></trkpt><trkpt lat="43.6256384" lon="3.8379152"><ele>66.0</ele><time>2026-04-12T14:11:11.177Z</time></trkpt><trkpt lat="43.625559" lon="3.8378602"><ele>66.0</ele><time>2026-04-12T14:11:13.177Z</time></trkpt><trkpt lat="43.6254918" lon="3.8378415"><ele>66.0</ele><time>2026-04-12T14:11:15.177Z</time></trkpt><trkpt lat="43.6254596" lon="3.8379363"><ele>66.0</ele><time>2026-04-12T14:11:19.177Z</time></trkpt><trkpt lat="43.6254136" lon="3.83803"><ele>66.0</ele><time>2026-04-12T14:11:21.177Z</time></trkpt><trkpt lat="43.6253564" lon="3.8381141"><ele>66.0</ele><time>2026-04-12T14:11:23.178Z</time></trkpt><trkpt lat="43.6252996" lon="3.8381859"><ele>66.0</ele><time>2026-04-12T14:11:26.177Z</time></trkpt><trkpt lat="43.625224" lon="3.8382225"><ele>66.0</ele><time>2026-04-12T14:13:20.178Z</time></trkpt><trkpt lat="43.6251719" lon="3.8383398"><ele>67.5</ele><time>2026-04-12T14:13:22.178Z</time></trkpt><trkpt lat="43.6250988" lon="3.8383727"><ele>69.0</ele><time>2026-04-12T14:13:32.177Z</time></trkpt><trkpt lat="43.6250496" lon="3.8382955"><ele>70.5</ele><time>2026-04-12T14:13:34.177Z</time></trkpt><trkpt lat="43.6249852" lon="3.838197"><ele>72.0</ele><time>2026-04-12T14:13:36.178Z</time></trkpt><trkpt lat="43.6249238" lon="3.8381404"><ele>73.5</ele><time>2026-04-12T14:13:38.177Z</time></trkpt><trkpt lat="43.624859" lon="3.8380574"><ele>75.0</ele><time>2026-04-12T14:13:41.178Z</time></trkpt><trkpt lat="43.6248044" lon="3.8380108"><ele>75.0</ele><time>2026-04-12T14:13:44.177Z</time></trkpt><trkpt lat="43.6247415" lon="3.8379687"><ele>75.0</ele><time>2026-04-12T14:13:46.177Z</time></trkpt><trkpt lat="43.6246381" lon="3.8379119"><ele>75.0</ele><time>2026-04-12T14:13:48.178Z</time></trkpt><trkpt lat="43.6245872" lon="3.8378543"><ele>75.0</ele><time>2026-04-12T14:13:50.177Z</time></trkpt><trkpt lat="43.6245087" lon="3.837843"><ele>75.0</ele><time>2026-04-12T14:13:53.177Z</time></trkpt><trkpt lat="43.6244407" lon="3.8378983"><ele>75.0</ele><time>2026-04-12T14:13:57.177Z</time></trkpt><trkpt lat="43.6244162" lon="3.8379882"><ele>78.0</ele><time>2026-04-12T14:14:01.177Z</time></trkpt><trkpt lat="43.6244208" lon="3.8380766"><ele>78.0</ele><time>2026-04-12T14:14:07.178Z</time></trkpt><trkpt lat="43.6244485" lon="3.8381631"><ele>78.0</ele><time>2026-04-12T14:14:18.177Z</time></trkpt><trkpt lat="43.624442" lon="3.838074"><ele>78.0</ele><time>2026-04-12T14:14:58.176Z</time></trkpt></trkseg><trkseg><trkpt lat="43.6244137" lon="3.8379644"><ele>78.0</ele><time>2026-04-12T14:38:14.171Z</time></trkpt><trkpt lat="43.6244747" lon="3.8379084"><ele>78.0</ele><time>2026-04-12T14:38:18.171Z</time></trkpt><trkpt lat="43.6245618" lon="3.8379671"><ele>78.0</ele><time>2026-04-12T14:38:20.172Z</time></trkpt><trkpt lat="43.624626" lon="3.8380259"><ele>78.0</ele><time>2026-04-12T14:38:21.171Z</time></trkpt><trkpt lat="43.624704" lon="3.8380766"><ele>78.0</ele><time>2026-04-12T14:38:22.171Z</time></trkpt><trkpt lat="43.6247723" lon="3.8381349"><ele>78.0</ele><time>2026-04-12T14:38:23.172Z</time></trkpt><trkpt lat="43.6248396" lon="3.8382021"><ele>77.5</ele><time>2026-04-12T14:38:24.171Z</time></trkpt><trkpt lat="43.6249075" lon="3.8382395"><ele>77.0</ele><time>2026-04-12T14:38:25.171Z</time></trkpt><trkpt lat="43.624976" lon="3.8382837"><ele>76.5</ele><time>2026-04-12T14:38:26.172Z</time></trkpt><trkpt lat="43.6250414" lon="3.8383382"><ele>76.0</ele><time>2026-04-12T14:38:27.171Z</time></trkpt><trkpt lat="43.6250987" lon="3.8383909"><ele>75.5</ele><time>2026-04-12T14:38:28.171Z</time></trkpt><trkpt lat="43.6251528" lon="3.8384496"><ele>75.0</ele><time>2026-04-12T14:38:29.172Z</time></trkpt><trkpt lat="43.62522" lon="3.8385852"><ele>74.6</ele><time>2026-04-12T14:38:31.171Z</time></trkpt><trkpt lat="43.6252578" lon="3.8387376"><ele>74.2</ele><time>2026-04-12T14:38:33.171Z</time></trkpt><trkpt lat="43.6252797" lon="3.8388873"><ele>73.8</ele><time>2026-04-12T14:38:35.171Z</time></trkpt><trkpt lat="43.6252689" lon="3.8390012"><ele>73.4</ele><time>2026-04-12T14:38:37.171Z</time></trkpt><trkpt lat="43.6253324" lon="3.8390819"><ele>73.0</ele><time>2026-04-12T14:38:40.171Z</time></trkpt><trkpt lat="43.6253957" lon="3.8390292"><ele>71.6</ele><time>2026-04-12T14:38:42.171Z</time></trkpt><trkpt lat="43.6254643" lon="3.8389615"><ele>70.19999999999999</ele><time>2026-04-12T14:38:44.171Z</time></trkpt><trkpt lat="43.6255651" lon="3.8389172"><ele>68.8</ele><time>2026-04-12T14:38:46.172Z</time></trkpt><trkpt lat="43.6256345" lon="3.8388951"><ele>67.39999999999999</ele><time>2026-04-12T14:38:47.171Z</time></trkpt><trkpt lat="43.625698" lon="3.8388738"><ele>66.0</ele><time>2026-04-12T14:38:48.171Z</time></trkpt><trkpt lat="43.6258224" lon="3.8388522"><ele>66.0</ele><time>2026-04-12T14:38:50.171Z</time></trkpt><trkpt lat="43.6259325" lon="3.8388835"><ele>66.0</ele><time>2026-04-12T14:38:52.172Z</time></trkpt><trkpt lat="43.6260414" lon="3.8389599"><ele>66.0</ele><time>2026-04-12T14:38:54.172Z</time></trkpt><trkpt lat="43.6261068" lon="3.838973"><ele>66.0</ele><time>2026-04-12T14:38:55.171Z</time></trkpt><trkpt lat="43.626171" lon="3.838962"><ele>66.0</ele><time>2026-04-12T14:38:56.172Z</time></trkpt><trkpt lat="43.6262274" lon="3.8389227"><ele>66.0</ele><time>2026-04-12T14:38:57.171Z</time></trkpt><trkpt lat="43.626301" lon="3.8388098"><ele>66.0</ele><time>2026-04-12T14:38:59.172Z</time></trkpt><trkpt lat="43.6263089" lon="3.8386555"><ele>66.0</ele><time>2026-04-12T14:39:01.172Z</time></trkpt><trkpt lat="43.626247" lon="3.838504"><ele>66.0</ele><time>2026-04-12T14:39:03.172Z</time></trkpt><trkpt lat="43.6261901" lon="3.8384119"><ele>66.0</ele><time>2026-04-12T14:39:04.171Z</time></trkpt><trkpt lat="43.6261332" lon="3.8383092"><ele>66.0</ele><time>2026-04-12T14:39:05.171Z</time></trkpt><trkpt lat="43.6260762" lon="3.838189"><ele>66.0</ele><time>2026-04-12T14:39:06.171Z</time></trkpt><trkpt lat="43.6260162" lon="3.8380834"><ele>66.0</ele><time>2026-04-12T14:39:07.171Z</time></trkpt><trkpt lat="43.6259493" lon="3.8379826"><ele>66.0</ele><time>2026-04-12T14:39:08.172Z</time></trkpt><trkpt lat="43.6258724" lon="3.8378825"><ele>66.0</ele><time>2026-04-12T14:39:09.172Z</time></trkpt><trkpt lat="43.6257936" lon="3.8377948"><ele>66.0</ele><time>2026-04-12T14:39:10.172Z</time></trkpt><trkpt lat="43.6257086" lon="3.8377183"><ele>66.0</ele><time>2026-04-12T14:39:11.171Z</time></trkpt><trkpt lat="43.6256119" lon="3.8376521"><ele>66.0</ele><time>2026-04-12T14:39:12.171Z</time></trkpt><trkpt lat="43.625506" lon="3.8375904"><ele>66.0</ele><time>2026-04-12T14:39:13.171Z</time></trkpt><trkpt lat="43.6254092" lon="3.8375349"><ele>66.0</ele><time>2026-04-12T14:39:14.171Z</time></trkpt><trkpt lat="43.6253253" lon="3.8374845"><ele>66.0</ele><time>2026-04-12T14:39:15.171Z</time></trkpt><trkpt lat="43.6252499" lon="3.837435"><ele>66.83333333333333</ele><time>2026-04-12T14:39:16.171Z</time></trkpt><trkpt lat="43.6251927" lon="3.8373889"><ele>67.66666666666667</ele><time>2026-04-12T14:39:17.171Z</time></trkpt><trkpt lat="43.6251179" lon="3.8372689"><ele>68.5</ele><time>2026-04-12T14:39:19.171Z</time></trkpt><trkpt lat="43.6251127" lon="3.8371196"><ele>69.33333333333334</ele><time>2026-04-12T14:39:21.171Z</time></trkpt><trkpt lat="43.6251544" lon="3.8370484"><ele>70.16666666666667</ele><time>2026-04-12T14:39:22.172Z</time></trkpt><trkpt lat="43.625209" lon="3.8369762"><ele>71.0</ele><time>2026-04-12T14:39:23.171Z</time></trkpt><trkpt lat="43.6252857" lon="3.8369292"><ele>70.8</ele><time>2026-04-12T14:39:24.172Z</time></trkpt><trkpt lat="43.6253717" lon="3.8368723"><ele>70.6</ele><time>2026-04-12T14:39:25.171Z</time></trkpt><trkpt lat="43.6254547" lon="3.8367958"><ele>70.4</ele><time>2026-04-12T14:39:26.172Z</time></trkpt><trkpt lat="43.6255228" lon="3.8366975"><ele>70.2</ele><time>2026-04-12T14:39:27.171Z</time></trkpt><trkpt lat="43.6255634" lon="3.8365915"><ele>70.0</ele><time>2026-04-12T14:39:28.172Z</time></trkpt><trkpt lat="43.6255905" lon="3.8364871"><ele>70.0</ele><time>2026-04-12T14:39:29.171Z</time></trkpt><trkpt lat="43.6255949" lon="3.8363755"><ele>70.0</ele><time>2026-04-12T14:39:30.171Z</time></trkpt><trkpt lat="43.6255903" lon="3.8362574"><ele>70.0</ele><time>2026-04-12T14:39:31.171Z</time></trkpt><trkpt lat="43.6255716" lon="3.8361445"><ele>70.0</ele><time>2026-04-12T14:39:32.171Z</time></trkpt><trkpt lat="43.6255366" lon="3.8360491"><ele>70.0</ele><time>2026-04-12T14:39:33.171Z</time></trkpt><trkpt lat="43.6254805" lon="3.8359608"><ele>70.0</ele><time>2026-04-12T14:39:34.171Z</time></trkpt><trkpt lat="43.6254071" lon="3.835884"><ele>70.0</ele><time>2026-04-12T14:39:35.171Z</time></trkpt><trkpt lat="43.6253281" lon="3.8358166"><ele>70.0</ele><time>2026-04-12T14:39:36.171Z</time></trkpt><trkpt lat="43.6252429" lon="3.8357495"><ele>70.0</ele><time>2026-04-12T14:39:37.172Z</time></trkpt><trkpt lat="43.6251587" lon="3.8356629"><ele>70.0</ele><time>2026-04-12T14:39:38.171Z</time></trkpt><trkpt lat="43.6250891" lon="3.8355431"><ele>70.0</ele><time>2026-04-12T14:39:39.171Z</time></trkpt><trkpt lat="43.6250224" lon="3.8353952"><ele>70.0</ele><time>2026-04-12T14:39:40.172Z</time></trkpt><trkpt lat="43.624954" lon="3.8352271"><ele>70.0</ele><time>2026-04-12T14:39:41.171Z</time></trkpt><trkpt lat="43.6248648" lon="3.8350538"><ele>70.0</ele><time>2026-04-12T14:39:42.171Z</time></trkpt><trkpt lat="43.6247648" lon="3.8348753"><ele>70.25</ele><time>2026-04-12T14:39:43.171Z</time></trkpt><trkpt lat="43.6246668" lon="3.8347163"><ele>70.5</ele><time>2026-04-12T14:39:44.172Z</time></trkpt><trkpt lat="43.624561" lon="3.8345744"><ele>70.75</ele><time>2026-04-12T14:39:45.172Z</time></trkpt><trkpt lat="43.6244438" lon="3.8344434"><ele>71.0</ele><time>2026-04-12T14:39:46.172Z</time></trkpt><trkpt lat="43.6243166" lon="3.8343325"><ele>71.33333333333334</ele><time>2026-04-12T14:39:47.171Z</time></trkpt><trkpt lat="43.6241755" lon="3.8342166"><ele>71.66666666666667</ele><time>2026-04-12T14:39:48.171Z</time></trkpt><trkpt lat="43.6240217" lon="3.8341013"><ele>72.0</ele><time>2026-04-12T14:39:49.172Z</time></trkpt><trkpt lat="43.6238769" lon="3.8340005"><ele>72.0</ele><time>2026-04-12T14:39:50.171Z</time></trkpt><trkpt lat="43.6237468" lon="3.833902"><ele>72.0</ele><time>2026-04-12T14:39:51.171Z</time></trkpt><trkpt lat="43.6236522" lon="3.8338148"><ele>72.0</ele><time>2026-04-12T14:39:52.172Z</time></trkpt><trkpt lat="43.6235788" lon="3.8337266"><ele>72.0</ele><time>2026-04-12T14:39:53.171Z</time></trkpt><trkpt lat="43.6235257" lon="3.8336266"><ele>72.0</ele><time>2026-04-12T14:39:54.172Z</time></trkpt><trkpt lat="43.6234617" lon="3.8335142"><ele>71.4</ele><time>2026-04-12T14:39:55.172Z</time></trkpt><trkpt lat="43.6233979" lon="3.833402"><ele>70.80000000000001</ele><time>2026-04-12T14:39:56.171Z</time></trkpt><trkpt lat="43.6233336" lon="3.8333035"><ele>70.2</ele><time>2026-04-12T14:39:57.171Z</time></trkpt><trkpt lat="43.6232595" lon="3.833212"><ele>69.60000000000001</ele><time>2026-04-12T14:39:58.172Z</time></trkpt><trkpt lat="43.6231971" lon="3.8331136"><ele>69.0</ele><time>2026-04-12T14:39:59.171Z</time></trkpt><trkpt lat="43.6231446" lon="3.8330043"><ele>69.0</ele><time>2026-04-12T14:40:00.172Z</time></trkpt><trkpt lat="43.6231135" lon="3.8328727"><ele>69.0</ele><time>2026-04-12T14:40:01.171Z</time></trkpt><trkpt lat="43.6230966" lon="3.8327299"><ele>69.0</ele><time>2026-04-12T14:40:02.171Z</time></trkpt><trkpt lat="43.623087" lon="3.832571"><ele>69.0</ele><time>2026-04-12T14:40:03.172Z</time></trkpt><trkpt lat="43.62309" lon="3.8323984"><ele>69.0</ele><time>2026-04-12T14:40:04.172Z</time></trkpt><trkpt lat="43.6231023" lon="3.8322068"><ele>69.25</ele><time>2026-04-12T14:40:05.171Z</time></trkpt><trkpt lat="43.6231114" lon="3.832013"><ele>69.5</ele><time>2026-04-12T14:40:06.172Z</time></trkpt><trkpt lat="43.6231328" lon="3.8318123"><ele>69.75</ele><time>2026-04-12T14:40:07.171Z</time></trkpt><trkpt lat="43.6231767" lon="3.8316066"><ele>70.0</ele><time>2026-04-12T14:40:08.171Z</time></trkpt><trkpt lat="43.6232357" lon="3.831381"><ele>70.0</ele><time>2026-04-12T14:40:09.171Z</time></trkpt><trkpt lat="43.6233175" lon="3.8311142"><ele>70.0</ele><time>2026-04-12T14:40:10.171Z</time></trkpt><trkpt lat="43.6234115" lon="3.8308237"><ele>70.0</ele><time>2026-04-12T14:40:11.171Z</time></trkpt><trkpt lat="43.6234956" lon="3.8305592"><ele>69.33333333333333</ele><time>2026-04-12T14:40:12.171Z</time></trkpt><trkpt lat="43.6235703" lon="3.8303093"><ele>68.66666666666667</ele><time>2026-04-12T14:40:13.171Z</time></trkpt><trkpt lat="43.6236385" lon="3.8300698"><ele>68.0</ele><time>2026-04-12T14:40:14.171Z</time></trkpt><trkpt lat="43.6237073" lon="3.8298474"><ele>67.66666666666667</ele><time>2026-04-12T14:40:15.171Z</time></trkpt><trkpt lat="43.6237732" lon="3.8296428"><ele>67.33333333333333</ele><time>2026-04-12T14:40:16.171Z</time></trkpt><trkpt lat="43.62385" lon="3.8294382"><ele>67.0</ele><time>2026-04-12T14:40:17.172Z</time></trkpt><trkpt lat="43.6239218" lon="3.829244"><ele>67.0</ele><time>2026-04-12T14:40:18.172Z</time></trkpt><trkpt lat="43.6239944" lon="3.8290562"><ele>67.0</ele><time>2026-04-12T14:40:19.171Z</time></trkpt><trkpt lat="43.6240792" lon="3.8288652"><ele>67.0</ele><time>2026-04-12T14:40:20.171Z</time></trkpt><trkpt lat="43.6241656" lon="3.8286762"><ele>67.0</ele><time>2026-04-12T14:40:21.171Z</time></trkpt><trkpt lat="43.6242551" lon="3.8284857"><ele>67.0</ele><time>2026-04-12T14:40:22.171Z</time></trkpt><trkpt lat="43.6243411" lon="3.8283027"><ele>67.0</ele><time>2026-04-12T14:40:23.172Z</time></trkpt><trkpt lat="43.6244294" lon="3.8281214"><ele>65.25</ele><time>2026-04-12T14:40:24.172Z</time></trkpt><trkpt lat="43.6245123" lon="3.8279389"><ele>63.5</ele><time>2026-04-12T14:40:25.171Z</time></trkpt><trkpt lat="43.6245926" lon="3.8277736"><ele>61.75</ele><time>2026-04-12T14:40:26.171Z</time></trkpt><trkpt lat="43.6246625" lon="3.8276216"><ele>60.0</ele><time>2026-04-12T14:40:27.172Z</time></trkpt><trkpt lat="43.6247104" lon="3.8274798"><ele>59.833333333333336</ele><time>2026-04-12T14:40:28.171Z</time></trkpt><trkpt lat="43.6247418" lon="3.8273491"><ele>59.66666666666667</ele><time>2026-04-12T14:40:29.172Z</time></trkpt><trkpt lat="43.6247513" lon="3.8272209"><ele>59.5</ele><time>2026-04-12T14:40:30.172Z</time></trkpt><trkpt lat="43.6247583" lon="3.8271149"><ele>59.333333333333336</ele><time>2026-04-12T14:40:31.171Z</time></trkpt><trkpt lat="43.6247523" lon="3.8270244"><ele>59.16666666666667</ele><time>2026-04-12T14:40:32.172Z</time></trkpt><trkpt lat="43.6247526" lon="3.8268802"><ele>59.0</ele><time>2026-04-12T14:40:34.172Z</time></trkpt><trkpt lat="43.6247697" lon="3.8267811"><ele>58.400000000000006</ele><time>2026-04-12T14:40:37.172Z</time></trkpt><trkpt lat="43.6248043" lon="3.8266886"><ele>57.800000000000004</ele><time>2026-04-12T14:40:39.172Z</time></trkpt><trkpt lat="43.6248269" lon="3.8265646"><ele>57.199999999999996</ele><time>2026-04-12T14:40:41.171Z</time></trkpt><trkpt lat="43.6247853" lon="3.826414"><ele>56.599999999999994</ele><time>2026-04-12T14:40:43.171Z</time></trkpt><trkpt lat="43.624744" lon="3.8263288"><ele>56.0</ele><time>2026-04-12T14:40:44.172Z</time></trkpt><trkpt lat="43.624675" lon="3.8262365"><ele>56.00000000000001</ele><time>2026-04-12T14:40:45.171Z</time></trkpt><trkpt lat="43.6246113" lon="3.8261284"><ele>56.0</ele><time>2026-04-12T14:40:46.172Z</time></trkpt><trkpt lat="43.6245693" lon="3.826033"><ele>56.0</ele><time>2026-04-12T14:40:47.171Z</time></trkpt><trkpt lat="43.6245399" lon="3.8259397"><ele>56.0</ele><time>2026-04-12T14:40:48.171Z</time></trkpt><trkpt lat="43.6245102" lon="3.8258386"><ele>56.00000000000001</ele><time>2026-04-12T14:40:49.171Z</time></trkpt><trkpt lat="43.6244755" lon="3.825733"><ele>56.0</ele><time>2026-04-12T14:40:50.172Z</time></trkpt><trkpt lat="43.6244317" lon="3.825619"><ele>56.0</ele><time>2026-04-12T14:40:51.171Z</time></trkpt><trkpt lat="43.6243773" lon="3.8254951"><ele>56.0</ele><time>2026-04-12T14:40:52.172Z</time></trkpt><trkpt lat="43.6243056" lon="3.8253555"><ele>56.0</ele><time>2026-04-12T14:40:53.171Z</time></trkpt><trkpt lat="43.6242191" lon="3.8252052"><ele>56.0</ele><time>2026-04-12T14:40:54.171Z</time></trkpt><trkpt lat="43.6241265" lon="3.8250704"><ele>56.0</ele><time>2026-04-12T14:40:55.171Z</time></trkpt><trkpt lat="43.6240164" lon="3.8249159"><ele>56.0</ele><time>2026-04-12T14:40:56.171Z</time></trkpt><trkpt lat="43.6238856" lon="3.8247471"><ele>56.0</ele><time>2026-04-12T14:40:57.172Z</time></trkpt><trkpt lat="43.6237617" lon="3.8245845"><ele>56.0</ele><time>2026-04-12T14:40:58.171Z</time></trkpt><trkpt lat="43.6236476" lon="3.8244315"><ele>56.0</ele><time>2026-04-12T14:40:59.171Z</time></trkpt><trkpt lat="43.6235508" lon="3.8242751"><ele>56.0</ele><time>2026-04-12T14:41:00.172Z</time></trkpt><trkpt lat="43.6234511" lon="3.8241406"><ele>56.0</ele><time>2026-04-12T14:41:01.172Z</time></trkpt><trkpt lat="43.6233553" lon="3.8240105"><ele>56.75</ele><time>2026-04-12T14:41:02.172Z</time></trkpt><trkpt lat="43.6232576" lon="3.8238744"><ele>57.5</ele><time>2026-04-12T14:41:03.171Z</time></trkpt><trkpt lat="43.6231625" lon="3.8237396"><ele>58.25</ele><time>2026-04-12T14:41:04.172Z</time></trkpt><trkpt lat="43.6230694" lon="3.8236068"><ele>59.0</ele><time>2026-04-12T14:41:05.171Z</time></trkpt><trkpt lat="43.6229803" lon="3.8234825"><ele>57.5</ele><time>2026-04-12T14:41:06.171Z</time></trkpt><trkpt lat="43.62289" lon="3.8233562"><ele>56.0</ele><time>2026-04-12T14:41:07.171Z</time></trkpt><trkpt lat="43.6228042" lon="3.8232411"><ele>54.5</ele><time>2026-04-12T14:41:08.172Z</time></trkpt><trkpt lat="43.6227184" lon="3.8231364"><ele>53.0</ele><time>2026-04-12T14:41:09.172Z</time></trkpt><trkpt lat="43.6226297" lon="3.823045"><ele>53.0</ele><time>2026-04-12T14:41:10.172Z</time></trkpt><trkpt lat="43.6225369" lon="3.8229628"><ele>53.0</ele><time>2026-04-12T14:41:11.171Z</time></trkpt><trkpt lat="43.6224446" lon="3.8228909"><ele>53.0</ele><time>2026-04-12T14:41:12.171Z</time></trkpt><trkpt lat="43.6223592" lon="3.822832"><ele>53.0</ele><time>2026-04-12T14:41:13.172Z</time></trkpt><trkpt lat="43.6222879" lon="3.8227683"><ele>53.0</ele><time>2026-04-12T14:41:14.172Z</time></trkpt><trkpt lat="43.6222288" lon="3.8227044"><ele>53.00000000000001</ele><time>2026-04-12T14:41:15.172Z</time></trkpt><trkpt lat="43.6221763" lon="3.8226451"><ele>53.0</ele><time>2026-04-12T14:41:16.171Z</time></trkpt><trkpt lat="43.6221194" lon="3.822594"><ele>53.0</ele><time>2026-04-12T14:41:17.171Z</time></trkpt><trkpt lat="43.6220535" lon="3.8225702"><ele>53.0</ele><time>2026-04-12T14:41:18.171Z</time></trkpt><trkpt lat="43.6219264" lon="3.8226104"><ele>53.00000000000001</ele><time>2026-04-12T14:41:20.171Z</time></trkpt><trkpt lat="43.6218479" lon="3.8226541"><ele>53.0</ele><time>2026-04-12T14:41:21.171Z</time></trkpt><trkpt lat="43.6217501" lon="3.8226912"><ele>53.0</ele><time>2026-04-12T14:41:22.171Z</time></trkpt><trkpt lat="43.621642" lon="3.8227069"><ele>53.0</ele><time>2026-04-12T14:41:23.172Z</time></trkpt><trkpt lat="43.6215148" lon="3.8227011"><ele>53.0</ele><time>2026-04-12T14:41:24.171Z</time></trkpt><trkpt lat="43.6213706" lon="3.822684"><ele>53.0</ele><time>2026-04-12T14:41:25.172Z</time></trkpt><trkpt lat="43.6211955" lon="3.8226498"><ele>52.66666666666667</ele><time>2026-04-12T14:41:26.171Z</time></trkpt><trkpt lat="43.6210076" lon="3.8225949"><ele>52.33333333333333</ele><time>2026-04-12T14:41:27.171Z</time></trkpt><trkpt lat="43.6208029" lon="3.822536"><ele>52.0</ele><time>2026-04-12T14:41:28.171Z</time></trkpt><trkpt lat="43.6205947" lon="3.8224781"><ele>52.0</ele><time>2026-04-12T14:41:29.171Z</time></trkpt><trkpt lat="43.6203896" lon="3.8223996"><ele>52.0</ele><time>2026-04-12T14:41:30.171Z</time></trkpt><trkpt lat="43.6201829" lon="3.8223135"><ele>52.0</ele><time>2026-04-12T14:41:31.171Z</time></trkpt><trkpt lat="43.6199877" lon="3.8222126"><ele>52.33333333333333</ele><time>2026-04-12T14:41:32.171Z</time></trkpt><trkpt lat="43.6198014" lon="3.8221053"><ele>52.66666666666667</ele><time>2026-04-12T14:41:33.172Z</time></trkpt><trkpt lat="43.6196297" lon="3.8219919"><ele>53.0</ele><time>2026-04-12T14:41:34.172Z</time></trkpt><trkpt lat="43.6194609" lon="3.8218676"><ele>50.333333333333336</ele><time>2026-04-12T14:41:35.171Z</time></trkpt><trkpt lat="43.6192783" lon="3.8217318"><ele>47.66666666666667</ele><time>2026-04-12T14:41:36.172Z</time></trkpt><trkpt lat="43.6190714" lon="3.8215807"><ele>45.0</ele><time>2026-04-12T14:41:37.172Z</time></trkpt><trkpt lat="43.6188301" lon="3.8213934"><ele>47.0</ele><time>2026-04-12T14:41:38.172Z</time></trkpt><trkpt lat="43.618604" lon="3.821204"><ele>49.0</ele><time>2026-04-12T14:41:39.172Z</time></trkpt><trkpt lat="43.6183975" lon="3.8210275"><ele>48.0</ele><time>2026-04-12T14:41:40.171Z</time></trkpt><trkpt lat="43.6182029" lon="3.8208775"><ele>47.0</ele><time>2026-04-12T14:41:41.172Z</time></trkpt><trkpt lat="43.6180242" lon="3.8207352"><ele>46.0</ele><time>2026-04-12T14:41:42.172Z</time></trkpt><trkpt lat="43.6178448" lon="3.8205869"><ele>45.333333333333336</ele><time>2026-04-12T14:41:43.171Z</time></trkpt><trkpt lat="43.6176657" lon="3.8204506"><ele>44.666666666666664</ele><time>2026-04-12T14:41:44.171Z</time></trkpt><trkpt lat="43.6174949" lon="3.820334"><ele>44.0</ele><time>2026-04-12T14:41:45.172Z</time></trkpt><trkpt lat="43.6173243" lon="3.8202401"><ele>44.0</ele><time>2026-04-12T14:41:46.171Z</time></trkpt><trkpt lat="43.6171598" lon="3.8201794"><ele>44.0</ele><time>2026-04-12T14:41:47.171Z</time></trkpt><trkpt lat="43.6169934" lon="3.8201441"><ele>44.0</ele><time>2026-04-12T14:41:48.171Z</time></trkpt><trkpt lat="43.61683" lon="3.8201354"><ele>44.33333333333333</ele><time>2026-04-12T14:41:49.171Z</time></trkpt><trkpt lat="43.6166691" lon="3.8201558"><ele>44.666666666666664</ele><time>2026-04-12T14:41:50.171Z</time></trkpt><trkpt lat="43.6165063" lon="3.8202008"><ele>45.0</ele><time>2026-04-12T14:41:51.171Z</time></trkpt><trkpt lat="43.6163435" lon="3.8202697"><ele>45.0</ele><time>2026-04-12T14:41:52.171Z</time></trkpt><trkpt lat="43.6161739" lon="3.820359"><ele>45.0</ele><time>2026-04-12T14:41:53.171Z</time></trkpt><trkpt lat="43.615985" lon="3.8204684"><ele>45.0</ele><time>2026-04-12T14:41:54.171Z</time></trkpt><trkpt lat="43.6157964" lon="3.8205889"><ele>45.0</ele><time>2026-04-12T14:41:55.171Z</time></trkpt><trkpt lat="43.6156132" lon="3.8207083"><ele>45.0</ele><time>2026-04-12T14:41:56.171Z</time></trkpt><trkpt lat="43.6154353" lon="3.820831"><ele>45.0</ele><time>2026-04-12T14:41:57.171Z</time></trkpt><trkpt lat="43.6152638" lon="3.8209514"><ele>45.333333333333336</ele><time>2026-04-12T14:41:58.171Z</time></trkpt><trkpt lat="43.6151014" lon="3.8210677"><ele>45.66666666666667</ele><time>2026-04-12T14:41:59.172Z</time></trkpt><trkpt lat="43.6149407" lon="3.8211834"><ele>46.0</ele><time>2026-04-12T14:42:00.172Z</time></trkpt><trkpt lat="43.6147795" lon="3.8212952"><ele>46.0</ele><time>2026-04-12T14:42:01.171Z</time></trkpt><trkpt lat="43.6146163" lon="3.8214028"><ele>46.0</ele><time>2026-04-12T14:42:02.172Z</time></trkpt><trkpt lat="43.6144603" lon="3.8215075"><ele>46.0</ele><time>2026-04-12T14:42:03.171Z</time></trkpt><trkpt lat="43.614308" lon="3.821603"><ele>46.333333333333336</ele><time>2026-04-12T14:42:04.172Z</time></trkpt><trkpt lat="43.6141557" lon="3.8217044"><ele>46.666666666666664</ele><time>2026-04-12T14:42:05.171Z</time></trkpt><trkpt lat="43.6140002" lon="3.8218091"><ele>47.0</ele><time>2026-04-12T14:42:06.172Z</time></trkpt><trkpt lat="43.6138505" lon="3.8219147"><ele>47.0</ele><time>2026-04-12T14:42:07.171Z</time></trkpt><trkpt lat="43.6137078" lon="3.822027"><ele>47.0</ele><time>2026-04-12T14:42:08.171Z</time></trkpt><trkpt lat="43.6135656" lon="3.8221525"><ele>47.0</ele><time>2026-04-12T14:42:09.171Z</time></trkpt><trkpt lat="43.6134193" lon="3.8222722"><ele>46.25</ele><time>2026-04-12T14:42:10.171Z</time></trkpt><trkpt lat="43.6132859" lon="3.8223742"><ele>45.5</ele><time>2026-04-12T14:42:11.172Z</time></trkpt><trkpt lat="43.6131585" lon="3.8224656"><ele>44.75</ele><time>2026-04-12T14:42:12.171Z</time></trkpt><trkpt lat="43.6130406" lon="3.8225436"><ele>44.0</ele><time>2026-04-12T14:42:13.171Z</time></trkpt><trkpt lat="43.6129228" lon="3.82261"><ele>43.75</ele><time>2026-04-12T14:42:14.171Z</time></trkpt><trkpt lat="43.6128061" lon="3.8226705"><ele>43.5</ele><time>2026-04-12T14:42:15.171Z</time></trkpt><trkpt lat="43.6126875" lon="3.8227141"><ele>43.25</ele><time>2026-04-12T14:42:16.171Z</time></trkpt><trkpt lat="43.612564" lon="3.8227425"><ele>43.0</ele><time>2026-04-12T14:42:17.171Z</time></trkpt><trkpt lat="43.612435" lon="3.8227441"><ele>43.0</ele><time>2026-04-12T14:42:18.171Z</time></trkpt><trkpt lat="43.6122861" lon="3.8227404"><ele>43.0</ele><time>2026-04-12T14:42:19.171Z</time></trkpt><trkpt lat="43.6121482" lon="3.822715"><ele>43.0</ele><time>2026-04-12T14:42:20.172Z</time></trkpt><trkpt lat="43.6120072" lon="3.8226761"><ele>43.0</ele><time>2026-04-12T14:42:21.171Z</time></trkpt><trkpt lat="43.6118553" lon="3.8226337"><ele>40.75</ele><time>2026-04-12T14:42:22.171Z</time></trkpt><trkpt lat="43.6117174" lon="3.8225935"><ele>38.5</ele><time>2026-04-12T14:42:23.171Z</time></trkpt><trkpt lat="43.6115751" lon="3.8225628"><ele>36.25</ele><time>2026-04-12T14:42:24.172Z</time></trkpt><trkpt lat="43.6114329" lon="3.8225408"><ele>34.0</ele><time>2026-04-12T14:42:25.172Z</time></trkpt><trkpt lat="43.6112901" lon="3.8225191"><ele>34.75</ele><time>2026-04-12T14:42:26.171Z</time></trkpt><trkpt lat="43.6111499" lon="3.8225017"><ele>35.5</ele><time>2026-04-12T14:42:27.171Z</time></trkpt><trkpt lat="43.6110088" lon="3.8224864"><ele>36.25</ele><time>2026-04-12T14:42:28.171Z</time></trkpt><trkpt lat="43.6108677" lon="3.822474"><ele>37.0</ele><time>2026-04-12T14:42:29.172Z</time></trkpt><trkpt lat="43.610731" lon="3.8224636"><ele>37.0</ele><time>2026-04-12T14:42:30.171Z</time></trkpt><trkpt lat="43.6105958" lon="3.8224459"><ele>37.0</ele><time>2026-04-12T14:42:31.172Z</time></trkpt><trkpt lat="43.6104603" lon="3.8224249"><ele>37.0</ele><time>2026-04-12T14:42:32.171Z</time></trkpt><trkpt lat="43.6103284" lon="3.8223951"><ele>37.0</ele><time>2026-04-12T14:42:33.172Z</time></trkpt><trkpt lat="43.6101969" lon="3.8223592"><ele>37.5</ele><time>2026-04-12T14:42:34.172Z</time></trkpt><trkpt lat="43.6100714" lon="3.8223163"><ele>38.0</ele><time>2026-04-12T14:42:35.172Z</time></trkpt><trkpt lat="43.6099478" lon="3.8222661"><ele>38.5</ele><time>2026-04-12T14:42:36.172Z</time></trkpt><trkpt lat="43.6098293" lon="3.8222174"><ele>39.0</ele><time>2026-04-12T14:42:37.171Z</time></trkpt><trkpt lat="43.6097166" lon="3.8221571"><ele>39.0</ele><time>2026-04-12T14:42:38.171Z</time></trkpt><trkpt lat="43.6096098" lon="3.822088"><ele>39.0</ele><time>2026-04-12T14:42:39.171Z</time></trkpt><trkpt lat="43.6095146" lon="3.8220021"><ele>39.0</ele><time>2026-04-12T14:42:40.172Z</time></trkpt><trkpt lat="43.6094278" lon="3.8219032"><ele>39.0</ele><time>2026-04-12T14:42:41.171Z</time></trkpt><trkpt lat="43.6093525" lon="3.8217914"><ele>38.25</ele><time>2026-04-12T14:42:42.172Z</time></trkpt><trkpt lat="43.6092916" lon="3.8216645"><ele>37.5</ele><time>2026-04-12T14:42:43.171Z</time></trkpt><trkpt lat="43.6092406" lon="3.8215193"><ele>36.75</ele><time>2026-04-12T14:42:44.172Z</time></trkpt><trkpt lat="43.6091996" lon="3.8213661"><ele>36.0</ele><time>2026-04-12T14:42:45.171Z</time></trkpt><trkpt lat="43.609161" lon="3.8212201"><ele>36.0</ele><time>2026-04-12T14:42:46.171Z</time></trkpt><trkpt lat="43.6091277" lon="3.8210844"><ele>36.0</ele><time>2026-04-12T14:42:47.171Z</time></trkpt><trkpt lat="43.6090912" lon="3.820952"><ele>36.0</ele><time>2026-04-12T14:42:48.171Z</time></trkpt><trkpt lat="43.6090437" lon="3.8208321"><ele>36.0</ele><time>2026-04-12T14:42:49.172Z</time></trkpt><trkpt lat="43.6089909" lon="3.8207181"><ele>36.0</ele><time>2026-04-12T14:42:50.171Z</time></trkpt><trkpt lat="43.6089211" lon="3.8206249"><ele>35.8</ele><time>2026-04-12T14:42:51.171Z</time></trkpt><trkpt lat="43.6088372" lon="3.8205446"><ele>35.6</ele><time>2026-04-12T14:42:52.172Z</time></trkpt><trkpt lat="43.6087412" lon="3.820486"><ele>35.4</ele><time>2026-04-12T14:42:53.171Z</time></trkpt><trkpt lat="43.6086386" lon="3.8204542"><ele>35.2</ele><time>2026-04-12T14:42:54.171Z</time></trkpt><trkpt lat="43.60853" lon="3.8204473"><ele>35.0</ele><time>2026-04-12T14:42:55.171Z</time></trkpt><trkpt lat="43.6084189" lon="3.8204665"><ele>35.75</ele><time>2026-04-12T14:42:56.171Z</time></trkpt><trkpt lat="43.6083062" lon="3.8205125"><ele>36.5</ele><time>2026-04-12T14:42:57.172Z</time></trkpt><trkpt lat="43.6081936" lon="3.8205741"><ele>37.25</ele><time>2026-04-12T14:42:58.171Z</time></trkpt><trkpt lat="43.6080808" lon="3.8206443"><ele>38.0</ele><time>2026-04-12T14:42:59.171Z</time></trkpt><trkpt lat="43.6079695" lon="3.820713"><ele>38.0</ele><time>2026-04-12T14:43:00.172Z</time></trkpt><trkpt lat="43.6078556" lon="3.8207875"><ele>38.0</ele><time>2026-04-12T14:43:01.171Z</time></trkpt><trkpt lat="43.607741" lon="3.8208359"><ele>38.0</ele><time>2026-04-12T14:43:02.171Z</time></trkpt><trkpt lat="43.607626" lon="3.8208979"><ele>38.0</ele><time>2026-04-12T14:43:03.172Z</time></trkpt><trkpt lat="43.6074972" lon="3.8209419"><ele>37.25</ele><time>2026-04-12T14:43:04.171Z</time></trkpt><trkpt lat="43.6073637" lon="3.8209626"><ele>36.5</ele><time>2026-04-12T14:43:05.171Z</time></trkpt><trkpt lat="43.607227" lon="3.8209616"><ele>35.75</ele><time>2026-04-12T14:43:06.171Z</time></trkpt><trkpt lat="43.6070945" lon="3.8209312"><ele>35.0</ele><time>2026-04-12T14:43:07.171Z</time></trkpt><trkpt lat="43.6069664" lon="3.8208797"><ele>34.25</ele><time>2026-04-12T14:43:08.171Z</time></trkpt><trkpt lat="43.6068427" lon="3.8208061"><ele>33.5</ele><time>2026-04-12T14:43:09.171Z</time></trkpt><trkpt lat="43.6067127" lon="3.8207205"><ele>32.75</ele><time>2026-04-12T14:43:10.172Z</time></trkpt><trkpt lat="43.6065773" lon="3.8206223"><ele>32.0</ele><time>2026-04-12T14:43:11.171Z</time></trkpt><trkpt lat="43.6064341" lon="3.8205128"><ele>32.0</ele><time>2026-04-12T14:43:12.172Z</time></trkpt><trkpt lat="43.6062891" lon="3.8203929"><ele>32.0</ele><time>2026-04-12T14:43:13.171Z</time></trkpt><trkpt lat="43.6061392" lon="3.8202733"><ele>32.0</ele><time>2026-04-12T14:43:14.171Z</time></trkpt><trkpt lat="43.6059876" lon="3.8201681"><ele>32.0</ele><time>2026-04-12T14:43:15.171Z</time></trkpt><trkpt lat="43.6058401" lon="3.820068"><ele>32.0</ele><time>2026-04-12T14:43:16.172Z</time></trkpt><trkpt lat="43.6056847" lon="3.8199857"><ele>32.0</ele><time>2026-04-12T14:43:17.172Z</time></trkpt><trkpt lat="43.6055257" lon="3.8199152"><ele>32.0</ele><time>2026-04-12T14:43:18.171Z</time></trkpt><trkpt lat="43.605382" lon="3.8198569"><ele>32.0</ele><time>2026-04-12T14:43:19.171Z</time></trkpt><trkpt lat="43.6052371" lon="3.8198172"><ele>32.0</ele><time>2026-04-12T14:43:20.171Z</time></trkpt><trkpt lat="43.6050883" lon="3.819791"><ele>32.0</ele><time>2026-04-12T14:43:21.171Z</time></trkpt><trkpt lat="43.6049248" lon="3.8197674"><ele>32.0</ele><time>2026-04-12T14:43:22.171Z</time></trkpt><trkpt lat="43.6047548" lon="3.8197492"><ele>32.0</ele><time>2026-04-12T14:43:23.171Z</time></trkpt><trkpt lat="43.6045678" lon="3.8197313"><ele>32.0</ele><time>2026-04-12T14:43:24.171Z</time></trkpt><trkpt lat="43.6043734" lon="3.819715"><ele>32.666666666666664</ele><time>2026-04-12T14:43:25.172Z</time></trkpt><trkpt lat="43.6041713" lon="3.8197043"><ele>33.333333333333336</ele><time>2026-04-12T14:43:26.171Z</time></trkpt><trkpt lat="43.6039594" lon="3.8196878"><ele>34.0</ele><time>2026-04-12T14:43:27.172Z</time></trkpt><trkpt lat="43.6037325" lon="3.819674"><ele>34.5</ele><time>2026-04-12T14:43:28.171Z</time></trkpt><trkpt lat="43.6034807" lon="3.8196657"><ele>35.0</ele><time>2026-04-12T14:43:29.171Z</time></trkpt><trkpt lat="43.6032157" lon="3.8196487"><ele>35.0</ele><time>2026-04-12T14:43:30.171Z</time></trkpt><trkpt lat="43.6029494" lon="3.8196471"><ele>35.0</ele><time>2026-04-12T14:43:31.171Z</time></trkpt><trkpt lat="43.6026884" lon="3.8196386"><ele>35.0</ele><time>2026-04-12T14:43:32.171Z</time></trkpt><trkpt lat="43.6024231" lon="3.8196409"><ele>35.0</ele><time>2026-04-12T14:43:33.172Z</time></trkpt><trkpt lat="43.6021561" lon="3.8196557"><ele>34.5</ele><time>2026-04-12T14:43:34.171Z</time></trkpt><trkpt lat="43.6018887" lon="3.8196771"><ele>34.0</ele><time>2026-04-12T14:43:35.172Z</time></trkpt><trkpt lat="43.6016225" lon="3.8197028"><ele>34.0</ele><time>2026-04-12T14:43:36.171Z</time></trkpt><trkpt lat="43.6013554" lon="3.8197293"><ele>34.0</ele><time>2026-04-12T14:43:37.171Z</time></trkpt><trkpt lat="43.6010806" lon="3.8197583"><ele>32.5</ele><time>2026-04-12T14:43:38.171Z</time></trkpt><trkpt lat="43.6007911" lon="3.8197885"><ele>31.0</ele><time>2026-04-12T14:43:39.171Z</time></trkpt><trkpt lat="43.6004813" lon="3.8198191"><ele>30.0</ele><time>2026-04-12T14:43:40.171Z</time></trkpt><trkpt lat="43.6001606" lon="3.8198487"><ele>29.0</ele><time>2026-04-12T14:43:41.172Z</time></trkpt><trkpt lat="43.5998444" lon="3.8198765"><ele>29.0</ele><time>2026-04-12T14:43:42.172Z</time></trkpt><trkpt lat="43.5995409" lon="3.8199071"><ele>29.0</ele><time>2026-04-12T14:43:43.171Z</time></trkpt><trkpt lat="43.5992494" lon="3.819936"><ele>28.5</ele><time>2026-04-12T14:43:44.171Z</time></trkpt><trkpt lat="43.5989643" lon="3.8199585"><ele>28.0</ele><time>2026-04-12T14:43:45.172Z</time></trkpt><trkpt lat="43.5986866" lon="3.8199831"><ele>27.0</ele><time>2026-04-12T14:43:46.172Z</time></trkpt><trkpt lat="43.5984191" lon="3.8200111"><ele>26.0</ele><time>2026-04-12T14:43:47.17Z</time></trkpt><trkpt lat="43.5981607" lon="3.8200333"><ele>26.0</ele><time>2026-04-12T14:43:48.171Z</time></trkpt><trkpt lat="43.5979081" lon="3.8200457"><ele>26.0</ele><time>2026-04-12T14:43:49.171Z</time></trkpt><trkpt lat="43.5976549" lon="3.8200406"><ele>27.5</ele><time>2026-04-12T14:43:50.171Z</time></trkpt><trkpt lat="43.597393" lon="3.8200252"><ele>29.0</ele><time>2026-04-12T14:43:51.172Z</time></trkpt><trkpt lat="43.5971344" lon="3.8200073"><ele>31.0</ele><time>2026-04-12T14:43:52.171Z</time></trkpt><trkpt lat="43.5968799" lon="3.8200007"><ele>33.0</ele><time>2026-04-12T14:43:53.171Z</time></trkpt><trkpt lat="43.5966405" lon="3.8200021"><ele>33.0</ele><time>2026-04-12T14:43:54.172Z</time></trkpt><trkpt lat="43.596405" lon="3.8200146"><ele>33.0</ele><time>2026-04-12T14:43:55.172Z</time></trkpt><trkpt lat="43.5961706" lon="3.8200374"><ele>31.0</ele><time>2026-04-12T14:43:56.172Z</time></trkpt><trkpt lat="43.5959356" lon="3.8200659"><ele>29.0</ele><time>2026-04-12T14:43:57.171Z</time></trkpt><trkpt lat="43.595713" lon="3.8200934"><ele>29.0</ele><time>2026-04-12T14:43:58.171Z</time></trkpt><trkpt lat="43.5954961" lon="3.8201163"><ele>29.0</ele><time>2026-04-12T14:43:59.171Z</time></trkpt><trkpt lat="43.5952896" lon="3.8201454"><ele>29.0</ele><time>2026-04-12T14:44:00.171Z</time></trkpt><trkpt lat="43.5950945" lon="3.8201758"><ele>30.333333333333332</ele><time>2026-04-12T14:44:01.172Z</time></trkpt><trkpt lat="43.5949118" lon="3.82021"><ele>31.666666666666664</ele><time>2026-04-12T14:44:02.172Z</time></trkpt><trkpt lat="43.5947425" lon="3.8202477"><ele>33.0</ele><time>2026-04-12T14:44:03.172Z</time></trkpt><trkpt lat="43.594584" lon="3.8202962"><ele>32.5</ele><time>2026-04-12T14:44:04.171Z</time></trkpt><trkpt lat="43.5944396" lon="3.8203529"><ele>32.0</ele><time>2026-04-12T14:44:05.171Z</time></trkpt><trkpt lat="43.5943038" lon="3.8204173"><ele>31.5</ele><time>2026-04-12T14:44:06.171Z</time></trkpt><trkpt lat="43.5941774" lon="3.8204765"><ele>31.0</ele><time>2026-04-12T14:44:07.171Z</time></trkpt><trkpt lat="43.5940584" lon="3.8205255"><ele>31.0</ele><time>2026-04-12T14:44:08.171Z</time></trkpt><trkpt lat="43.5939469" lon="3.8205648"><ele>31.0</ele><time>2026-04-12T14:44:09.171Z</time></trkpt><trkpt lat="43.5938417" lon="3.8205944"><ele>31.0</ele><time>2026-04-12T14:44:10.171Z</time></trkpt><trkpt lat="43.5937427" lon="3.8206164"><ele>31.0</ele><time>2026-04-12T14:44:11.172Z</time></trkpt><trkpt lat="43.593655" lon="3.8206286"><ele>31.0</ele><time>2026-04-12T14:44:12.171Z</time></trkpt><trkpt lat="43.5935733" lon="3.820635"><ele>30.666666666666668</ele><time>2026-04-12T14:44:13.172Z</time></trkpt><trkpt lat="43.593496" lon="3.8206465"><ele>30.333333333333336</ele><time>2026-04-12T14:44:14.171Z</time></trkpt><trkpt lat="43.5934316" lon="3.8206501"><ele>30.0</ele><time>2026-04-12T14:44:15.171Z</time></trkpt><trkpt lat="43.5933675" lon="3.8206583"><ele>29.666666666666664</ele><time>2026-04-12T14:44:16.171Z</time></trkpt><trkpt lat="43.5932561" lon="3.8206622"><ele>29.333333333333332</ele><time>2026-04-12T14:44:18.172Z</time></trkpt><trkpt lat="43.5931475" lon="3.8206051"><ele>29.0</ele><time>2026-04-12T14:44:20.172Z</time></trkpt><trkpt lat="43.5930376" lon="3.8204853"><ele>29.0</ele><time>2026-04-12T14:44:22.171Z</time></trkpt><trkpt lat="43.5929912" lon="3.8204176"><ele>29.0</ele><time>2026-04-12T14:44:23.172Z</time></trkpt><trkpt lat="43.5929442" lon="3.8203581"><ele>29.0</ele><time>2026-04-12T14:44:24.172Z</time></trkpt><trkpt lat="43.5928569" lon="3.8202728"><ele>29.0</ele><time>2026-04-12T14:44:26.171Z</time></trkpt><trkpt lat="43.592759" lon="3.8202366"><ele>29.0</ele><time>2026-04-12T14:44:28.171Z</time></trkpt><trkpt lat="43.5926336" lon="3.8202193"><ele>29.142857142857146</ele><time>2026-04-12T14:44:30.171Z</time></trkpt><trkpt lat="43.5925633" lon="3.8202316"><ele>29.285714285714285</ele><time>2026-04-12T14:44:31.172Z</time></trkpt><trkpt lat="43.5925002" lon="3.8202515"><ele>29.42857142857143</ele><time>2026-04-12T14:44:32.171Z</time></trkpt><trkpt lat="43.5924388" lon="3.8202948"><ele>29.571428571428573</ele><time>2026-04-12T14:44:33.172Z</time></trkpt><trkpt lat="43.5923828" lon="3.8203471"><ele>29.714285714285715</ele><time>2026-04-12T14:44:34.172Z</time></trkpt><trkpt lat="43.5923275" lon="3.8204161"><ele>29.857142857142858</ele><time>2026-04-12T14:44:35.172Z</time></trkpt><trkpt lat="43.5922847" lon="3.820491"><ele>30.0</ele><time>2026-04-12T14:44:36.172Z</time></trkpt><trkpt lat="43.5922465" lon="3.8205734"><ele>30.0</ele><time>2026-04-12T14:44:37.171Z</time></trkpt><trkpt lat="43.5922154" lon="3.8206641"><ele>30.0</ele><time>2026-04-12T14:44:38.171Z</time></trkpt><trkpt lat="43.5921867" lon="3.8208123"><ele>30.0</ele><time>2026-04-12T14:44:40.171Z</time></trkpt><trkpt lat="43.5921734" lon="3.8209351"><ele>30.0</ele><time>2026-04-12T14:44:42.171Z</time></trkpt><trkpt lat="43.5921382" lon="3.8210649"><ele>30.0</ele><time>2026-04-12T14:44:44.171Z</time></trkpt><trkpt lat="43.5920665" lon="3.8211515"><ele>30.2</ele><time>2026-04-12T14:44:46.171Z</time></trkpt><trkpt lat="43.5919439" lon="3.8211858"><ele>30.4</ele><time>2026-04-12T14:44:48.171Z</time></trkpt><trkpt lat="43.5918789" lon="3.8211625"><ele>30.6</ele><time>2026-04-12T14:44:49.171Z</time></trkpt><trkpt lat="43.5917878" lon="3.8211383"><ele>30.8</ele><time>2026-04-12T14:44:50.172Z</time></trkpt><trkpt lat="43.5916849" lon="3.8210943"><ele>31.0</ele><time>2026-04-12T14:44:51.171Z</time></trkpt><trkpt lat="43.5915736" lon="3.8210366"><ele>31.0</ele><time>2026-04-12T14:44:52.171Z</time></trkpt><trkpt lat="43.5914679" lon="3.8209841"><ele>31.0</ele><time>2026-04-12T14:44:53.171Z</time></trkpt><trkpt lat="43.591378" lon="3.8209245"><ele>31.0</ele><time>2026-04-12T14:44:54.171Z</time></trkpt><trkpt lat="43.5912733" lon="3.8208775"><ele>31.0</ele><time>2026-04-12T14:44:55.172Z</time></trkpt><trkpt lat="43.5911487" lon="3.8208212"><ele>30.5</ele><time>2026-04-12T14:44:56.172Z</time></trkpt><trkpt lat="43.5910165" lon="3.8207854"><ele>30.0</ele><time>2026-04-12T14:44:57.171Z</time></trkpt><trkpt lat="43.5908859" lon="3.8207656"><ele>29.5</ele><time>2026-04-12T14:44:58.171Z</time></trkpt><trkpt lat="43.5907512" lon="3.8207701"><ele>29.0</ele><time>2026-04-12T14:44:59.17Z</time></trkpt><trkpt lat="43.5906243" lon="3.8208048"><ele>29.0</ele><time>2026-04-12T14:45:00.17Z</time></trkpt><trkpt lat="43.5905068" lon="3.820832"><ele>29.0</ele><time>2026-04-12T14:45:01.17Z</time></trkpt><trkpt lat="43.5903979" lon="3.8208674"><ele>29.0</ele><time>2026-04-12T14:45:02.171Z</time></trkpt><trkpt lat="43.5902823" lon="3.8209305"><ele>29.0</ele><time>2026-04-12T14:45:03.17Z</time></trkpt><trkpt lat="43.5901825" lon="3.8209913"><ele>29.799999999999997</ele><time>2026-04-12T14:45:04.171Z</time></trkpt><trkpt lat="43.590083" lon="3.8210631"><ele>30.599999999999998</ele><time>2026-04-12T14:45:05.17Z</time></trkpt><trkpt lat="43.5899885" lon="3.8211429"><ele>31.4</ele><time>2026-04-12T14:45:06.17Z</time></trkpt><trkpt lat="43.5899026" lon="3.8212309"><ele>32.199999999999996</ele><time>2026-04-12T14:45:07.17Z</time></trkpt><trkpt lat="43.589813" lon="3.8213264"><ele>33.0</ele><time>2026-04-12T14:45:08.17Z</time></trkpt><trkpt lat="43.5897291" lon="3.8214205"><ele>33.0</ele><time>2026-04-12T14:45:09.171Z</time></trkpt><trkpt lat="43.5896439" lon="3.8215294"><ele>33.0</ele><time>2026-04-12T14:45:10.171Z</time></trkpt><trkpt lat="43.5895661" lon="3.8216474"><ele>33.0</ele><time>2026-04-12T14:45:11.17Z</time></trkpt><trkpt lat="43.5894784" lon="3.8217931"><ele>33.0</ele><time>2026-04-12T14:45:12.17Z</time></trkpt><trkpt lat="43.5894042" lon="3.8219278"><ele>33.5</ele><time>2026-04-12T14:45:13.171Z</time></trkpt><trkpt lat="43.5893378" lon="3.8220722"><ele>34.0</ele><time>2026-04-12T14:45:14.17Z</time></trkpt><trkpt lat="43.5892783" lon="3.8222202"><ele>34.5</ele><time>2026-04-12T14:45:15.171Z</time></trkpt><trkpt lat="43.5892208" lon="3.8223671"><ele>35.0</ele><time>2026-04-12T14:45:16.171Z</time></trkpt><trkpt lat="43.5891658" lon="3.8225154"><ele>36.0</ele><time>2026-04-12T14:45:17.171Z</time></trkpt><trkpt lat="43.5891099" lon="3.8226614"><ele>37.0</ele><time>2026-04-12T14:45:18.17Z</time></trkpt><trkpt lat="43.5890528" lon="3.8228153"><ele>38.0</ele><time>2026-04-12T14:45:19.171Z</time></trkpt><trkpt lat="43.5889958" lon="3.8229676"><ele>39.0</ele><time>2026-04-12T14:45:20.17Z</time></trkpt><trkpt lat="43.5889373" lon="3.8231209"><ele>39.0</ele><time>2026-04-12T14:45:21.17Z</time></trkpt><trkpt lat="43.5888787" lon="3.8232802"><ele>39.0</ele><time>2026-04-12T14:45:22.171Z</time></trkpt><trkpt lat="43.5888204" lon="3.8234471"><ele>39.0</ele><time>2026-04-12T14:45:23.171Z</time></trkpt><trkpt lat="43.5887598" lon="3.823622"><ele>39.0</ele><time>2026-04-12T14:45:24.171Z</time></trkpt><trkpt lat="43.5886881" lon="3.8238069"><ele>39.333333333333336</ele><time>2026-04-12T14:45:25.17Z</time></trkpt><trkpt lat="43.5886132" lon="3.8240326"><ele>39.66666666666667</ele><time>2026-04-12T14:45:26.17Z</time></trkpt><trkpt lat="43.5885251" lon="3.8242893"><ele>40.0</ele><time>2026-04-12T14:45:27.171Z</time></trkpt><trkpt lat="43.5884254" lon="3.8245839"><ele>41.5</ele><time>2026-04-12T14:45:28.17Z</time></trkpt><trkpt lat="43.5883134" lon="3.8249"><ele>43.0</ele><time>2026-04-12T14:45:29.17Z</time></trkpt><trkpt lat="43.5881936" lon="3.8252054"><ele>45.5</ele><time>2026-04-12T14:45:30.17Z</time></trkpt><trkpt lat="43.5880619" lon="3.8255253"><ele>48.0</ele><time>2026-04-12T14:45:31.17Z</time></trkpt><trkpt lat="43.5879019" lon="3.82585"><ele>47.5</ele><time>2026-04-12T14:45:32.171Z</time></trkpt><trkpt lat="43.5877867" lon="3.8261428"><ele>47.0</ele><time>2026-04-12T14:45:33.17Z</time></trkpt><trkpt lat="43.58766" lon="3.8264272"><ele>47.0</ele><time>2026-04-12T14:45:34.17Z</time></trkpt><trkpt lat="43.5875186" lon="3.8267094"><ele>47.0</ele><time>2026-04-12T14:45:35.17Z</time></trkpt><trkpt lat="43.5873984" lon="3.8269844"><ele>47.666666666666664</ele><time>2026-04-12T14:45:36.17Z</time></trkpt><trkpt lat="43.58728" lon="3.8272177"><ele>48.33333333333333</ele><time>2026-04-12T14:45:37.17Z</time></trkpt><trkpt lat="43.5871669" lon="3.8274372"><ele>49.0</ele><time>2026-04-12T14:45:38.171Z</time></trkpt><trkpt lat="43.5870601" lon="3.8276548"><ele>48.33333333333333</ele><time>2026-04-12T14:45:39.17Z</time></trkpt><trkpt lat="43.5869704" lon="3.8278678"><ele>47.666666666666664</ele><time>2026-04-12T14:45:40.17Z</time></trkpt><trkpt lat="43.5868904" lon="3.8280953"><ele>47.0</ele><time>2026-04-12T14:45:41.171Z</time></trkpt><trkpt lat="43.5868222" lon="3.8283197"><ele>48.0</ele><time>2026-04-12T14:45:42.171Z</time></trkpt><trkpt lat="43.5867652" lon="3.828535"><ele>49.0</ele><time>2026-04-12T14:45:43.17Z</time></trkpt><trkpt lat="43.5867249" lon="3.8287556"><ele>50.0</ele><time>2026-04-12T14:45:44.17Z</time></trkpt><trkpt lat="43.5867071" lon="3.8289883"><ele>50.0</ele><time>2026-04-12T14:45:45.17Z</time></trkpt><trkpt lat="43.5866943" lon="3.8292389"><ele>50.0</ele><time>2026-04-12T14:45:46.17Z</time></trkpt><trkpt lat="43.5866793" lon="3.8294997"><ele>50.0</ele><time>2026-04-12T14:45:47.17Z</time></trkpt><trkpt lat="43.5866898" lon="3.8297794"><ele>50.333333333333336</ele><time>2026-04-12T14:45:48.171Z</time></trkpt><trkpt lat="43.5867203" lon="3.830048"><ele>50.66666666666667</ele><time>2026-04-12T14:45:49.17Z</time></trkpt><trkpt lat="43.5867702" lon="3.8303358"><ele>51.0</ele><time>2026-04-12T14:45:50.17Z</time></trkpt><trkpt lat="43.5868459" lon="3.8306482"><ele>50.0</ele><time>2026-04-12T14:45:51.17Z</time></trkpt><trkpt lat="43.5869463" lon="3.8309566"><ele>49.0</ele><time>2026-04-12T14:45:52.17Z</time></trkpt><trkpt lat="43.5870508" lon="3.8312664"><ele>47.0</ele><time>2026-04-12T14:45:53.17Z</time></trkpt><trkpt lat="43.5871431" lon="3.8315723"><ele>45.0</ele><time>2026-04-12T14:45:54.17Z</time></trkpt><trkpt lat="43.587235" lon="3.8318784"><ele>43.5</ele><time>2026-04-12T14:45:55.171Z</time></trkpt><trkpt lat="43.58733" lon="3.8321843"><ele>42.0</ele><time>2026-04-12T14:45:56.171Z</time></trkpt><trkpt lat="43.5874156" lon="3.8324811"><ele>41.0</ele><time>2026-04-12T14:45:57.171Z</time></trkpt><trkpt lat="43.5874726" lon="3.8327825"><ele>40.0</ele><time>2026-04-12T14:45:58.17Z</time></trkpt><trkpt lat="43.5875131" lon="3.8330877"><ele>40.0</ele><time>2026-04-12T14:45:59.17Z</time></trkpt><trkpt lat="43.587526" lon="3.8333948"><ele>40.0</ele><time>2026-04-12T14:46:00.17Z</time></trkpt><trkpt lat="43.5875099" lon="3.8336893"><ele>40.0</ele><time>2026-04-12T14:46:01.17Z</time></trkpt><trkpt lat="43.587465" lon="3.8339785"><ele>38.5</ele><time>2026-04-12T14:46:02.17Z</time></trkpt><trkpt lat="43.5874193" lon="3.8343015"><ele>37.0</ele><time>2026-04-12T14:46:03.17Z</time></trkpt><trkpt lat="43.5873191" lon="3.8346274"><ele>36.0</ele><time>2026-04-12T14:46:04.17Z</time></trkpt><trkpt lat="43.5871936" lon="3.8349652"><ele>35.0</ele><time>2026-04-12T14:46:05.171Z</time></trkpt><trkpt lat="43.5870469" lon="3.8353107"><ele>33.5</ele><time>2026-04-12T14:46:06.17Z</time></trkpt><trkpt lat="43.5868892" lon="3.8356594"><ele>32.0</ele><time>2026-04-12T14:46:07.171Z</time></trkpt><trkpt lat="43.5867247" lon="3.8360202"><ele>31.5</ele><time>2026-04-12T14:46:08.17Z</time></trkpt><trkpt lat="43.5865577" lon="3.8363728"><ele>31.0</ele><time>2026-04-12T14:46:09.17Z</time></trkpt><trkpt lat="43.5863992" lon="3.8367142"><ele>32.0</ele><time>2026-04-12T14:46:10.17Z</time></trkpt><trkpt lat="43.5862505" lon="3.8370515"><ele>33.0</ele><time>2026-04-12T14:46:11.17Z</time></trkpt><trkpt lat="43.5861223" lon="3.8373937"><ele>35.0</ele><time>2026-04-12T14:46:12.171Z</time></trkpt><trkpt lat="43.5860161" lon="3.8377367"><ele>37.0</ele><time>2026-04-12T14:46:13.17Z</time></trkpt><trkpt lat="43.585934" lon="3.8380817"><ele>37.0</ele><time>2026-04-12T14:46:14.17Z</time></trkpt><trkpt lat="43.5858698" lon="3.8384319"><ele>37.0</ele><time>2026-04-12T14:46:15.17Z</time></trkpt><trkpt lat="43.585827" lon="3.8387812"><ele>37.0</ele><time>2026-04-12T14:46:16.17Z</time></trkpt><trkpt lat="43.5858006" lon="3.8391439"><ele>37.0</ele><time>2026-04-12T14:46:17.17Z</time></trkpt><trkpt lat="43.5857836" lon="3.839514"><ele>36.5</ele><time>2026-04-12T14:46:18.171Z</time></trkpt><trkpt lat="43.585771" lon="3.8398929"><ele>36.0</ele><time>2026-04-12T14:46:19.17Z</time></trkpt><trkpt lat="43.5857573" lon="3.8402788"><ele>35.5</ele><time>2026-04-12T14:46:20.171Z</time></trkpt><trkpt lat="43.5857495" lon="3.8406721"><ele>35.0</ele><time>2026-04-12T14:46:21.17Z</time></trkpt><trkpt lat="43.5857378" lon="3.8411049"><ele>35.0</ele><time>2026-04-12T14:46:22.171Z</time></trkpt><trkpt lat="43.5857247" lon="3.8415271"><ele>35.0</ele><time>2026-04-12T14:46:23.17Z</time></trkpt><trkpt lat="43.5857157" lon="3.84195"><ele>33.0</ele><time>2026-04-12T14:46:24.17Z</time></trkpt><trkpt lat="43.5857051" lon="3.8423641"><ele>31.0</ele><time>2026-04-12T14:46:25.17Z</time></trkpt><trkpt lat="43.5856936" lon="3.8427729"><ele>28.5</ele><time>2026-04-12T14:46:26.17Z</time></trkpt><trkpt lat="43.5856823" lon="3.8431698"><ele>26.0</ele><time>2026-04-12T14:46:27.171Z</time></trkpt><trkpt lat="43.5856714" lon="3.8435577"><ele>26.0</ele><time>2026-04-12T14:46:28.171Z</time></trkpt><trkpt lat="43.5856543" lon="3.8439276"><ele>26.0</ele><time>2026-04-12T14:46:29.171Z</time></trkpt><trkpt lat="43.5856359" lon="3.8442767"><ele>26.5</ele><time>2026-04-12T14:46:30.17Z</time></trkpt><trkpt lat="43.585614" lon="3.8446076"><ele>27.0</ele><time>2026-04-12T14:46:31.17Z</time></trkpt><trkpt lat="43.5855779" lon="3.844921"><ele>27.333333333333336</ele><time>2026-04-12T14:46:32.171Z</time></trkpt><trkpt lat="43.5855278" lon="3.8452158"><ele>27.666666666666668</ele><time>2026-04-12T14:46:33.17Z</time></trkpt><trkpt lat="43.5854625" lon="3.8454853"><ele>28.0</ele><time>2026-04-12T14:46:34.17Z</time></trkpt><trkpt lat="43.5853826" lon="3.8457471"><ele>26.666666666666668</ele><time>2026-04-12T14:46:35.17Z</time></trkpt><trkpt lat="43.5852862" lon="3.8459993"><ele>25.333333333333336</ele><time>2026-04-12T14:46:36.17Z</time></trkpt><trkpt lat="43.5851751" lon="3.8462367"><ele>24.0</ele><time>2026-04-12T14:46:37.17Z</time></trkpt><trkpt lat="43.5850563" lon="3.8464689"><ele>24.0</ele><time>2026-04-12T14:46:38.17Z</time></trkpt><trkpt lat="43.5849407" lon="3.8466823"><ele>24.0</ele><time>2026-04-12T14:46:39.17Z</time></trkpt><trkpt lat="43.5848252" lon="3.8468773"><ele>24.0</ele><time>2026-04-12T14:46:40.17Z</time></trkpt><trkpt lat="43.584718" lon="3.8470568"><ele>23.75</ele><time>2026-04-12T14:46:41.171Z</time></trkpt><trkpt lat="43.5846263" lon="3.8472212"><ele>23.5</ele><time>2026-04-12T14:46:42.17Z</time></trkpt><trkpt lat="43.5845376" lon="3.8473622"><ele>23.25</ele><time>2026-04-12T14:46:43.17Z</time></trkpt><trkpt lat="43.5844522" lon="3.8474869"><ele>23.0</ele><time>2026-04-12T14:46:44.171Z</time></trkpt><trkpt lat="43.5843844" lon="3.8476029"><ele>23.0</ele><time>2026-04-12T14:46:45.17Z</time></trkpt><trkpt lat="43.5843201" lon="3.8477017"><ele>23.0</ele><time>2026-04-12T14:46:46.171Z</time></trkpt><trkpt lat="43.5842607" lon="3.8477723"><ele>23.0</ele><time>2026-04-12T14:46:47.171Z</time></trkpt><trkpt lat="43.5841459" lon="3.8478233"><ele>23.0</ele><time>2026-04-12T14:46:49.17Z</time></trkpt><trkpt lat="43.5840757" lon="3.847812"><ele>23.0</ele><time>2026-04-12T14:46:50.171Z</time></trkpt><trkpt lat="43.5839984" lon="3.8477789"><ele>23.0</ele><time>2026-04-12T14:46:51.17Z</time></trkpt><trkpt lat="43.5839031" lon="3.8477327"><ele>23.0</ele><time>2026-04-12T14:46:52.17Z</time></trkpt><trkpt lat="43.5838062" lon="3.8477154"><ele>23.0</ele><time>2026-04-12T14:46:53.171Z</time></trkpt><trkpt lat="43.5837102" lon="3.8477366"><ele>23.0</ele><time>2026-04-12T14:46:54.171Z</time></trkpt><trkpt lat="43.5836183" lon="3.8477846"><ele>23.0</ele><time>2026-04-12T14:46:55.17Z</time></trkpt><trkpt lat="43.5835287" lon="3.8478551"><ele>23.0</ele><time>2026-04-12T14:46:56.17Z</time></trkpt><trkpt lat="43.5834304" lon="3.8479328"><ele>23.0</ele><time>2026-04-12T14:46:57.171Z</time></trkpt><trkpt lat="43.5833294" lon="3.8479915"><ele>23.0</ele><time>2026-04-12T14:46:58.17Z</time></trkpt><trkpt lat="43.5832089" lon="3.8480308"><ele>23.0</ele><time>2026-04-12T14:46:59.171Z</time></trkpt><trkpt lat="43.5830751" lon="3.8480424"><ele>23.0</ele><time>2026-04-12T14:47:00.17Z</time></trkpt><trkpt lat="43.5829319" lon="3.8480416"><ele>23.0</ele><time>2026-04-12T14:47:01.17Z</time></trkpt><trkpt lat="43.5827951" lon="3.8480288"><ele>23.0</ele><time>2026-04-12T14:47:02.17Z</time></trkpt><trkpt lat="43.5826594" lon="3.8480124"><ele>23.0</ele><time>2026-04-12T14:47:03.17Z</time></trkpt><trkpt lat="43.5825256" lon="3.8479996"><ele>23.0</ele><time>2026-04-12T14:47:04.17Z</time></trkpt><trkpt lat="43.5824007" lon="3.8479865"><ele>23.0</ele><time>2026-04-12T14:47:05.171Z</time></trkpt><trkpt lat="43.5822751" lon="3.8479828"><ele>23.0</ele><time>2026-04-12T14:47:06.17Z</time></trkpt><trkpt lat="43.5821479" lon="3.8479892"><ele>23.0</ele><time>2026-04-12T14:47:07.171Z</time></trkpt><trkpt lat="43.582022" lon="3.847995"><ele>23.0</ele><time>2026-04-12T14:47:08.17Z</time></trkpt><trkpt lat="43.5818943" lon="3.8480022"><ele>22.75</ele><time>2026-04-12T14:47:09.17Z</time></trkpt><trkpt lat="43.5817657" lon="3.8480124"><ele>22.5</ele><time>2026-04-12T14:47:10.17Z</time></trkpt><trkpt lat="43.5816299" lon="3.8480285"><ele>22.25</ele><time>2026-04-12T14:47:11.171Z</time></trkpt><trkpt lat="43.5814782" lon="3.8480471"><ele>22.0</ele><time>2026-04-12T14:47:12.17Z</time></trkpt><trkpt lat="43.5813256" lon="3.8480648"><ele>22.666666666666664</ele><time>2026-04-12T14:47:13.17Z</time></trkpt><trkpt lat="43.5811704" lon="3.8480853"><ele>23.333333333333332</ele><time>2026-04-12T14:47:14.171Z</time></trkpt><trkpt lat="43.5810199" lon="3.8481031"><ele>24.0</ele><time>2026-04-12T14:47:15.171Z</time></trkpt><trkpt lat="43.580867" lon="3.8481098"><ele>24.0</ele><time>2026-04-12T14:47:16.17Z</time></trkpt><trkpt lat="43.5807086" lon="3.8481198"><ele>24.0</ele><time>2026-04-12T14:47:17.17Z</time></trkpt><trkpt lat="43.58054" lon="3.8481312"><ele>24.0</ele><time>2026-04-12T14:47:18.171Z</time></trkpt><trkpt lat="43.5803794" lon="3.8481373"><ele>25.0</ele><time>2026-04-12T14:47:19.17Z</time></trkpt><trkpt lat="43.5801987" lon="3.8481566"><ele>26.0</ele><time>2026-04-12T14:47:20.17Z</time></trkpt><trkpt lat="43.5800158" lon="3.8481742"><ele>27.0</ele><time>2026-04-12T14:47:21.17Z</time></trkpt><trkpt lat="43.5798293" lon="3.8482058"><ele>27.0</ele><time>2026-04-12T14:47:22.17Z</time></trkpt><trkpt lat="43.5796475" lon="3.8482245"><ele>27.0</ele><time>2026-04-12T14:47:23.17Z</time></trkpt><trkpt lat="43.5794685" lon="3.8482428"><ele>27.0</ele><time>2026-04-12T14:47:24.17Z</time></trkpt><trkpt lat="43.5792899" lon="3.8482612"><ele>28.666666666666664</ele><time>2026-04-12T14:47:25.17Z</time></trkpt><trkpt lat="43.5791135" lon="3.8482804"><ele>30.333333333333332</ele><time>2026-04-12T14:47:26.17Z</time></trkpt><trkpt lat="43.5789396" lon="3.8482955"><ele>32.0</ele><time>2026-04-12T14:47:27.17Z</time></trkpt><trkpt lat="43.5787656" lon="3.8483151"><ele>34.33333333333333</ele><time>2026-04-12T14:47:28.17Z</time></trkpt><trkpt lat="43.5785966" lon="3.8483303"><ele>36.666666666666664</ele><time>2026-04-12T14:47:29.171Z</time></trkpt><trkpt lat="43.5784284" lon="3.8483484"><ele>39.0</ele><time>2026-04-12T14:47:30.17Z</time></trkpt><trkpt lat="43.5782644" lon="3.848361"><ele>39.0</ele><time>2026-04-12T14:47:31.171Z</time></trkpt><trkpt lat="43.5781032" lon="3.8483757"><ele>39.0</ele><time>2026-04-12T14:47:32.17Z</time></trkpt><trkpt lat="43.5779425" lon="3.8483918"><ele>39.0</ele><time>2026-04-12T14:47:33.17Z</time></trkpt><trkpt lat="43.5777826" lon="3.8484083"><ele>39.666666666666664</ele><time>2026-04-12T14:47:34.17Z</time></trkpt><trkpt lat="43.5776188" lon="3.8484285"><ele>40.33333333333333</ele><time>2026-04-12T14:47:35.171Z</time></trkpt><trkpt lat="43.5774577" lon="3.8484454"><ele>41.0</ele><time>2026-04-12T14:47:36.17Z</time></trkpt><trkpt lat="43.5772944" lon="3.8484642"><ele>42.0</ele><time>2026-04-12T14:47:37.17Z</time></trkpt><trkpt lat="43.5771326" lon="3.8484892"><ele>43.0</ele><time>2026-04-12T14:47:38.17Z</time></trkpt><trkpt lat="43.5769722" lon="3.8485125"><ele>44.0</ele><time>2026-04-12T14:47:39.17Z</time></trkpt><trkpt lat="43.5768234" lon="3.8485314"><ele>41.75</ele><time>2026-04-12T14:47:40.171Z</time></trkpt><trkpt lat="43.5766774" lon="3.8485509"><ele>39.5</ele><time>2026-04-12T14:47:41.17Z</time></trkpt><trkpt lat="43.5765344" lon="3.8485705"><ele>37.25</ele><time>2026-04-12T14:47:42.17Z</time></trkpt><trkpt lat="43.5763859" lon="3.8485894"><ele>35.0</ele><time>2026-04-12T14:47:43.17Z</time></trkpt><trkpt lat="43.5762439" lon="3.8486099"><ele>33.25</ele><time>2026-04-12T14:47:44.171Z</time></trkpt><trkpt lat="43.5761095" lon="3.8486264"><ele>31.5</ele><time>2026-04-12T14:47:45.17Z</time></trkpt><trkpt lat="43.5759824" lon="3.8486432"><ele>29.75</ele><time>2026-04-12T14:47:46.17Z</time></trkpt><trkpt lat="43.575863" lon="3.8486612"><ele>28.0</ele><time>2026-04-12T14:47:47.171Z</time></trkpt><trkpt lat="43.5757575" lon="3.848671"><ele>28.000000000000004</ele><time>2026-04-12T14:47:48.17Z</time></trkpt><trkpt lat="43.575667" lon="3.8486642"><ele>28.0</ele><time>2026-04-12T14:47:49.17Z</time></trkpt><trkpt lat="43.57558" lon="3.8486598"><ele>28.0</ele><time>2026-04-12T14:47:50.17Z</time></trkpt><trkpt lat="43.5754993" lon="3.8486468"><ele>28.0</ele><time>2026-04-12T14:47:51.17Z</time></trkpt><trkpt lat="43.5754237" lon="3.8486252"><ele>28.000000000000004</ele><time>2026-04-12T14:47:52.17Z</time></trkpt><trkpt lat="43.5753489" lon="3.8486038"><ele>28.0</ele><time>2026-04-12T14:47:53.171Z</time></trkpt><trkpt lat="43.5752756" lon="3.8485963"><ele>27.799999999999997</ele><time>2026-04-12T14:47:54.17Z</time></trkpt><trkpt lat="43.5752027" lon="3.8486179"><ele>27.599999999999998</ele><time>2026-04-12T14:47:55.17Z</time></trkpt><trkpt lat="43.5751178" lon="3.8486494"><ele>27.400000000000002</ele><time>2026-04-12T14:47:56.17Z</time></trkpt><trkpt lat="43.5750184" lon="3.8486848"><ele>27.200000000000003</ele><time>2026-04-12T14:47:57.17Z</time></trkpt><trkpt lat="43.5748962" lon="3.8487016"><ele>27.0</ele><time>2026-04-12T14:47:58.17Z</time></trkpt><trkpt lat="43.5747707" lon="3.8487219"><ele>27.0</ele><time>2026-04-12T14:47:59.17Z</time></trkpt><trkpt lat="43.5746403" lon="3.8487414"><ele>27.0</ele><time>2026-04-12T14:48:00.17Z</time></trkpt><trkpt lat="43.5745059" lon="3.8487616"><ele>27.0</ele><time>2026-04-12T14:48:01.17Z</time></trkpt><trkpt lat="43.5743671" lon="3.8487902"><ele>27.0</ele><time>2026-04-12T14:48:02.17Z</time></trkpt><trkpt lat="43.574224" lon="3.8488212"><ele>27.333333333333336</ele><time>2026-04-12T14:48:03.171Z</time></trkpt><trkpt lat="43.5740757" lon="3.8488547"><ele>27.666666666666668</ele><time>2026-04-12T14:48:04.17Z</time></trkpt><trkpt lat="43.5739284" lon="3.8488862"><ele>28.0</ele><time>2026-04-12T14:48:05.171Z</time></trkpt><trkpt lat="43.5737696" lon="3.8489067"><ele>27.333333333333336</ele><time>2026-04-12T14:48:06.17Z</time></trkpt><trkpt lat="43.5735854" lon="3.8489139"><ele>26.666666666666664</ele><time>2026-04-12T14:48:07.17Z</time></trkpt><trkpt lat="43.5733773" lon="3.8489158"><ele>26.0</ele><time>2026-04-12T14:48:08.17Z</time></trkpt><trkpt lat="43.5731739" lon="3.8489228"><ele>26.0</ele><time>2026-04-12T14:48:09.17Z</time></trkpt><trkpt lat="43.5729762" lon="3.8489414"><ele>26.0</ele><time>2026-04-12T14:48:10.17Z</time></trkpt><trkpt lat="43.5727859" lon="3.8489709"><ele>26.0</ele><time>2026-04-12T14:48:11.17Z</time></trkpt><trkpt lat="43.5726039" lon="3.8490093"><ele>25.333333333333332</ele><time>2026-04-12T14:48:12.17Z</time></trkpt><trkpt lat="43.5724356" lon="3.8490436"><ele>24.666666666666664</ele><time>2026-04-12T14:48:13.171Z</time></trkpt><trkpt lat="43.5722759" lon="3.8490759"><ele>24.0</ele><time>2026-04-12T14:48:14.171Z</time></trkpt><trkpt lat="43.5721314" lon="3.8491009"><ele>23.799999999999997</ele><time>2026-04-12T14:48:15.171Z</time></trkpt><trkpt lat="43.5720099" lon="3.8491228"><ele>23.599999999999998</ele><time>2026-04-12T14:48:16.171Z</time></trkpt><trkpt lat="43.5719062" lon="3.8491369"><ele>23.4</ele><time>2026-04-12T14:48:17.17Z</time></trkpt><trkpt lat="43.5718251" lon="3.8491382"><ele>23.2</ele><time>2026-04-12T14:48:18.171Z</time></trkpt><trkpt lat="43.571754" lon="3.8491242"><ele>23.0</ele><time>2026-04-12T14:48:19.17Z</time></trkpt><trkpt lat="43.5716845" lon="3.8490918"><ele>23.0</ele><time>2026-04-12T14:48:20.17Z</time></trkpt><trkpt lat="43.5716197" lon="3.8490286"><ele>23.0</ele><time>2026-04-12T14:48:21.171Z</time></trkpt><trkpt lat="43.5715482" lon="3.8489507"><ele>23.0</ele><time>2026-04-12T14:48:22.17Z</time></trkpt><trkpt lat="43.5714645" lon="3.8488637"><ele>23.0</ele><time>2026-04-12T14:48:23.171Z</time></trkpt><trkpt lat="43.5713752" lon="3.8488063"><ele>23.0</ele><time>2026-04-12T14:48:24.17Z</time></trkpt><trkpt lat="43.5712869" lon="3.8487793"><ele>23.0</ele><time>2026-04-12T14:48:25.17Z</time></trkpt><trkpt lat="43.5711893" lon="3.8487888"><ele>23.0</ele><time>2026-04-12T14:48:26.171Z</time></trkpt><trkpt lat="43.5710935" lon="3.8488285"><ele>23.0</ele><time>2026-04-12T14:48:27.17Z</time></trkpt><trkpt lat="43.5709999" lon="3.8489023"><ele>23.0</ele><time>2026-04-12T14:48:28.17Z</time></trkpt><trkpt lat="43.5709039" lon="3.8489991"><ele>23.0</ele><time>2026-04-12T14:48:29.17Z</time></trkpt><trkpt lat="43.5707976" lon="3.8491059"><ele>23.0</ele><time>2026-04-12T14:48:30.17Z</time></trkpt><trkpt lat="43.5706731" lon="3.8492089"><ele>23.0</ele><time>2026-04-12T14:48:31.17Z</time></trkpt><trkpt lat="43.5705328" lon="3.8492942"><ele>23.0</ele><time>2026-04-12T14:48:32.17Z</time></trkpt><trkpt lat="43.5703689" lon="3.849362"><ele>23.0</ele><time>2026-04-12T14:48:33.17Z</time></trkpt><trkpt lat="43.5701804" lon="3.8494331"><ele>23.0</ele><time>2026-04-12T14:48:34.17Z</time></trkpt><trkpt lat="43.5699516" lon="3.8495111"><ele>23.0</ele><time>2026-04-12T14:48:35.17Z</time></trkpt><trkpt lat="43.5697136" lon="3.8495903"><ele>23.0</ele><time>2026-04-12T14:48:36.17Z</time></trkpt><trkpt lat="43.5694651" lon="3.8496568"><ele>23.0</ele><time>2026-04-12T14:48:37.17Z</time></trkpt><trkpt lat="43.569213" lon="3.8497132"><ele>23.0</ele><time>2026-04-12T14:48:38.171Z</time></trkpt><trkpt lat="43.5689562" lon="3.8497549"><ele>23.0</ele><time>2026-04-12T14:48:39.171Z</time></trkpt><trkpt lat="43.5686792" lon="3.8497946"><ele>21.5</ele><time>2026-04-12T14:48:40.171Z</time></trkpt><trkpt lat="43.5683807" lon="3.8498419"><ele>20.0</ele><time>2026-04-12T14:48:41.171Z</time></trkpt><trkpt lat="43.5680852" lon="3.8498739"><ele>19.5</ele><time>2026-04-12T14:48:42.17Z</time></trkpt><trkpt lat="43.5678015" lon="3.8499145"><ele>19.0</ele><time>2026-04-12T14:48:43.17Z</time></trkpt><trkpt lat="43.5675257" lon="3.8499519"><ele>19.0</ele><time>2026-04-12T14:48:44.171Z</time></trkpt><trkpt lat="43.5672616" lon="3.8499825"><ele>19.0</ele><time>2026-04-12T14:48:45.17Z</time></trkpt><trkpt lat="43.5670062" lon="3.8500125"><ele>18.5</ele><time>2026-04-12T14:48:46.171Z</time></trkpt><trkpt lat="43.566759" lon="3.8500398"><ele>18.0</ele><time>2026-04-12T14:48:47.17Z</time></trkpt><trkpt lat="43.5665241" lon="3.8500672"><ele>18.0</ele><time>2026-04-12T14:48:48.171Z</time></trkpt><trkpt lat="43.5662991" lon="3.8500903"><ele>18.0</ele><time>2026-04-12T14:48:49.17Z</time></trkpt><trkpt lat="43.5660784" lon="3.8501083"><ele>18.0</ele><time>2026-04-12T14:48:50.171Z</time></trkpt><trkpt lat="43.5658653" lon="3.8501238"><ele>18.0</ele><time>2026-04-12T14:48:51.171Z</time></trkpt><trkpt lat="43.5656568" lon="3.8501312"><ele>18.0</ele><time>2026-04-12T14:48:52.17Z</time></trkpt><trkpt lat="43.5654559" lon="3.850153"><ele>18.0</ele><time>2026-04-12T14:48:53.171Z</time></trkpt><trkpt lat="43.5652665" lon="3.8501756"><ele>18.0</ele><time>2026-04-12T14:48:54.171Z</time></trkpt><trkpt lat="43.5650884" lon="3.8501932"><ele>18.0</ele><time>2026-04-12T14:48:55.171Z</time></trkpt><trkpt lat="43.5649191" lon="3.8502082"><ele>18.0</ele><time>2026-04-12T14:48:56.17Z</time></trkpt><trkpt lat="43.5647582" lon="3.8502161"><ele>18.0</ele><time>2026-04-12T14:48:57.17Z</time></trkpt><trkpt lat="43.5645982" lon="3.8502234"><ele>18.0</ele><time>2026-04-12T14:48:58.171Z</time></trkpt><trkpt lat="43.5644399" lon="3.8502282"><ele>18.0</ele><time>2026-04-12T14:48:59.17Z</time></trkpt><trkpt lat="43.5642747" lon="3.8502355"><ele>18.0</ele><time>2026-04-12T14:49:00.17Z</time></trkpt><trkpt lat="43.5641059" lon="3.850242"><ele>18.0</ele><time>2026-04-12T14:49:01.17Z</time></trkpt><trkpt lat="43.5639202" lon="3.8502386"><ele>18.0</ele><time>2026-04-12T14:49:02.171Z</time></trkpt><trkpt lat="43.5637256" lon="3.8502332"><ele>17.666666666666668</ele><time>2026-04-12T14:49:03.17Z</time></trkpt><trkpt lat="43.5635381" lon="3.8502153"><ele>17.333333333333336</ele><time>2026-04-12T14:49:04.17Z</time></trkpt><trkpt lat="43.5633513" lon="3.8501759"><ele>17.0</ele><time>2026-04-12T14:49:05.17Z</time></trkpt><trkpt lat="43.5631614" lon="3.8501318"><ele>17.333333333333336</ele><time>2026-04-12T14:49:06.17Z</time></trkpt><trkpt lat="43.5629781" lon="3.8500866"><ele>17.666666666666668</ele><time>2026-04-12T14:49:07.17Z</time></trkpt><trkpt lat="43.5628041" lon="3.8500287"><ele>18.0</ele><time>2026-04-12T14:49:08.171Z</time></trkpt><trkpt lat="43.5626365" lon="3.8499789"><ele>17.0</ele><time>2026-04-12T14:49:09.17Z</time></trkpt><trkpt lat="43.5624741" lon="3.8499301"><ele>16.0</ele><time>2026-04-12T14:49:10.171Z</time></trkpt><trkpt lat="43.562313" lon="3.8498826"><ele>15.0</ele><time>2026-04-12T14:49:11.17Z</time></trkpt><trkpt lat="43.5621444" lon="3.8498289"><ele>15.0</ele><time>2026-04-12T14:49:12.171Z</time></trkpt><trkpt lat="43.5619885" lon="3.8497823"><ele>15.0</ele><time>2026-04-12T14:49:13.17Z</time></trkpt><trkpt lat="43.5618453" lon="3.8497352"><ele>15.0</ele><time>2026-04-12T14:49:14.17Z</time></trkpt><trkpt lat="43.5617122" lon="3.8496899"><ele>15.0</ele><time>2026-04-12T14:49:15.17Z</time></trkpt><trkpt lat="43.5615839" lon="3.8496485"><ele>15.0</ele><time>2026-04-12T14:49:16.171Z</time></trkpt><trkpt lat="43.5614638" lon="3.8496111"><ele>15.0</ele><time>2026-04-12T14:49:17.17Z</time></trkpt><trkpt lat="43.5613554" lon="3.849582"><ele>15.0</ele><time>2026-04-12T14:49:18.17Z</time></trkpt><trkpt lat="43.5612575" lon="3.8495559"><ele>15.0</ele><time>2026-04-12T14:49:19.171Z</time></trkpt><trkpt lat="43.5611732" lon="3.8495287"><ele>15.0</ele><time>2026-04-12T14:49:20.17Z</time></trkpt><trkpt lat="43.5611065" lon="3.8495086"><ele>14.666666666666666</ele><time>2026-04-12T14:49:21.171Z</time></trkpt><trkpt lat="43.5610165" lon="3.8494819"><ele>14.333333333333332</ele><time>2026-04-12T14:49:23.17Z</time></trkpt><trkpt lat="43.5609522" lon="3.849453"><ele>14.0</ele><time>2026-04-12T14:49:26.171Z</time></trkpt><trkpt lat="43.5608915" lon="3.8494242"><ele>13.666666666666666</ele><time>2026-04-12T14:49:54.17Z</time></trkpt><trkpt lat="43.560823" lon="3.8493881"><ele>13.333333333333332</ele><time>2026-04-12T14:50:32.17Z</time></trkpt><trkpt lat="43.5606891" lon="3.8493475"><ele>13.0</ele><time>2026-04-12T14:50:35.17Z</time></trkpt><trkpt lat="43.5605825" lon="3.8493146"><ele>13.75</ele><time>2026-04-12T14:50:36.17Z</time></trkpt><trkpt lat="43.5604631" lon="3.8492823"><ele>14.5</ele><time>2026-04-12T14:50:37.17Z</time></trkpt><trkpt lat="43.5603407" lon="3.8492403"><ele>15.25</ele><time>2026-04-12T14:50:38.17Z</time></trkpt><trkpt lat="43.5602014" lon="3.8491966"><ele>16.0</ele><time>2026-04-12T14:50:39.17Z</time></trkpt><trkpt lat="43.5600409" lon="3.8491537"><ele>16.0</ele><time>2026-04-12T14:50:40.171Z</time></trkpt><trkpt lat="43.5598515" lon="3.8491003"><ele>16.0</ele><time>2026-04-12T14:50:41.17Z</time></trkpt><trkpt lat="43.5596166" lon="3.8490317"><ele>16.0</ele><time>2026-04-12T14:50:42.17Z</time></trkpt><trkpt lat="43.5594127" lon="3.8489641"><ele>14.5</ele><time>2026-04-12T14:50:43.17Z</time></trkpt><trkpt lat="43.5591327" lon="3.8488838"><ele>13.0</ele><time>2026-04-12T14:50:44.17Z</time></trkpt><trkpt lat="43.5588467" lon="3.8488075"><ele>12.0</ele><time>2026-04-12T14:50:45.171Z</time></trkpt><trkpt lat="43.5585496" lon="3.8487405"><ele>11.0</ele><time>2026-04-12T14:50:46.17Z</time></trkpt><trkpt lat="43.5582399" lon="3.8486888"><ele>11.0</ele><time>2026-04-12T14:50:47.17Z</time></trkpt><trkpt lat="43.5579316" lon="3.8486661"><ele>11.0</ele><time>2026-04-12T14:50:48.171Z</time></trkpt><trkpt lat="43.5576509" lon="3.8486634"><ele>10.5</ele><time>2026-04-12T14:50:49.17Z</time></trkpt><trkpt lat="43.5573768" lon="3.8486701"><ele>10.0</ele><time>2026-04-12T14:50:50.17Z</time></trkpt><trkpt lat="43.5571162" lon="3.8486877"><ele>9.5</ele><time>2026-04-12T14:50:51.17Z</time></trkpt><trkpt lat="43.5568773" lon="3.8486933"><ele>9.0</ele><time>2026-04-12T14:50:52.171Z</time></trkpt><trkpt lat="43.5566626" lon="3.8486914"><ele>9.0</ele><time>2026-04-12T14:50:53.171Z</time></trkpt><trkpt lat="43.556454" lon="3.8486532"><ele>9.0</ele><time>2026-04-12T14:50:54.171Z</time></trkpt><trkpt lat="43.5562573" lon="3.8485784"><ele>9.0</ele><time>2026-04-12T14:50:55.17Z</time></trkpt><trkpt lat="43.5560762" lon="3.8484621"><ele>9.666666666666666</ele><time>2026-04-12T14:50:56.17Z</time></trkpt><trkpt lat="43.5559096" lon="3.8483153"><ele>10.333333333333332</ele><time>2026-04-12T14:50:57.17Z</time></trkpt><trkpt lat="43.555756" lon="3.8481353"><ele>11.0</ele><time>2026-04-12T14:50:58.17Z</time></trkpt><trkpt lat="43.5556307" lon="3.8479333"><ele>11.0</ele><time>2026-04-12T14:50:59.17Z</time></trkpt><trkpt lat="43.5555284" lon="3.8477017"><ele>11.0</ele><time>2026-04-12T14:51:00.17Z</time></trkpt><trkpt lat="43.5554432" lon="3.847454"><ele>11.0</ele><time>2026-04-12T14:51:01.171Z</time></trkpt><trkpt lat="43.5553739" lon="3.8471858"><ele>9.666666666666666</ele><time>2026-04-12T14:51:02.17Z</time></trkpt><trkpt lat="43.555303" lon="3.8469104"><ele>8.333333333333334</ele><time>2026-04-12T14:51:03.171Z</time></trkpt><trkpt lat="43.5552246" lon="3.8466404"><ele>7.0</ele><time>2026-04-12T14:51:04.171Z</time></trkpt><trkpt lat="43.5551496" lon="3.8463622"><ele>7.0</ele><time>2026-04-12T14:51:05.17Z</time></trkpt><trkpt lat="43.5550668" lon="3.8460685"><ele>7.0</ele><time>2026-04-12T14:51:06.171Z</time></trkpt><trkpt lat="43.5549744" lon="3.8457586"><ele>8.0</ele><time>2026-04-12T14:51:07.17Z</time></trkpt><trkpt lat="43.554886" lon="3.8454522"><ele>9.0</ele><time>2026-04-12T14:51:08.17Z</time></trkpt><trkpt lat="43.554797" lon="3.8451416"><ele>10.0</ele><time>2026-04-12T14:51:09.171Z</time></trkpt><trkpt lat="43.554711" lon="3.8448379"><ele>11.0</ele><time>2026-04-12T14:51:10.17Z</time></trkpt><trkpt lat="43.5546221" lon="3.8445274"><ele>11.5</ele><time>2026-04-12T14:51:11.17Z</time></trkpt><trkpt lat="43.5545277" lon="3.8441906"><ele>12.0</ele><time>2026-04-12T14:51:12.17Z</time></trkpt><trkpt lat="43.5544237" lon="3.8438337"><ele>12.5</ele><time>2026-04-12T14:51:13.17Z</time></trkpt><trkpt lat="43.5543206" lon="3.8434396"><ele>13.0</ele><time>2026-04-12T14:51:14.171Z</time></trkpt><trkpt lat="43.5542092" lon="3.8430047"><ele>14.0</ele><time>2026-04-12T14:51:15.17Z</time></trkpt><trkpt lat="43.5540896" lon="3.8425583"><ele>15.0</ele><time>2026-04-12T14:51:16.171Z</time></trkpt><trkpt lat="43.5539718" lon="3.8421036"><ele>16.0</ele><time>2026-04-12T14:51:17.17Z</time></trkpt><trkpt lat="43.5538502" lon="3.8416819"><ele>17.0</ele><time>2026-04-12T14:51:18.17Z</time></trkpt><trkpt lat="43.5537326" lon="3.8412536"><ele>19.5</ele><time>2026-04-12T14:51:19.17Z</time></trkpt><trkpt lat="43.5536178" lon="3.8408388"><ele>22.0</ele><time>2026-04-12T14:51:20.171Z</time></trkpt><trkpt lat="43.553507" lon="3.8404579"><ele>22.5</ele><time>2026-04-12T14:51:21.17Z</time></trkpt><trkpt lat="43.5534065" lon="3.8401141"><ele>23.0</ele><time>2026-04-12T14:51:22.17Z</time></trkpt><trkpt lat="43.5533106" lon="3.8397957"><ele>23.0</ele><time>2026-04-12T14:51:23.17Z</time></trkpt><trkpt lat="43.5532246" lon="3.8394959"><ele>23.0</ele><time>2026-04-12T14:51:24.17Z</time></trkpt><trkpt lat="43.5531385" lon="3.839224"><ele>23.0</ele><time>2026-04-12T14:51:25.171Z</time></trkpt><trkpt lat="43.5530579" lon="3.8389707"><ele>23.666666666666668</ele><time>2026-04-12T14:51:26.17Z</time></trkpt><trkpt lat="43.5529738" lon="3.8387329"><ele>24.333333333333336</ele><time>2026-04-12T14:51:27.171Z</time></trkpt><trkpt lat="43.5528848" lon="3.8385007"><ele>25.0</ele><time>2026-04-12T14:51:28.17Z</time></trkpt><trkpt lat="43.552794" lon="3.8382695"><ele>27.0</ele><time>2026-04-12T14:51:29.17Z</time></trkpt><trkpt lat="43.552703" lon="3.8380392"><ele>29.0</ele><time>2026-04-12T14:51:30.17Z</time></trkpt><trkpt lat="43.5526153" lon="3.8378087"><ele>31.0</ele><time>2026-04-12T14:51:31.17Z</time></trkpt><trkpt lat="43.5525415" lon="3.8375899"><ele>32.0</ele><time>2026-04-12T14:51:32.17Z</time></trkpt><trkpt lat="43.5524652" lon="3.8373786"><ele>33.0</ele><time>2026-04-12T14:51:33.17Z</time></trkpt><trkpt lat="43.5523917" lon="3.8371934"><ele>34.0</ele><time>2026-04-12T14:51:34.17Z</time></trkpt><trkpt lat="43.5523301" lon="3.8370347"><ele>34.0</ele><time>2026-04-12T14:51:35.17Z</time></trkpt><trkpt lat="43.5522737" lon="3.8368857"><ele>34.0</ele><time>2026-04-12T14:51:36.17Z</time></trkpt><trkpt lat="43.5522255" lon="3.8367556"><ele>34.0</ele><time>2026-04-12T14:51:37.17Z</time></trkpt><trkpt lat="43.5521858" lon="3.8366333"><ele>34.0</ele><time>2026-04-12T14:51:38.171Z</time></trkpt><trkpt lat="43.5521419" lon="3.8365209"><ele>34.0</ele><time>2026-04-12T14:51:39.17Z</time></trkpt><trkpt lat="43.5521012" lon="3.8364048"><ele>33.8</ele><time>2026-04-12T14:51:40.17Z</time></trkpt><trkpt lat="43.552063" lon="3.8362753"><ele>33.599999999999994</ele><time>2026-04-12T14:51:41.17Z</time></trkpt><trkpt lat="43.5520384" lon="3.8361333"><ele>33.4</ele><time>2026-04-12T14:51:42.17Z</time></trkpt><trkpt lat="43.5520127" lon="3.8359896"><ele>33.199999999999996</ele><time>2026-04-12T14:51:43.17Z</time></trkpt><trkpt lat="43.5519568" lon="3.8358607"><ele>33.0</ele><time>2026-04-12T14:51:44.171Z</time></trkpt><trkpt lat="43.5518697" lon="3.835712"><ele>32.0</ele><time>2026-04-12T14:51:45.17Z</time></trkpt><trkpt lat="43.55177" lon="3.8355255"><ele>31.0</ele><time>2026-04-12T14:51:46.171Z</time></trkpt><trkpt lat="43.5516622" lon="3.8352869"><ele>30.0</ele><time>2026-04-12T14:51:47.171Z</time></trkpt><trkpt lat="43.5515406" lon="3.8349903"><ele>30.0</ele><time>2026-04-12T14:51:48.171Z</time></trkpt><trkpt lat="43.5514057" lon="3.8346346"><ele>30.0</ele><time>2026-04-12T14:51:49.17Z</time></trkpt><trkpt lat="43.5512547" lon="3.8342406"><ele>30.5</ele><time>2026-04-12T14:51:50.17Z</time></trkpt><trkpt lat="43.5510888" lon="3.8337982"><ele>31.0</ele><time>2026-04-12T14:51:51.17Z</time></trkpt><trkpt lat="43.5509132" lon="3.8333296"><ele>31.5</ele><time>2026-04-12T14:51:52.17Z</time></trkpt><trkpt lat="43.5507372" lon="3.832855"><ele>32.0</ele><time>2026-04-12T14:51:53.17Z</time></trkpt><trkpt lat="43.5505764" lon="3.832407"><ele>33.0</ele><time>2026-04-12T14:51:54.17Z</time></trkpt><trkpt lat="43.5504169" lon="3.8319777"><ele>34.0</ele><time>2026-04-12T14:51:55.17Z</time></trkpt><trkpt lat="43.5502538" lon="3.8315611"><ele>35.5</ele><time>2026-04-12T14:51:56.171Z</time></trkpt><trkpt lat="43.550099" lon="3.8311477"><ele>37.0</ele><time>2026-04-12T14:51:57.171Z</time></trkpt><trkpt lat="43.5499401" lon="3.8307385"><ele>37.0</ele><time>2026-04-12T14:51:58.17Z</time></trkpt><trkpt lat="43.549779" lon="3.830317"><ele>37.0</ele><time>2026-04-12T14:51:59.171Z</time></trkpt><trkpt lat="43.5496135" lon="3.829869"><ele>37.0</ele><time>2026-04-12T14:52:00.17Z</time></trkpt><trkpt lat="43.549438" lon="3.8294006"><ele>37.0</ele><time>2026-04-12T14:52:01.17Z</time></trkpt><trkpt lat="43.5492681" lon="3.8289529"><ele>37.0</ele><time>2026-04-12T14:52:02.17Z</time></trkpt><trkpt lat="43.5491003" lon="3.8285123"><ele>37.0</ele><time>2026-04-12T14:52:03.17Z</time></trkpt><trkpt lat="43.5489411" lon="3.8280765"><ele>36.0</ele><time>2026-04-12T14:52:04.17Z</time></trkpt><trkpt lat="43.5487764" lon="3.8276502"><ele>35.0</ele><time>2026-04-12T14:52:05.171Z</time></trkpt><trkpt lat="43.548611" lon="3.8272333"><ele>34.0</ele><time>2026-04-12T14:52:06.171Z</time></trkpt><trkpt lat="43.5484428" lon="3.8268389"><ele>33.0</ele><time>2026-04-12T14:52:07.17Z</time></trkpt><trkpt lat="43.5482708" lon="3.8264639"><ele>32.5</ele><time>2026-04-12T14:52:08.17Z</time></trkpt><trkpt lat="43.548097" lon="3.8261301"><ele>32.0</ele><time>2026-04-12T14:52:09.171Z</time></trkpt><trkpt lat="43.5479086" lon="3.8258117"><ele>33.5</ele><time>2026-04-12T14:52:10.171Z</time></trkpt><trkpt lat="43.5477134" lon="3.8255131"><ele>35.0</ele><time>2026-04-12T14:52:11.17Z</time></trkpt><trkpt lat="43.5475016" lon="3.8252137"><ele>36.0</ele><time>2026-04-12T14:52:12.17Z</time></trkpt><trkpt lat="43.5472827" lon="3.8249399"><ele>37.0</ele><time>2026-04-12T14:52:13.171Z</time></trkpt><trkpt lat="43.54707" lon="3.8246981"><ele>37.0</ele><time>2026-04-12T14:52:14.171Z</time></trkpt><trkpt lat="43.5468724" lon="3.8244813"><ele>37.0</ele><time>2026-04-12T14:52:15.17Z</time></trkpt><trkpt lat="43.5466769" lon="3.8242845"><ele>37.333333333333336</ele><time>2026-04-12T14:52:16.17Z</time></trkpt><trkpt lat="43.5464994" lon="3.8241274"><ele>37.666666666666664</ele><time>2026-04-12T14:52:17.171Z</time></trkpt><trkpt lat="43.5463197" lon="3.8239727"><ele>38.0</ele><time>2026-04-12T14:52:18.17Z</time></trkpt><trkpt lat="43.5461356" lon="3.8238286"><ele>38.0</ele><time>2026-04-12T14:52:19.171Z</time></trkpt><trkpt lat="43.5459458" lon="3.8236838"><ele>38.0</ele><time>2026-04-12T14:52:20.171Z</time></trkpt><trkpt lat="43.5457722" lon="3.8235752"><ele>38.0</ele><time>2026-04-12T14:52:21.17Z</time></trkpt><trkpt lat="43.5456113" lon="3.8234788"><ele>38.666666666666664</ele><time>2026-04-12T14:52:22.17Z</time></trkpt><trkpt lat="43.5454522" lon="3.8233908"><ele>39.333333333333336</ele><time>2026-04-12T14:52:23.171Z</time></trkpt><trkpt lat="43.5452946" lon="3.8233374"><ele>40.0</ele><time>2026-04-12T14:52:24.17Z</time></trkpt><trkpt lat="43.5451537" lon="3.8232751"><ele>40.0</ele><time>2026-04-12T14:52:25.171Z</time></trkpt><trkpt lat="43.5450364" lon="3.8232266"><ele>40.0</ele><time>2026-04-12T14:52:26.17Z</time></trkpt><trkpt lat="43.5449455" lon="3.8231746"><ele>40.0</ele><time>2026-04-12T14:52:27.17Z</time></trkpt><trkpt lat="43.544874" lon="3.8230967"><ele>40.0</ele><time>2026-04-12T14:52:28.17Z</time></trkpt><trkpt lat="43.544828" lon="3.822991"><ele>40.0</ele><time>2026-04-12T14:52:29.17Z</time></trkpt><trkpt lat="43.544821" lon="3.8228466"><ele>40.0</ele><time>2026-04-12T14:52:30.17Z</time></trkpt><trkpt lat="43.5448084" lon="3.8226752"><ele>40.0</ele><time>2026-04-12T14:52:31.17Z</time></trkpt><trkpt lat="43.5448056" lon="3.8224665"><ele>40.0</ele><time>2026-04-12T14:52:32.17Z</time></trkpt><trkpt lat="43.5448075" lon="3.8222555"><ele>40.0</ele><time>2026-04-12T14:52:33.171Z</time></trkpt><trkpt lat="43.5448144" lon="3.8220582"><ele>40.0</ele><time>2026-04-12T14:52:34.171Z</time></trkpt><trkpt lat="43.5448317" lon="3.8218727"><ele>40.0</ele><time>2026-04-12T14:52:35.17Z</time></trkpt><trkpt lat="43.5448545" lon="3.8217307"><ele>40.0</ele><time>2026-04-12T14:52:36.17Z</time></trkpt><trkpt lat="43.5448967" lon="3.8216032"><ele>40.0</ele><time>2026-04-12T14:52:37.17Z</time></trkpt><trkpt lat="43.5449598" lon="3.8215001"><ele>40.0</ele><time>2026-04-12T14:52:38.171Z</time></trkpt><trkpt lat="43.545032" lon="3.8214326"><ele>39.833333333333336</ele><time>2026-04-12T14:52:39.17Z</time></trkpt><trkpt lat="43.5451093" lon="3.8213868"><ele>39.66666666666667</ele><time>2026-04-12T14:52:40.17Z</time></trkpt><trkpt lat="43.5451831" lon="3.8213708"><ele>39.5</ele><time>2026-04-12T14:52:41.17Z</time></trkpt><trkpt lat="43.5452461" lon="3.8213678"><ele>39.333333333333336</ele><time>2026-04-12T14:52:42.17Z</time></trkpt><trkpt lat="43.5453106" lon="3.8213629"><ele>39.166666666666664</ele><time>2026-04-12T14:52:55.17Z</time></trkpt><trkpt lat="43.5453775" lon="3.8213016"><ele>39.0</ele><time>2026-04-12T14:52:57.17Z</time></trkpt><trkpt lat="43.5454324" lon="3.8212004"><ele>39.5</ele><time>2026-04-12T14:52:58.169Z</time></trkpt><trkpt lat="43.5454706" lon="3.8210691"><ele>40.0</ele><time>2026-04-12T14:52:59.169Z</time></trkpt><trkpt lat="43.5455077" lon="3.8209416"><ele>40.5</ele><time>2026-04-12T14:53:00.169Z</time></trkpt><trkpt lat="43.5455444" lon="3.8207898"><ele>41.0</ele><time>2026-04-12T14:53:01.169Z</time></trkpt><trkpt lat="43.5456018" lon="3.8205777"><ele>41.0</ele><time>2026-04-12T14:53:02.169Z</time></trkpt><trkpt lat="43.5456606" lon="3.8203352"><ele>41.0</ele><time>2026-04-12T14:53:03.169Z</time></trkpt><trkpt lat="43.5457465" lon="3.8200269"><ele>41.0</ele><time>2026-04-12T14:53:04.169Z</time></trkpt><trkpt lat="43.5458297" lon="3.8197174"><ele>40.0</ele><time>2026-04-12T14:53:05.169Z</time></trkpt><trkpt lat="43.5459167" lon="3.8194141"><ele>39.0</ele><time>2026-04-12T14:53:06.169Z</time></trkpt><trkpt lat="43.5460004" lon="3.8191321"><ele>39.0</ele><time>2026-04-12T14:53:07.17Z</time></trkpt><trkpt lat="43.5460781" lon="3.8188584"><ele>39.0</ele><time>2026-04-12T14:53:08.169Z</time></trkpt><trkpt lat="43.5461518" lon="3.8185983"><ele>39.0</ele><time>2026-04-12T14:53:09.17Z</time></trkpt><trkpt lat="43.5462289" lon="3.8183514"><ele>39.666666666666664</ele><time>2026-04-12T14:53:10.17Z</time></trkpt><trkpt lat="43.5463071" lon="3.8181113"><ele>40.33333333333333</ele><time>2026-04-12T14:53:11.169Z</time></trkpt><trkpt lat="43.5463733" lon="3.8178763"><ele>41.0</ele><time>2026-04-12T14:53:12.17Z</time></trkpt><trkpt lat="43.5464209" lon="3.8176643"><ele>41.5</ele><time>2026-04-12T14:53:13.17Z</time></trkpt><trkpt lat="43.5464709" lon="3.8174742"><ele>42.0</ele><time>2026-04-12T14:53:14.169Z</time></trkpt><trkpt lat="43.5465464" lon="3.8172966"><ele>42.5</ele><time>2026-04-12T14:53:15.169Z</time></trkpt><trkpt lat="43.5466315" lon="3.8171265"><ele>43.0</ele><time>2026-04-12T14:53:16.169Z</time></trkpt><trkpt lat="43.5467385" lon="3.8169543"><ele>43.0</ele><time>2026-04-12T14:53:17.17Z</time></trkpt><trkpt lat="43.5468496" lon="3.816786"><ele>43.0</ele><time>2026-04-12T14:53:18.169Z</time></trkpt><trkpt lat="43.5469614" lon="3.8165699"><ele>43.0</ele><time>2026-04-12T14:53:19.17Z</time></trkpt><trkpt lat="43.5470744" lon="3.8163264"><ele>43.0</ele><time>2026-04-12T14:53:20.169Z</time></trkpt><trkpt lat="43.5471701" lon="3.8160701"><ele>43.0</ele><time>2026-04-12T14:53:21.17Z</time></trkpt><trkpt lat="43.5472604" lon="3.815852"><ele>43.0</ele><time>2026-04-12T14:53:22.17Z</time></trkpt><trkpt lat="43.5473442" lon="3.8156504"><ele>43.333333333333336</ele><time>2026-04-12T14:53:23.17Z</time></trkpt><trkpt lat="43.5474173" lon="3.8154514"><ele>43.666666666666664</ele><time>2026-04-12T14:53:24.169Z</time></trkpt><trkpt lat="43.5474825" lon="3.8152517"><ele>44.0</ele><time>2026-04-12T14:53:25.169Z</time></trkpt><trkpt lat="43.5475374" lon="3.8150295"><ele>44.0</ele><time>2026-04-12T14:53:26.169Z</time></trkpt><trkpt lat="43.5475774" lon="3.8147889"><ele>44.0</ele><time>2026-04-12T14:53:27.169Z</time></trkpt><trkpt lat="43.5476033" lon="3.81452"><ele>44.0</ele><time>2026-04-12T14:53:28.169Z</time></trkpt><trkpt lat="43.5476331" lon="3.8142326"><ele>44.0</ele><time>2026-04-12T14:53:29.17Z</time></trkpt><trkpt lat="43.54766" lon="3.8139291"><ele>44.0</ele><time>2026-04-12T14:53:30.169Z</time></trkpt><trkpt lat="43.547691" lon="3.8136251"><ele>44.0</ele><time>2026-04-12T14:53:31.169Z</time></trkpt><trkpt lat="43.547717" lon="3.8133433"><ele>44.0</ele><time>2026-04-12T14:53:32.169Z</time></trkpt><trkpt lat="43.5477399" lon="3.8130875"><ele>44.0</ele><time>2026-04-12T14:53:33.169Z</time></trkpt><trkpt lat="43.5477657" lon="3.8128542"><ele>44.0</ele><time>2026-04-12T14:53:34.17Z</time></trkpt><trkpt lat="43.5477958" lon="3.8126282"><ele>44.666666666666664</ele><time>2026-04-12T14:53:35.169Z</time></trkpt><trkpt lat="43.5478178" lon="3.8124078"><ele>45.333333333333336</ele><time>2026-04-12T14:53:36.169Z</time></trkpt><trkpt lat="43.5478388" lon="3.8121944"><ele>46.0</ele><time>2026-04-12T14:53:37.17Z</time></trkpt><trkpt lat="43.5478611" lon="3.8119969"><ele>45.0</ele><time>2026-04-12T14:53:38.169Z</time></trkpt><trkpt lat="43.5478809" lon="3.8118133"><ele>44.0</ele><time>2026-04-12T14:53:39.169Z</time></trkpt><trkpt lat="43.5479002" lon="3.8116447"><ele>43.0</ele><time>2026-04-12T14:53:40.17Z</time></trkpt><trkpt lat="43.5479098" lon="3.8114822"><ele>42.0</ele><time>2026-04-12T14:53:41.169Z</time></trkpt><trkpt lat="43.547917" lon="3.8113242"><ele>42.0</ele><time>2026-04-12T14:53:42.17Z</time></trkpt><trkpt lat="43.5479139" lon="3.8111759"><ele>42.0</ele><time>2026-04-12T14:53:43.169Z</time></trkpt><trkpt lat="43.5479133" lon="3.8110289"><ele>42.0</ele><time>2026-04-12T14:53:44.169Z</time></trkpt><trkpt lat="43.5479018" lon="3.8108915"><ele>42.0</ele><time>2026-04-12T14:53:45.169Z</time></trkpt><trkpt lat="43.5478938" lon="3.810761"><ele>42.0</ele><time>2026-04-12T14:53:46.17Z</time></trkpt><trkpt lat="43.547889" lon="3.8106348"><ele>41.333333333333336</ele><time>2026-04-12T14:53:47.17Z</time></trkpt><trkpt lat="43.5478926" lon="3.810518"><ele>40.666666666666664</ele><time>2026-04-12T14:53:48.169Z</time></trkpt><trkpt lat="43.5478991" lon="3.8104084"><ele>40.0</ele><time>2026-04-12T14:53:49.169Z</time></trkpt><trkpt lat="43.5479058" lon="3.8103053"><ele>39.33333333333333</ele><time>2026-04-12T14:53:50.169Z</time></trkpt><trkpt lat="43.5479074" lon="3.8101937"><ele>38.666666666666664</ele><time>2026-04-12T14:53:51.169Z</time></trkpt><trkpt lat="43.5479107" lon="3.8100846"><ele>38.0</ele><time>2026-04-12T14:53:52.169Z</time></trkpt><trkpt lat="43.5479135" lon="3.8099808"><ele>37.83333333333333</ele><time>2026-04-12T14:53:53.169Z</time></trkpt><trkpt lat="43.5479187" lon="3.8098778"><ele>37.666666666666664</ele><time>2026-04-12T14:53:54.169Z</time></trkpt><trkpt lat="43.5479244" lon="3.8097753"><ele>37.5</ele><time>2026-04-12T14:53:55.169Z</time></trkpt><trkpt lat="43.5479278" lon="3.8096876"><ele>37.333333333333336</ele><time>2026-04-12T14:53:56.169Z</time></trkpt><trkpt lat="43.5479323" lon="3.8095449"><ele>37.16666666666667</ele><time>2026-04-12T14:53:58.169Z</time></trkpt><trkpt lat="43.5479403" lon="3.809426"><ele>37.0</ele><time>2026-04-12T14:54:01.169Z</time></trkpt><trkpt lat="43.5479269" lon="3.8093032"><ele>37.0</ele><time>2026-04-12T14:54:13.17Z</time></trkpt><trkpt lat="43.5478997" lon="3.8092119"><ele>37.0</ele><time>2026-04-12T14:54:15.169Z</time></trkpt><trkpt lat="43.5478446" lon="3.8090684"><ele>37.0</ele><time>2026-04-12T14:54:17.17Z</time></trkpt><trkpt lat="43.5478069" lon="3.808987"><ele>37.0</ele><time>2026-04-12T14:54:18.169Z</time></trkpt><trkpt lat="43.5477619" lon="3.8088903"><ele>37.0</ele><time>2026-04-12T14:54:19.17Z</time></trkpt><trkpt lat="43.5477187" lon="3.8087889"><ele>37.0</ele><time>2026-04-12T14:54:20.169Z</time></trkpt><trkpt lat="43.5476818" lon="3.8086861"><ele>37.333333333333336</ele><time>2026-04-12T14:54:21.17Z</time></trkpt><trkpt lat="43.547659" lon="3.8085773"><ele>37.66666666666667</ele><time>2026-04-12T14:54:22.169Z</time></trkpt><trkpt lat="43.5476587" lon="3.8084614"><ele>38.0</ele><time>2026-04-12T14:54:23.17Z</time></trkpt><trkpt lat="43.5476738" lon="3.8083444"><ele>38.333333333333336</ele><time>2026-04-12T14:54:24.169Z</time></trkpt><trkpt lat="43.5477015" lon="3.808227"><ele>38.666666666666664</ele><time>2026-04-12T14:54:25.169Z</time></trkpt><trkpt lat="43.5477386" lon="3.8081148"><ele>39.0</ele><time>2026-04-12T14:54:26.169Z</time></trkpt><trkpt lat="43.5477836" lon="3.8080147"><ele>39.0</ele><time>2026-04-12T14:54:27.17Z</time></trkpt><trkpt lat="43.5478283" lon="3.8079258"><ele>39.0</ele><time>2026-04-12T14:54:28.169Z</time></trkpt><trkpt lat="43.547894" lon="3.8078193"><ele>39.0</ele><time>2026-04-12T14:54:30.169Z</time></trkpt><trkpt lat="43.547947" lon="3.8077486"><ele>39.0</ele><time>2026-04-12T14:54:33.169Z</time></trkpt><trkpt lat="43.5480157" lon="3.8077026"><ele>39.0</ele><time>2026-04-12T14:54:55.169Z</time></trkpt><trkpt lat="43.547934" lon="3.8077172"><ele>39.0</ele><time>2026-04-12T14:55:17.169Z</time></trkpt><trkpt lat="43.54788" lon="3.8077627"><ele>39.0</ele><time>2026-04-12T14:56:54.17Z</time></trkpt><trkpt lat="43.5478516" lon="3.8078704"><ele>39.0</ele><time>2026-04-12T14:56:56.169Z</time></trkpt><trkpt lat="43.5478091" lon="3.8079673"><ele>39.0</ele><time>2026-04-12T14:56:57.17Z</time></trkpt><trkpt lat="43.5477639" lon="3.8080738"><ele>39.0</ele><time>2026-04-12T14:56:58.169Z</time></trkpt><trkpt lat="43.5477151" lon="3.8081904"><ele>39.0</ele><time>2026-04-12T14:56:59.169Z</time></trkpt><trkpt lat="43.5476792" lon="3.8083129"><ele>39.0</ele><time>2026-04-12T14:57:00.169Z</time></trkpt><trkpt lat="43.5476644" lon="3.8084509"><ele>39.5</ele><time>2026-04-12T14:57:01.169Z</time></trkpt><trkpt lat="43.5476749" lon="3.8086029"><ele>40.0</ele><time>2026-04-12T14:57:02.17Z</time></trkpt><trkpt lat="43.5476983" lon="3.8087582"><ele>40.5</ele><time>2026-04-12T14:57:03.17Z</time></trkpt><trkpt lat="43.5477483" lon="3.8089007"><ele>41.0</ele><time>2026-04-12T14:57:04.17Z</time></trkpt><trkpt lat="43.5478028" lon="3.809051"><ele>41.0</ele><time>2026-04-12T14:57:05.169Z</time></trkpt><trkpt lat="43.5478535" lon="3.8092095"><ele>41.0</ele><time>2026-04-12T14:57:06.17Z</time></trkpt><trkpt lat="43.5478853" lon="3.8093956"><ele>41.0</ele><time>2026-04-12T14:57:07.169Z</time></trkpt><trkpt lat="43.5479027" lon="3.8096097"><ele>41.0</ele><time>2026-04-12T14:57:08.169Z</time></trkpt><trkpt lat="43.5478978" lon="3.809824"><ele>39.0</ele><time>2026-04-12T14:57:09.169Z</time></trkpt><trkpt lat="43.5478855" lon="3.8100559"><ele>37.0</ele><time>2026-04-12T14:57:10.169Z</time></trkpt><trkpt lat="43.5478627" lon="3.8102905"><ele>35.0</ele><time>2026-04-12T14:57:11.169Z</time></trkpt><trkpt lat="43.5478618" lon="3.8105248"><ele>37.33333333333333</ele><time>2026-04-12T14:57:12.169Z</time></trkpt><trkpt lat="43.5478658" lon="3.810754"><ele>39.666666666666664</ele><time>2026-04-12T14:57:13.169Z</time></trkpt><trkpt lat="43.5478756" lon="3.8109816"><ele>42.0</ele><time>2026-04-12T14:57:14.169Z</time></trkpt><trkpt lat="43.547889" lon="3.8111933"><ele>42.0</ele><time>2026-04-12T14:57:15.17Z</time></trkpt><trkpt lat="43.5478915" lon="3.8113974"><ele>42.0</ele><time>2026-04-12T14:57:16.169Z</time></trkpt><trkpt lat="43.5478797" lon="3.8116089"><ele>42.0</ele><time>2026-04-12T14:57:17.17Z</time></trkpt><trkpt lat="43.5478578" lon="3.8118337"><ele>43.333333333333336</ele><time>2026-04-12T14:57:18.17Z</time></trkpt><trkpt lat="43.54783" lon="3.8120705"><ele>44.66666666666667</ele><time>2026-04-12T14:57:19.169Z</time></trkpt><trkpt lat="43.547802" lon="3.8123101"><ele>46.0</ele><time>2026-04-12T14:57:20.17Z</time></trkpt><trkpt lat="43.5477734" lon="3.812559"><ele>45.333333333333336</ele><time>2026-04-12T14:57:21.17Z</time></trkpt><trkpt lat="43.5477443" lon="3.8128314"><ele>44.666666666666664</ele><time>2026-04-12T14:57:22.169Z</time></trkpt><trkpt lat="43.5477177" lon="3.8131185"><ele>44.0</ele><time>2026-04-12T14:57:23.169Z</time></trkpt><trkpt lat="43.5476935" lon="3.813415"><ele>44.0</ele><time>2026-04-12T14:57:24.17Z</time></trkpt><trkpt lat="43.5476677" lon="3.8137088"><ele>44.0</ele><time>2026-04-12T14:57:25.169Z</time></trkpt><trkpt lat="43.5476478" lon="3.8139936"><ele>44.0</ele><time>2026-04-12T14:57:26.17Z</time></trkpt><trkpt lat="43.5476202" lon="3.814255"><ele>44.666666666666664</ele><time>2026-04-12T14:57:27.169Z</time></trkpt><trkpt lat="43.5475911" lon="3.814496"><ele>45.333333333333336</ele><time>2026-04-12T14:57:28.169Z</time></trkpt><trkpt lat="43.5475582" lon="3.8147296"><ele>46.0</ele><time>2026-04-12T14:57:29.169Z</time></trkpt><trkpt lat="43.5475223" lon="3.8149473"><ele>45.333333333333336</ele><time>2026-04-12T14:57:30.17Z</time></trkpt><trkpt lat="43.5474739" lon="3.8151554"><ele>44.666666666666664</ele><time>2026-04-12T14:57:31.169Z</time></trkpt><trkpt lat="43.5474204" lon="3.815351"><ele>44.0</ele><time>2026-04-12T14:57:32.17Z</time></trkpt><trkpt lat="43.5473564" lon="3.8155256"><ele>44.0</ele><time>2026-04-12T14:57:33.169Z</time></trkpt><trkpt lat="43.5472838" lon="3.8157091"><ele>44.0</ele><time>2026-04-12T14:57:34.169Z</time></trkpt><trkpt lat="43.5472091" lon="3.8158761"><ele>44.0</ele><time>2026-04-12T14:57:35.169Z</time></trkpt><trkpt lat="43.5471382" lon="3.8160501"><ele>44.0</ele><time>2026-04-12T14:57:36.169Z</time></trkpt><trkpt lat="43.5470674" lon="3.8162244"><ele>44.666666666666664</ele><time>2026-04-12T14:57:37.17Z</time></trkpt><trkpt lat="43.5469871" lon="3.8164097"><ele>45.333333333333336</ele><time>2026-04-12T14:57:38.169Z</time></trkpt><trkpt lat="43.5469012" lon="3.8165973"><ele>46.0</ele><time>2026-04-12T14:57:39.169Z</time></trkpt><trkpt lat="43.546804" lon="3.8167713"><ele>45.0</ele><time>2026-04-12T14:57:40.169Z</time></trkpt><trkpt lat="43.5467031" lon="3.8169409"><ele>44.0</ele><time>2026-04-12T14:57:41.169Z</time></trkpt><trkpt lat="43.5466035" lon="3.8171026"><ele>43.0</ele><time>2026-04-12T14:57:42.17Z</time></trkpt><trkpt lat="43.5465142" lon="3.8172773"><ele>43.0</ele><time>2026-04-12T14:57:43.17Z</time></trkpt><trkpt lat="43.54645" lon="3.8174851"><ele>43.0</ele><time>2026-04-12T14:57:44.169Z</time></trkpt><trkpt lat="43.5463848" lon="3.8176902"><ele>43.0</ele><time>2026-04-12T14:57:45.17Z</time></trkpt><trkpt lat="43.5463366" lon="3.8179109"><ele>42.66666666666667</ele><time>2026-04-12T14:57:46.17Z</time></trkpt><trkpt lat="43.5462695" lon="3.8181454"><ele>42.333333333333336</ele><time>2026-04-12T14:57:47.169Z</time></trkpt><trkpt lat="43.5461911" lon="3.8184065"><ele>42.0</ele><time>2026-04-12T14:57:48.17Z</time></trkpt><trkpt lat="43.5461076" lon="3.8186584"><ele>41.0</ele><time>2026-04-12T14:57:49.169Z</time></trkpt><trkpt lat="43.5460301" lon="3.8188963"><ele>40.0</ele><time>2026-04-12T14:57:50.17Z</time></trkpt><trkpt lat="43.5459574" lon="3.8191441"><ele>39.0</ele><time>2026-04-12T14:57:51.169Z</time></trkpt><trkpt lat="43.5458779" lon="3.8193898"><ele>38.333333333333336</ele><time>2026-04-12T14:57:52.169Z</time></trkpt><trkpt lat="43.5457999" lon="3.8196405"><ele>37.66666666666667</ele><time>2026-04-12T14:57:53.169Z</time></trkpt><trkpt lat="43.5457269" lon="3.8198979"><ele>37.0</ele><time>2026-04-12T14:57:54.17Z</time></trkpt><trkpt lat="43.54566" lon="3.8201477"><ele>38.333333333333336</ele><time>2026-04-12T14:57:55.169Z</time></trkpt><trkpt lat="43.5455916" lon="3.820378"><ele>39.666666666666664</ele><time>2026-04-12T14:57:56.17Z</time></trkpt><trkpt lat="43.5455327" lon="3.8206066"><ele>41.0</ele><time>2026-04-12T14:57:57.169Z</time></trkpt><trkpt lat="43.5454792" lon="3.8207983"><ele>41.0</ele><time>2026-04-12T14:57:58.169Z</time></trkpt><trkpt lat="43.5454221" lon="3.8209755"><ele>41.0</ele><time>2026-04-12T14:57:59.169Z</time></trkpt><trkpt lat="43.5453468" lon="3.8211035"><ele>41.0</ele><time>2026-04-12T14:58:00.169Z</time></trkpt><trkpt lat="43.545272" lon="3.8211999"><ele>41.0</ele><time>2026-04-12T14:58:01.17Z</time></trkpt><trkpt lat="43.5451825" lon="3.8212636"><ele>40.5</ele><time>2026-04-12T14:58:02.169Z</time></trkpt><trkpt lat="43.5450733" lon="3.821313"><ele>40.0</ele><time>2026-04-12T14:58:03.169Z</time></trkpt><trkpt lat="43.5449692" lon="3.8213809"><ele>39.5</ele><time>2026-04-12T14:58:04.169Z</time></trkpt><trkpt lat="43.5448853" lon="3.8214888"><ele>39.0</ele><time>2026-04-12T14:58:05.169Z</time></trkpt><trkpt lat="43.5448304" lon="3.821644"><ele>39.0</ele><time>2026-04-12T14:58:06.17Z</time></trkpt><trkpt lat="43.5448115" lon="3.8218096"><ele>39.0</ele><time>2026-04-12T14:58:07.169Z</time></trkpt><trkpt lat="43.5448058" lon="3.8219913"><ele>39.0</ele><time>2026-04-12T14:58:08.17Z</time></trkpt><trkpt lat="43.5448109" lon="3.8221787"><ele>39.0</ele><time>2026-04-12T14:58:09.169Z</time></trkpt><trkpt lat="43.5448111" lon="3.8223828"><ele>39.25</ele><time>2026-04-12T14:58:10.17Z</time></trkpt><trkpt lat="43.5448095" lon="3.8225608"><ele>39.5</ele><time>2026-04-12T14:58:11.169Z</time></trkpt><trkpt lat="43.5447962" lon="3.8227292"><ele>39.75</ele><time>2026-04-12T14:58:12.17Z</time></trkpt><trkpt lat="43.5447545" lon="3.8228658"><ele>40.0</ele><time>2026-04-12T14:58:13.169Z</time></trkpt><trkpt lat="43.5446871" lon="3.8229578"><ele>40.0</ele><time>2026-04-12T14:58:14.17Z</time></trkpt><trkpt lat="43.5446124" lon="3.8230048"><ele>40.0</ele><time>2026-04-12T14:58:15.169Z</time></trkpt><trkpt lat="43.5445177" lon="3.8230259"><ele>40.0</ele><time>2026-04-12T14:58:16.169Z</time></trkpt><trkpt lat="43.5444124" lon="3.8230057"><ele>40.0</ele><time>2026-04-12T14:58:17.17Z</time></trkpt><trkpt lat="43.5442769" lon="3.8229713"><ele>40.0</ele><time>2026-04-12T14:58:18.17Z</time></trkpt><trkpt lat="43.5440987" lon="3.8229508"><ele>38.333333333333336</ele><time>2026-04-12T14:58:19.169Z</time></trkpt><trkpt lat="43.5438937" lon="3.8229422"><ele>36.666666666666664</ele><time>2026-04-12T14:58:20.169Z</time></trkpt><trkpt lat="43.5436786" lon="3.8229436"><ele>35.0</ele><time>2026-04-12T14:58:21.169Z</time></trkpt><trkpt lat="43.5434445" lon="3.8229276"><ele>33.5</ele><time>2026-04-12T14:58:22.169Z</time></trkpt><trkpt lat="43.5431594" lon="3.8229321"><ele>32.0</ele><time>2026-04-12T14:58:23.169Z</time></trkpt><trkpt lat="43.5428311" lon="3.8229298"><ele>31.5</ele><time>2026-04-12T14:58:24.17Z</time></trkpt><trkpt lat="43.5424741" lon="3.8229367"><ele>31.0</ele><time>2026-04-12T14:58:25.169Z</time></trkpt><trkpt lat="43.5421149" lon="3.8229462"><ele>30.5</ele><time>2026-04-12T14:58:26.169Z</time></trkpt><trkpt lat="43.5417433" lon="3.822916"><ele>30.0</ele><time>2026-04-12T14:58:27.169Z</time></trkpt><trkpt lat="43.5413756" lon="3.8229052"><ele>32.0</ele><time>2026-04-12T14:58:28.169Z</time></trkpt><trkpt lat="43.5410115" lon="3.8229067"><ele>34.0</ele><time>2026-04-12T14:58:29.169Z</time></trkpt><trkpt lat="43.5406737" lon="3.822897"><ele>34.0</ele><time>2026-04-12T14:58:30.17Z</time></trkpt><trkpt lat="43.5403797" lon="3.8228932"><ele>34.0</ele><time>2026-04-12T14:58:31.17Z</time></trkpt><trkpt lat="43.5400989" lon="3.8228854"><ele>34.0</ele><time>2026-04-12T14:58:32.169Z</time></trkpt><trkpt lat="43.5398272" lon="3.8228811"><ele>34.0</ele><time>2026-04-12T14:58:33.17Z</time></trkpt><trkpt lat="43.5395455" lon="3.8228711"><ele>34.0</ele><time>2026-04-12T14:58:34.169Z</time></trkpt><trkpt lat="43.5392737" lon="3.8228585"><ele>34.0</ele><time>2026-04-12T14:58:35.169Z</time></trkpt><trkpt lat="43.5389901" lon="3.8228482"><ele>34.5</ele><time>2026-04-12T14:58:36.169Z</time></trkpt><trkpt lat="43.5386855" lon="3.8228314"><ele>35.0</ele><time>2026-04-12T14:58:37.169Z</time></trkpt><trkpt lat="43.538351" lon="3.8228048"><ele>35.0</ele><time>2026-04-12T14:58:38.169Z</time></trkpt><trkpt lat="43.5380202" lon="3.8227979"><ele>35.0</ele><time>2026-04-12T14:58:39.17Z</time></trkpt><trkpt lat="43.5376998" lon="3.8227788"><ele>36.0</ele><time>2026-04-12T14:58:40.169Z</time></trkpt><trkpt lat="43.5373913" lon="3.822763"><ele>37.0</ele><time>2026-04-12T14:58:41.169Z</time></trkpt><trkpt lat="43.537075" lon="3.8227402"><ele>37.0</ele><time>2026-04-12T14:58:42.17Z</time></trkpt><trkpt lat="43.5367684" lon="3.822725"><ele>37.0</ele><time>2026-04-12T14:58:43.169Z</time></trkpt><trkpt lat="43.5364664" lon="3.8227156"><ele>37.5</ele><time>2026-04-12T14:58:44.169Z</time></trkpt><trkpt lat="43.5361685" lon="3.822706"><ele>38.0</ele><time>2026-04-12T14:58:45.169Z</time></trkpt><trkpt lat="43.5358686" lon="3.822699"><ele>38.0</ele><time>2026-04-12T14:58:46.169Z</time></trkpt><trkpt lat="43.5355774" lon="3.8226909"><ele>38.0</ele><time>2026-04-12T14:58:47.169Z</time></trkpt><trkpt lat="43.5352913" lon="3.822684"><ele>38.0</ele><time>2026-04-12T14:58:48.169Z</time></trkpt><trkpt lat="43.5350071" lon="3.8226821"><ele>38.0</ele><time>2026-04-12T14:58:49.169Z</time></trkpt><trkpt lat="43.5347254" lon="3.8226658"><ele>37.5</ele><time>2026-04-12T14:58:50.169Z</time></trkpt><trkpt lat="43.5344407" lon="3.8226523"><ele>37.0</ele><time>2026-04-12T14:58:51.169Z</time></trkpt><trkpt lat="43.5341518" lon="3.8226408"><ele>38.5</ele><time>2026-04-12T14:58:52.169Z</time></trkpt><trkpt lat="43.5338595" lon="3.8226259"><ele>40.0</ele><time>2026-04-12T14:58:53.169Z</time></trkpt><trkpt lat="43.5335648" lon="3.8226177"><ele>40.0</ele><time>2026-04-12T14:58:54.169Z</time></trkpt><trkpt lat="43.5332653" lon="3.8226128"><ele>40.0</ele><time>2026-04-12T14:58:55.169Z</time></trkpt><trkpt lat="43.5329659" lon="3.8225962"><ele>38.0</ele><time>2026-04-12T14:58:56.169Z</time></trkpt><trkpt lat="43.5326621" lon="3.8225847"><ele>36.0</ele><time>2026-04-12T14:58:57.169Z</time></trkpt><trkpt lat="43.5323547" lon="3.8225863"><ele>36.5</ele><time>2026-04-12T14:58:58.17Z</time></trkpt><trkpt lat="43.5320505" lon="3.822576"><ele>37.0</ele><time>2026-04-12T14:58:59.17Z</time></trkpt><trkpt lat="43.5317463" lon="3.8225641"><ele>37.0</ele><time>2026-04-12T14:59:00.169Z</time></trkpt><trkpt lat="43.5314492" lon="3.8225594"><ele>37.0</ele><time>2026-04-12T14:59:01.169Z</time></trkpt><trkpt lat="43.5311558" lon="3.8225504"><ele>37.5</ele><time>2026-04-12T14:59:02.169Z</time></trkpt><trkpt lat="43.5308668" lon="3.8225425"><ele>38.0</ele><time>2026-04-12T14:59:03.169Z</time></trkpt><trkpt lat="43.5305788" lon="3.8225233"><ele>36.5</ele><time>2026-04-12T14:59:04.169Z</time></trkpt><trkpt lat="43.5302941" lon="3.8224855"><ele>35.0</ele><time>2026-04-12T14:59:05.169Z</time></trkpt><trkpt lat="43.530004" lon="3.8224415"><ele>35.0</ele><time>2026-04-12T14:59:06.169Z</time></trkpt><trkpt lat="43.5297082" lon="3.8223719"><ele>35.0</ele><time>2026-04-12T14:59:07.169Z</time></trkpt><trkpt lat="43.5294157" lon="3.822278"><ele>35.0</ele><time>2026-04-12T14:59:08.169Z</time></trkpt><trkpt lat="43.5291345" lon="3.8221624"><ele>35.0</ele><time>2026-04-12T14:59:09.169Z</time></trkpt><trkpt lat="43.528863" lon="3.8220385"><ele>35.0</ele><time>2026-04-12T14:59:10.17Z</time></trkpt><trkpt lat="43.5285905" lon="3.821895"><ele>35.0</ele><time>2026-04-12T14:59:11.169Z</time></trkpt><trkpt lat="43.5283323" lon="3.8217205"><ele>35.5</ele><time>2026-04-12T14:59:12.169Z</time></trkpt><trkpt lat="43.5280718" lon="3.8215353"><ele>36.0</ele><time>2026-04-12T14:59:13.169Z</time></trkpt><trkpt lat="43.5278195" lon="3.8213335"><ele>36.0</ele><time>2026-04-12T14:59:14.17Z</time></trkpt><trkpt lat="43.5275675" lon="3.821114"><ele>36.0</ele><time>2026-04-12T14:59:15.169Z</time></trkpt><trkpt lat="43.5273243" lon="3.8208792"><ele>34.5</ele><time>2026-04-12T14:59:16.169Z</time></trkpt><trkpt lat="43.5270852" lon="3.820624"><ele>33.0</ele><time>2026-04-12T14:59:17.169Z</time></trkpt><trkpt lat="43.5268559" lon="3.8203507"><ele>35.0</ele><time>2026-04-12T14:59:18.17Z</time></trkpt><trkpt lat="43.526632" lon="3.8200626"><ele>37.0</ele><time>2026-04-12T14:59:19.17Z</time></trkpt><trkpt lat="43.5264092" lon="3.8197417"><ele>36.5</ele><time>2026-04-12T14:59:20.17Z</time></trkpt><trkpt lat="43.5261941" lon="3.8194205"><ele>36.0</ele><time>2026-04-12T14:59:21.169Z</time></trkpt><trkpt lat="43.5259908" lon="3.8191031"><ele>36.0</ele><time>2026-04-12T14:59:22.17Z</time></trkpt><trkpt lat="43.5257868" lon="3.8187841"><ele>36.0</ele><time>2026-04-12T14:59:23.17Z</time></trkpt><trkpt lat="43.5255835" lon="3.8184674"><ele>34.5</ele><time>2026-04-12T14:59:24.169Z</time></trkpt><trkpt lat="43.5253798" lon="3.8181566"><ele>33.0</ele><time>2026-04-12T14:59:25.169Z</time></trkpt><trkpt lat="43.5251742" lon="3.8178395"><ele>35.0</ele><time>2026-04-12T14:59:26.169Z</time></trkpt><trkpt lat="43.5249708" lon="3.8175262"><ele>37.0</ele><time>2026-04-12T14:59:27.169Z</time></trkpt><trkpt lat="43.5247675" lon="3.8172093"><ele>37.0</ele><time>2026-04-12T14:59:28.17Z</time></trkpt><trkpt lat="43.5245656" lon="3.8168959"><ele>37.0</ele><time>2026-04-12T14:59:29.17Z</time></trkpt><trkpt lat="43.524371" lon="3.8165833"><ele>35.5</ele><time>2026-04-12T14:59:30.17Z</time></trkpt><trkpt lat="43.5241676" lon="3.8162715"><ele>34.0</ele><time>2026-04-12T14:59:31.169Z</time></trkpt><trkpt lat="43.5239661" lon="3.8159614"><ele>34.0</ele><time>2026-04-12T14:59:32.169Z</time></trkpt><trkpt lat="43.5237642" lon="3.8156515"><ele>34.0</ele><time>2026-04-12T14:59:33.17Z</time></trkpt><trkpt lat="43.5235622" lon="3.8153426"><ele>34.5</ele><time>2026-04-12T14:59:34.17Z</time></trkpt><trkpt lat="43.5233608" lon="3.8150347"><ele>35.0</ele><time>2026-04-12T14:59:35.169Z</time></trkpt><trkpt lat="43.5231598" lon="3.8147223"><ele>35.0</ele><time>2026-04-12T14:59:36.169Z</time></trkpt><trkpt lat="43.5229586" lon="3.8144134"><ele>35.0</ele><time>2026-04-12T14:59:37.17Z</time></trkpt><trkpt lat="43.5227569" lon="3.8141031"><ele>36.0</ele><time>2026-04-12T14:59:38.169Z</time></trkpt><trkpt lat="43.5225588" lon="3.8137915"><ele>37.0</ele><time>2026-04-12T14:59:39.17Z</time></trkpt><trkpt lat="43.5223595" lon="3.8134784"><ele>37.0</ele><time>2026-04-12T14:59:40.169Z</time></trkpt><trkpt lat="43.5221717" lon="3.813156"><ele>37.0</ele><time>2026-04-12T14:59:41.17Z</time></trkpt><trkpt lat="43.5219888" lon="3.8128293"><ele>37.0</ele><time>2026-04-12T14:59:42.169Z</time></trkpt><trkpt lat="43.521811" lon="3.8124891"><ele>37.0</ele><time>2026-04-12T14:59:43.169Z</time></trkpt><trkpt lat="43.5216412" lon="3.8121562"><ele>38.0</ele><time>2026-04-12T14:59:44.17Z</time></trkpt><trkpt lat="43.5214709" lon="3.8118234"><ele>39.0</ele><time>2026-04-12T14:59:45.17Z</time></trkpt><trkpt lat="43.5212959" lon="3.811497"><ele>39.0</ele><time>2026-04-12T14:59:46.17Z</time></trkpt><trkpt lat="43.5211104" lon="3.8111714"><ele>39.0</ele><time>2026-04-12T14:59:47.169Z</time></trkpt><trkpt lat="43.5209142" lon="3.8108536"><ele>39.0</ele><time>2026-04-12T14:59:48.17Z</time></trkpt><trkpt lat="43.5207042" lon="3.810546"><ele>39.0</ele><time>2026-04-12T14:59:49.169Z</time></trkpt><trkpt lat="43.5204817" lon="3.8102636"><ele>38.0</ele><time>2026-04-12T14:59:50.169Z</time></trkpt><trkpt lat="43.5202445" lon="3.8099819"><ele>37.0</ele><time>2026-04-12T14:59:51.17Z</time></trkpt><trkpt lat="43.5200012" lon="3.8097119"><ele>37.0</ele><time>2026-04-12T14:59:52.169Z</time></trkpt><trkpt lat="43.5197571" lon="3.8094678"><ele>37.0</ele><time>2026-04-12T14:59:53.169Z</time></trkpt><trkpt lat="43.5195084" lon="3.8092245"><ele>36.0</ele><time>2026-04-12T14:59:54.169Z</time></trkpt><trkpt lat="43.5192506" lon="3.8090173"><ele>35.0</ele><time>2026-04-12T14:59:55.17Z</time></trkpt><trkpt lat="43.5189887" lon="3.8088346"><ele>33.5</ele><time>2026-04-12T14:59:56.169Z</time></trkpt><trkpt lat="43.5187259" lon="3.8086685"><ele>32.0</ele><time>2026-04-12T14:59:57.169Z</time></trkpt><trkpt lat="43.5184723" lon="3.8085227"><ele>29.0</ele><time>2026-04-12T14:59:58.169Z</time></trkpt><trkpt lat="43.518224" lon="3.8084102"><ele>26.0</ele><time>2026-04-12T14:59:59.169Z</time></trkpt><trkpt lat="43.5179641" lon="3.8082911"><ele>26.5</ele><time>2026-04-12T15:00:00.169Z</time></trkpt><trkpt lat="43.5177061" lon="3.8081761"><ele>27.0</ele><time>2026-04-12T15:00:01.169Z</time></trkpt><trkpt lat="43.517452" lon="3.808054"><ele>27.0</ele><time>2026-04-12T15:00:02.169Z</time></trkpt><trkpt lat="43.5172105" lon="3.8079198"><ele>27.0</ele><time>2026-04-12T15:00:03.169Z</time></trkpt><trkpt lat="43.5169681" lon="3.8077534"><ele>23.5</ele><time>2026-04-12T15:00:04.169Z</time></trkpt><trkpt lat="43.5167271" lon="3.807598"><ele>20.0</ele><time>2026-04-12T15:00:05.17Z</time></trkpt><trkpt lat="43.5164934" lon="3.8074477"><ele>20.0</ele><time>2026-04-12T15:00:06.17Z</time></trkpt><trkpt lat="43.5162675" lon="3.8072973"><ele>20.0</ele><time>2026-04-12T15:00:07.169Z</time></trkpt><trkpt lat="43.5160444" lon="3.8071528"><ele>20.666666666666668</ele><time>2026-04-12T15:00:08.17Z</time></trkpt><trkpt lat="43.5158316" lon="3.8070298"><ele>21.333333333333332</ele><time>2026-04-12T15:00:09.169Z</time></trkpt><trkpt lat="43.5156282" lon="3.8069197"><ele>22.0</ele><time>2026-04-12T15:00:10.169Z</time></trkpt><trkpt lat="43.5154406" lon="3.8068244"><ele>18.666666666666664</ele><time>2026-04-12T15:00:11.169Z</time></trkpt><trkpt lat="43.5152695" lon="3.8067458"><ele>15.333333333333332</ele><time>2026-04-12T15:00:12.169Z</time></trkpt><trkpt lat="43.5151215" lon="3.8066749"><ele>12.0</ele><time>2026-04-12T15:00:13.169Z</time></trkpt><trkpt lat="43.5149811" lon="3.8065956"><ele>12.0</ele><time>2026-04-12T15:00:14.169Z</time></trkpt><trkpt lat="43.5148532" lon="3.8065162"><ele>12.0</ele><time>2026-04-12T15:00:15.17Z</time></trkpt><trkpt lat="43.5147401" lon="3.8064353"><ele>12.0</ele><time>2026-04-12T15:00:16.169Z</time></trkpt><trkpt lat="43.5146492" lon="3.8063503"><ele>12.0</ele><time>2026-04-12T15:00:17.17Z</time></trkpt><trkpt lat="43.5145741" lon="3.8062665"><ele>11.8</ele><time>2026-04-12T15:00:18.169Z</time></trkpt><trkpt lat="43.5144947" lon="3.8061867"><ele>11.6</ele><time>2026-04-12T15:00:19.169Z</time></trkpt><trkpt lat="43.5144159" lon="3.8061285"><ele>11.4</ele><time>2026-04-12T15:00:20.169Z</time></trkpt><trkpt lat="43.5143309" lon="3.8060786"><ele>11.200000000000001</ele><time>2026-04-12T15:00:21.169Z</time></trkpt><trkpt lat="43.5142357" lon="3.8059967"><ele>11.0</ele><time>2026-04-12T15:00:22.169Z</time></trkpt><trkpt lat="43.5141288" lon="3.8058777"><ele>11.0</ele><time>2026-04-12T15:00:23.169Z</time></trkpt><trkpt lat="43.5139979" lon="3.8057098"><ele>11.0</ele><time>2026-04-12T15:00:24.169Z</time></trkpt><trkpt lat="43.5138406" lon="3.805484"><ele>11.0</ele><time>2026-04-12T15:00:25.169Z</time></trkpt><trkpt lat="43.5136332" lon="3.8052259"><ele>11.0</ele><time>2026-04-12T15:00:26.17Z</time></trkpt><trkpt lat="43.5134091" lon="3.8049425"><ele>11.0</ele><time>2026-04-12T15:00:27.17Z</time></trkpt><trkpt lat="43.5131837" lon="3.8046488"><ele>11.0</ele><time>2026-04-12T15:00:28.169Z</time></trkpt><trkpt lat="43.5129604" lon="3.8043498"><ele>11.0</ele><time>2026-04-12T15:00:29.17Z</time></trkpt><trkpt lat="43.5127369" lon="3.8040302"><ele>9.5</ele><time>2026-04-12T15:00:30.17Z</time></trkpt><trkpt lat="43.5125281" lon="3.8037067"><ele>8.0</ele><time>2026-04-12T15:00:31.169Z</time></trkpt><trkpt lat="43.5123211" lon="3.8033756"><ele>7.5</ele><time>2026-04-12T15:00:32.169Z</time></trkpt><trkpt lat="43.5121168" lon="3.8030425"><ele>7.0</ele><time>2026-04-12T15:00:33.169Z</time></trkpt><trkpt lat="43.5119141" lon="3.8027147"><ele>7.0</ele><time>2026-04-12T15:00:34.169Z</time></trkpt><trkpt lat="43.5117127" lon="3.8023887"><ele>7.0</ele><time>2026-04-12T15:00:35.169Z</time></trkpt><trkpt lat="43.5115184" lon="3.8020675"><ele>6.5</ele><time>2026-04-12T15:00:36.169Z</time></trkpt><trkpt lat="43.5113252" lon="3.8017617"><ele>6.0</ele><time>2026-04-12T15:00:37.17Z</time></trkpt><trkpt lat="43.5111367" lon="3.8014606"><ele>6.0</ele><time>2026-04-12T15:00:38.17Z</time></trkpt><trkpt lat="43.5109591" lon="3.8011808"><ele>6.0</ele><time>2026-04-12T15:00:39.169Z</time></trkpt><trkpt lat="43.5107839" lon="3.8009063"><ele>7.5</ele><time>2026-04-12T15:00:40.169Z</time></trkpt><trkpt lat="43.5106169" lon="3.8006349"><ele>9.0</ele><time>2026-04-12T15:00:41.169Z</time></trkpt><trkpt lat="43.5104528" lon="3.8003686"><ele>10.0</ele><time>2026-04-12T15:00:42.169Z</time></trkpt><trkpt lat="43.5102906" lon="3.800114"><ele>11.0</ele><time>2026-04-12T15:00:43.169Z</time></trkpt><trkpt lat="43.5101228" lon="3.7998498"><ele>11.0</ele><time>2026-04-12T15:00:44.17Z</time></trkpt><trkpt lat="43.5099456" lon="3.7995853"><ele>11.0</ele><time>2026-04-12T15:00:45.169Z</time></trkpt><trkpt lat="43.5097726" lon="3.7993226"><ele>11.0</ele><time>2026-04-12T15:00:46.169Z</time></trkpt><trkpt lat="43.5096011" lon="3.7990565"><ele>11.0</ele><time>2026-04-12T15:00:47.169Z</time></trkpt><trkpt lat="43.5094349" lon="3.7987788"><ele>10.5</ele><time>2026-04-12T15:00:48.169Z</time></trkpt><trkpt lat="43.5092664" lon="3.798498"><ele>10.0</ele><time>2026-04-12T15:00:49.169Z</time></trkpt><trkpt lat="43.509091" lon="3.798214"><ele>10.0</ele><time>2026-04-12T15:00:50.169Z</time></trkpt><trkpt lat="43.5089121" lon="3.797929"><ele>10.0</ele><time>2026-04-12T15:00:51.168Z</time></trkpt><trkpt lat="43.5087279" lon="3.7976422"><ele>9.5</ele><time>2026-04-12T15:00:52.168Z</time></trkpt><trkpt lat="43.508541" lon="3.7973421"><ele>9.0</ele><time>2026-04-12T15:00:53.168Z</time></trkpt><trkpt lat="43.5083394" lon="3.797027"><ele>8.5</ele><time>2026-04-12T15:00:54.168Z</time></trkpt><trkpt lat="43.5081326" lon="3.7966846"><ele>8.0</ele><time>2026-04-12T15:00:55.168Z</time></trkpt><trkpt lat="43.507916" lon="3.7963459"><ele>7.5</ele><time>2026-04-12T15:00:56.168Z</time></trkpt><trkpt lat="43.5076963" lon="3.7959997"><ele>7.0</ele><time>2026-04-12T15:00:57.168Z</time></trkpt><trkpt lat="43.5074854" lon="3.7956664"><ele>7.0</ele><time>2026-04-12T15:00:58.168Z</time></trkpt><trkpt lat="43.5072808" lon="3.7953548"><ele>7.0</ele><time>2026-04-12T15:00:59.169Z</time></trkpt><trkpt lat="43.5070902" lon="3.795056"><ele>7.5</ele><time>2026-04-12T15:01:00.169Z</time></trkpt><trkpt lat="43.5069188" lon="3.7947697"><ele>8.0</ele><time>2026-04-12T15:01:01.168Z</time></trkpt><trkpt lat="43.5067468" lon="3.7944982"><ele>7.5</ele><time>2026-04-12T15:01:02.169Z</time></trkpt><trkpt lat="43.5065761" lon="3.7942153"><ele>7.0</ele><time>2026-04-12T15:01:03.168Z</time></trkpt><trkpt lat="43.5064005" lon="3.7939318"><ele>7.0</ele><time>2026-04-12T15:01:04.168Z</time></trkpt><trkpt lat="43.5062273" lon="3.7936533"><ele>7.0</ele><time>2026-04-12T15:01:05.169Z</time></trkpt><trkpt lat="43.5060582" lon="3.7933824"><ele>7.0</ele><time>2026-04-12T15:01:06.168Z</time></trkpt><trkpt lat="43.5058832" lon="3.793114"><ele>7.0</ele><time>2026-04-12T15:01:07.168Z</time></trkpt><trkpt lat="43.5057115" lon="3.7928481"><ele>6.0</ele><time>2026-04-12T15:01:08.169Z</time></trkpt><trkpt lat="43.5055522" lon="3.7926003"><ele>5.0</ele><time>2026-04-12T15:01:09.168Z</time></trkpt><trkpt lat="43.5053868" lon="3.7923503"><ele>5.0</ele><time>2026-04-12T15:01:10.168Z</time></trkpt><trkpt lat="43.5052175" lon="3.7921108"><ele>5.0</ele><time>2026-04-12T15:01:11.168Z</time></trkpt><trkpt lat="43.5050509" lon="3.7918849"><ele>5.0</ele><time>2026-04-12T15:01:12.169Z</time></trkpt><trkpt lat="43.5048893" lon="3.7916738"><ele>5.0</ele><time>2026-04-12T15:01:13.168Z</time></trkpt><trkpt lat="43.5047215" lon="3.7914873"><ele>5.0</ele><time>2026-04-12T15:01:14.169Z</time></trkpt><trkpt lat="43.5045593" lon="3.7913153"><ele>5.0</ele><time>2026-04-12T15:01:15.169Z</time></trkpt><trkpt lat="43.5043949" lon="3.7911399"><ele>5.0</ele><time>2026-04-12T15:01:16.169Z</time></trkpt><trkpt lat="43.5042288" lon="3.7909775"><ele>5.0</ele><time>2026-04-12T15:01:17.168Z</time></trkpt><trkpt lat="43.5040639" lon="3.7908149"><ele>5.0</ele><time>2026-04-12T15:01:18.168Z</time></trkpt><trkpt lat="43.5039064" lon="3.7906529"><ele>5.0</ele><time>2026-04-12T15:01:19.168Z</time></trkpt><trkpt lat="43.5037435" lon="3.7904977"><ele>5.0</ele><time>2026-04-12T15:01:20.168Z</time></trkpt><trkpt lat="43.5035925" lon="3.7903425"><ele>5.0</ele><time>2026-04-12T15:01:21.169Z</time></trkpt><trkpt lat="43.5034489" lon="3.7901949"><ele>5.0</ele><time>2026-04-12T15:01:22.168Z</time></trkpt><trkpt lat="43.5032969" lon="3.7900359"><ele>5.0</ele><time>2026-04-12T15:01:23.168Z</time></trkpt><trkpt lat="43.5031491" lon="3.7898623"><ele>5.0</ele><time>2026-04-12T15:01:24.168Z</time></trkpt><trkpt lat="43.5030075" lon="3.7896727"><ele>5.0</ele><time>2026-04-12T15:01:25.168Z</time></trkpt><trkpt lat="43.5028693" lon="3.7894832"><ele>5.0</ele><time>2026-04-12T15:01:26.169Z</time></trkpt><trkpt lat="43.5027318" lon="3.7892834"><ele>5.0</ele><time>2026-04-12T15:01:27.169Z</time></trkpt><trkpt lat="43.502597" lon="3.7890786"><ele>5.0</ele><time>2026-04-12T15:01:28.168Z</time></trkpt><trkpt lat="43.5024618" lon="3.7888649"><ele>5.0</ele><time>2026-04-12T15:01:29.168Z</time></trkpt><trkpt lat="43.5023295" lon="3.7886479"><ele>5.0</ele><time>2026-04-12T15:01:30.168Z</time></trkpt><trkpt lat="43.5022044" lon="3.7884332"><ele>5.0</ele><time>2026-04-12T15:01:31.168Z</time></trkpt><trkpt lat="43.5020887" lon="3.7882311"><ele>5.0</ele><time>2026-04-12T15:01:32.168Z</time></trkpt><trkpt lat="43.5019747" lon="3.7880261"><ele>5.0</ele><time>2026-04-12T15:01:33.168Z</time></trkpt><trkpt lat="43.5018631" lon="3.7878229"><ele>5.0</ele><time>2026-04-12T15:01:34.168Z</time></trkpt><trkpt lat="43.5017554" lon="3.7876282"><ele>5.0</ele><time>2026-04-12T15:01:35.169Z</time></trkpt><trkpt lat="43.5016556" lon="3.7874494"><ele>5.25</ele><time>2026-04-12T15:01:36.169Z</time></trkpt><trkpt lat="43.5015688" lon="3.7872923"><ele>5.5</ele><time>2026-04-12T15:01:37.168Z</time></trkpt><trkpt lat="43.5014957" lon="3.7871485"><ele>5.75</ele><time>2026-04-12T15:01:38.169Z</time></trkpt><trkpt lat="43.501419" lon="3.7870259"><ele>6.0</ele><time>2026-04-12T15:01:39.168Z</time></trkpt><trkpt lat="43.5013481" lon="3.7869035"><ele>6.166666666666667</ele><time>2026-04-12T15:01:40.168Z</time></trkpt><trkpt lat="43.5012955" lon="3.7867832"><ele>6.333333333333334</ele><time>2026-04-12T15:01:41.169Z</time></trkpt><trkpt lat="43.5012445" lon="3.7866873"><ele>6.5</ele><time>2026-04-12T15:01:42.169Z</time></trkpt><trkpt lat="43.5012062" lon="3.7865937"><ele>6.666666666666667</ele><time>2026-04-12T15:01:43.168Z</time></trkpt><trkpt lat="43.5011779" lon="3.7865046"><ele>6.833333333333334</ele><time>2026-04-12T15:01:44.168Z</time></trkpt><trkpt lat="43.501152" lon="3.7863932"><ele>7.0</ele><time>2026-04-12T15:01:45.168Z</time></trkpt><trkpt lat="43.5011296" lon="3.7863018"><ele>7.0</ele><time>2026-04-12T15:01:46.169Z</time></trkpt><trkpt lat="43.5010973" lon="3.7862005"><ele>6.999999999999999</ele><time>2026-04-12T15:01:47.168Z</time></trkpt><trkpt lat="43.5010343" lon="3.7861016"><ele>6.999999999999999</ele><time>2026-04-12T15:01:48.168Z</time></trkpt><trkpt lat="43.5009495" lon="3.7860092"><ele>7.0</ele><time>2026-04-12T15:01:49.168Z</time></trkpt><trkpt lat="43.5008679" lon="3.7858748"><ele>7.0</ele><time>2026-04-12T15:01:50.169Z</time></trkpt><trkpt lat="43.5007796" lon="3.7857142"><ele>7.333333333333334</ele><time>2026-04-12T15:01:51.168Z</time></trkpt><trkpt lat="43.5006814" lon="3.7855211"><ele>7.666666666666666</ele><time>2026-04-12T15:01:52.168Z</time></trkpt><trkpt lat="43.5005673" lon="3.7852991"><ele>8.0</ele><time>2026-04-12T15:01:53.169Z</time></trkpt><trkpt lat="43.5004435" lon="3.7850466"><ele>6.0</ele><time>2026-04-12T15:01:54.169Z</time></trkpt><trkpt lat="43.5003095" lon="3.7847808"><ele>4.0</ele><time>2026-04-12T15:01:55.168Z</time></trkpt><trkpt lat="43.500158" lon="3.7844921"><ele>4.0</ele><time>2026-04-12T15:01:56.168Z</time></trkpt><trkpt lat="43.4999858" lon="3.7841713"><ele>4.0</ele><time>2026-04-12T15:01:57.168Z</time></trkpt><trkpt lat="43.4997877" lon="3.7838121"><ele>4.5</ele><time>2026-04-12T15:01:58.168Z</time></trkpt><trkpt lat="43.4995785" lon="3.7834313"><ele>5.0</ele><time>2026-04-12T15:01:59.168Z</time></trkpt><trkpt lat="43.4993668" lon="3.7830513"><ele>5.0</ele><time>2026-04-12T15:02:00.168Z</time></trkpt><trkpt lat="43.4991545" lon="3.7826665"><ele>5.0</ele><time>2026-04-12T15:02:01.169Z</time></trkpt><trkpt lat="43.4989419" lon="3.7822828"><ele>5.5</ele><time>2026-04-12T15:02:02.168Z</time></trkpt><trkpt lat="43.4987338" lon="3.7819068"><ele>6.0</ele><time>2026-04-12T15:02:03.168Z</time></trkpt><trkpt lat="43.4985303" lon="3.7815373"><ele>6.0</ele><time>2026-04-12T15:02:04.168Z</time></trkpt><trkpt lat="43.4983329" lon="3.7811766"><ele>6.0</ele><time>2026-04-12T15:02:05.168Z</time></trkpt><trkpt lat="43.4981439" lon="3.7808244"><ele>8.5</ele><time>2026-04-12T15:02:06.168Z</time></trkpt><trkpt lat="43.4979569" lon="3.7804958"><ele>11.0</ele><time>2026-04-12T15:02:07.168Z</time></trkpt><trkpt lat="43.497776" lon="3.7801762"><ele>12.0</ele><time>2026-04-12T15:02:08.168Z</time></trkpt><trkpt lat="43.4975991" lon="3.7798639"><ele>13.0</ele><time>2026-04-12T15:02:09.169Z</time></trkpt><trkpt lat="43.4974243" lon="3.7795576"><ele>17.5</ele><time>2026-04-12T15:02:10.169Z</time></trkpt><trkpt lat="43.4972584" lon="3.7792561"><ele>22.0</ele><time>2026-04-12T15:02:11.168Z</time></trkpt><trkpt lat="43.4970864" lon="3.7789496"><ele>18.5</ele><time>2026-04-12T15:02:12.168Z</time></trkpt><trkpt lat="43.4969313" lon="3.7786594"><ele>15.0</ele><time>2026-04-12T15:02:13.168Z</time></trkpt><trkpt lat="43.4967696" lon="3.7783769"><ele>15.0</ele><time>2026-04-12T15:02:14.169Z</time></trkpt><trkpt lat="43.4966115" lon="3.7781182"><ele>15.0</ele><time>2026-04-12T15:02:15.168Z</time></trkpt><trkpt lat="43.4964515" lon="3.7778816"><ele>14.5</ele><time>2026-04-12T15:02:16.169Z</time></trkpt><trkpt lat="43.4962838" lon="3.7776607"><ele>14.0</ele><time>2026-04-12T15:02:17.168Z</time></trkpt><trkpt lat="43.4961048" lon="3.7774588"><ele>14.0</ele><time>2026-04-12T15:02:18.168Z</time></trkpt><trkpt lat="43.4959129" lon="3.7772742"><ele>14.0</ele><time>2026-04-12T15:02:19.168Z</time></trkpt><trkpt lat="43.4957122" lon="3.7771208"><ele>14.0</ele><time>2026-04-12T15:02:20.168Z</time></trkpt><trkpt lat="43.4955075" lon="3.7769861"><ele>14.0</ele><time>2026-04-12T15:02:21.168Z</time></trkpt><trkpt lat="43.4953025" lon="3.776855"><ele>13.5</ele><time>2026-04-12T15:02:22.168Z</time></trkpt><trkpt lat="43.4950976" lon="3.7767073"><ele>13.0</ele><time>2026-04-12T15:02:23.169Z</time></trkpt><trkpt lat="43.4948886" lon="3.7765595"><ele>13.0</ele><time>2026-04-12T15:02:24.169Z</time></trkpt><trkpt lat="43.4946852" lon="3.7764151"><ele>13.0</ele><time>2026-04-12T15:02:25.168Z</time></trkpt><trkpt lat="43.4944926" lon="3.7762832"><ele>13.0</ele><time>2026-04-12T15:02:26.168Z</time></trkpt><trkpt lat="43.4943175" lon="3.7761611"><ele>12.666666666666666</ele><time>2026-04-12T15:02:27.168Z</time></trkpt><trkpt lat="43.4941478" lon="3.776048"><ele>12.333333333333332</ele><time>2026-04-12T15:02:28.168Z</time></trkpt><trkpt lat="43.4939849" lon="3.775945"><ele>12.0</ele><time>2026-04-12T15:02:29.168Z</time></trkpt><trkpt lat="43.4938271" lon="3.7758454"><ele>9.666666666666666</ele><time>2026-04-12T15:02:30.168Z</time></trkpt><trkpt lat="43.4936746" lon="3.7757486"><ele>7.333333333333334</ele><time>2026-04-12T15:02:31.169Z</time></trkpt><trkpt lat="43.4935204" lon="3.7756523"><ele>5.0</ele><time>2026-04-12T15:02:32.168Z</time></trkpt><trkpt lat="43.4933672" lon="3.7755491"><ele>5.0</ele><time>2026-04-12T15:02:33.168Z</time></trkpt><trkpt lat="43.4932102" lon="3.775443"><ele>5.0</ele><time>2026-04-12T15:02:34.169Z</time></trkpt><trkpt lat="43.4930461" lon="3.7753327"><ele>5.0</ele><time>2026-04-12T15:02:35.168Z</time></trkpt><trkpt lat="43.4928691" lon="3.7752108"><ele>6.0</ele><time>2026-04-12T15:02:36.168Z</time></trkpt><trkpt lat="43.492687" lon="3.7750958"><ele>7.0</ele><time>2026-04-12T15:02:37.168Z</time></trkpt><trkpt lat="43.4924974" lon="3.7749699"><ele>8.0</ele><time>2026-04-12T15:02:38.169Z</time></trkpt><trkpt lat="43.4922971" lon="3.7748392"><ele>8.0</ele><time>2026-04-12T15:02:39.168Z</time></trkpt><trkpt lat="43.4920905" lon="3.7747059"><ele>8.0</ele><time>2026-04-12T15:02:40.169Z</time></trkpt><trkpt lat="43.4918838" lon="3.7745699"><ele>5.5</ele><time>2026-04-12T15:02:41.168Z</time></trkpt><trkpt lat="43.4916775" lon="3.7744328"><ele>3.0</ele><time>2026-04-12T15:02:42.168Z</time></trkpt><trkpt lat="43.4914778" lon="3.7743013"><ele>3.333333333333333</ele><time>2026-04-12T15:02:43.168Z</time></trkpt><trkpt lat="43.4912742" lon="3.7741707"><ele>3.6666666666666665</ele><time>2026-04-12T15:02:44.168Z</time></trkpt><trkpt lat="43.4910705" lon="3.7740394"><ele>4.0</ele><time>2026-04-12T15:02:45.168Z</time></trkpt><trkpt lat="43.4908662" lon="3.7739125"><ele>4.0</ele><time>2026-04-12T15:02:46.168Z</time></trkpt><trkpt lat="43.4906626" lon="3.7737866"><ele>4.0</ele><time>2026-04-12T15:02:47.168Z</time></trkpt><trkpt lat="43.490463" lon="3.7736621"><ele>4.0</ele><time>2026-04-12T15:02:48.168Z</time></trkpt><trkpt lat="43.4902701" lon="3.7735374"><ele>4.0</ele><time>2026-04-12T15:02:49.168Z</time></trkpt><trkpt lat="43.4900764" lon="3.7734121"><ele>4.0</ele><time>2026-04-12T15:02:50.169Z</time></trkpt><trkpt lat="43.4898811" lon="3.7732894"><ele>4.0</ele><time>2026-04-12T15:02:51.168Z</time></trkpt><trkpt lat="43.4896851" lon="3.7731689"><ele>3.6666666666666665</ele><time>2026-04-12T15:02:52.169Z</time></trkpt><trkpt lat="43.4894895" lon="3.7730435"><ele>3.333333333333333</ele><time>2026-04-12T15:02:53.168Z</time></trkpt><trkpt lat="43.4892996" lon="3.7729249"><ele>3.0</ele><time>2026-04-12T15:02:54.168Z</time></trkpt><trkpt lat="43.489121" lon="3.7728156"><ele>3.0</ele><time>2026-04-12T15:02:55.168Z</time></trkpt><trkpt lat="43.4889487" lon="3.772709"><ele>3.0</ele><time>2026-04-12T15:02:56.168Z</time></trkpt><trkpt lat="43.4887745" lon="3.7726108"><ele>3.0</ele><time>2026-04-12T15:02:57.168Z</time></trkpt><trkpt lat="43.4885983" lon="3.7725241"><ele>3.666666666666667</ele><time>2026-04-12T15:02:58.169Z</time></trkpt><trkpt lat="43.4884256" lon="3.7724515"><ele>4.333333333333334</ele><time>2026-04-12T15:02:59.169Z</time></trkpt><trkpt lat="43.4882486" lon="3.772395"><ele>5.0</ele><time>2026-04-12T15:03:00.168Z</time></trkpt><trkpt lat="43.4880667" lon="3.7723585"><ele>3.666666666666667</ele><time>2026-04-12T15:03:01.168Z</time></trkpt><trkpt lat="43.487881" lon="3.7723496"><ele>2.3333333333333335</ele><time>2026-04-12T15:03:02.168Z</time></trkpt><trkpt lat="43.4876933" lon="3.7723577"><ele>1.0</ele><time>2026-04-12T15:03:03.168Z</time></trkpt><trkpt lat="43.4874938" lon="3.7723748"><ele>1.0</ele><time>2026-04-12T15:03:04.168Z</time></trkpt><trkpt lat="43.4872897" lon="3.7723935"><ele>1.0</ele><time>2026-04-12T15:03:05.168Z</time></trkpt><trkpt lat="43.4870809" lon="3.7724134"><ele>1.0</ele><time>2026-04-12T15:03:06.169Z</time></trkpt><trkpt lat="43.4868555" lon="3.7724335"><ele>1.0</ele><time>2026-04-12T15:03:07.169Z</time></trkpt><trkpt lat="43.4865999" lon="3.7724598"><ele>1.0</ele><time>2026-04-12T15:03:08.169Z</time></trkpt><trkpt lat="43.4863279" lon="3.7724902"><ele>2.0</ele><time>2026-04-12T15:03:09.169Z</time></trkpt><trkpt lat="43.4860321" lon="3.7725186"><ele>3.0</ele><time>2026-04-12T15:03:10.168Z</time></trkpt><trkpt lat="43.4857242" lon="3.772546"><ele>3.0</ele><time>2026-04-12T15:03:11.168Z</time></trkpt><trkpt lat="43.4854173" lon="3.7725632"><ele>3.0</ele><time>2026-04-12T15:03:12.168Z</time></trkpt><trkpt lat="43.4850828" lon="3.7725908"><ele>3.0</ele><time>2026-04-12T15:03:13.168Z</time></trkpt><trkpt lat="43.4847478" lon="3.7726047"><ele>3.0</ele><time>2026-04-12T15:03:14.168Z</time></trkpt><trkpt lat="43.4844135" lon="3.7726244"><ele>3.5</ele><time>2026-04-12T15:03:15.169Z</time></trkpt><trkpt lat="43.4840699" lon="3.7726478"><ele>4.0</ele><time>2026-04-12T15:03:16.168Z</time></trkpt><trkpt lat="43.4837321" lon="3.7726757"><ele>3.0</ele><time>2026-04-12T15:03:17.169Z</time></trkpt><trkpt lat="43.4834021" lon="3.772706"><ele>2.0</ele><time>2026-04-12T15:03:18.168Z</time></trkpt><trkpt lat="43.483074" lon="3.7727368"><ele>2.5</ele><time>2026-04-12T15:03:19.168Z</time></trkpt><trkpt lat="43.482752" lon="3.7727672"><ele>3.0</ele><time>2026-04-12T15:03:20.169Z</time></trkpt><trkpt lat="43.4824417" lon="3.7727939"><ele>3.0</ele><time>2026-04-12T15:03:21.169Z</time></trkpt><trkpt lat="43.4821359" lon="3.7728202"><ele>3.0</ele><time>2026-04-12T15:03:22.168Z</time></trkpt><trkpt lat="43.4818508" lon="3.7728415"><ele>4.0</ele><time>2026-04-12T15:03:23.168Z</time></trkpt><trkpt lat="43.4815739" lon="3.7728547"><ele>5.0</ele><time>2026-04-12T15:03:24.168Z</time></trkpt><trkpt lat="43.4812967" lon="3.7728676"><ele>4.5</ele><time>2026-04-12T15:03:25.168Z</time></trkpt><trkpt lat="43.4810283" lon="3.772869"><ele>4.0</ele><time>2026-04-12T15:03:26.168Z</time></trkpt><trkpt lat="43.4807744" lon="3.7728561"><ele>4.0</ele><time>2026-04-12T15:03:27.168Z</time></trkpt><trkpt lat="43.4805308" lon="3.7728256"><ele>4.0</ele><time>2026-04-12T15:03:28.168Z</time></trkpt><trkpt lat="43.4802953" lon="3.7727778"><ele>5.5</ele><time>2026-04-12T15:03:29.168Z</time></trkpt><trkpt lat="43.4800663" lon="3.7727118"><ele>7.0</ele><time>2026-04-12T15:03:30.168Z</time></trkpt><trkpt lat="43.4798411" lon="3.7726322"><ele>7.0</ele><time>2026-04-12T15:03:31.168Z</time></trkpt><trkpt lat="43.4796189" lon="3.7725403"><ele>7.0</ele><time>2026-04-12T15:03:32.168Z</time></trkpt><trkpt lat="43.4793879" lon="3.7724449"><ele>5.5</ele><time>2026-04-12T15:03:33.168Z</time></trkpt><trkpt lat="43.4791408" lon="3.7723484"><ele>4.0</ele><time>2026-04-12T15:03:34.168Z</time></trkpt><trkpt lat="43.4788823" lon="3.7722407"><ele>3.0</ele><time>2026-04-12T15:03:35.168Z</time></trkpt><trkpt lat="43.4786243" lon="3.7721409"><ele>2.0</ele><time>2026-04-12T15:03:36.168Z</time></trkpt><trkpt lat="43.4783655" lon="3.7720295"><ele>2.0</ele><time>2026-04-12T15:03:37.168Z</time></trkpt><trkpt lat="43.4781097" lon="3.7719174"><ele>2.0</ele><time>2026-04-12T15:03:38.169Z</time></trkpt><trkpt lat="43.4778492" lon="3.7718017"><ele>3.0</ele><time>2026-04-12T15:03:39.168Z</time></trkpt><trkpt lat="43.477595" lon="3.7716848"><ele>4.0</ele><time>2026-04-12T15:03:40.169Z</time></trkpt><trkpt lat="43.4773455" lon="3.7715776"><ele>4.0</ele><time>2026-04-12T15:03:41.169Z</time></trkpt><trkpt lat="43.4771085" lon="3.7714777"><ele>4.0</ele><time>2026-04-12T15:03:42.168Z</time></trkpt><trkpt lat="43.4768793" lon="3.7713808"><ele>2.5</ele><time>2026-04-12T15:03:43.168Z</time></trkpt><trkpt lat="43.4766511" lon="3.7712863"><ele>1.0</ele><time>2026-04-12T15:03:44.169Z</time></trkpt><trkpt lat="43.4764043" lon="3.7711821"><ele>2.0</ele><time>2026-04-12T15:03:45.168Z</time></trkpt><trkpt lat="43.4761574" lon="3.7710759"><ele>3.0</ele><time>2026-04-12T15:03:46.169Z</time></trkpt><trkpt lat="43.4759004" lon="3.770961"><ele>3.5</ele><time>2026-04-12T15:03:47.169Z</time></trkpt><trkpt lat="43.4756478" lon="3.7708516"><ele>4.0</ele><time>2026-04-12T15:03:48.169Z</time></trkpt><trkpt lat="43.4753943" lon="3.7707407"><ele>4.0</ele><time>2026-04-12T15:03:49.168Z</time></trkpt><trkpt lat="43.4751363" lon="3.7706354"><ele>4.0</ele><time>2026-04-12T15:03:50.168Z</time></trkpt><trkpt lat="43.4748855" lon="3.7705262"><ele>4.0</ele><time>2026-04-12T15:03:51.169Z</time></trkpt><trkpt lat="43.4746436" lon="3.770417"><ele>4.0</ele><time>2026-04-12T15:03:52.168Z</time></trkpt><trkpt lat="43.4744024" lon="3.7703081"><ele>4.0</ele><time>2026-04-12T15:03:53.169Z</time></trkpt><trkpt lat="43.4741606" lon="3.7701947"><ele>4.0</ele><time>2026-04-12T15:03:54.168Z</time></trkpt><trkpt lat="43.4739245" lon="3.7700769"><ele>4.5</ele><time>2026-04-12T15:03:55.168Z</time></trkpt><trkpt lat="43.4736971" lon="3.7699565"><ele>5.0</ele><time>2026-04-12T15:03:56.168Z</time></trkpt><trkpt lat="43.4734683" lon="3.7698257"><ele>5.0</ele><time>2026-04-12T15:03:57.168Z</time></trkpt><trkpt lat="43.4732563" lon="3.7696876"><ele>5.0</ele><time>2026-04-12T15:03:58.168Z</time></trkpt><trkpt lat="43.4730156" lon="3.7695377"><ele>5.0</ele><time>2026-04-12T15:03:59.168Z</time></trkpt><trkpt lat="43.4727808" lon="3.7693767"><ele>5.0</ele><time>2026-04-12T15:04:00.169Z</time></trkpt><trkpt lat="43.4725457" lon="3.7692005"><ele>5.0</ele><time>2026-04-12T15:04:01.168Z</time></trkpt><trkpt lat="43.4723093" lon="3.7690175"><ele>5.0</ele><time>2026-04-12T15:04:02.169Z</time></trkpt><trkpt lat="43.4720749" lon="3.7688285"><ele>3.5</ele><time>2026-04-12T15:04:03.168Z</time></trkpt><trkpt lat="43.4718346" lon="3.7686367"><ele>2.0</ele><time>2026-04-12T15:04:04.169Z</time></trkpt><trkpt lat="43.4715924" lon="3.7684398"><ele>2.0</ele><time>2026-04-12T15:04:05.168Z</time></trkpt><trkpt lat="43.4713497" lon="3.7682416"><ele>2.0</ele><time>2026-04-12T15:04:06.168Z</time></trkpt><trkpt lat="43.4711083" lon="3.7680388"><ele>2.0</ele><time>2026-04-12T15:04:07.168Z</time></trkpt><trkpt lat="43.4708635" lon="3.7678387"><ele>2.0</ele><time>2026-04-12T15:04:08.17Z</time></trkpt><trkpt lat="43.470617" lon="3.7676359"><ele>2.5</ele><time>2026-04-12T15:04:09.17Z</time></trkpt><trkpt lat="43.4703725" lon="3.7674351"><ele>3.0</ele><time>2026-04-12T15:04:10.171Z</time></trkpt><trkpt lat="43.4701283" lon="3.7672323"><ele>3.0</ele><time>2026-04-12T15:04:11.171Z</time></trkpt><trkpt lat="43.4698917" lon="3.7670341"><ele>3.0</ele><time>2026-04-12T15:04:12.171Z</time></trkpt><trkpt lat="43.4696628" lon="3.766844"><ele>2.5</ele><time>2026-04-12T15:04:13.17Z</time></trkpt><trkpt lat="43.4694434" lon="3.7666666"><ele>2.0</ele><time>2026-04-12T15:04:14.17Z</time></trkpt><trkpt lat="43.4692327" lon="3.766498"><ele>2.0</ele><time>2026-04-12T15:04:15.171Z</time></trkpt><trkpt lat="43.4690311" lon="3.7663465"><ele>2.0</ele><time>2026-04-12T15:04:16.17Z</time></trkpt><trkpt lat="43.4688283" lon="3.7662214"><ele>2.0</ele><time>2026-04-12T15:04:17.17Z</time></trkpt><trkpt lat="43.468623" lon="3.7661225"><ele>2.0</ele><time>2026-04-12T15:04:18.17Z</time></trkpt><trkpt lat="43.4684168" lon="3.7660494"><ele>2.0</ele><time>2026-04-12T15:04:19.171Z</time></trkpt><trkpt lat="43.4682089" lon="3.7660054"><ele>2.333333333333333</ele><time>2026-04-12T15:04:20.171Z</time></trkpt><trkpt lat="43.4679958" lon="3.7659893"><ele>2.6666666666666665</ele><time>2026-04-12T15:04:21.17Z</time></trkpt><trkpt lat="43.4677855" lon="3.7660009"><ele>3.0</ele><time>2026-04-12T15:04:22.171Z</time></trkpt><trkpt lat="43.4675805" lon="3.7660378"><ele>2.0</ele><time>2026-04-12T15:04:23.17Z</time></trkpt><trkpt lat="43.4673879" lon="3.7660945"><ele>1.0</ele><time>2026-04-12T15:04:24.17Z</time></trkpt><trkpt lat="43.4672084" lon="3.7661706"><ele>0.0</ele><time>2026-04-12T15:04:25.17Z</time></trkpt><trkpt lat="43.4670422" lon="3.7662553"><ele>0.0</ele><time>2026-04-12T15:04:26.17Z</time></trkpt><trkpt lat="43.4668957" lon="3.7663498"><ele>0.0</ele><time>2026-04-12T15:04:27.17Z</time></trkpt><trkpt lat="43.4667647" lon="3.7664387"><ele>0.0</ele><time>2026-04-12T15:04:28.17Z</time></trkpt><trkpt lat="43.4666521" lon="3.7665152"><ele>0.0</ele><time>2026-04-12T15:04:29.171Z</time></trkpt><trkpt lat="43.4665556" lon="3.7665793"><ele>0.0</ele><time>2026-04-12T15:04:30.171Z</time></trkpt><trkpt lat="43.4664716" lon="3.76663"><ele>0.0</ele><time>2026-04-12T15:04:31.17Z</time></trkpt><trkpt lat="43.4663907" lon="3.7666603"><ele>0.0</ele><time>2026-04-12T15:04:32.171Z</time></trkpt><trkpt lat="43.4663152" lon="3.7666643"><ele>0.0</ele><time>2026-04-12T15:04:33.171Z</time></trkpt><trkpt lat="43.4662328" lon="3.7666435"><ele>0.0</ele><time>2026-04-12T15:04:34.17Z</time></trkpt><trkpt lat="43.4661354" lon="3.766641"><ele>0.0</ele><time>2026-04-12T15:04:35.171Z</time></trkpt><trkpt lat="43.4660278" lon="3.7666738"><ele>-0.5</ele><time>2026-04-12T15:04:36.17Z</time></trkpt><trkpt lat="43.4659163" lon="3.7667233"><ele>-1.0</ele><time>2026-04-12T15:04:37.17Z</time></trkpt><trkpt lat="43.4658017" lon="3.7667502"><ele>-1.5</ele><time>2026-04-12T15:04:38.17Z</time></trkpt><trkpt lat="43.4656796" lon="3.7667371"><ele>-2.0</ele><time>2026-04-12T15:04:39.17Z</time></trkpt><trkpt lat="43.4655454" lon="3.76668"><ele>-0.6666666666666666</ele><time>2026-04-12T15:04:40.171Z</time></trkpt><trkpt lat="43.4653866" lon="3.7666263"><ele>0.6666666666666666</ele><time>2026-04-12T15:04:41.17Z</time></trkpt><trkpt lat="43.465184" lon="3.7665804"><ele>2.0</ele><time>2026-04-12T15:04:42.17Z</time></trkpt><trkpt lat="43.4649941" lon="3.7665664"><ele>2.0</ele><time>2026-04-12T15:04:43.171Z</time></trkpt><trkpt lat="43.4647961" lon="3.7665809"><ele>2.0</ele><time>2026-04-12T15:04:44.171Z</time></trkpt><trkpt lat="43.4646008" lon="3.7666246"><ele>2.0</ele><time>2026-04-12T15:04:45.171Z</time></trkpt><trkpt lat="43.4643932" lon="3.7666997"><ele>2.0</ele><time>2026-04-12T15:04:46.17Z</time></trkpt><trkpt lat="43.4641755" lon="3.7668094"><ele>2.0</ele><time>2026-04-12T15:04:47.17Z</time></trkpt><trkpt lat="43.4639438" lon="3.7669391"><ele>1.5</ele><time>2026-04-12T15:04:48.171Z</time></trkpt><trkpt lat="43.4636962" lon="3.7670787"><ele>1.0</ele><time>2026-04-12T15:04:49.17Z</time></trkpt><trkpt lat="43.4634349" lon="3.767231"><ele>1.0</ele><time>2026-04-12T15:04:50.171Z</time></trkpt><trkpt lat="43.463169" lon="3.7673854"><ele>1.0</ele><time>2026-04-12T15:04:51.171Z</time></trkpt><trkpt lat="43.4629124" lon="3.7675439"><ele>1.0</ele><time>2026-04-12T15:04:52.17Z</time></trkpt><trkpt lat="43.4626529" lon="3.7676894"><ele>1.0</ele><time>2026-04-12T15:04:53.171Z</time></trkpt><trkpt lat="43.4624048" lon="3.7678376"><ele>1.5</ele><time>2026-04-12T15:04:54.17Z</time></trkpt><trkpt lat="43.4621615" lon="3.7679763"><ele>2.0</ele><time>2026-04-12T15:04:55.17Z</time></trkpt><trkpt lat="43.4619165" lon="3.7681053"><ele>3.0</ele><time>2026-04-12T15:04:56.171Z</time></trkpt><trkpt lat="43.4616688" lon="3.7682294"><ele>4.0</ele><time>2026-04-12T15:04:57.17Z</time></trkpt><trkpt lat="43.4614207" lon="3.7683366"><ele>3.5</ele><time>2026-04-12T15:04:58.17Z</time></trkpt><trkpt lat="43.4611699" lon="3.7684323"><ele>3.0</ele><time>2026-04-12T15:04:59.17Z</time></trkpt><trkpt lat="43.4609105" lon="3.7685165"><ele>2.5</ele><time>2026-04-12T15:05:00.171Z</time></trkpt><trkpt lat="43.4606504" lon="3.7685903"><ele>2.0</ele><time>2026-04-12T15:05:01.17Z</time></trkpt><trkpt lat="43.4603832" lon="3.7686583"><ele>2.0</ele><time>2026-04-12T15:05:02.17Z</time></trkpt><trkpt lat="43.4601091" lon="3.768712"><ele>2.0</ele><time>2026-04-12T15:05:03.17Z</time></trkpt><trkpt lat="43.4598312" lon="3.7687541"><ele>1.0</ele><time>2026-04-12T15:05:04.171Z</time></trkpt><trkpt lat="43.4595462" lon="3.768782"><ele>0.0</ele><time>2026-04-12T15:05:05.17Z</time></trkpt><trkpt lat="43.4592497" lon="3.7687952"><ele>0.0</ele><time>2026-04-12T15:05:06.171Z</time></trkpt><trkpt lat="43.4589529" lon="3.7687975"><ele>0.0</ele><time>2026-04-12T15:05:07.171Z</time></trkpt><trkpt lat="43.4586583" lon="3.7687818"><ele>0.5</ele><time>2026-04-12T15:05:08.171Z</time></trkpt><trkpt lat="43.4583639" lon="3.7687531"><ele>1.0</ele><time>2026-04-12T15:05:09.17Z</time></trkpt><trkpt lat="43.4580714" lon="3.7687087"><ele>-0.5</ele><time>2026-04-12T15:05:10.171Z</time></trkpt><trkpt lat="43.4577817" lon="3.7686515"><ele>-2.0</ele><time>2026-04-12T15:05:11.17Z</time></trkpt><trkpt lat="43.4574908" lon="3.7685806"><ele>-2.5</ele><time>2026-04-12T15:05:12.17Z</time></trkpt><trkpt lat="43.4571988" lon="3.7684926"><ele>-3.0</ele><time>2026-04-12T15:05:13.17Z</time></trkpt><trkpt lat="43.456909" lon="3.7683915"><ele>0.0</ele><time>2026-04-12T15:05:14.17Z</time></trkpt><trkpt lat="43.4566232" lon="3.7682746"><ele>3.0</ele><time>2026-04-12T15:05:15.171Z</time></trkpt><trkpt lat="43.456339" lon="3.7681433"><ele>2.0</ele><time>2026-04-12T15:05:16.17Z</time></trkpt><trkpt lat="43.456057" lon="3.7679974"><ele>1.0</ele><time>2026-04-12T15:05:17.17Z</time></trkpt><trkpt lat="43.4557795" lon="3.7678358"><ele>1.5</ele><time>2026-04-12T15:05:18.171Z</time></trkpt><trkpt lat="43.4555061" lon="3.767661"><ele>2.0</ele><time>2026-04-12T15:05:19.17Z</time></trkpt><trkpt lat="43.4552402" lon="3.767472"><ele>2.0</ele><time>2026-04-12T15:05:20.17Z</time></trkpt><trkpt lat="43.4549797" lon="3.7672683"><ele>2.0</ele><time>2026-04-12T15:05:21.17Z</time></trkpt><trkpt lat="43.4547188" lon="3.7670448"><ele>1.0</ele><time>2026-04-12T15:05:22.171Z</time></trkpt><trkpt lat="43.4544486" lon="3.7668011"><ele>0.0</ele><time>2026-04-12T15:05:23.17Z</time></trkpt><trkpt lat="43.4541661" lon="3.7665423"><ele>0.0</ele><time>2026-04-12T15:05:24.171Z</time></trkpt><trkpt lat="43.4538667" lon="3.7662697"><ele>0.0</ele><time>2026-04-12T15:05:25.171Z</time></trkpt><trkpt lat="43.4535576" lon="3.7659846"><ele>0.5</ele><time>2026-04-12T15:05:26.171Z</time></trkpt><trkpt lat="43.4532423" lon="3.7656885"><ele>1.0</ele><time>2026-04-12T15:05:27.17Z</time></trkpt><trkpt lat="43.4529263" lon="3.7653954"><ele>-1.0</ele><time>2026-04-12T15:05:28.171Z</time></trkpt><trkpt lat="43.4526178" lon="3.7651116"><ele>-3.0</ele><time>2026-04-12T15:05:29.17Z</time></trkpt><trkpt lat="43.452317" lon="3.7648355"><ele>-2.0</ele><time>2026-04-12T15:05:30.171Z</time></trkpt><trkpt lat="43.4520193" lon="3.7645614"><ele>-1.0</ele><time>2026-04-12T15:05:31.171Z</time></trkpt><trkpt lat="43.4517271" lon="3.7642916"><ele>-0.5</ele><time>2026-04-12T15:05:32.17Z</time></trkpt><trkpt lat="43.451448" lon="3.7640303"><ele>0.0</ele><time>2026-04-12T15:05:33.171Z</time></trkpt><trkpt lat="43.4511761" lon="3.763784"><ele>0.5</ele><time>2026-04-12T15:05:34.171Z</time></trkpt><trkpt lat="43.450913" lon="3.7635433"><ele>1.0</ele><time>2026-04-12T15:05:35.17Z</time></trkpt><trkpt lat="43.4506619" lon="3.763315"><ele>2.0</ele><time>2026-04-12T15:05:36.171Z</time></trkpt><trkpt lat="43.4504178" lon="3.763097"><ele>3.0</ele><time>2026-04-12T15:05:37.17Z</time></trkpt><trkpt lat="43.4501728" lon="3.7628968"><ele>3.0</ele><time>2026-04-12T15:05:38.171Z</time></trkpt><trkpt lat="43.4499304" lon="3.7627229"><ele>3.0</ele><time>2026-04-12T15:05:39.17Z</time></trkpt><trkpt lat="43.4496872" lon="3.7625735"><ele>1.5</ele><time>2026-04-12T15:05:40.171Z</time></trkpt><trkpt lat="43.4494402" lon="3.7624477"><ele>0.0</ele><time>2026-04-12T15:05:41.17Z</time></trkpt><trkpt lat="43.4491892" lon="3.762347"><ele>0.0</ele><time>2026-04-12T15:05:42.17Z</time></trkpt><trkpt lat="43.4489333" lon="3.7622667"><ele>0.0</ele><time>2026-04-12T15:05:43.171Z</time></trkpt><trkpt lat="43.4486745" lon="3.7622089"><ele>-1.0</ele><time>2026-04-12T15:05:44.17Z</time></trkpt><trkpt lat="43.4484118" lon="3.7621752"><ele>-2.0</ele><time>2026-04-12T15:05:45.17Z</time></trkpt><trkpt lat="43.4481484" lon="3.762166"><ele>-2.0</ele><time>2026-04-12T15:05:46.17Z</time></trkpt><trkpt lat="43.4478938" lon="3.7621836"><ele>-2.0</ele><time>2026-04-12T15:05:47.171Z</time></trkpt><trkpt lat="43.4476432" lon="3.7622245"><ele>-2.0</ele><time>2026-04-12T15:05:48.171Z</time></trkpt><trkpt lat="43.4473874" lon="3.7622873"><ele>-2.0</ele><time>2026-04-12T15:05:49.17Z</time></trkpt><trkpt lat="43.4471271" lon="3.7623713"><ele>-2.0</ele><time>2026-04-12T15:05:50.171Z</time></trkpt><trkpt lat="43.4468646" lon="3.7624638"><ele>-2.0</ele><time>2026-04-12T15:05:51.17Z</time></trkpt><trkpt lat="43.4466137" lon="3.7625671"><ele>-2.0</ele><time>2026-04-12T15:05:52.17Z</time></trkpt><trkpt lat="43.4463674" lon="3.7626748"><ele>-2.0</ele><time>2026-04-12T15:05:53.17Z</time></trkpt><trkpt lat="43.446135" lon="3.7627801"><ele>-2.0</ele><time>2026-04-12T15:05:54.171Z</time></trkpt><trkpt lat="43.4459136" lon="3.7628802"><ele>-2.0</ele><time>2026-04-12T15:05:55.171Z</time></trkpt><trkpt lat="43.4457029" lon="3.7629755"><ele>-2.0</ele><time>2026-04-12T15:05:56.171Z</time></trkpt><trkpt lat="43.4455033" lon="3.7630641"><ele>-2.0</ele><time>2026-04-12T15:05:57.17Z</time></trkpt><trkpt lat="43.4453124" lon="3.7631501"><ele>-2.0</ele><time>2026-04-12T15:05:58.17Z</time></trkpt><trkpt lat="43.445128" lon="3.7632304"><ele>-1.6666666666666665</ele><time>2026-04-12T15:05:59.17Z</time></trkpt><trkpt lat="43.4449331" lon="3.7633073"><ele>-1.3333333333333333</ele><time>2026-04-12T15:06:00.171Z</time></trkpt><trkpt lat="43.4447247" lon="3.7633889"><ele>-1.0</ele><time>2026-04-12T15:06:01.17Z</time></trkpt><trkpt lat="43.4445085" lon="3.7634621"><ele>-0.3333333333333333</ele><time>2026-04-12T15:06:02.171Z</time></trkpt><trkpt lat="43.4443128" lon="3.7635169"><ele>0.3333333333333333</ele><time>2026-04-12T15:06:03.171Z</time></trkpt><trkpt lat="43.4441229" lon="3.7635579"><ele>1.0</ele><time>2026-04-12T15:06:04.17Z</time></trkpt><trkpt lat="43.443934" lon="3.7635969"><ele>0.6666666666666666</ele><time>2026-04-12T15:06:05.171Z</time></trkpt><trkpt lat="43.4437418" lon="3.7636309"><ele>0.3333333333333333</ele><time>2026-04-12T15:06:06.17Z</time></trkpt><trkpt lat="43.4435453" lon="3.7636593"><ele>0.0</ele><time>2026-04-12T15:06:07.17Z</time></trkpt><trkpt lat="43.4433517" lon="3.7636803"><ele>0.0</ele><time>2026-04-12T15:06:08.17Z</time></trkpt><trkpt lat="43.4431575" lon="3.7636977"><ele>0.0</ele><time>2026-04-12T15:06:09.17Z</time></trkpt><trkpt lat="43.4429602" lon="3.7637058"><ele>0.0</ele><time>2026-04-12T15:06:10.17Z</time></trkpt><trkpt lat="43.4427673" lon="3.7637066"><ele>0.3333333333333333</ele><time>2026-04-12T15:06:11.17Z</time></trkpt><trkpt lat="43.4425731" lon="3.7636987"><ele>0.6666666666666666</ele><time>2026-04-12T15:06:12.17Z</time></trkpt><trkpt lat="43.4423833" lon="3.7636876"><ele>1.0</ele><time>2026-04-12T15:06:13.17Z</time></trkpt><trkpt lat="43.4421953" lon="3.763672"><ele>0.6666666666666666</ele><time>2026-04-12T15:06:14.171Z</time></trkpt><trkpt lat="43.4420127" lon="3.7636559"><ele>0.3333333333333333</ele><time>2026-04-12T15:06:15.17Z</time></trkpt><trkpt lat="43.4418202" lon="3.7636307"><ele>0.0</ele><time>2026-04-12T15:06:16.17Z</time></trkpt><trkpt lat="43.4416156" lon="3.7635991"><ele>0.0</ele><time>2026-04-12T15:06:17.17Z</time></trkpt><trkpt lat="43.4414076" lon="3.76356"><ele>0.0</ele><time>2026-04-12T15:06:18.171Z</time></trkpt><trkpt lat="43.4412042" lon="3.7635101"><ele>0.0</ele><time>2026-04-12T15:06:19.171Z</time></trkpt><trkpt lat="43.4410052" lon="3.7634496"><ele>0.0</ele><time>2026-04-12T15:06:20.17Z</time></trkpt><trkpt lat="43.4408095" lon="3.7633865"><ele>0.0</ele><time>2026-04-12T15:06:21.17Z</time></trkpt><trkpt lat="43.4406168" lon="3.7633168"><ele>0.0</ele><time>2026-04-12T15:06:22.171Z</time></trkpt><trkpt lat="43.4404261" lon="3.7632426"><ele>0.0</ele><time>2026-04-12T15:06:23.171Z</time></trkpt><trkpt lat="43.4402419" lon="3.7631634"><ele>0.0</ele><time>2026-04-12T15:06:24.17Z</time></trkpt><trkpt lat="43.4400632" lon="3.7630803"><ele>0.0</ele><time>2026-04-12T15:06:25.17Z</time></trkpt><trkpt lat="43.4398868" lon="3.7629985"><ele>0.0</ele><time>2026-04-12T15:06:26.171Z</time></trkpt><trkpt lat="43.4397142" lon="3.7629052"><ele>0.0</ele><time>2026-04-12T15:06:27.171Z</time></trkpt><trkpt lat="43.4395441" lon="3.7628102"><ele>0.0</ele><time>2026-04-12T15:06:28.17Z</time></trkpt><trkpt lat="43.4393804" lon="3.7626997"><ele>-0.3333333333333333</ele><time>2026-04-12T15:06:29.17Z</time></trkpt><trkpt lat="43.4392084" lon="3.7625844"><ele>-0.6666666666666666</ele><time>2026-04-12T15:06:30.171Z</time></trkpt><trkpt lat="43.4390377" lon="3.7624638"><ele>-1.0</ele><time>2026-04-12T15:06:31.17Z</time></trkpt><trkpt lat="43.4388708" lon="3.7623325"><ele>0.0</ele><time>2026-04-12T15:06:32.17Z</time></trkpt><trkpt lat="43.4387028" lon="3.7621942"><ele>1.0</ele><time>2026-04-12T15:06:33.17Z</time></trkpt><trkpt lat="43.438534" lon="3.7620523"><ele>2.0</ele><time>2026-04-12T15:06:34.17Z</time></trkpt><trkpt lat="43.438367" lon="3.7619044"><ele>2.0</ele><time>2026-04-12T15:06:35.17Z</time></trkpt><trkpt lat="43.4382012" lon="3.7617506"><ele>2.0</ele><time>2026-04-12T15:06:36.171Z</time></trkpt><trkpt lat="43.4380352" lon="3.7615922"><ele>2.0</ele><time>2026-04-12T15:06:37.17Z</time></trkpt><trkpt lat="43.4378706" lon="3.761431"><ele>2.333333333333333</ele><time>2026-04-12T15:06:38.171Z</time></trkpt><trkpt lat="43.4377106" lon="3.7612676"><ele>2.6666666666666665</ele><time>2026-04-12T15:06:39.171Z</time></trkpt><trkpt lat="43.4375512" lon="3.761106"><ele>3.0</ele><time>2026-04-12T15:06:40.171Z</time></trkpt><trkpt lat="43.4373966" lon="3.7609487"><ele>3.0</ele><time>2026-04-12T15:06:41.17Z</time></trkpt><trkpt lat="43.4372333" lon="3.7607873"><ele>3.0</ele><time>2026-04-12T15:06:42.171Z</time></trkpt><trkpt lat="43.4370616" lon="3.7606207"><ele>3.0</ele><time>2026-04-12T15:06:43.17Z</time></trkpt><trkpt lat="43.4368739" lon="3.760443"><ele>4.0</ele><time>2026-04-12T15:06:44.17Z</time></trkpt><trkpt lat="43.4366754" lon="3.7602451"><ele>5.0</ele><time>2026-04-12T15:06:45.17Z</time></trkpt><trkpt lat="43.4364682" lon="3.760042"><ele>3.5</ele><time>2026-04-12T15:06:46.171Z</time></trkpt><trkpt lat="43.4362465" lon="3.7598213"><ele>2.0</ele><time>2026-04-12T15:06:47.17Z</time></trkpt><trkpt lat="43.4360158" lon="3.7595957"><ele>1.5</ele><time>2026-04-12T15:06:48.17Z</time></trkpt><trkpt lat="43.4357807" lon="3.759352"><ele>1.0</ele><time>2026-04-12T15:06:49.171Z</time></trkpt><trkpt lat="43.4355634" lon="3.7591282"><ele>1.0</ele><time>2026-04-12T15:06:50.171Z</time></trkpt><trkpt lat="43.4353617" lon="3.7589195"><ele>1.0</ele><time>2026-04-12T15:06:51.17Z</time></trkpt><trkpt lat="43.4351679" lon="3.7587169"><ele>1.5</ele><time>2026-04-12T15:06:52.17Z</time></trkpt><trkpt lat="43.4349736" lon="3.758513"><ele>2.0</ele><time>2026-04-12T15:06:53.171Z</time></trkpt><trkpt lat="43.4347704" lon="3.7583043"><ele>2.0</ele><time>2026-04-12T15:06:54.171Z</time></trkpt><trkpt lat="43.4345619" lon="3.758094"><ele>2.0</ele><time>2026-04-12T15:06:55.17Z</time></trkpt><trkpt lat="43.4343474" lon="3.7578821"><ele>2.5</ele><time>2026-04-12T15:06:56.17Z</time></trkpt><trkpt lat="43.4341293" lon="3.7576698"><ele>3.0</ele><time>2026-04-12T15:06:57.17Z</time></trkpt><trkpt lat="43.4339123" lon="3.7574539"><ele>2.5</ele><time>2026-04-12T15:06:58.171Z</time></trkpt><trkpt lat="43.43369" lon="3.7572458"><ele>2.0</ele><time>2026-04-12T15:06:59.171Z</time></trkpt><trkpt lat="43.4334745" lon="3.7570451"><ele>1.0</ele><time>2026-04-12T15:07:00.17Z</time></trkpt><trkpt lat="43.4332638" lon="3.7568545"><ele>0.0</ele><time>2026-04-12T15:07:01.17Z</time></trkpt><trkpt lat="43.4330551" lon="3.7566735"><ele>-0.5</ele><time>2026-04-12T15:07:02.171Z</time></trkpt><trkpt lat="43.4328377" lon="3.7564914"><ele>-1.0</ele><time>2026-04-12T15:07:03.17Z</time></trkpt><trkpt lat="43.4326129" lon="3.7563103"><ele>-1.0</ele><time>2026-04-12T15:07:04.17Z</time></trkpt><trkpt lat="43.4323815" lon="3.7561321"><ele>-1.0</ele><time>2026-04-12T15:07:05.17Z</time></trkpt><trkpt lat="43.4321513" lon="3.7559577"><ele>1.0</ele><time>2026-04-12T15:07:06.171Z</time></trkpt><trkpt lat="43.4318838" lon="3.75575"><ele>3.0</ele><time>2026-04-12T15:07:07.171Z</time></trkpt><trkpt lat="43.4315914" lon="3.755525"><ele>2.5</ele><time>2026-04-12T15:07:08.17Z</time></trkpt><trkpt lat="43.4313062" lon="3.7552974"><ele>2.0</ele><time>2026-04-12T15:07:09.171Z</time></trkpt><trkpt lat="43.4310206" lon="3.7550728"><ele>2.0</ele><time>2026-04-12T15:07:10.17Z</time></trkpt><trkpt lat="43.430737" lon="3.7548515"><ele>2.0</ele><time>2026-04-12T15:07:11.17Z</time></trkpt><trkpt lat="43.4304616" lon="3.7546234"><ele>1.0</ele><time>2026-04-12T15:07:12.171Z</time></trkpt><trkpt lat="43.4301915" lon="3.7543947"><ele>0.0</ele><time>2026-04-12T15:07:13.17Z</time></trkpt><trkpt lat="43.4299276" lon="3.7541734"><ele>0.0</ele><time>2026-04-12T15:07:14.17Z</time></trkpt><trkpt lat="43.429677" lon="3.7539502"><ele>0.0</ele><time>2026-04-12T15:07:15.17Z</time></trkpt><trkpt lat="43.4294282" lon="3.7537249"><ele>0.5</ele><time>2026-04-12T15:07:16.17Z</time></trkpt><trkpt lat="43.4291955" lon="3.753503"><ele>1.0</ele><time>2026-04-12T15:07:17.17Z</time></trkpt><trkpt lat="43.4289638" lon="3.7532805"><ele>1.0</ele><time>2026-04-12T15:07:18.171Z</time></trkpt><trkpt lat="43.4287354" lon="3.7530575"><ele>1.0</ele><time>2026-04-12T15:07:19.17Z</time></trkpt><trkpt lat="43.4285036" lon="3.7528264"><ele>1.0</ele><time>2026-04-12T15:07:20.17Z</time></trkpt><trkpt lat="43.4282697" lon="3.7525891"><ele>1.0</ele><time>2026-04-12T15:07:21.171Z</time></trkpt><trkpt lat="43.4280391" lon="3.7523541"><ele>1.5</ele><time>2026-04-12T15:07:22.17Z</time></trkpt><trkpt lat="43.4278213" lon="3.7521299"><ele>2.0</ele><time>2026-04-12T15:07:23.171Z</time></trkpt><trkpt lat="43.4276154" lon="3.7519131"><ele>1.5</ele><time>2026-04-12T15:07:24.171Z</time></trkpt><trkpt lat="43.4274224" lon="3.7517011"><ele>1.0</ele><time>2026-04-12T15:07:25.17Z</time></trkpt><trkpt lat="43.4272383" lon="3.7514975"><ele>1.0</ele><time>2026-04-12T15:07:26.171Z</time></trkpt><trkpt lat="43.4270539" lon="3.7512958"><ele>1.0</ele><time>2026-04-12T15:07:27.17Z</time></trkpt><trkpt lat="43.4268591" lon="3.7510811"><ele>2.0</ele><time>2026-04-12T15:07:28.17Z</time></trkpt><trkpt lat="43.4266843" lon="3.7508809"><ele>3.0</ele><time>2026-04-12T15:07:29.17Z</time></trkpt><trkpt lat="43.4265304" lon="3.7506908"><ele>4.0</ele><time>2026-04-12T15:07:30.171Z</time></trkpt><trkpt lat="43.4263821" lon="3.7505105"><ele>4.0</ele><time>2026-04-12T15:07:31.17Z</time></trkpt><trkpt lat="43.4262482" lon="3.7503351"><ele>4.0</ele><time>2026-04-12T15:07:32.171Z</time></trkpt><trkpt lat="43.4261195" lon="3.7501657"><ele>4.0</ele><time>2026-04-12T15:07:33.171Z</time></trkpt><trkpt lat="43.4259987" lon="3.7499931"><ele>4.0</ele><time>2026-04-12T15:07:34.17Z</time></trkpt><trkpt lat="43.425876" lon="3.7498167"><ele>4.0</ele><time>2026-04-12T15:07:35.17Z</time></trkpt><trkpt lat="43.4257641" lon="3.7496355"><ele>4.0</ele><time>2026-04-12T15:07:36.17Z</time></trkpt><trkpt lat="43.4256475" lon="3.7494386"><ele>3.333333333333333</ele><time>2026-04-12T15:07:37.17Z</time></trkpt><trkpt lat="43.4255185" lon="3.7492099"><ele>2.6666666666666665</ele><time>2026-04-12T15:07:38.171Z</time></trkpt><trkpt lat="43.4253818" lon="3.7489522"><ele>2.0</ele><time>2026-04-12T15:07:39.171Z</time></trkpt><trkpt lat="43.425245" lon="3.7486756"><ele>2.0</ele><time>2026-04-12T15:07:40.171Z</time></trkpt><trkpt lat="43.4251074" lon="3.7483859"><ele>2.0</ele><time>2026-04-12T15:07:41.17Z</time></trkpt><trkpt lat="43.4249606" lon="3.7480665"><ele>2.0</ele><time>2026-04-12T15:07:42.171Z</time></trkpt><trkpt lat="43.4248054" lon="3.7477317"><ele>2.0</ele><time>2026-04-12T15:07:43.171Z</time></trkpt><trkpt lat="43.4246539" lon="3.7473846"><ele>1.0</ele><time>2026-04-12T15:07:44.171Z</time></trkpt><trkpt lat="43.4245039" lon="3.7470367"><ele>0.0</ele><time>2026-04-12T15:07:45.171Z</time></trkpt><trkpt lat="43.4243572" lon="3.7466881"><ele>0.0</ele><time>2026-04-12T15:07:46.17Z</time></trkpt><trkpt lat="43.424214" lon="3.7463428"><ele>0.0</ele><time>2026-04-12T15:07:47.171Z</time></trkpt><trkpt lat="43.4240735" lon="3.7460041"><ele>0.0</ele><time>2026-04-12T15:07:48.17Z</time></trkpt><trkpt lat="43.4239409" lon="3.7456616"><ele>0.0</ele><time>2026-04-12T15:07:49.17Z</time></trkpt><trkpt lat="43.423813" lon="3.7453219"><ele>-0.5</ele><time>2026-04-12T15:07:50.17Z</time></trkpt><trkpt lat="43.4236901" lon="3.7449854"><ele>-1.0</ele><time>2026-04-12T15:07:51.17Z</time></trkpt><trkpt lat="43.4235742" lon="3.7446585"><ele>-1.5</ele><time>2026-04-12T15:07:52.17Z</time></trkpt><trkpt lat="43.4234651" lon="3.7443391"><ele>-2.0</ele><time>2026-04-12T15:07:53.17Z</time></trkpt><trkpt lat="43.4233604" lon="3.7440194"><ele>-2.0</ele><time>2026-04-12T15:07:54.17Z</time></trkpt><trkpt lat="43.4232578" lon="3.7436982"><ele>-2.0</ele><time>2026-04-12T15:07:55.17Z</time></trkpt><trkpt lat="43.4231562" lon="3.7433833"><ele>-1.5</ele><time>2026-04-12T15:07:56.17Z</time></trkpt><trkpt lat="43.4230546" lon="3.7430689"><ele>-1.0</ele><time>2026-04-12T15:07:57.17Z</time></trkpt><trkpt lat="43.4229524" lon="3.7427533"><ele>-1.0</ele><time>2026-04-12T15:07:58.17Z</time></trkpt><trkpt lat="43.4228477" lon="3.7424305"><ele>-1.0</ele><time>2026-04-12T15:07:59.171Z</time></trkpt><trkpt lat="43.4227407" lon="3.7420982"><ele>-1.5</ele><time>2026-04-12T15:08:00.17Z</time></trkpt><trkpt lat="43.4226345" lon="3.7417608"><ele>-2.0</ele><time>2026-04-12T15:08:01.17Z</time></trkpt><trkpt lat="43.4225251" lon="3.7414136"><ele>-2.0</ele><time>2026-04-12T15:08:02.17Z</time></trkpt><trkpt lat="43.4224138" lon="3.7410641"><ele>-2.0</ele><time>2026-04-12T15:08:03.171Z</time></trkpt><trkpt lat="43.4223007" lon="3.7407088"><ele>-1.5</ele><time>2026-04-12T15:08:04.17Z</time></trkpt><trkpt lat="43.4221837" lon="3.7403471"><ele>-1.0</ele><time>2026-04-12T15:08:05.17Z</time></trkpt><trkpt lat="43.4220665" lon="3.7399881"><ele>-0.5</ele><time>2026-04-12T15:08:06.17Z</time></trkpt><trkpt lat="43.421945" lon="3.7396241"><ele>0.0</ele><time>2026-04-12T15:08:07.17Z</time></trkpt><trkpt lat="43.4218242" lon="3.7392625"><ele>0.5</ele><time>2026-04-12T15:08:08.17Z</time></trkpt><trkpt lat="43.4217022" lon="3.7389024"><ele>1.0</ele><time>2026-04-12T15:08:09.17Z</time></trkpt><trkpt lat="43.4215741" lon="3.7385477"><ele>1.5</ele><time>2026-04-12T15:08:10.17Z</time></trkpt><trkpt lat="43.4214442" lon="3.7381955"><ele>2.0</ele><time>2026-04-12T15:08:11.17Z</time></trkpt><trkpt lat="43.4213153" lon="3.7378427"><ele>1.0</ele><time>2026-04-12T15:08:12.17Z</time></trkpt><trkpt lat="43.4211853" lon="3.737493"><ele>0.0</ele><time>2026-04-12T15:08:13.171Z</time></trkpt><trkpt lat="43.4210524" lon="3.7371444"><ele>0.0</ele><time>2026-04-12T15:08:14.171Z</time></trkpt><trkpt lat="43.4209226" lon="3.7368005"><ele>0.0</ele><time>2026-04-12T15:08:15.171Z</time></trkpt><trkpt lat="43.4207961" lon="3.7364619"><ele>0.0</ele><time>2026-04-12T15:08:16.17Z</time></trkpt><trkpt lat="43.4206771" lon="3.7361354"><ele>0.0</ele><time>2026-04-12T15:08:17.171Z</time></trkpt><trkpt lat="43.4205611" lon="3.7358137"><ele>0.0</ele><time>2026-04-12T15:08:18.17Z</time></trkpt><trkpt lat="43.4204459" lon="3.7354871"><ele>0.0</ele><time>2026-04-12T15:08:19.171Z</time></trkpt><trkpt lat="43.4203341" lon="3.7351592"><ele>1.0</ele><time>2026-04-12T15:08:20.17Z</time></trkpt><trkpt lat="43.4202233" lon="3.7348296"><ele>2.0</ele><time>2026-04-12T15:08:21.171Z</time></trkpt><trkpt lat="43.420112" lon="3.7344955"><ele>1.5</ele><time>2026-04-12T15:08:22.17Z</time></trkpt><trkpt lat="43.4199984" lon="3.734159"><ele>1.0</ele><time>2026-04-12T15:08:23.171Z</time></trkpt><trkpt lat="43.419883" lon="3.7338133"><ele>0.5</ele><time>2026-04-12T15:08:24.17Z</time></trkpt><trkpt lat="43.4197657" lon="3.733466"><ele>0.0</ele><time>2026-04-12T15:08:25.17Z</time></trkpt><trkpt lat="43.4196487" lon="3.733119"><ele>0.0</ele><time>2026-04-12T15:08:26.17Z</time></trkpt><trkpt lat="43.419533" lon="3.7327724"><ele>0.0</ele><time>2026-04-12T15:08:27.17Z</time></trkpt><trkpt lat="43.4194218" lon="3.7324379"><ele>0.0</ele><time>2026-04-12T15:08:28.17Z</time></trkpt><trkpt lat="43.4193155" lon="3.7321204"><ele>0.0</ele><time>2026-04-12T15:08:29.17Z</time></trkpt><trkpt lat="43.4192144" lon="3.7318236"><ele>0.0</ele><time>2026-04-12T15:08:30.17Z</time></trkpt><trkpt lat="43.4191167" lon="3.7315333"><ele>0.0</ele><time>2026-04-12T15:08:31.17Z</time></trkpt><trkpt lat="43.4190249" lon="3.7312542"><ele>0.3333333333333333</ele><time>2026-04-12T15:08:32.17Z</time></trkpt><trkpt lat="43.4189341" lon="3.7309834"><ele>0.6666666666666666</ele><time>2026-04-12T15:08:33.171Z</time></trkpt><trkpt lat="43.4188456" lon="3.7307186"><ele>1.0</ele><time>2026-04-12T15:08:34.17Z</time></trkpt><trkpt lat="43.4187583" lon="3.7304605"><ele>1.0</ele><time>2026-04-12T15:08:35.17Z</time></trkpt><trkpt lat="43.4186721" lon="3.73021"><ele>1.0</ele><time>2026-04-12T15:08:36.171Z</time></trkpt><trkpt lat="43.4185874" lon="3.7299648"><ele>1.0</ele><time>2026-04-12T15:08:37.171Z</time></trkpt><trkpt lat="43.4185051" lon="3.7297241"><ele>1.0</ele><time>2026-04-12T15:08:38.171Z</time></trkpt><trkpt lat="43.4184248" lon="3.7294888"><ele>1.0</ele><time>2026-04-12T15:08:39.171Z</time></trkpt><trkpt lat="43.4183472" lon="3.7292561"><ele>1.0</ele><time>2026-04-12T15:08:40.17Z</time></trkpt><trkpt lat="43.4182732" lon="3.7290319"><ele>0.6666666666666666</ele><time>2026-04-12T15:08:41.171Z</time></trkpt><trkpt lat="43.4181993" lon="3.7288138"><ele>0.3333333333333333</ele><time>2026-04-12T15:08:42.17Z</time></trkpt><trkpt lat="43.4181236" lon="3.7285895"><ele>0.0</ele><time>2026-04-12T15:08:43.171Z</time></trkpt><trkpt lat="43.4180478" lon="3.7283642"><ele>0.0</ele><time>2026-04-12T15:08:44.17Z</time></trkpt><trkpt lat="43.4179675" lon="3.7281316"><ele>0.0</ele><time>2026-04-12T15:08:45.171Z</time></trkpt><trkpt lat="43.4178746" lon="3.727875"><ele>0.0</ele><time>2026-04-12T15:08:46.17Z</time></trkpt><trkpt lat="43.4177701" lon="3.7276173"><ele>0.3333333333333333</ele><time>2026-04-12T15:08:47.17Z</time></trkpt><trkpt lat="43.4176671" lon="3.727367"><ele>0.6666666666666666</ele><time>2026-04-12T15:08:48.171Z</time></trkpt><trkpt lat="43.4175692" lon="3.7271331"><ele>1.0</ele><time>2026-04-12T15:08:49.17Z</time></trkpt><trkpt lat="43.4174769" lon="3.7269131"><ele>1.3333333333333333</ele><time>2026-04-12T15:08:50.17Z</time></trkpt><trkpt lat="43.4173957" lon="3.7267177"><ele>1.6666666666666665</ele><time>2026-04-12T15:08:51.17Z</time></trkpt><trkpt lat="43.4173159" lon="3.7265314"><ele>2.0</ele><time>2026-04-12T15:08:52.171Z</time></trkpt><trkpt lat="43.4172372" lon="3.7263541"><ele>2.0</ele><time>2026-04-12T15:08:53.17Z</time></trkpt><trkpt lat="43.4171651" lon="3.7261885"><ele>2.0</ele><time>2026-04-12T15:08:54.17Z</time></trkpt><trkpt lat="43.4171039" lon="3.7260269"><ele>2.0</ele><time>2026-04-12T15:08:55.17Z</time></trkpt><trkpt lat="43.4170566" lon="3.7258713"><ele>2.0</ele><time>2026-04-12T15:08:56.17Z</time></trkpt><trkpt lat="43.4170269" lon="3.7257234"><ele>2.0</ele><time>2026-04-12T15:08:57.17Z</time></trkpt><trkpt lat="43.4170205" lon="3.7255847"><ele>2.0</ele><time>2026-04-12T15:08:58.17Z</time></trkpt><trkpt lat="43.4170408" lon="3.7254587"><ele>2.0</ele><time>2026-04-12T15:08:59.171Z</time></trkpt><trkpt lat="43.4170893" lon="3.7253486"><ele>2.0</ele><time>2026-04-12T15:09:00.171Z</time></trkpt><trkpt lat="43.4171601" lon="3.725258"><ele>2.0</ele><time>2026-04-12T15:09:01.17Z</time></trkpt><trkpt lat="43.4172587" lon="3.725159"><ele>2.5</ele><time>2026-04-12T15:09:02.17Z</time></trkpt><trkpt lat="43.4173782" lon="3.7250658"><ele>3.0</ele><time>2026-04-12T15:09:03.171Z</time></trkpt><trkpt lat="43.4174758" lon="3.7249655"><ele>3.5</ele><time>2026-04-12T15:09:04.17Z</time></trkpt><trkpt lat="43.4175546" lon="3.7248685"><ele>4.0</ele><time>2026-04-12T15:09:05.17Z</time></trkpt><trkpt lat="43.4176043" lon="3.7247547"><ele>4.0</ele><time>2026-04-12T15:09:06.17Z</time></trkpt><trkpt lat="43.417626" lon="3.7246433"><ele>4.0</ele><time>2026-04-12T15:09:07.17Z</time></trkpt><trkpt lat="43.4176139" lon="3.7245058"><ele>4.0</ele><time>2026-04-12T15:09:08.17Z</time></trkpt><trkpt lat="43.4175844" lon="3.7243791"><ele>4.0</ele><time>2026-04-12T15:09:09.171Z</time></trkpt><trkpt lat="43.4175281" lon="3.724246"><ele>4.0</ele><time>2026-04-12T15:09:10.17Z</time></trkpt><trkpt lat="43.4174715" lon="3.7241049"><ele>4.0</ele><time>2026-04-12T15:09:11.171Z</time></trkpt><trkpt lat="43.4174319" lon="3.7239446"><ele>4.0</ele><time>2026-04-12T15:09:12.17Z</time></trkpt><trkpt lat="43.4174223" lon="3.723766"><ele>4.0</ele><time>2026-04-12T15:09:13.17Z</time></trkpt><trkpt lat="43.4174343" lon="3.7235634"><ele>4.0</ele><time>2026-04-12T15:09:14.17Z</time></trkpt><trkpt lat="43.4174391" lon="3.7233507"><ele>4.0</ele><time>2026-04-12T15:09:15.17Z</time></trkpt><trkpt lat="43.4174203" lon="3.7231176"><ele>4.0</ele><time>2026-04-12T15:09:16.17Z</time></trkpt><trkpt lat="43.4173552" lon="3.7228871"><ele>4.0</ele><time>2026-04-12T15:09:17.171Z</time></trkpt><trkpt lat="43.4172754" lon="3.7226482"><ele>2.0</ele><time>2026-04-12T15:09:18.171Z</time></trkpt><trkpt lat="43.4171701" lon="3.7223942"><ele>0.0</ele><time>2026-04-12T15:09:19.17Z</time></trkpt><trkpt lat="43.4170335" lon="3.7221066"><ele>1.0</ele><time>2026-04-12T15:09:20.17Z</time></trkpt><trkpt lat="43.4168831" lon="3.7217984"><ele>2.0</ele><time>2026-04-12T15:09:21.171Z</time></trkpt><trkpt lat="43.4167335" lon="3.721494"><ele>2.0</ele><time>2026-04-12T15:09:22.171Z</time></trkpt><trkpt lat="43.4165909" lon="3.7211824"><ele>2.0</ele><time>2026-04-12T15:09:23.171Z</time></trkpt><trkpt lat="43.4164453" lon="3.7208707"><ele>2.0</ele><time>2026-04-12T15:09:24.17Z</time></trkpt><trkpt lat="43.4162998" lon="3.7205575"><ele>2.0</ele><time>2026-04-12T15:09:25.17Z</time></trkpt><trkpt lat="43.4161613" lon="3.7202589"><ele>2.0</ele><time>2026-04-12T15:09:26.17Z</time></trkpt><trkpt lat="43.4160343" lon="3.719974"><ele>2.0</ele><time>2026-04-12T15:09:27.171Z</time></trkpt><trkpt lat="43.415913" lon="3.7197085"><ele>2.0</ele><time>2026-04-12T15:09:28.17Z</time></trkpt><trkpt lat="43.4157958" lon="3.7194574"><ele>2.0</ele><time>2026-04-12T15:09:29.171Z</time></trkpt><trkpt lat="43.4156828" lon="3.7192177"><ele>2.0</ele><time>2026-04-12T15:09:30.171Z</time></trkpt><trkpt lat="43.4155757" lon="3.7189899"><ele>2.0</ele><time>2026-04-12T15:09:31.17Z</time></trkpt><trkpt lat="43.415474" lon="3.7187702"><ele>2.0</ele><time>2026-04-12T15:09:32.17Z</time></trkpt><trkpt lat="43.4153844" lon="3.7185694"><ele>2.0</ele><time>2026-04-12T15:09:33.171Z</time></trkpt><trkpt lat="43.4152982" lon="3.7183775"><ele>2.0</ele><time>2026-04-12T15:09:34.171Z</time></trkpt><trkpt lat="43.4152285" lon="3.7182216"><ele>2.0</ele><time>2026-04-12T15:09:35.17Z</time></trkpt><trkpt lat="43.4151677" lon="3.7180801"><ele>2.0</ele><time>2026-04-12T15:09:36.17Z</time></trkpt><trkpt lat="43.4151093" lon="3.7179496"><ele>2.0</ele><time>2026-04-12T15:09:37.17Z</time></trkpt><trkpt lat="43.4150586" lon="3.7178286"><ele>2.4000000000000004</ele><time>2026-04-12T15:09:38.17Z</time></trkpt><trkpt lat="43.4150061" lon="3.7177155"><ele>2.8000000000000003</ele><time>2026-04-12T15:09:39.17Z</time></trkpt><trkpt lat="43.4149562" lon="3.7176113"><ele>3.2</ele><time>2026-04-12T15:09:40.171Z</time></trkpt><trkpt lat="43.4149068" lon="3.7175027"><ele>3.6</ele><time>2026-04-12T15:09:41.17Z</time></trkpt><trkpt lat="43.4148583" lon="3.7173979"><ele>4.0</ele><time>2026-04-12T15:09:42.17Z</time></trkpt><trkpt lat="43.4148078" lon="3.7172996"><ele>4.0</ele><time>2026-04-12T15:09:43.17Z</time></trkpt><trkpt lat="43.4147584" lon="3.7172082"><ele>4.0</ele><time>2026-04-12T15:09:44.17Z</time></trkpt><trkpt lat="43.4147122" lon="3.7171326"><ele>4.0</ele><time>2026-04-12T15:09:45.17Z</time></trkpt><trkpt lat="43.4146307" lon="3.7170171"><ele>4.0</ele><time>2026-04-12T15:09:47.17Z</time></trkpt><trkpt lat="43.4145657" lon="3.7168868"><ele>4.0</ele><time>2026-04-12T15:09:49.17Z</time></trkpt><trkpt lat="43.4145296" lon="3.7167971"><ele>3.4000000000000004</ele><time>2026-04-12T15:09:50.17Z</time></trkpt><trkpt lat="43.4144829" lon="3.7167019"><ele>2.8000000000000003</ele><time>2026-04-12T15:09:51.17Z</time></trkpt><trkpt lat="43.4144409" lon="3.7166002"><ele>2.2</ele><time>2026-04-12T15:09:52.17Z</time></trkpt><trkpt lat="43.4144015" lon="3.7164945"><ele>1.6</ele><time>2026-04-12T15:09:53.17Z</time></trkpt><trkpt lat="43.4143619" lon="3.7163785"><ele>1.0</ele><time>2026-04-12T15:09:54.17Z</time></trkpt><trkpt lat="43.4143126" lon="3.7162479"><ele>1.0</ele><time>2026-04-12T15:09:55.17Z</time></trkpt><trkpt lat="43.4142567" lon="3.7160981"><ele>1.0</ele><time>2026-04-12T15:09:56.17Z</time></trkpt><trkpt lat="43.4141841" lon="3.7159296"><ele>1.0</ele><time>2026-04-12T15:09:57.17Z</time></trkpt><trkpt lat="43.4140948" lon="3.7157338"><ele>1.0</ele><time>2026-04-12T15:09:58.17Z</time></trkpt><trkpt lat="43.4139895" lon="3.7155009"><ele>0.5</ele><time>2026-04-12T15:09:59.17Z</time></trkpt><trkpt lat="43.4138595" lon="3.7152176"><ele>0.0</ele><time>2026-04-12T15:10:00.17Z</time></trkpt><trkpt lat="43.4137359" lon="3.7149063"><ele>0.0</ele><time>2026-04-12T15:10:01.171Z</time></trkpt><trkpt lat="43.4136049" lon="3.7146326"><ele>0.0</ele><time>2026-04-12T15:10:02.17Z</time></trkpt><trkpt lat="43.4134847" lon="3.714366"><ele>0.6666666666666666</ele><time>2026-04-12T15:10:03.17Z</time></trkpt><trkpt lat="43.4133714" lon="3.7141134"><ele>1.3333333333333333</ele><time>2026-04-12T15:10:04.17Z</time></trkpt><trkpt lat="43.4132622" lon="3.7138775"><ele>2.0</ele><time>2026-04-12T15:10:05.171Z</time></trkpt><trkpt lat="43.4131484" lon="3.7136304"><ele>2.0</ele><time>2026-04-12T15:10:06.17Z</time></trkpt><trkpt lat="43.4130405" lon="3.7133961"><ele>2.0</ele><time>2026-04-12T15:10:07.171Z</time></trkpt><trkpt lat="43.4129391" lon="3.7131854"><ele>2.0</ele><time>2026-04-12T15:10:08.171Z</time></trkpt><trkpt lat="43.4128473" lon="3.7129903"><ele>2.0</ele><time>2026-04-12T15:10:09.17Z</time></trkpt><trkpt lat="43.4127664" lon="3.7128202"><ele>2.0</ele><time>2026-04-12T15:10:10.171Z</time></trkpt><trkpt lat="43.4126918" lon="3.7126666"><ele>2.0</ele><time>2026-04-12T15:10:11.171Z</time></trkpt><trkpt lat="43.4126215" lon="3.7125134"><ele>2.0</ele><time>2026-04-12T15:10:12.17Z</time></trkpt><trkpt lat="43.4125586" lon="3.7123776"><ele>1.9999999999999998</ele><time>2026-04-12T15:10:13.17Z</time></trkpt><trkpt lat="43.4124867" lon="3.7122569"><ele>2.0</ele><time>2026-04-12T15:10:14.171Z</time></trkpt><trkpt lat="43.4124271" lon="3.7121481"><ele>2.0</ele><time>2026-04-12T15:10:15.171Z</time></trkpt><trkpt lat="43.4123795" lon="3.7120588"><ele>2.0</ele><time>2026-04-12T15:10:16.17Z</time></trkpt><trkpt lat="43.4123398" lon="3.7119737"><ele>1.9999999999999998</ele><time>2026-04-12T15:10:17.171Z</time></trkpt><trkpt lat="43.4123115" lon="3.7118884"><ele>2.0</ele><time>2026-04-12T15:10:18.17Z</time></trkpt><trkpt lat="43.4122695" lon="3.7118"><ele>1.8</ele><time>2026-04-12T15:10:19.17Z</time></trkpt><trkpt lat="43.412223" lon="3.7116997"><ele>1.6</ele><time>2026-04-12T15:10:20.17Z</time></trkpt><trkpt lat="43.4121648" lon="3.7115814"><ele>1.4000000000000001</ele><time>2026-04-12T15:10:21.17Z</time></trkpt><trkpt lat="43.4121104" lon="3.7114382"><ele>1.2000000000000002</ele><time>2026-04-12T15:10:22.171Z</time></trkpt><trkpt lat="43.4120475" lon="3.7112757"><ele>1.0</ele><time>2026-04-12T15:10:23.17Z</time></trkpt><trkpt lat="43.4119774" lon="3.7111129"><ele>1.0</ele><time>2026-04-12T15:10:24.17Z</time></trkpt><trkpt lat="43.4119039" lon="3.7109667"><ele>1.0</ele><time>2026-04-12T15:10:25.17Z</time></trkpt><trkpt lat="43.4118351" lon="3.7108176"><ele>1.0</ele><time>2026-04-12T15:10:26.17Z</time></trkpt><trkpt lat="43.4117656" lon="3.7106711"><ele>1.0</ele><time>2026-04-12T15:10:27.171Z</time></trkpt><trkpt lat="43.4117029" lon="3.7105329"><ele>1.0</ele><time>2026-04-12T15:10:28.171Z</time></trkpt><trkpt lat="43.4116378" lon="3.7103904"><ele>1.0</ele><time>2026-04-12T15:10:29.171Z</time></trkpt><trkpt lat="43.41157" lon="3.7102413"><ele>1.0</ele><time>2026-04-12T15:10:30.17Z</time></trkpt><trkpt lat="43.4114875" lon="3.7100803"><ele>1.0</ele><time>2026-04-12T15:10:31.17Z</time></trkpt><trkpt lat="43.4114063" lon="3.7099034"><ele>1.0</ele><time>2026-04-12T15:10:32.171Z</time></trkpt><trkpt lat="43.4113309" lon="3.7097181"><ele>1.0</ele><time>2026-04-12T15:10:33.17Z</time></trkpt><trkpt lat="43.4112538" lon="3.709526"><ele>1.0</ele><time>2026-04-12T15:10:34.171Z</time></trkpt><trkpt lat="43.4111719" lon="3.7093328"><ele>2.0</ele><time>2026-04-12T15:10:35.17Z</time></trkpt><trkpt lat="43.4110869" lon="3.7091373"><ele>3.0</ele><time>2026-04-12T15:10:36.171Z</time></trkpt><trkpt lat="43.4109977" lon="3.708944"><ele>4.0</ele><time>2026-04-12T15:10:37.171Z</time></trkpt><trkpt lat="43.4109073" lon="3.7087515"><ele>4.0</ele><time>2026-04-12T15:10:38.17Z</time></trkpt><trkpt lat="43.4108179" lon="3.7085572"><ele>4.0</ele><time>2026-04-12T15:10:39.171Z</time></trkpt><trkpt lat="43.4107252" lon="3.7083532"><ele>4.0</ele><time>2026-04-12T15:10:40.17Z</time></trkpt><trkpt lat="43.4106282" lon="3.7081359"><ele>4.0</ele><time>2026-04-12T15:10:41.17Z</time></trkpt><trkpt lat="43.4105252" lon="3.7079107"><ele>4.0</ele><time>2026-04-12T15:10:42.171Z</time></trkpt><trkpt lat="43.4104196" lon="3.707674"><ele>4.0</ele><time>2026-04-12T15:10:43.17Z</time></trkpt><trkpt lat="43.4103079" lon="3.707445"><ele>3.6666666666666665</ele><time>2026-04-12T15:10:44.17Z</time></trkpt><trkpt lat="43.4102008" lon="3.707219"><ele>3.333333333333333</ele><time>2026-04-12T15:10:45.17Z</time></trkpt><trkpt lat="43.4100971" lon="3.7070058"><ele>3.0</ele><time>2026-04-12T15:10:46.17Z</time></trkpt><trkpt lat="43.409997" lon="3.7067978"><ele>3.666666666666667</ele><time>2026-04-12T15:10:47.17Z</time></trkpt><trkpt lat="43.4099072" lon="3.7065994"><ele>4.333333333333334</ele><time>2026-04-12T15:10:48.171Z</time></trkpt><trkpt lat="43.409823" lon="3.7064175"><ele>5.0</ele><time>2026-04-12T15:10:49.171Z</time></trkpt><trkpt lat="43.4097471" lon="3.7062506"><ele>5.0</ele><time>2026-04-12T15:10:50.17Z</time></trkpt><trkpt lat="43.4096757" lon="3.706098"><ele>5.0</ele><time>2026-04-12T15:10:51.17Z</time></trkpt><trkpt lat="43.40961" lon="3.7059591"><ele>5.0</ele><time>2026-04-12T15:10:52.17Z</time></trkpt><trkpt lat="43.4095427" lon="3.7058264"><ele>5.0</ele><time>2026-04-12T15:10:53.17Z</time></trkpt><trkpt lat="43.40948" lon="3.7056958"><ele>4.6</ele><time>2026-04-12T15:10:54.171Z</time></trkpt><trkpt lat="43.4094191" lon="3.7055783"><ele>4.2</ele><time>2026-04-12T15:10:55.171Z</time></trkpt><trkpt lat="43.4093632" lon="3.7054738"><ele>3.8</ele><time>2026-04-12T15:10:56.17Z</time></trkpt><trkpt lat="43.4093066" lon="3.7053822"><ele>3.4</ele><time>2026-04-12T15:10:57.17Z</time></trkpt><trkpt lat="43.4092547" lon="3.7052957"><ele>3.0</ele><time>2026-04-12T15:10:58.17Z</time></trkpt><trkpt lat="43.4092027" lon="3.705203"><ele>2.8333333333333335</ele><time>2026-04-12T15:10:59.171Z</time></trkpt><trkpt lat="43.4091546" lon="3.705114"><ele>2.6666666666666665</ele><time>2026-04-12T15:11:00.171Z</time></trkpt><trkpt lat="43.4090996" lon="3.7050387"><ele>2.5</ele><time>2026-04-12T15:11:01.17Z</time></trkpt><trkpt lat="43.4090368" lon="3.7049854"><ele>2.333333333333333</ele><time>2026-04-12T15:11:02.171Z</time></trkpt><trkpt lat="43.4089675" lon="3.7049555"><ele>2.1666666666666665</ele><time>2026-04-12T15:11:03.17Z</time></trkpt><trkpt lat="43.4088543" lon="3.7049307"><ele>2.0</ele><time>2026-04-12T15:11:05.171Z</time></trkpt><trkpt lat="43.4087438" lon="3.7048755"><ele>2.4000000000000004</ele><time>2026-04-12T15:11:07.17Z</time></trkpt><trkpt lat="43.4086183" lon="3.7047802"><ele>2.8000000000000003</ele><time>2026-04-12T15:11:09.17Z</time></trkpt><trkpt lat="43.4085406" lon="3.7047376"><ele>3.2</ele><time>2026-04-12T15:11:10.17Z</time></trkpt><trkpt lat="43.4084677" lon="3.704685"><ele>3.6</ele><time>2026-04-12T15:11:11.171Z</time></trkpt><trkpt lat="43.4083996" lon="3.7046412"><ele>4.0</ele><time>2026-04-12T15:11:12.17Z</time></trkpt><trkpt lat="43.4083348" lon="3.704602"><ele>3.9999999999999996</ele><time>2026-04-12T15:11:13.171Z</time></trkpt><trkpt lat="43.4082795" lon="3.7045587"><ele>4.0</ele><time>2026-04-12T15:11:14.171Z</time></trkpt><trkpt lat="43.4082219" lon="3.7045171"><ele>4.0</ele><time>2026-04-12T15:11:15.171Z</time></trkpt><trkpt lat="43.4081607" lon="3.7044732"><ele>4.0</ele><time>2026-04-12T15:11:16.17Z</time></trkpt><trkpt lat="43.4080997" lon="3.7044297"><ele>3.9999999999999996</ele><time>2026-04-12T15:11:17.171Z</time></trkpt><trkpt lat="43.4080027" lon="3.7043637"><ele>4.0</ele><time>2026-04-12T15:11:19.171Z</time></trkpt><trkpt lat="43.407904" lon="3.7043004"><ele>4.0</ele><time>2026-04-12T15:11:21.171Z</time></trkpt><trkpt lat="43.4078401" lon="3.7042572"><ele>4.0</ele><time>2026-04-12T15:11:22.17Z</time></trkpt><trkpt lat="43.4077608" lon="3.7042109"><ele>4.0</ele><time>2026-04-12T15:11:23.171Z</time></trkpt><trkpt lat="43.407671" lon="3.7041498"><ele>4.0</ele><time>2026-04-12T15:11:24.17Z</time></trkpt><trkpt lat="43.4075704" lon="3.7040946"><ele>4.0</ele><time>2026-04-12T15:11:25.171Z</time></trkpt><trkpt lat="43.4074723" lon="3.7040315"><ele>4.0</ele><time>2026-04-12T15:11:26.17Z</time></trkpt><trkpt lat="43.4073704" lon="3.7039636"><ele>4.0</ele><time>2026-04-12T15:11:27.17Z</time></trkpt><trkpt lat="43.4072611" lon="3.7038812"><ele>4.0</ele><time>2026-04-12T15:11:28.171Z</time></trkpt><trkpt lat="43.40713" lon="3.7037929"><ele>4.0</ele><time>2026-04-12T15:11:29.17Z</time></trkpt><trkpt lat="43.4070219" lon="3.7037026"><ele>4.0</ele><time>2026-04-12T15:11:30.17Z</time></trkpt><trkpt lat="43.4069132" lon="3.7036274"><ele>4.0</ele><time>2026-04-12T15:11:31.17Z</time></trkpt><trkpt lat="43.4068128" lon="3.7035632"><ele>4.0</ele><time>2026-04-12T15:11:32.171Z</time></trkpt><trkpt lat="43.4067193" lon="3.7034962"><ele>4.0</ele><time>2026-04-12T15:11:33.17Z</time></trkpt><trkpt lat="43.4066243" lon="3.7034279"><ele>4.0</ele><time>2026-04-12T15:11:34.17Z</time></trkpt><trkpt lat="43.4065244" lon="3.7033567"><ele>3.5</ele><time>2026-04-12T15:11:35.171Z</time></trkpt><trkpt lat="43.4064156" lon="3.7032786"><ele>3.0</ele><time>2026-04-12T15:11:36.17Z</time></trkpt><trkpt lat="43.4063096" lon="3.7032062"><ele>2.5</ele><time>2026-04-12T15:11:37.17Z</time></trkpt><trkpt lat="43.4062105" lon="3.7031391"><ele>2.0</ele><time>2026-04-12T15:11:38.171Z</time></trkpt><trkpt lat="43.4061183" lon="3.7030723"><ele>2.0</ele><time>2026-04-12T15:11:39.17Z</time></trkpt><trkpt lat="43.4060337" lon="3.7030089"><ele>2.0</ele><time>2026-04-12T15:11:40.17Z</time></trkpt><trkpt lat="43.4059545" lon="3.7029475"><ele>2.0</ele><time>2026-04-12T15:11:41.171Z</time></trkpt><trkpt lat="43.4058763" lon="3.7028957"><ele>2.0</ele><time>2026-04-12T15:11:42.17Z</time></trkpt><trkpt lat="43.4057973" lon="3.7028388"><ele>2.0</ele><time>2026-04-12T15:11:43.17Z</time></trkpt><trkpt lat="43.4057146" lon="3.7027885"><ele>2.4000000000000004</ele><time>2026-04-12T15:11:44.171Z</time></trkpt><trkpt lat="43.4056309" lon="3.7027298"><ele>2.8000000000000003</ele><time>2026-04-12T15:11:45.17Z</time></trkpt><trkpt lat="43.4055487" lon="3.702677"><ele>3.2</ele><time>2026-04-12T15:11:46.17Z</time></trkpt><trkpt lat="43.4054754" lon="3.7026187"><ele>3.6</ele><time>2026-04-12T15:11:47.17Z</time></trkpt><trkpt lat="43.405393" lon="3.7025642"><ele>4.0</ele><time>2026-04-12T15:11:48.171Z</time></trkpt><trkpt lat="43.4053113" lon="3.7025138"><ele>3.9999999999999996</ele><time>2026-04-12T15:11:49.17Z</time></trkpt><trkpt lat="43.4052428" lon="3.7024709"><ele>4.0</ele><time>2026-04-12T15:11:50.17Z</time></trkpt><trkpt lat="43.4051771" lon="3.7024217"><ele>4.0</ele><time>2026-04-12T15:11:51.171Z</time></trkpt><trkpt lat="43.4051154" lon="3.7023756"><ele>4.0</ele><time>2026-04-12T15:11:52.171Z</time></trkpt><trkpt lat="43.4050594" lon="3.7023249"><ele>3.9999999999999996</ele><time>2026-04-12T15:11:53.17Z</time></trkpt><trkpt lat="43.4049758" lon="3.7022346"><ele>4.0</ele><time>2026-04-12T15:11:55.17Z</time></trkpt><trkpt lat="43.4049014" lon="3.7020705"><ele>3.9999999999999996</ele><time>2026-04-12T15:11:57.17Z</time></trkpt><trkpt lat="43.4048751" lon="3.7019691"><ele>4.0</ele><time>2026-04-12T15:11:58.171Z</time></trkpt><trkpt lat="43.4048525" lon="3.7018597"><ele>4.0</ele><time>2026-04-12T15:11:59.17Z</time></trkpt><trkpt lat="43.4048333" lon="3.7017471"><ele>4.0</ele><time>2026-04-12T15:12:00.17Z</time></trkpt><trkpt lat="43.4048223" lon="3.7016609"><ele>3.9999999999999996</ele><time>2026-04-12T15:12:01.17Z</time></trkpt><trkpt lat="43.404812" lon="3.7015375"><ele>4.0</ele><time>2026-04-12T15:12:03.171Z</time></trkpt><trkpt lat="43.404802" lon="3.7014199"><ele>3.4999999999999996</ele><time>2026-04-12T15:12:06.171Z</time></trkpt><trkpt lat="43.404784" lon="3.7012956"><ele>3.0</ele><time>2026-04-12T15:12:09.171Z</time></trkpt><trkpt lat="43.4047758" lon="3.7012067"><ele>2.5</ele><time>2026-04-12T15:12:11.17Z</time></trkpt><trkpt lat="43.404773" lon="3.7011024"><ele>2.0</ele><time>2026-04-12T15:12:13.171Z</time></trkpt><trkpt lat="43.4047628" lon="3.7009931"><ele>1.5</ele><time>2026-04-12T15:12:15.17Z</time></trkpt><trkpt lat="43.4047375" lon="3.7008817"><ele>1.0</ele><time>2026-04-12T15:12:17.171Z</time></trkpt><trkpt lat="43.4047123" lon="3.7007187"><ele>1.8571428571428572</ele><time>2026-04-12T15:12:19.171Z</time></trkpt><trkpt lat="43.4047038" lon="3.700625"><ele>2.7142857142857144</ele><time>2026-04-12T15:12:20.171Z</time></trkpt><trkpt lat="43.4046973" lon="3.7005311"><ele>3.571428571428571</ele><time>2026-04-12T15:12:21.171Z</time></trkpt><trkpt lat="43.4046888" lon="3.7004224"><ele>4.428571428571429</ele><time>2026-04-12T15:12:22.171Z</time></trkpt><trkpt lat="43.4046815" lon="3.7003104"><ele>5.285714285714286</ele><time>2026-04-12T15:12:23.171Z</time></trkpt><trkpt lat="43.4046728" lon="3.7002094"><ele>6.142857142857143</ele><time>2026-04-12T15:12:24.17Z</time></trkpt><trkpt lat="43.4046661" lon="3.7001081"><ele>7.0</ele><time>2026-04-12T15:12:25.17Z</time></trkpt><trkpt lat="43.4046616" lon="3.7000125"><ele>7.166666666666667</ele><time>2026-04-12T15:12:26.17Z</time></trkpt><trkpt lat="43.4046551" lon="3.6999133"><ele>7.333333333333334</ele><time>2026-04-12T15:12:27.17Z</time></trkpt><trkpt lat="43.4046442" lon="3.6998132"><ele>7.5</ele><time>2026-04-12T15:12:28.171Z</time></trkpt><trkpt lat="43.4046323" lon="3.6997027"><ele>7.666666666666666</ele><time>2026-04-12T15:12:29.171Z</time></trkpt><trkpt lat="43.4046126" lon="3.6995859"><ele>7.833333333333333</ele><time>2026-04-12T15:12:30.17Z</time></trkpt><trkpt lat="43.404599" lon="3.6994635"><ele>8.0</ele><time>2026-04-12T15:12:31.17Z</time></trkpt><trkpt lat="43.4045912" lon="3.6993506"><ele>7.999999999999999</ele><time>2026-04-12T15:12:32.17Z</time></trkpt><trkpt lat="43.4045797" lon="3.69924"><ele>8.0</ele><time>2026-04-12T15:12:33.171Z</time></trkpt><trkpt lat="43.4045601" lon="3.6991403"><ele>8.0</ele><time>2026-04-12T15:12:34.17Z</time></trkpt><trkpt lat="43.4045452" lon="3.6990372"><ele>8.0</ele><time>2026-04-12T15:12:35.171Z</time></trkpt><trkpt lat="43.4045278" lon="3.6989441"><ele>7.999999999999999</ele><time>2026-04-12T15:12:36.17Z</time></trkpt><trkpt lat="43.4045157" lon="3.6988377"><ele>8.0</ele><time>2026-04-12T15:12:37.17Z</time></trkpt><trkpt lat="43.4044953" lon="3.6987186"><ele>7.999999999999999</ele><time>2026-04-12T15:12:38.171Z</time></trkpt><trkpt lat="43.4044726" lon="3.698625"><ele>8.0</ele><time>2026-04-12T15:12:39.17Z</time></trkpt><trkpt lat="43.4044632" lon="3.6985196"><ele>8.0</ele><time>2026-04-12T15:12:40.171Z</time></trkpt><trkpt lat="43.4044551" lon="3.6984157"><ele>8.0</ele><time>2026-04-12T15:12:41.17Z</time></trkpt><trkpt lat="43.404437" lon="3.6983152"><ele>7.999999999999999</ele><time>2026-04-12T15:12:42.17Z</time></trkpt><trkpt lat="43.4044316" lon="3.6981968"><ele>8.0</ele><time>2026-04-12T15:12:43.17Z</time></trkpt><trkpt lat="43.4044248" lon="3.6980702"><ele>7.833333333333333</ele><time>2026-04-12T15:12:44.171Z</time></trkpt><trkpt lat="43.4044118" lon="3.6979539"><ele>7.666666666666666</ele><time>2026-04-12T15:12:45.171Z</time></trkpt><trkpt lat="43.4044007" lon="3.6978297"><ele>7.5</ele><time>2026-04-12T15:12:46.17Z</time></trkpt><trkpt lat="43.4043818" lon="3.697724"><ele>7.333333333333334</ele><time>2026-04-12T15:12:47.171Z</time></trkpt><trkpt lat="43.4043692" lon="3.6976354"><ele>7.166666666666667</ele><time>2026-04-12T15:12:48.171Z</time></trkpt><trkpt lat="43.4043497" lon="3.6974765"><ele>7.0</ele><time>2026-04-12T15:12:50.17Z</time></trkpt><trkpt lat="43.4043172" lon="3.6973302"><ele>6.833333333333334</ele><time>2026-04-12T15:12:52.17Z</time></trkpt><trkpt lat="43.4042809" lon="3.6971707"><ele>6.666666666666667</ele><time>2026-04-12T15:12:54.171Z</time></trkpt><trkpt lat="43.4042697" lon="3.6970755"><ele>6.5</ele><time>2026-04-12T15:12:55.17Z</time></trkpt><trkpt lat="43.404257" lon="3.6969574"><ele>6.333333333333334</ele><time>2026-04-12T15:12:57.17Z</time></trkpt><trkpt lat="43.4042409" lon="3.6968702"><ele>6.166666666666667</ele><time>2026-04-12T15:13:00.17Z</time></trkpt><trkpt lat="43.404199" lon="3.6967848"><ele>6.0</ele><time>2026-04-12T15:13:04.171Z</time></trkpt><trkpt lat="43.4041137" lon="3.6967534"><ele>6.0</ele><time>2026-04-12T15:13:07.17Z</time></trkpt><trkpt lat="43.4040455" lon="3.6967727"><ele>6.0</ele><time>2026-04-12T15:13:14.17Z</time></trkpt><trkpt lat="43.403976" lon="3.6968044"><ele>6.0</ele><time>2026-04-12T15:13:18.171Z</time></trkpt><trkpt lat="43.4039048" lon="3.6968624"><ele>6.0</ele><time>2026-04-12T15:13:29.17Z</time></trkpt><trkpt lat="43.4038171" lon="3.6968657"><ele>6.0</ele><time>2026-04-12T15:13:32.169Z</time></trkpt><trkpt lat="43.4037093" lon="3.6968921"><ele>6.0</ele><time>2026-04-12T15:13:34.169Z</time></trkpt><trkpt lat="43.4035853" lon="3.6969176"><ele>6.166666666666667</ele><time>2026-04-12T15:13:36.169Z</time></trkpt><trkpt lat="43.4034613" lon="3.6969215"><ele>6.333333333333334</ele><time>2026-04-12T15:13:38.17Z</time></trkpt><trkpt lat="43.4033926" lon="3.6969262"><ele>6.5</ele><time>2026-04-12T15:13:39.17Z</time></trkpt><trkpt lat="43.4033249" lon="3.6969379"><ele>6.666666666666667</ele><time>2026-04-12T15:13:40.169Z</time></trkpt><trkpt lat="43.4032599" lon="3.6969464"><ele>6.833333333333334</ele><time>2026-04-12T15:13:41.17Z</time></trkpt><trkpt lat="43.4031933" lon="3.6969595"><ele>7.0</ele><time>2026-04-12T15:13:42.17Z</time></trkpt><trkpt lat="43.4031275" lon="3.6969726"><ele>7.0</ele><time>2026-04-12T15:13:43.169Z</time></trkpt><trkpt lat="43.4030629" lon="3.6969845"><ele>6.999999999999999</ele><time>2026-04-12T15:13:44.169Z</time></trkpt><trkpt lat="43.402949" lon="3.6970122"><ele>6.999999999999999</ele><time>2026-04-12T15:13:46.169Z</time></trkpt><trkpt lat="43.4028498" lon="3.6970401"><ele>7.0</ele><time>2026-04-12T15:13:48.169Z</time></trkpt><trkpt lat="43.4027378" lon="3.6970614"><ele>7.0</ele><time>2026-04-12T15:13:50.169Z</time></trkpt><trkpt lat="43.4026742" lon="3.6970757"><ele>6.833333333333334</ele><time>2026-04-12T15:13:51.17Z</time></trkpt><trkpt lat="43.4026078" lon="3.6970874"><ele>6.666666666666667</ele><time>2026-04-12T15:13:52.17Z</time></trkpt><trkpt lat="43.4025386" lon="3.6971039"><ele>6.5</ele><time>2026-04-12T15:13:53.169Z</time></trkpt><trkpt lat="43.4024748" lon="3.6971204"><ele>6.333333333333334</ele><time>2026-04-12T15:13:54.169Z</time></trkpt><trkpt lat="43.4023561" lon="3.6971345"><ele>6.166666666666667</ele><time>2026-04-12T15:13:56.169Z</time></trkpt><trkpt lat="43.4022464" lon="3.6971493"><ele>6.0</ele><time>2026-04-12T15:13:58.169Z</time></trkpt><trkpt lat="43.4021552" lon="3.6971546"><ele>5.428571428571428</ele><time>2026-04-12T15:14:00.17Z</time></trkpt><trkpt lat="43.4020822" lon="3.6971395"><ele>4.857142857142857</ele><time>2026-04-12T15:14:02.169Z</time></trkpt><trkpt lat="43.4020118" lon="3.6971278"><ele>4.285714285714286</ele><time>2026-04-12T15:14:07.17Z</time></trkpt><trkpt lat="43.4019345" lon="3.6971226"><ele>3.714285714285714</ele><time>2026-04-12T15:14:11.169Z</time></trkpt><trkpt lat="43.4018671" lon="3.6971189"><ele>3.1428571428571423</ele><time>2026-04-12T15:14:13.169Z</time></trkpt><trkpt lat="43.4017964" lon="3.6971141"><ele>2.571428571428571</ele><time>2026-04-12T15:14:17.17Z</time></trkpt><trkpt lat="43.4017297" lon="3.697097"><ele>2.0</ele><time>2026-04-12T15:14:48.169Z</time></trkpt><trkpt lat="43.4017054" lon="3.6969912"><ele>3.333333333333333</ele><time>2026-04-12T15:14:53.169Z</time></trkpt><trkpt lat="43.4017043" lon="3.696839"><ele>4.666666666666667</ele><time>2026-04-12T15:14:55.17Z</time></trkpt><trkpt lat="43.4017019" lon="3.696735"><ele>6.0</ele><time>2026-04-12T15:14:57.169Z</time></trkpt><trkpt lat="43.4016702" lon="3.6966488"><ele>7.333333333333334</ele><time>2026-04-12T15:15:05.17Z</time></trkpt><trkpt lat="43.4015796" lon="3.6966282"><ele>8.666666666666668</ele><time>2026-04-12T15:15:07.169Z</time></trkpt><trkpt lat="43.4014947" lon="3.6966183"><ele>10.0</ele><time>2026-04-12T15:15:09.169Z</time></trkpt><trkpt lat="43.4014264" lon="3.6966095"><ele>10.0</ele><time>2026-04-12T15:15:11.169Z</time></trkpt><trkpt lat="43.401346" lon="3.6965749"><ele>10.0</ele><time>2026-04-12T15:15:14.17Z</time></trkpt><trkpt lat="43.4012402" lon="3.6965423"><ele>10.0</ele><time>2026-04-12T15:15:18.169Z</time></trkpt><trkpt lat="43.4011725" lon="3.6965264"><ele>10.0</ele><time>2026-04-12T15:15:20.17Z</time></trkpt><trkpt lat="43.4011057" lon="3.6965111"><ele>10.0</ele><time>2026-04-12T15:15:22.169Z</time></trkpt><trkpt lat="43.4010274" lon="3.6964856"><ele>10.0</ele><time>2026-04-12T15:15:26.169Z</time></trkpt><trkpt lat="43.4009603" lon="3.6964607"><ele>9.666666666666668</ele><time>2026-04-12T15:15:28.169Z</time></trkpt><trkpt lat="43.4008431" lon="3.6964308"><ele>9.333333333333334</ele><time>2026-04-12T15:15:30.169Z</time></trkpt><trkpt lat="43.4007825" lon="3.6964071"><ele>9.0</ele><time>2026-04-12T15:15:31.17Z</time></trkpt><trkpt lat="43.4006825" lon="3.6963709"><ele>8.666666666666666</ele><time>2026-04-12T15:15:33.169Z</time></trkpt><trkpt lat="43.4006081" lon="3.6963463"><ele>8.333333333333332</ele><time>2026-04-12T15:15:35.169Z</time></trkpt><trkpt lat="43.4005474" lon="3.6963208"><ele>8.0</ele><time>2026-04-12T15:15:37.169Z</time></trkpt><trkpt lat="43.4004418" lon="3.6962775"><ele>7.666666666666666</ele><time>2026-04-12T15:15:39.169Z</time></trkpt><trkpt lat="43.4003657" lon="3.6962465"><ele>7.333333333333333</ele><time>2026-04-12T15:15:40.17Z</time></trkpt><trkpt lat="43.4002946" lon="3.6962208"><ele>7.0</ele><time>2026-04-12T15:15:41.169Z</time></trkpt><trkpt lat="43.40018" lon="3.6961989"><ele>6.666666666666666</ele><time>2026-04-12T15:15:43.17Z</time></trkpt><trkpt lat="43.4001181" lon="3.6961816"><ele>6.333333333333333</ele><time>2026-04-12T15:15:44.169Z</time></trkpt><trkpt lat="43.4000528" lon="3.6961701"><ele>6.0</ele><time>2026-04-12T15:15:45.169Z</time></trkpt><trkpt lat="43.3999466" lon="3.6961363"><ele>6.0</ele><time>2026-04-12T15:15:47.169Z</time></trkpt><trkpt lat="43.3998576" lon="3.6961147"><ele>6.0</ele><time>2026-04-12T15:15:49.17Z</time></trkpt><trkpt lat="43.3997817" lon="3.6961155"><ele>6.0</ele><time>2026-04-12T15:15:51.17Z</time></trkpt><trkpt lat="43.3996954" lon="3.6960995"><ele>6.0</ele><time>2026-04-12T15:15:53.169Z</time></trkpt><trkpt lat="43.3995939" lon="3.6960843"><ele>6.0</ele><time>2026-04-12T15:15:55.17Z</time></trkpt><trkpt lat="43.3995012" lon="3.69608"><ele>6.0</ele><time>2026-04-12T15:15:57.17Z</time></trkpt><trkpt lat="43.3994324" lon="3.696083"><ele>5.6</ele><time>2026-04-12T15:15:59.169Z</time></trkpt><trkpt lat="43.3993368" lon="3.6960737"><ele>5.199999999999999</ele><time>2026-04-12T15:16:07.169Z</time></trkpt><trkpt lat="43.3992476" lon="3.6960882"><ele>4.800000000000001</ele><time>2026-04-12T15:16:09.169Z</time></trkpt><trkpt lat="43.3991702" lon="3.6961095"><ele>4.4</ele><time>2026-04-12T15:16:11.169Z</time></trkpt><trkpt lat="43.3990558" lon="3.6961285"><ele>4.0</ele><time>2026-04-12T15:16:13.17Z</time></trkpt><trkpt lat="43.3989845" lon="3.6961319"><ele>4.0</ele><time>2026-04-12T15:16:14.169Z</time></trkpt><trkpt lat="43.3988765" lon="3.6961286"><ele>4.0</ele><time>2026-04-12T15:16:16.17Z</time></trkpt><trkpt lat="43.3987663" lon="3.6961652"><ele>4.0</ele><time>2026-04-12T15:16:18.17Z</time></trkpt><trkpt lat="43.398647" lon="3.6961927"><ele>4.0</ele><time>2026-04-12T15:16:20.17Z</time></trkpt><trkpt lat="43.3985438" lon="3.6962244"><ele>4.0</ele><time>2026-04-12T15:16:22.169Z</time></trkpt><trkpt lat="43.3984709" lon="3.6962371"><ele>4.166666666666666</ele><time>2026-04-12T15:16:24.17Z</time></trkpt><trkpt lat="43.3983955" lon="3.6962404"><ele>4.333333333333333</ele><time>2026-04-12T15:16:38.169Z</time></trkpt><trkpt lat="43.398298" lon="3.6962457"><ele>4.5</ele><time>2026-04-12T15:16:40.169Z</time></trkpt><trkpt lat="43.398231" lon="3.6962415"><ele>4.666666666666667</ele><time>2026-04-12T15:16:41.169Z</time></trkpt><trkpt lat="43.3981645" lon="3.6962385"><ele>4.833333333333334</ele><time>2026-04-12T15:16:42.169Z</time></trkpt><trkpt lat="43.3980921" lon="3.6962403"><ele>5.0</ele><time>2026-04-12T15:16:43.169Z</time></trkpt><trkpt lat="43.3980096" lon="3.6962274"><ele>4.571428571428571</ele><time>2026-04-12T15:16:44.17Z</time></trkpt><trkpt lat="43.39794" lon="3.6962314"><ele>4.142857142857143</ele><time>2026-04-12T15:16:45.169Z</time></trkpt><trkpt lat="43.3978717" lon="3.6962206"><ele>3.7142857142857144</ele><time>2026-04-12T15:16:46.169Z</time></trkpt><trkpt lat="43.3978054" lon="3.6961948"><ele>3.2857142857142856</ele><time>2026-04-12T15:16:47.169Z</time></trkpt><trkpt lat="43.3977324" lon="3.6961742"><ele>2.8571428571428568</ele><time>2026-04-12T15:16:48.169Z</time></trkpt><trkpt lat="43.3976571" lon="3.6961545"><ele>2.4285714285714284</ele><time>2026-04-12T15:16:49.169Z</time></trkpt><trkpt lat="43.3975918" lon="3.6961258"><ele>2.0</ele><time>2026-04-12T15:16:50.17Z</time></trkpt><trkpt lat="43.3975296" lon="3.6961028"><ele>2.5</ele><time>2026-04-12T15:16:51.169Z</time></trkpt><trkpt lat="43.3974703" lon="3.6960702"><ele>3.0</ele><time>2026-04-12T15:16:52.169Z</time></trkpt><trkpt lat="43.3974089" lon="3.6960438"><ele>3.5</ele><time>2026-04-12T15:16:53.169Z</time></trkpt><trkpt lat="43.3972867" lon="3.6959961"><ele>4.0</ele><time>2026-04-12T15:16:55.169Z</time></trkpt><trkpt lat="43.3972165" lon="3.695961"><ele>4.5</ele><time>2026-04-12T15:16:56.169Z</time></trkpt><trkpt lat="43.3971475" lon="3.6959317"><ele>5.0</ele><time>2026-04-12T15:16:57.17Z</time></trkpt><trkpt lat="43.3970569" lon="3.6958887"><ele>5.0</ele><time>2026-04-12T15:16:58.169Z</time></trkpt><trkpt lat="43.3969647" lon="3.6958478"><ele>5.0</ele><time>2026-04-12T15:16:59.17Z</time></trkpt><trkpt lat="43.3968789" lon="3.6958127"><ele>5.0</ele><time>2026-04-12T15:17:00.17Z</time></trkpt><trkpt lat="43.3968005" lon="3.6957777"><ele>5.0</ele><time>2026-04-12T15:17:01.169Z</time></trkpt><trkpt lat="43.3967272" lon="3.6957486"><ele>5.0</ele><time>2026-04-12T15:17:02.17Z</time></trkpt><trkpt lat="43.3966507" lon="3.6957151"><ele>5.0</ele><time>2026-04-12T15:17:03.17Z</time></trkpt><trkpt lat="43.39657" lon="3.6956762"><ele>5.0</ele><time>2026-04-12T15:17:04.169Z</time></trkpt><trkpt lat="43.3964863" lon="3.695648"><ele>5.0</ele><time>2026-04-12T15:17:05.169Z</time></trkpt><trkpt lat="43.3964173" lon="3.6956228"><ele>5.0</ele><time>2026-04-12T15:17:06.169Z</time></trkpt><trkpt lat="43.3963221" lon="3.6955667"><ele>5.0</ele><time>2026-04-12T15:17:08.169Z</time></trkpt><trkpt lat="43.3962238" lon="3.6955123"><ele>5.0</ele><time>2026-04-12T15:17:10.17Z</time></trkpt><trkpt lat="43.396133" lon="3.6954317"><ele>5.75</ele><time>2026-04-12T15:17:12.169Z</time></trkpt><trkpt lat="43.3960305" lon="3.6953453"><ele>6.5</ele><time>2026-04-12T15:17:14.17Z</time></trkpt><trkpt lat="43.3959325" lon="3.6952435"><ele>7.25</ele><time>2026-04-12T15:17:16.169Z</time></trkpt><trkpt lat="43.395832" lon="3.6951355"><ele>8.0</ele><time>2026-04-12T15:17:18.169Z</time></trkpt><trkpt lat="43.3957311" lon="3.695052"><ele>7.999999999999999</ele><time>2026-04-12T15:17:20.169Z</time></trkpt><trkpt lat="43.3956733" lon="3.6950155"><ele>8.0</ele><time>2026-04-12T15:17:21.169Z</time></trkpt><trkpt lat="43.395567" lon="3.6949622"><ele>8.0</ele><time>2026-04-12T15:17:23.169Z</time></trkpt><trkpt lat="43.3954688" lon="3.694926"><ele>8.0</ele><time>2026-04-12T15:17:25.169Z</time></trkpt><trkpt lat="43.3953993" lon="3.6948944"><ele>7.999999999999999</ele><time>2026-04-12T15:17:28.169Z</time></trkpt><trkpt lat="43.3953234" lon="3.6948681"><ele>8.0</ele><time>2026-04-12T15:17:34.17Z</time></trkpt><trkpt lat="43.3952575" lon="3.6948158"><ele>7.999999999999999</ele><time>2026-04-12T15:17:36.17Z</time></trkpt><trkpt lat="43.3951754" lon="3.694764"><ele>8.0</ele><time>2026-04-12T15:17:38.17Z</time></trkpt><trkpt lat="43.3950707" lon="3.6947167"><ele>8.0</ele><time>2026-04-12T15:17:40.169Z</time></trkpt><trkpt lat="43.3950129" lon="3.6946684"><ele>8.0</ele><time>2026-04-12T15:17:41.169Z</time></trkpt><trkpt lat="43.3949634" lon="3.6946015"><ele>7.999999999999999</ele><time>2026-04-12T15:17:42.169Z</time></trkpt><trkpt lat="43.3949183" lon="3.6945056"><ele>8.0</ele><time>2026-04-12T15:17:43.169Z</time></trkpt><trkpt lat="43.3948769" lon="3.6943868"><ele>8.0</ele><time>2026-04-12T15:17:44.169Z</time></trkpt><trkpt lat="43.3948303" lon="3.6942439"><ele>8.0</ele><time>2026-04-12T15:17:45.169Z</time></trkpt><trkpt lat="43.3947806" lon="3.6940833"><ele>8.0</ele><time>2026-04-12T15:17:46.169Z</time></trkpt><trkpt lat="43.3947322" lon="3.6939202"><ele>8.0</ele><time>2026-04-12T15:17:47.169Z</time></trkpt><trkpt lat="43.3946765" lon="3.6937489"><ele>7.5</ele><time>2026-04-12T15:17:48.17Z</time></trkpt><trkpt lat="43.3946204" lon="3.6935809"><ele>7.0</ele><time>2026-04-12T15:17:49.169Z</time></trkpt><trkpt lat="43.3945647" lon="3.6934113"><ele>6.5</ele><time>2026-04-12T15:17:50.169Z</time></trkpt><trkpt lat="43.3945056" lon="3.6932336"><ele>6.0</ele><time>2026-04-12T15:17:51.17Z</time></trkpt><trkpt lat="43.3944439" lon="3.69306"><ele>6.0</ele><time>2026-04-12T15:17:52.169Z</time></trkpt><trkpt lat="43.3943887" lon="3.6928867"><ele>6.0</ele><time>2026-04-12T15:17:53.169Z</time></trkpt><trkpt lat="43.394322" lon="3.6927345"><ele>6.0</ele><time>2026-04-12T15:17:54.169Z</time></trkpt><trkpt lat="43.3942493" lon="3.6926075"><ele>6.0</ele><time>2026-04-12T15:17:55.169Z</time></trkpt><trkpt lat="43.3941597" lon="3.6924976"><ele>6.25</ele><time>2026-04-12T15:17:56.169Z</time></trkpt><trkpt lat="43.3940585" lon="3.6924077"><ele>6.5</ele><time>2026-04-12T15:17:57.169Z</time></trkpt><trkpt lat="43.3939318" lon="3.6923397"><ele>6.75</ele><time>2026-04-12T15:17:58.169Z</time></trkpt><trkpt lat="43.3937895" lon="3.692286"><ele>7.0</ele><time>2026-04-12T15:17:59.17Z</time></trkpt><trkpt lat="43.3936461" lon="3.6922168"><ele>7.0</ele><time>2026-04-12T15:18:00.169Z</time></trkpt><trkpt lat="43.3935114" lon="3.69213"><ele>7.0</ele><time>2026-04-12T15:18:01.17Z</time></trkpt><trkpt lat="43.3933862" lon="3.6920405"><ele>7.0</ele><time>2026-04-12T15:18:02.17Z</time></trkpt><trkpt lat="43.3932763" lon="3.6919258"><ele>7.0</ele><time>2026-04-12T15:18:03.169Z</time></trkpt><trkpt lat="43.3931745" lon="3.6918203"><ele>6.75</ele><time>2026-04-12T15:18:04.17Z</time></trkpt><trkpt lat="43.3930784" lon="3.6917015"><ele>6.5</ele><time>2026-04-12T15:18:05.169Z</time></trkpt><trkpt lat="43.3929968" lon="3.6915693"><ele>6.25</ele><time>2026-04-12T15:18:06.17Z</time></trkpt><trkpt lat="43.3929055" lon="3.6914468"><ele>6.0</ele><time>2026-04-12T15:18:07.17Z</time></trkpt><trkpt lat="43.3928227" lon="3.6913039"><ele>6.0</ele><time>2026-04-12T15:18:08.169Z</time></trkpt><trkpt lat="43.3927456" lon="3.6911521"><ele>6.0</ele><time>2026-04-12T15:18:09.17Z</time></trkpt><trkpt lat="43.3926756" lon="3.6909835"><ele>6.0</ele><time>2026-04-12T15:18:10.169Z</time></trkpt><trkpt lat="43.3926153" lon="3.6908141"><ele>6.0</ele><time>2026-04-12T15:18:11.169Z</time></trkpt><trkpt lat="43.3925633" lon="3.6906447"><ele>7.25</ele><time>2026-04-12T15:18:12.17Z</time></trkpt><trkpt lat="43.3925252" lon="3.690478"><ele>8.5</ele><time>2026-04-12T15:18:13.169Z</time></trkpt><trkpt lat="43.392501" lon="3.6903189"><ele>9.75</ele><time>2026-04-12T15:18:14.169Z</time></trkpt><trkpt lat="43.3924864" lon="3.690169"><ele>11.0</ele><time>2026-04-12T15:18:15.17Z</time></trkpt><trkpt lat="43.392479" lon="3.6900158"><ele>11.0</ele><time>2026-04-12T15:18:16.17Z</time></trkpt><trkpt lat="43.3924794" lon="3.68985"><ele>11.0</ele><time>2026-04-12T15:18:17.169Z</time></trkpt><trkpt lat="43.3924875" lon="3.689685"><ele>11.0</ele><time>2026-04-12T15:18:18.169Z</time></trkpt><trkpt lat="43.3924974" lon="3.6895165"><ele>11.0</ele><time>2026-04-12T15:18:19.169Z</time></trkpt><trkpt lat="43.3925069" lon="3.6893477"><ele>11.0</ele><time>2026-04-12T15:18:20.17Z</time></trkpt><trkpt lat="43.3925171" lon="3.6891871"><ele>11.0</ele><time>2026-04-12T15:18:21.169Z</time></trkpt><trkpt lat="43.392526" lon="3.6890387"><ele>11.0</ele><time>2026-04-12T15:18:22.169Z</time></trkpt><trkpt lat="43.3925289" lon="3.6888956"><ele>11.0</ele><time>2026-04-12T15:18:23.17Z</time></trkpt><trkpt lat="43.3925387" lon="3.688762"><ele>11.0</ele><time>2026-04-12T15:18:24.17Z</time></trkpt><trkpt lat="43.3925529" lon="3.68861"><ele>10.75</ele><time>2026-04-12T15:18:25.169Z</time></trkpt><trkpt lat="43.3925662" lon="3.6884419"><ele>10.5</ele><time>2026-04-12T15:18:26.169Z</time></trkpt><trkpt lat="43.3925801" lon="3.6882744"><ele>10.25</ele><time>2026-04-12T15:18:27.169Z</time></trkpt><trkpt lat="43.3925941" lon="3.6881072"><ele>10.0</ele><time>2026-04-12T15:18:28.169Z</time></trkpt><trkpt lat="43.3926067" lon="3.6879378"><ele>10.0</ele><time>2026-04-12T15:18:29.17Z</time></trkpt><trkpt lat="43.3926176" lon="3.6877698"><ele>10.0</ele><time>2026-04-12T15:18:30.17Z</time></trkpt><trkpt lat="43.3926269" lon="3.6876067"><ele>10.0</ele><time>2026-04-12T15:18:31.169Z</time></trkpt><trkpt lat="43.3926382" lon="3.6874588"><ele>10.0</ele><time>2026-04-12T15:18:32.169Z</time></trkpt><trkpt lat="43.3926451" lon="3.6873179"><ele>9.6</ele><time>2026-04-12T15:18:33.17Z</time></trkpt><trkpt lat="43.3926548" lon="3.6871736"><ele>9.2</ele><time>2026-04-12T15:18:34.169Z</time></trkpt><trkpt lat="43.3926647" lon="3.6870228"><ele>8.8</ele><time>2026-04-12T15:18:35.169Z</time></trkpt><trkpt lat="43.3926734" lon="3.68687"><ele>8.4</ele><time>2026-04-12T15:18:36.169Z</time></trkpt><trkpt lat="43.392682" lon="3.6867193"><ele>8.0</ele><time>2026-04-12T15:18:37.17Z</time></trkpt><trkpt lat="43.392693" lon="3.6865606"><ele>8.0</ele><time>2026-04-12T15:18:38.17Z</time></trkpt><trkpt lat="43.3927104" lon="3.6863971"><ele>8.0</ele><time>2026-04-12T15:18:39.169Z</time></trkpt><trkpt lat="43.3927265" lon="3.6862267"><ele>8.0</ele><time>2026-04-12T15:18:40.17Z</time></trkpt><trkpt lat="43.3927513" lon="3.6860545"><ele>8.0</ele><time>2026-04-12T15:18:41.17Z</time></trkpt><trkpt lat="43.3927829" lon="3.6858926"><ele>8.0</ele><time>2026-04-12T15:18:42.169Z</time></trkpt><trkpt lat="43.392816" lon="3.6857434"><ele>8.0</ele><time>2026-04-12T15:18:43.169Z</time></trkpt><trkpt lat="43.3928479" lon="3.6856046"><ele>8.0</ele><time>2026-04-12T15:18:44.169Z</time></trkpt><trkpt lat="43.3928833" lon="3.6854702"><ele>8.0</ele><time>2026-04-12T15:18:45.169Z</time></trkpt><trkpt lat="43.3929191" lon="3.6853317"><ele>8.0</ele><time>2026-04-12T15:18:46.169Z</time></trkpt><trkpt lat="43.3929517" lon="3.6852016"><ele>8.4</ele><time>2026-04-12T15:18:47.169Z</time></trkpt><trkpt lat="43.3929911" lon="3.6850632"><ele>8.8</ele><time>2026-04-12T15:18:48.169Z</time></trkpt><trkpt lat="43.3930358" lon="3.6849322"><ele>9.2</ele><time>2026-04-12T15:18:49.169Z</time></trkpt><trkpt lat="43.3930793" lon="3.6847962"><ele>9.6</ele><time>2026-04-12T15:18:50.17Z</time></trkpt><trkpt lat="43.3931255" lon="3.6846623"><ele>10.0</ele><time>2026-04-12T15:18:51.169Z</time></trkpt><trkpt lat="43.3931729" lon="3.6845412"><ele>10.8</ele><time>2026-04-12T15:18:52.169Z</time></trkpt><trkpt lat="43.3932189" lon="3.684419"><ele>11.6</ele><time>2026-04-12T15:18:53.17Z</time></trkpt><trkpt lat="43.3932691" lon="3.6843008"><ele>12.399999999999999</ele><time>2026-04-12T15:18:54.169Z</time></trkpt><trkpt lat="43.3933232" lon="3.6841797"><ele>13.2</ele><time>2026-04-12T15:18:55.169Z</time></trkpt><trkpt lat="43.3933828" lon="3.6840562"><ele>14.0</ele><time>2026-04-12T15:18:56.17Z</time></trkpt><trkpt lat="43.3934444" lon="3.6839271"><ele>14.0</ele><time>2026-04-12T15:18:57.17Z</time></trkpt><trkpt lat="43.3935065" lon="3.6837988"><ele>13.999999999999998</ele><time>2026-04-12T15:18:58.169Z</time></trkpt><trkpt lat="43.3935642" lon="3.6836685"><ele>13.999999999999998</ele><time>2026-04-12T15:18:59.17Z</time></trkpt><trkpt lat="43.3936194" lon="3.683546"><ele>14.0</ele><time>2026-04-12T15:19:00.17Z</time></trkpt><trkpt lat="43.3936787" lon="3.6834253"><ele>14.0</ele><time>2026-04-12T15:19:01.169Z</time></trkpt><trkpt lat="43.3937364" lon="3.6833158"><ele>15.2</ele><time>2026-04-12T15:19:02.17Z</time></trkpt><trkpt lat="43.3937857" lon="3.6832128"><ele>16.4</ele><time>2026-04-12T15:19:03.169Z</time></trkpt><trkpt lat="43.3938251" lon="3.6831086"><ele>17.6</ele><time>2026-04-12T15:19:05.17Z</time></trkpt><trkpt lat="43.393852" lon="3.6830047"><ele>18.8</ele><time>2026-04-12T15:19:14.169Z</time></trkpt><trkpt lat="43.393882" lon="3.6828689"><ele>20.0</ele><time>2026-04-12T15:19:16.17Z</time></trkpt><trkpt lat="43.3939032" lon="3.6826874"><ele>20.0</ele><time>2026-04-12T15:19:18.17Z</time></trkpt><trkpt lat="43.3939041" lon="3.6825791"><ele>20.0</ele><time>2026-04-12T15:19:19.169Z</time></trkpt><trkpt lat="43.3939025" lon="3.6824803"><ele>20.0</ele><time>2026-04-12T15:19:20.169Z</time></trkpt><trkpt lat="43.3939034" lon="3.6823847"><ele>20.0</ele><time>2026-04-12T15:19:21.17Z</time></trkpt><trkpt lat="43.3938987" lon="3.6822863"><ele>20.0</ele><time>2026-04-12T15:19:22.169Z</time></trkpt><trkpt lat="43.3938904" lon="3.6821865"><ele>20.0</ele><time>2026-04-12T15:19:23.169Z</time></trkpt><trkpt lat="43.393887" lon="3.6820926"><ele>20.0</ele><time>2026-04-12T15:19:24.17Z</time></trkpt><trkpt lat="43.3938813" lon="3.6819931"><ele>20.8</ele><time>2026-04-12T15:19:25.169Z</time></trkpt><trkpt lat="43.3938741" lon="3.6818992"><ele>21.6</ele><time>2026-04-12T15:19:26.169Z</time></trkpt><trkpt lat="43.3938697" lon="3.6818018"><ele>22.4</ele><time>2026-04-12T15:19:27.17Z</time></trkpt><trkpt lat="43.393865" lon="3.6817092"><ele>23.2</ele><time>2026-04-12T15:19:28.169Z</time></trkpt><trkpt lat="43.393847" lon="3.6815409"><ele>24.0</ele><time>2026-04-12T15:19:30.169Z</time></trkpt><trkpt lat="43.3938341" lon="3.6813672"><ele>20.8</ele><time>2026-04-12T15:19:32.17Z</time></trkpt><trkpt lat="43.3938358" lon="3.681258"><ele>17.599999999999998</ele><time>2026-04-12T15:19:33.17Z</time></trkpt><trkpt lat="43.3938297" lon="3.6811132"><ele>14.4</ele><time>2026-04-12T15:19:34.17Z</time></trkpt><trkpt lat="43.3938232" lon="3.6809541"><ele>11.2</ele><time>2026-04-12T15:19:35.17Z</time></trkpt><trkpt lat="43.3938203" lon="3.6807713"><ele>8.0</ele><time>2026-04-12T15:19:36.169Z</time></trkpt><trkpt lat="43.3938116" lon="3.6805902"><ele>7.833333333333333</ele><time>2026-04-12T15:19:37.169Z</time></trkpt><trkpt lat="43.3938067" lon="3.6804358"><ele>7.666666666666666</ele><time>2026-04-12T15:19:38.169Z</time></trkpt><trkpt lat="43.3938085" lon="3.6803147"><ele>7.5</ele><time>2026-04-12T15:19:39.17Z</time></trkpt><trkpt lat="43.3938155" lon="3.6802029"><ele>7.333333333333334</ele><time>2026-04-12T15:19:40.17Z</time></trkpt><trkpt lat="43.3938241" lon="3.6801021"><ele>7.166666666666667</ele><time>2026-04-12T15:19:41.17Z</time></trkpt><trkpt lat="43.3938405" lon="3.679995"><ele>7.0</ele><time>2026-04-12T15:19:42.169Z</time></trkpt><trkpt lat="43.3938528" lon="3.6798869"><ele>9.5</ele><time>2026-04-12T15:19:43.169Z</time></trkpt><trkpt lat="43.3938666" lon="3.6797823"><ele>12.0</ele><time>2026-04-12T15:19:44.169Z</time></trkpt><trkpt lat="43.3938858" lon="3.6796857"><ele>14.5</ele><time>2026-04-12T15:19:45.17Z</time></trkpt><trkpt lat="43.393905" lon="3.6795934"><ele>17.0</ele><time>2026-04-12T15:19:46.17Z</time></trkpt><trkpt lat="43.3939458" lon="3.6794309"><ele>19.5</ele><time>2026-04-12T15:19:48.169Z</time></trkpt><trkpt lat="43.3939637" lon="3.6793429"><ele>22.0</ele><time>2026-04-12T15:19:49.169Z</time></trkpt><trkpt lat="43.3939908" lon="3.6792505"><ele>22.0</ele><time>2026-04-12T15:19:50.169Z</time></trkpt><trkpt lat="43.3940116" lon="3.6791399"><ele>22.0</ele><time>2026-04-12T15:19:51.169Z</time></trkpt><trkpt lat="43.3940353" lon="3.6790341"><ele>22.0</ele><time>2026-04-12T15:19:52.17Z</time></trkpt><trkpt lat="43.3940568" lon="3.6789362"><ele>22.0</ele><time>2026-04-12T15:19:53.169Z</time></trkpt><trkpt lat="43.3940799" lon="3.6788463"><ele>22.0</ele><time>2026-04-12T15:19:54.17Z</time></trkpt><trkpt lat="43.3941078" lon="3.6787507"><ele>22.0</ele><time>2026-04-12T15:19:55.17Z</time></trkpt><trkpt lat="43.3941313" lon="3.6786363"><ele>21.833333333333332</ele><time>2026-04-12T15:19:56.17Z</time></trkpt><trkpt lat="43.394162" lon="3.678514"><ele>21.666666666666664</ele><time>2026-04-12T15:19:57.17Z</time></trkpt><trkpt lat="43.3941901" lon="3.678408"><ele>21.5</ele><time>2026-04-12T15:19:58.17Z</time></trkpt><trkpt lat="43.394228" lon="3.6783212"><ele>21.333333333333332</ele><time>2026-04-12T15:19:59.17Z</time></trkpt><trkpt lat="43.3942572" lon="3.6782441"><ele>21.166666666666668</ele><time>2026-04-12T15:20:00.169Z</time></trkpt><trkpt lat="43.394285" lon="3.6781628"><ele>21.0</ele><time>2026-04-12T15:20:01.17Z</time></trkpt><trkpt lat="43.3943386" lon="3.6780173"><ele>21.0</ele><time>2026-04-12T15:20:03.17Z</time></trkpt><trkpt lat="43.3943916" lon="3.6778564"><ele>21.0</ele><time>2026-04-12T15:20:05.17Z</time></trkpt><trkpt lat="43.3944197" lon="3.677777"><ele>21.0</ele><time>2026-04-12T15:20:06.17Z</time></trkpt><trkpt lat="43.3944432" lon="3.6776925"><ele>21.0</ele><time>2026-04-12T15:20:07.169Z</time></trkpt><trkpt lat="43.3944721" lon="3.6776112"><ele>21.0</ele><time>2026-04-12T15:20:08.169Z</time></trkpt><trkpt lat="43.3945127" lon="3.677451"><ele>21.0</ele><time>2026-04-12T15:20:10.17Z</time></trkpt><trkpt lat="43.3945357" lon="3.6773332"><ele>21.0</ele><time>2026-04-12T15:20:12.17Z</time></trkpt><trkpt lat="43.3945499" lon="3.6772079"><ele>21.0</ele><time>2026-04-12T15:20:14.169Z</time></trkpt><trkpt lat="43.3945285" lon="3.6771007"><ele>21.0</ele><time>2026-04-12T15:20:16.169Z</time></trkpt><trkpt lat="43.3944492" lon="3.6770219"><ele>21.0</ele><time>2026-04-12T15:20:18.169Z</time></trkpt><trkpt lat="43.3943316" lon="3.6769351"><ele>21.0</ele><time>2026-04-12T15:20:20.17Z</time></trkpt><trkpt lat="43.3942523" lon="3.6768828"><ele>21.166666666666668</ele><time>2026-04-12T15:20:21.169Z</time></trkpt><trkpt lat="43.3941867" lon="3.6768271"><ele>21.333333333333332</ele><time>2026-04-12T15:20:22.169Z</time></trkpt><trkpt lat="43.3941184" lon="3.6767637"><ele>21.5</ele><time>2026-04-12T15:20:23.169Z</time></trkpt><trkpt lat="43.3940502" lon="3.6766886"><ele>21.666666666666664</ele><time>2026-04-12T15:20:24.169Z</time></trkpt><trkpt lat="43.3939808" lon="3.676625"><ele>21.833333333333332</ele><time>2026-04-12T15:20:25.169Z</time></trkpt><trkpt lat="43.393909" lon="3.6765505"><ele>22.0</ele><time>2026-04-12T15:20:26.169Z</time></trkpt><trkpt lat="43.3938346" lon="3.6764679"><ele>22.0</ele><time>2026-04-12T15:20:27.17Z</time></trkpt><trkpt lat="43.3937596" lon="3.6763917"><ele>22.0</ele><time>2026-04-12T15:20:28.17Z</time></trkpt><trkpt lat="43.3936883" lon="3.6763078"><ele>22.0</ele><time>2026-04-12T15:20:29.17Z</time></trkpt><trkpt lat="43.3936203" lon="3.6762192"><ele>22.0</ele><time>2026-04-12T15:20:30.169Z</time></trkpt><trkpt lat="43.3935531" lon="3.67613"><ele>22.0</ele><time>2026-04-12T15:20:31.17Z</time></trkpt><trkpt lat="43.3934745" lon="3.6760299"><ele>21.0</ele><time>2026-04-12T15:20:32.17Z</time></trkpt><trkpt lat="43.39339" lon="3.6759219"><ele>20.0</ele><time>2026-04-12T15:20:33.17Z</time></trkpt><trkpt lat="43.3932975" lon="3.6758028"><ele>19.0</ele><time>2026-04-12T15:20:34.17Z</time></trkpt><trkpt lat="43.3932233" lon="3.6756885"><ele>18.0</ele><time>2026-04-12T15:20:35.17Z</time></trkpt><trkpt lat="43.393149" lon="3.6755767"><ele>18.0</ele><time>2026-04-12T15:20:36.169Z</time></trkpt><trkpt lat="43.3930791" lon="3.6754726"><ele>18.0</ele><time>2026-04-12T15:20:37.17Z</time></trkpt><trkpt lat="43.3930117" lon="3.6753616"><ele>18.0</ele><time>2026-04-12T15:20:38.169Z</time></trkpt><trkpt lat="43.3929522" lon="3.6752521"><ele>18.0</ele><time>2026-04-12T15:20:39.17Z</time></trkpt><trkpt lat="43.3928927" lon="3.6751502"><ele>18.0</ele><time>2026-04-12T15:20:40.169Z</time></trkpt><trkpt lat="43.3928514" lon="3.675054"><ele>17.333333333333332</ele><time>2026-04-12T15:20:41.17Z</time></trkpt><trkpt lat="43.3928095" lon="3.6749589"><ele>16.666666666666668</ele><time>2026-04-12T15:20:42.17Z</time></trkpt><trkpt lat="43.3927696" lon="3.6748634"><ele>16.0</ele><time>2026-04-12T15:20:43.169Z</time></trkpt><trkpt lat="43.3927362" lon="3.6747547"><ele>15.333333333333334</ele><time>2026-04-12T15:20:44.169Z</time></trkpt><trkpt lat="43.3927083" lon="3.6746412"><ele>14.666666666666668</ele><time>2026-04-12T15:20:45.17Z</time></trkpt><trkpt lat="43.392677" lon="3.6745093"><ele>14.0</ele><time>2026-04-12T15:20:46.17Z</time></trkpt><trkpt lat="43.3926625" lon="3.6743718"><ele>13.6</ele><time>2026-04-12T15:20:47.17Z</time></trkpt><trkpt lat="43.3926599" lon="3.6742328"><ele>13.2</ele><time>2026-04-12T15:20:48.17Z</time></trkpt><trkpt lat="43.3926616" lon="3.6740841"><ele>12.799999999999999</ele><time>2026-04-12T15:20:49.17Z</time></trkpt><trkpt lat="43.3926763" lon="3.6739375"><ele>12.399999999999999</ele><time>2026-04-12T15:20:50.17Z</time></trkpt><trkpt lat="43.3926943" lon="3.6738055"><ele>12.0</ele><time>2026-04-12T15:20:51.169Z</time></trkpt><trkpt lat="43.3927293" lon="3.6736733"><ele>12.0</ele><time>2026-04-12T15:20:52.17Z</time></trkpt><trkpt lat="43.3927813" lon="3.6735498"><ele>12.0</ele><time>2026-04-12T15:20:53.169Z</time></trkpt><trkpt lat="43.3928457" lon="3.6734187"><ele>12.0</ele><time>2026-04-12T15:20:54.169Z</time></trkpt><trkpt lat="43.3929175" lon="3.6732798"><ele>12.0</ele><time>2026-04-12T15:20:55.169Z</time></trkpt><trkpt lat="43.3930101" lon="3.6731376"><ele>12.0</ele><time>2026-04-12T15:20:56.169Z</time></trkpt><trkpt lat="43.3931046" lon="3.6729846"><ele>12.0</ele><time>2026-04-12T15:20:57.169Z</time></trkpt><trkpt lat="43.3931966" lon="3.6728263"><ele>12.0</ele><time>2026-04-12T15:20:58.17Z</time></trkpt><trkpt lat="43.393289" lon="3.6726558"><ele>12.0</ele><time>2026-04-12T15:20:59.17Z</time></trkpt><trkpt lat="43.3933843" lon="3.6724797"><ele>11.5</ele><time>2026-04-12T15:21:00.169Z</time></trkpt><trkpt lat="43.3934706" lon="3.6723145"><ele>11.0</ele><time>2026-04-12T15:21:01.17Z</time></trkpt><trkpt lat="43.3935571" lon="3.6721443"><ele>10.5</ele><time>2026-04-12T15:21:02.169Z</time></trkpt><trkpt lat="43.3936424" lon="3.671985"><ele>10.0</ele><time>2026-04-12T15:21:03.169Z</time></trkpt><trkpt lat="43.3937208" lon="3.6718352"><ele>9.75</ele><time>2026-04-12T15:21:04.17Z</time></trkpt><trkpt lat="43.3937902" lon="3.6716786"><ele>9.5</ele><time>2026-04-12T15:21:05.169Z</time></trkpt><trkpt lat="43.3938466" lon="3.6715228"><ele>9.25</ele><time>2026-04-12T15:21:06.169Z</time></trkpt><trkpt lat="43.3938971" lon="3.671358"><ele>9.0</ele><time>2026-04-12T15:21:07.17Z</time></trkpt><trkpt lat="43.3939487" lon="3.6711922"><ele>8.75</ele><time>2026-04-12T15:21:08.169Z</time></trkpt><trkpt lat="43.3939929" lon="3.6710194"><ele>8.5</ele><time>2026-04-12T15:21:09.169Z</time></trkpt><trkpt lat="43.3940418" lon="3.6708426"><ele>8.25</ele><time>2026-04-12T15:21:10.169Z</time></trkpt><trkpt lat="43.3940918" lon="3.6706717"><ele>8.0</ele><time>2026-04-12T15:21:11.169Z</time></trkpt><trkpt lat="43.3941398" lon="3.6705038"><ele>8.0</ele><time>2026-04-12T15:21:12.169Z</time></trkpt><trkpt lat="43.3941835" lon="3.6703424"><ele>8.0</ele><time>2026-04-12T15:21:13.17Z</time></trkpt><trkpt lat="43.3942253" lon="3.6701772"><ele>8.0</ele><time>2026-04-12T15:21:14.17Z</time></trkpt><trkpt lat="43.3942635" lon="3.6700261"><ele>8.0</ele><time>2026-04-12T15:21:15.17Z</time></trkpt><trkpt lat="43.3942926" lon="3.6698983"><ele>7.666666666666666</ele><time>2026-04-12T15:21:16.17Z</time></trkpt><trkpt lat="43.3943139" lon="3.6697843"><ele>7.333333333333333</ele><time>2026-04-12T15:21:17.169Z</time></trkpt><trkpt lat="43.3943217" lon="3.6696847"><ele>7.0</ele><time>2026-04-12T15:21:18.17Z</time></trkpt><trkpt lat="43.3943278" lon="3.6695814"><ele>6.666666666666666</ele><time>2026-04-12T15:21:19.169Z</time></trkpt><trkpt lat="43.3943253" lon="3.6694634"><ele>6.333333333333333</ele><time>2026-04-12T15:21:20.17Z</time></trkpt><trkpt lat="43.3943231" lon="3.6692875"><ele>6.0</ele><time>2026-04-12T15:21:21.169Z</time></trkpt><trkpt lat="43.3943161" lon="3.6690912"><ele>5.75</ele><time>2026-04-12T15:21:22.17Z</time></trkpt><trkpt lat="43.3943053" lon="3.6689233"><ele>5.5</ele><time>2026-04-12T15:21:23.17Z</time></trkpt><trkpt lat="43.3942856" lon="3.6687407"><ele>5.25</ele><time>2026-04-12T15:21:24.169Z</time></trkpt><trkpt lat="43.3942714" lon="3.6685541"><ele>5.0</ele><time>2026-04-12T15:21:25.169Z</time></trkpt><trkpt lat="43.394256" lon="3.6683624"><ele>5.0</ele><time>2026-04-12T15:21:26.17Z</time></trkpt><trkpt lat="43.3942394" lon="3.6681743"><ele>5.0</ele><time>2026-04-12T15:21:27.17Z</time></trkpt><trkpt lat="43.3942206" lon="3.6679835"><ele>5.0</ele><time>2026-04-12T15:21:28.169Z</time></trkpt><trkpt lat="43.3942043" lon="3.6677905"><ele>5.0</ele><time>2026-04-12T15:21:29.17Z</time></trkpt><trkpt lat="43.3941832" lon="3.6676056"><ele>4.75</ele><time>2026-04-12T15:21:30.169Z</time></trkpt><trkpt lat="43.3941621" lon="3.6674208"><ele>4.5</ele><time>2026-04-12T15:21:31.169Z</time></trkpt><trkpt lat="43.3941445" lon="3.6672483"><ele>4.25</ele><time>2026-04-12T15:21:32.169Z</time></trkpt><trkpt lat="43.3941217" lon="3.6670702"><ele>4.0</ele><time>2026-04-12T15:21:33.169Z</time></trkpt><trkpt lat="43.3940972" lon="3.6668831"><ele>3.5</ele><time>2026-04-12T15:21:34.169Z</time></trkpt><trkpt lat="43.3940759" lon="3.6667018"><ele>3.0</ele><time>2026-04-12T15:21:35.169Z</time></trkpt><trkpt lat="43.3940517" lon="3.6665139"><ele>2.5</ele><time>2026-04-12T15:21:36.169Z</time></trkpt><trkpt lat="43.3940281" lon="3.6663286"><ele>2.0</ele><time>2026-04-12T15:21:37.169Z</time></trkpt><trkpt lat="43.394003" lon="3.6661408"><ele>2.75</ele><time>2026-04-12T15:21:38.169Z</time></trkpt><trkpt lat="43.3939823" lon="3.6659601"><ele>3.5</ele><time>2026-04-12T15:21:39.169Z</time></trkpt><trkpt lat="43.3939665" lon="3.6657945"><ele>4.25</ele><time>2026-04-12T15:21:40.169Z</time></trkpt><trkpt lat="43.3939571" lon="3.6656352"><ele>5.0</ele><time>2026-04-12T15:21:41.169Z</time></trkpt><trkpt lat="43.39394" lon="3.6654969"><ele>5.0</ele><time>2026-04-12T15:21:42.169Z</time></trkpt><trkpt lat="43.3939249" lon="3.6653823"><ele>5.0</ele><time>2026-04-12T15:21:43.169Z</time></trkpt><trkpt lat="43.3939205" lon="3.6652743"><ele>5.0</ele><time>2026-04-12T15:21:44.169Z</time></trkpt><trkpt lat="43.3939289" lon="3.6651684"><ele>5.0</ele><time>2026-04-12T15:21:45.17Z</time></trkpt><trkpt lat="43.3939494" lon="3.6650711"><ele>5.0</ele><time>2026-04-12T15:21:46.169Z</time></trkpt><trkpt lat="43.3940563" lon="3.6649361"><ele>5.0</ele><time>2026-04-12T15:21:48.169Z</time></trkpt><trkpt lat="43.3941386" lon="3.6648732"><ele>5.0</ele><time>2026-04-12T15:21:49.169Z</time></trkpt><trkpt lat="43.3942288" lon="3.6648044"><ele>5.0</ele><time>2026-04-12T15:21:50.17Z</time></trkpt><trkpt lat="43.394323" lon="3.6647342"><ele>5.0</ele><time>2026-04-12T15:21:51.17Z</time></trkpt><trkpt lat="43.3944144" lon="3.6646547"><ele>5.0</ele><time>2026-04-12T15:21:52.169Z</time></trkpt><trkpt lat="43.3945052" lon="3.6645824"><ele>5.0</ele><time>2026-04-12T15:21:53.17Z</time></trkpt><trkpt lat="43.3946011" lon="3.6644956"><ele>5.0</ele><time>2026-04-12T15:21:54.17Z</time></trkpt><trkpt lat="43.3946917" lon="3.6644017"><ele>5.0</ele><time>2026-04-12T15:21:55.169Z</time></trkpt><trkpt lat="43.3947775" lon="3.6643193"><ele>5.0</ele><time>2026-04-12T15:21:56.17Z</time></trkpt><trkpt lat="43.3948663" lon="3.6642329"><ele>5.0</ele><time>2026-04-12T15:21:57.169Z</time></trkpt><trkpt lat="43.3949459" lon="3.6641736"><ele>5.0</ele><time>2026-04-12T15:21:58.169Z</time></trkpt><trkpt lat="43.3950179" lon="3.6641046"><ele>5.0</ele><time>2026-04-12T15:21:59.169Z</time></trkpt><trkpt lat="43.3950896" lon="3.6640425"><ele>5.0</ele><time>2026-04-12T15:22:00.169Z</time></trkpt><trkpt lat="43.3951686" lon="3.6639718"><ele>5.0</ele><time>2026-04-12T15:22:01.169Z</time></trkpt><trkpt lat="43.3952596" lon="3.6638911"><ele>5.0</ele><time>2026-04-12T15:22:02.169Z</time></trkpt><trkpt lat="43.3953527" lon="3.6638021"><ele>5.0</ele><time>2026-04-12T15:22:03.169Z</time></trkpt><trkpt lat="43.3954538" lon="3.6637046"><ele>5.0</ele><time>2026-04-12T15:22:04.169Z</time></trkpt><trkpt lat="43.3955643" lon="3.663602"><ele>5.0</ele><time>2026-04-12T15:22:05.169Z</time></trkpt><trkpt lat="43.3956754" lon="3.6634943"><ele>5.0</ele><time>2026-04-12T15:22:06.17Z</time></trkpt><trkpt lat="43.3957921" lon="3.6633737"><ele>4.75</ele><time>2026-04-12T15:22:07.169Z</time></trkpt><trkpt lat="43.3959087" lon="3.6632533"><ele>4.5</ele><time>2026-04-12T15:22:08.17Z</time></trkpt><trkpt lat="43.3960259" lon="3.6631545"><ele>4.25</ele><time>2026-04-12T15:22:09.17Z</time></trkpt><trkpt lat="43.3961259" lon="3.6630649"><ele>4.0</ele><time>2026-04-12T15:22:10.17Z</time></trkpt><trkpt lat="43.3962167" lon="3.6629836"><ele>4.0</ele><time>2026-04-12T15:22:11.169Z</time></trkpt><trkpt lat="43.3962907" lon="3.6629142"><ele>4.0</ele><time>2026-04-12T15:22:12.17Z</time></trkpt><trkpt lat="43.3963462" lon="3.6628714"><ele>4.0</ele><time>2026-04-12T15:22:13.17Z</time></trkpt><trkpt lat="43.3964171" lon="3.6627676"><ele>4.0</ele><time>2026-04-12T15:22:15.169Z</time></trkpt><trkpt lat="43.396424" lon="3.6626463"><ele>4.0</ele><time>2026-04-12T15:22:17.169Z</time></trkpt><trkpt lat="43.3963761" lon="3.6625466"><ele>4.0</ele><time>2026-04-12T15:22:19.169Z</time></trkpt></trkseg></trk></gpx>